<?xml version="1.0" encoding="UTF-8" standalone="no" ?>
<gpx xmlns="http://www.topografix.com/GPX/1/1" xmlns:xsi="http://www.w3.org/2001/XMLSchema-instance" xsi:schemaLocation="http://www.topografix.com/GPX/1/1 http://www.topografix.com/GPX/1/1/gpx.xsd" version="1.1" creator="VisuGPX - https://www.visugpx.com">
  <metadata>
    <name>Croda Rossa (Rotewand)</name>
    <desc><![CDATA[lago Anterselva - Croda Rossa (Rotewand)]]></desc>
  </metadata>
  <trk>
    <name><![CDATA[Croda_Rossa_2015-02-25]]></name>
    <trkseg>
      <trkpt lat="46.88394" lon="12.15819">
        <ele>1652.16</ele>
        <time>2015-02-25T07:17:49Z</time>
      </trkpt>
      <trkpt lat="46.88394" lon="12.15819">
        <ele>1652.16</ele>
        <time>2015-02-25T07:17:50Z</time>
      </trkpt>
      <trkpt lat="46.88392" lon="12.15819">
        <ele>1651.2</ele>
        <time>2015-02-25T07:18:13Z</time>
      </trkpt>
      <trkpt lat="46.88392" lon="12.15816">
        <ele>1651.68</ele>
        <time>2015-02-25T07:18:32Z</time>
      </trkpt>
      <trkpt lat="46.88394" lon="12.15816">
        <ele>1650.72</ele>
        <time>2015-02-25T07:18:40Z</time>
      </trkpt>
      <trkpt lat="46.88392" lon="12.15811">
        <ele>1650.72</ele>
        <time>2015-02-25T07:19:09Z</time>
      </trkpt>
      <trkpt lat="46.8839" lon="12.15809">
        <ele>1651.2</ele>
        <time>2015-02-25T07:19:23Z</time>
      </trkpt>
      <trkpt lat="46.88388" lon="12.15812">
        <ele>1651.2</ele>
        <time>2015-02-25T07:19:54Z</time>
      </trkpt>
      <trkpt lat="46.88389" lon="12.15811">
        <ele>1651.2</ele>
        <time>2015-02-25T07:20:25Z</time>
      </trkpt>
      <trkpt lat="46.8839" lon="12.15816">
        <ele>1651.68</ele>
        <time>2015-02-25T07:20:53Z</time>
      </trkpt>
      <trkpt lat="46.88389" lon="12.15822">
        <ele>1651.68</ele>
        <time>2015-02-25T07:21:24Z</time>
      </trkpt>
      <trkpt lat="46.88387" lon="12.15817">
        <ele>1651.68</ele>
        <time>2015-02-25T07:22:01Z</time>
      </trkpt>
      <trkpt lat="46.88385" lon="12.15816">
        <ele>1652.16</ele>
        <time>2015-02-25T07:22:35Z</time>
      </trkpt>
      <trkpt lat="46.88382" lon="12.1581">
        <ele>1652.16</ele>
        <time>2015-02-25T07:23:09Z</time>
      </trkpt>
      <trkpt lat="46.88386" lon="12.15813">
        <ele>1652.64</ele>
        <time>2015-02-25T07:23:42Z</time>
      </trkpt>
      <trkpt lat="46.88392" lon="12.15813">
        <ele>1652.64</ele>
        <time>2015-02-25T07:24:11Z</time>
      </trkpt>
      <trkpt lat="46.88395" lon="12.15813">
        <ele>1653.12</ele>
        <time>2015-02-25T07:24:39Z</time>
      </trkpt>
      <trkpt lat="46.8839" lon="12.15809">
        <ele>1653.12</ele>
        <time>2015-02-25T07:25:10Z</time>
      </trkpt>
      <trkpt lat="46.88393" lon="12.15812">
        <ele>1653.6</ele>
        <time>2015-02-25T07:25:38Z</time>
      </trkpt>
      <trkpt lat="46.88391" lon="12.15814">
        <ele>1654.09</ele>
        <time>2015-02-25T07:26:08Z</time>
      </trkpt>
      <trkpt lat="46.88393" lon="12.15811">
        <ele>1654.09</ele>
        <time>2015-02-25T07:26:33Z</time>
      </trkpt>
      <trkpt lat="46.88396" lon="12.15815">
        <ele>1654.09</ele>
        <time>2015-02-25T07:27:02Z</time>
      </trkpt>
      <trkpt lat="46.88395" lon="12.15815">
        <ele>1654.57</ele>
        <time>2015-02-25T07:27:46Z</time>
      </trkpt>
      <trkpt lat="46.88395" lon="12.15816">
        <ele>1654.57</ele>
        <time>2015-02-25T07:28:35Z</time>
      </trkpt>
      <trkpt lat="46.88395" lon="12.15816">
        <ele>1654.57</ele>
        <time>2015-02-25T07:29:09Z</time>
      </trkpt>
      <trkpt lat="46.88395" lon="12.15813">
        <ele>1654.57</ele>
        <time>2015-02-25T07:29:23Z</time>
      </trkpt>
      <trkpt lat="46.88394" lon="12.15816">
        <ele>1655.53</ele>
        <time>2015-02-25T07:29:26Z</time>
      </trkpt>
      <trkpt lat="46.88394" lon="12.1582">
        <ele>1656.01</ele>
        <time>2015-02-25T07:29:45Z</time>
      </trkpt>
      <trkpt lat="46.88393" lon="12.15816">
        <ele>1655.05</ele>
        <time>2015-02-25T07:29:59Z</time>
      </trkpt>
      <trkpt lat="46.88391" lon="12.15816">
        <ele>1655.05</ele>
        <time>2015-02-25T07:30:15Z</time>
      </trkpt>
      <trkpt lat="46.88393" lon="12.15817">
        <ele>1655.53</ele>
        <time>2015-02-25T07:30:35Z</time>
      </trkpt>
      <trkpt lat="46.88392" lon="12.15814">
        <ele>1655.05</ele>
        <time>2015-02-25T07:30:54Z</time>
      </trkpt>
      <trkpt lat="46.88391" lon="12.15813">
        <ele>1655.05</ele>
        <time>2015-02-25T07:31:13Z</time>
      </trkpt>
      <trkpt lat="46.88392" lon="12.15826">
        <ele>1655.53</ele>
        <time>2015-02-25T07:31:24Z</time>
      </trkpt>
      <trkpt lat="46.88392" lon="12.15831">
        <ele>1655.53</ele>
        <time>2015-02-25T07:31:28Z</time>
      </trkpt>
      <trkpt lat="46.88392" lon="12.15851">
        <ele>1655.53</ele>
        <time>2015-02-25T07:31:43Z</time>
      </trkpt>
      <trkpt lat="46.8839" lon="12.15873">
        <ele>1656.01</ele>
        <time>2015-02-25T07:31:58Z</time>
      </trkpt>
      <trkpt lat="46.88386" lon="12.15897">
        <ele>1655.53</ele>
        <time>2015-02-25T07:32:14Z</time>
      </trkpt>
      <trkpt lat="46.88383" lon="12.1592">
        <ele>1656.01</ele>
        <time>2015-02-25T07:32:31Z</time>
      </trkpt>
      <trkpt lat="46.8838" lon="12.15938">
        <ele>1656.49</ele>
        <time>2015-02-25T07:32:48Z</time>
      </trkpt>
      <trkpt lat="46.88374" lon="12.15968">
        <ele>1656.01</ele>
        <time>2015-02-25T07:33:07Z</time>
      </trkpt>
      <trkpt lat="46.88365" lon="12.15995">
        <ele>1656.01</ele>
        <time>2015-02-25T07:33:26Z</time>
      </trkpt>
      <trkpt lat="46.88363" lon="12.16005">
        <ele>1656.49</ele>
        <time>2015-02-25T07:33:38Z</time>
      </trkpt>
      <trkpt lat="46.88362" lon="12.16013">
        <ele>1656.49</ele>
        <time>2015-02-25T07:33:42Z</time>
      </trkpt>
      <trkpt lat="46.88362" lon="12.16017">
        <ele>1656.49</ele>
        <time>2015-02-25T07:33:45Z</time>
      </trkpt>
      <trkpt lat="46.8836" lon="12.16043">
        <ele>1656.97</ele>
        <time>2015-02-25T07:34:00Z</time>
      </trkpt>
      <trkpt lat="46.8836" lon="12.16048">
        <ele>1656.97</ele>
        <time>2015-02-25T07:34:03Z</time>
      </trkpt>
      <trkpt lat="46.88359" lon="12.16068">
        <ele>1656.97</ele>
        <time>2015-02-25T07:34:16Z</time>
      </trkpt>
      <trkpt lat="46.88358" lon="12.16077">
        <ele>1656.97</ele>
        <time>2015-02-25T07:34:23Z</time>
      </trkpt>
      <trkpt lat="46.88359" lon="12.16096">
        <ele>1656.97</ele>
        <time>2015-02-25T07:34:34Z</time>
      </trkpt>
      <trkpt lat="46.88358" lon="12.16117">
        <ele>1657.45</ele>
        <time>2015-02-25T07:34:47Z</time>
      </trkpt>
      <trkpt lat="46.88358" lon="12.16141">
        <ele>1657.45</ele>
        <time>2015-02-25T07:35:02Z</time>
      </trkpt>
      <trkpt lat="46.88357" lon="12.16165">
        <ele>1657.93</ele>
        <time>2015-02-25T07:35:16Z</time>
      </trkpt>
      <trkpt lat="46.88355" lon="12.16178">
        <ele>1657.93</ele>
        <time>2015-02-25T07:35:26Z</time>
      </trkpt>
      <trkpt lat="46.88349" lon="12.162">
        <ele>1657.93</ele>
        <time>2015-02-25T07:35:42Z</time>
      </trkpt>
      <trkpt lat="46.88349" lon="12.16204">
        <ele>1657.93</ele>
        <time>2015-02-25T07:35:47Z</time>
      </trkpt>
      <trkpt lat="46.88346" lon="12.16232">
        <ele>1658.41</ele>
        <time>2015-02-25T07:36:04Z</time>
      </trkpt>
      <trkpt lat="46.8834" lon="12.16257">
        <ele>1657.93</ele>
        <time>2015-02-25T07:36:18Z</time>
      </trkpt>
      <trkpt lat="46.88331" lon="12.16281">
        <ele>1658.41</ele>
        <time>2015-02-25T07:36:34Z</time>
      </trkpt>
      <trkpt lat="46.88329" lon="12.16285">
        <ele>1658.41</ele>
        <time>2015-02-25T07:36:37Z</time>
      </trkpt>
      <trkpt lat="46.88327" lon="12.16288">
        <ele>1658.41</ele>
        <time>2015-02-25T07:36:40Z</time>
      </trkpt>
      <trkpt lat="46.88321" lon="12.16304">
        <ele>1658.89</ele>
        <time>2015-02-25T07:36:54Z</time>
      </trkpt>
      <trkpt lat="46.88316" lon="12.16309">
        <ele>1658.41</ele>
        <time>2015-02-25T07:37:15Z</time>
      </trkpt>
      <trkpt lat="46.88312" lon="12.16314">
        <ele>1658.41</ele>
        <time>2015-02-25T07:37:27Z</time>
      </trkpt>
      <trkpt lat="46.88303" lon="12.1633">
        <ele>1658.89</ele>
        <time>2015-02-25T07:37:43Z</time>
      </trkpt>
      <trkpt lat="46.88294" lon="12.16343">
        <ele>1658.89</ele>
        <time>2015-02-25T07:37:55Z</time>
      </trkpt>
      <trkpt lat="46.88285" lon="12.1635">
        <ele>1659.37</ele>
        <time>2015-02-25T07:38:04Z</time>
      </trkpt>
      <trkpt lat="46.88273" lon="12.16369">
        <ele>1660.33</ele>
        <time>2015-02-25T07:38:21Z</time>
      </trkpt>
      <trkpt lat="46.88267" lon="12.16384">
        <ele>1660.81</ele>
        <time>2015-02-25T07:38:36Z</time>
      </trkpt>
      <trkpt lat="46.88262" lon="12.16403">
        <ele>1660.33</ele>
        <time>2015-02-25T07:38:50Z</time>
      </trkpt>
      <trkpt lat="46.88251" lon="12.16423">
        <ele>1660.81</ele>
        <time>2015-02-25T07:39:06Z</time>
      </trkpt>
      <trkpt lat="46.88245" lon="12.16433">
        <ele>1660.81</ele>
        <time>2015-02-25T07:39:20Z</time>
      </trkpt>
      <trkpt lat="46.88236" lon="12.16448">
        <ele>1661.3</ele>
        <time>2015-02-25T07:39:34Z</time>
      </trkpt>
      <trkpt lat="46.88227" lon="12.16466">
        <ele>1661.3</ele>
        <time>2015-02-25T07:39:48Z</time>
      </trkpt>
      <trkpt lat="46.88219" lon="12.16487">
        <ele>1661.3</ele>
        <time>2015-02-25T07:40:03Z</time>
      </trkpt>
      <trkpt lat="46.8821" lon="12.16503">
        <ele>1661.78</ele>
        <time>2015-02-25T07:40:17Z</time>
      </trkpt>
      <trkpt lat="46.88201" lon="12.16517">
        <ele>1661.78</ele>
        <time>2015-02-25T07:40:28Z</time>
      </trkpt>
      <trkpt lat="46.88191" lon="12.16535">
        <ele>1661.78</ele>
        <time>2015-02-25T07:40:43Z</time>
      </trkpt>
      <trkpt lat="46.8818" lon="12.16555">
        <ele>1661.78</ele>
        <time>2015-02-25T07:40:58Z</time>
      </trkpt>
      <trkpt lat="46.88172" lon="12.16573">
        <ele>1661.78</ele>
        <time>2015-02-25T07:41:11Z</time>
      </trkpt>
      <trkpt lat="46.88172" lon="12.16575">
        <ele>1661.78</ele>
        <time>2015-02-25T07:41:12Z</time>
      </trkpt>
      <trkpt lat="46.8817" lon="12.16579">
        <ele>1661.78</ele>
        <time>2015-02-25T07:41:15Z</time>
      </trkpt>
      <trkpt lat="46.88168" lon="12.16601">
        <ele>1661.78</ele>
        <time>2015-02-25T07:41:30Z</time>
      </trkpt>
      <trkpt lat="46.88168" lon="12.16605">
        <ele>1661.78</ele>
        <time>2015-02-25T07:41:42Z</time>
      </trkpt>
      <trkpt lat="46.88173" lon="12.16642">
        <ele>1660.33</ele>
        <time>2015-02-25T07:41:59Z</time>
      </trkpt>
      <trkpt lat="46.88184" lon="12.16667">
        <ele>1659.37</ele>
        <time>2015-02-25T07:42:14Z</time>
      </trkpt>
      <trkpt lat="46.88192" lon="12.1667">
        <ele>1659.37</ele>
        <time>2015-02-25T07:42:30Z</time>
      </trkpt>
      <trkpt lat="46.88198" lon="12.16677">
        <ele>1659.37</ele>
        <time>2015-02-25T07:42:45Z</time>
      </trkpt>
      <trkpt lat="46.88202" lon="12.16687">
        <ele>1659.37</ele>
        <time>2015-02-25T07:42:54Z</time>
      </trkpt>
      <trkpt lat="46.8822" lon="12.16706">
        <ele>1659.37</ele>
        <time>2015-02-25T07:43:14Z</time>
      </trkpt>
      <trkpt lat="46.88238" lon="12.16719">
        <ele>1659.37</ele>
        <time>2015-02-25T07:43:32Z</time>
      </trkpt>
      <trkpt lat="46.88254" lon="12.16733">
        <ele>1659.85</ele>
        <time>2015-02-25T07:43:49Z</time>
      </trkpt>
      <trkpt lat="46.88267" lon="12.16752">
        <ele>1659.85</ele>
        <time>2015-02-25T07:44:05Z</time>
      </trkpt>
      <trkpt lat="46.88286" lon="12.16766">
        <ele>1660.33</ele>
        <time>2015-02-25T07:44:23Z</time>
      </trkpt>
      <trkpt lat="46.883" lon="12.16776">
        <ele>1660.33</ele>
        <time>2015-02-25T07:44:38Z</time>
      </trkpt>
      <trkpt lat="46.88314" lon="12.16792">
        <ele>1660.33</ele>
        <time>2015-02-25T07:44:53Z</time>
      </trkpt>
      <trkpt lat="46.88325" lon="12.16807">
        <ele>1660.33</ele>
        <time>2015-02-25T07:45:07Z</time>
      </trkpt>
      <trkpt lat="46.88335" lon="12.16828">
        <ele>1660.33</ele>
        <time>2015-02-25T07:45:22Z</time>
      </trkpt>
      <trkpt lat="46.88335" lon="12.1683">
        <ele>1660.33</ele>
        <time>2015-02-25T07:45:23Z</time>
      </trkpt>
      <trkpt lat="46.88342" lon="12.16859">
        <ele>1660.33</ele>
        <time>2015-02-25T07:45:40Z</time>
      </trkpt>
      <trkpt lat="46.88353" lon="12.1687">
        <ele>1660.33</ele>
        <time>2015-02-25T07:45:51Z</time>
      </trkpt>
      <trkpt lat="46.88371" lon="12.16881">
        <ele>1660.33</ele>
        <time>2015-02-25T07:46:07Z</time>
      </trkpt>
      <trkpt lat="46.88389" lon="12.16899">
        <ele>1660.33</ele>
        <time>2015-02-25T07:46:25Z</time>
      </trkpt>
      <trkpt lat="46.88404" lon="12.1691">
        <ele>1660.81</ele>
        <time>2015-02-25T07:46:44Z</time>
      </trkpt>
      <trkpt lat="46.8842" lon="12.16926">
        <ele>1660.81</ele>
        <time>2015-02-25T07:47:02Z</time>
      </trkpt>
      <trkpt lat="46.88434" lon="12.16948">
        <ele>1661.3</ele>
        <time>2015-02-25T07:47:20Z</time>
      </trkpt>
      <trkpt lat="46.88436" lon="12.16957">
        <ele>1661.3</ele>
        <time>2015-02-25T07:47:25Z</time>
      </trkpt>
      <trkpt lat="46.88443" lon="12.16971">
        <ele>1661.3</ele>
        <time>2015-02-25T07:47:34Z</time>
      </trkpt>
      <trkpt lat="46.88448" lon="12.16977">
        <ele>1661.78</ele>
        <time>2015-02-25T07:47:39Z</time>
      </trkpt>
      <trkpt lat="46.88472" lon="12.16996">
        <ele>1661.78</ele>
        <time>2015-02-25T07:48:01Z</time>
      </trkpt>
      <trkpt lat="46.88496" lon="12.17009">
        <ele>1661.78</ele>
        <time>2015-02-25T07:48:21Z</time>
      </trkpt>
      <trkpt lat="46.88509" lon="12.17029">
        <ele>1662.26</ele>
        <time>2015-02-25T07:48:38Z</time>
      </trkpt>
      <trkpt lat="46.88528" lon="12.17052">
        <ele>1661.78</ele>
        <time>2015-02-25T07:48:57Z</time>
      </trkpt>
      <trkpt lat="46.88541" lon="12.17067">
        <ele>1661.78</ele>
        <time>2015-02-25T07:49:11Z</time>
      </trkpt>
      <trkpt lat="46.88547" lon="12.17079">
        <ele>1662.26</ele>
        <time>2015-02-25T07:49:20Z</time>
      </trkpt>
      <trkpt lat="46.88552" lon="12.1709">
        <ele>1662.26</ele>
        <time>2015-02-25T07:49:28Z</time>
      </trkpt>
      <trkpt lat="46.88567" lon="12.17111">
        <ele>1662.26</ele>
        <time>2015-02-25T07:49:45Z</time>
      </trkpt>
      <trkpt lat="46.88577" lon="12.17126">
        <ele>1661.78</ele>
        <time>2015-02-25T07:49:58Z</time>
      </trkpt>
      <trkpt lat="46.88579" lon="12.17132">
        <ele>1661.78</ele>
        <time>2015-02-25T07:50:02Z</time>
      </trkpt>
      <trkpt lat="46.88589" lon="12.17155">
        <ele>1662.26</ele>
        <time>2015-02-25T07:50:17Z</time>
      </trkpt>
      <trkpt lat="46.88597" lon="12.17173">
        <ele>1661.78</ele>
        <time>2015-02-25T07:50:29Z</time>
      </trkpt>
      <trkpt lat="46.88602" lon="12.17191">
        <ele>1662.26</ele>
        <time>2015-02-25T07:50:40Z</time>
      </trkpt>
      <trkpt lat="46.88604" lon="12.17208">
        <ele>1662.74</ele>
        <time>2015-02-25T07:50:52Z</time>
      </trkpt>
      <trkpt lat="46.88611" lon="12.17227">
        <ele>1662.74</ele>
        <time>2015-02-25T07:51:05Z</time>
      </trkpt>
      <trkpt lat="46.88612" lon="12.17229">
        <ele>1662.26</ele>
        <time>2015-02-25T07:51:07Z</time>
      </trkpt>
      <trkpt lat="46.88618" lon="12.17239">
        <ele>1662.26</ele>
        <time>2015-02-25T07:51:15Z</time>
      </trkpt>
      <trkpt lat="46.88625" lon="12.1726">
        <ele>1662.74</ele>
        <time>2015-02-25T07:51:28Z</time>
      </trkpt>
      <trkpt lat="46.88629" lon="12.17275">
        <ele>1662.26</ele>
        <time>2015-02-25T07:51:37Z</time>
      </trkpt>
      <trkpt lat="46.88631" lon="12.17282">
        <ele>1662.74</ele>
        <time>2015-02-25T07:51:41Z</time>
      </trkpt>
      <trkpt lat="46.88635" lon="12.17298">
        <ele>1662.74</ele>
        <time>2015-02-25T07:51:50Z</time>
      </trkpt>
      <trkpt lat="46.88636" lon="12.17305">
        <ele>1662.74</ele>
        <time>2015-02-25T07:51:54Z</time>
      </trkpt>
      <trkpt lat="46.88638" lon="12.17321">
        <ele>1662.74</ele>
        <time>2015-02-25T07:52:11Z</time>
      </trkpt>
      <trkpt lat="46.88648" lon="12.17345">
        <ele>1662.26</ele>
        <time>2015-02-25T07:52:27Z</time>
      </trkpt>
      <trkpt lat="46.88652" lon="12.17353">
        <ele>1662.74</ele>
        <time>2015-02-25T07:52:33Z</time>
      </trkpt>
      <trkpt lat="46.88656" lon="12.17358">
        <ele>1662.74</ele>
        <time>2015-02-25T07:52:37Z</time>
      </trkpt>
      <trkpt lat="46.88664" lon="12.17381">
        <ele>1663.22</ele>
        <time>2015-02-25T07:52:50Z</time>
      </trkpt>
      <trkpt lat="46.88672" lon="12.17412">
        <ele>1663.22</ele>
        <time>2015-02-25T07:53:08Z</time>
      </trkpt>
      <trkpt lat="46.88673" lon="12.17413">
        <ele>1662.74</ele>
        <time>2015-02-25T07:53:09Z</time>
      </trkpt>
      <trkpt lat="46.8868" lon="12.17439">
        <ele>1663.22</ele>
        <time>2015-02-25T07:53:25Z</time>
      </trkpt>
      <trkpt lat="46.88684" lon="12.17445">
        <ele>1663.22</ele>
        <time>2015-02-25T07:53:31Z</time>
      </trkpt>
      <trkpt lat="46.887" lon="12.17456">
        <ele>1663.22</ele>
        <time>2015-02-25T07:53:47Z</time>
      </trkpt>
      <trkpt lat="46.8871" lon="12.17464">
        <ele>1664.18</ele>
        <time>2015-02-25T07:54:01Z</time>
      </trkpt>
      <trkpt lat="46.88716" lon="12.17468">
        <ele>1664.18</ele>
        <time>2015-02-25T07:54:10Z</time>
      </trkpt>
      <trkpt lat="46.88725" lon="12.17476">
        <ele>1664.66</ele>
        <time>2015-02-25T07:54:20Z</time>
      </trkpt>
      <trkpt lat="46.88728" lon="12.17479">
        <ele>1665.14</ele>
        <time>2015-02-25T07:54:23Z</time>
      </trkpt>
      <trkpt lat="46.8873" lon="12.17482">
        <ele>1665.14</ele>
        <time>2015-02-25T07:54:26Z</time>
      </trkpt>
      <trkpt lat="46.88732" lon="12.17485">
        <ele>1665.62</ele>
        <time>2015-02-25T07:54:29Z</time>
      </trkpt>
      <trkpt lat="46.88734" lon="12.17491">
        <ele>1665.62</ele>
        <time>2015-02-25T07:54:34Z</time>
      </trkpt>
      <trkpt lat="46.88735" lon="12.17495">
        <ele>1666.1</ele>
        <time>2015-02-25T07:54:36Z</time>
      </trkpt>
      <trkpt lat="46.8874" lon="12.17504">
        <ele>1666.58</ele>
        <time>2015-02-25T07:54:44Z</time>
      </trkpt>
      <trkpt lat="46.88751" lon="12.17523">
        <ele>1667.54</ele>
        <time>2015-02-25T07:54:59Z</time>
      </trkpt>
      <trkpt lat="46.88765" lon="12.17544">
        <ele>1668.51</ele>
        <time>2015-02-25T07:55:13Z</time>
      </trkpt>
      <trkpt lat="46.88771" lon="12.17559">
        <ele>1669.47</ele>
        <time>2015-02-25T07:55:24Z</time>
      </trkpt>
      <trkpt lat="46.88771" lon="12.17563">
        <ele>1669.47</ele>
        <time>2015-02-25T07:55:27Z</time>
      </trkpt>
      <trkpt lat="46.8877" lon="12.17571">
        <ele>1669.95</ele>
        <time>2015-02-25T07:55:32Z</time>
      </trkpt>
      <trkpt lat="46.88776" lon="12.17587">
        <ele>1671.39</ele>
        <time>2015-02-25T07:55:46Z</time>
      </trkpt>
      <trkpt lat="46.88777" lon="12.17589">
        <ele>1671.39</ele>
        <time>2015-02-25T07:55:48Z</time>
      </trkpt>
      <trkpt lat="46.88779" lon="12.17599">
        <ele>1672.35</ele>
        <time>2015-02-25T07:55:54Z</time>
      </trkpt>
      <trkpt lat="46.88781" lon="12.17616">
        <ele>1673.79</ele>
        <time>2015-02-25T07:56:06Z</time>
      </trkpt>
      <trkpt lat="46.88786" lon="12.17633">
        <ele>1674.75</ele>
        <time>2015-02-25T07:56:19Z</time>
      </trkpt>
      <trkpt lat="46.88788" lon="12.17648">
        <ele>1675.72</ele>
        <time>2015-02-25T07:56:33Z</time>
      </trkpt>
      <trkpt lat="46.88788" lon="12.17663">
        <ele>1676.2</ele>
        <time>2015-02-25T07:56:45Z</time>
      </trkpt>
      <trkpt lat="46.88792" lon="12.17684">
        <ele>1677.64</ele>
        <time>2015-02-25T07:56:59Z</time>
      </trkpt>
      <trkpt lat="46.88796" lon="12.17701">
        <ele>1678.6</ele>
        <time>2015-02-25T07:57:12Z</time>
      </trkpt>
      <trkpt lat="46.88797" lon="12.1772">
        <ele>1680.04</ele>
        <time>2015-02-25T07:57:27Z</time>
      </trkpt>
      <trkpt lat="46.88795" lon="12.17732">
        <ele>1681</ele>
        <time>2015-02-25T07:57:38Z</time>
      </trkpt>
      <trkpt lat="46.88794" lon="12.17748">
        <ele>1682.44</ele>
        <time>2015-02-25T07:57:52Z</time>
      </trkpt>
      <trkpt lat="46.88791" lon="12.17767">
        <ele>1684.37</ele>
        <time>2015-02-25T07:58:07Z</time>
      </trkpt>
      <trkpt lat="46.88791" lon="12.17788">
        <ele>1685.33</ele>
        <time>2015-02-25T07:58:23Z</time>
      </trkpt>
      <trkpt lat="46.88791" lon="12.1781">
        <ele>1686.77</ele>
        <time>2015-02-25T07:58:37Z</time>
      </trkpt>
      <trkpt lat="46.88791" lon="12.17823">
        <ele>1687.25</ele>
        <time>2015-02-25T07:58:46Z</time>
      </trkpt>
      <trkpt lat="46.88793" lon="12.17841">
        <ele>1688.21</ele>
        <time>2015-02-25T07:58:59Z</time>
      </trkpt>
      <trkpt lat="46.88793" lon="12.17853">
        <ele>1688.69</ele>
        <time>2015-02-25T07:59:08Z</time>
      </trkpt>
      <trkpt lat="46.88794" lon="12.17866">
        <ele>1689.17</ele>
        <time>2015-02-25T07:59:17Z</time>
      </trkpt>
      <trkpt lat="46.88796" lon="12.17884">
        <ele>1690.14</ele>
        <time>2015-02-25T07:59:31Z</time>
      </trkpt>
      <trkpt lat="46.88796" lon="12.17889">
        <ele>1690.62</ele>
        <time>2015-02-25T07:59:35Z</time>
      </trkpt>
      <trkpt lat="46.888" lon="12.17907">
        <ele>1692.06</ele>
        <time>2015-02-25T07:59:49Z</time>
      </trkpt>
      <trkpt lat="46.88803" lon="12.17926">
        <ele>1693.5</ele>
        <time>2015-02-25T08:00:03Z</time>
      </trkpt>
      <trkpt lat="46.88807" lon="12.17947">
        <ele>1695.42</ele>
        <time>2015-02-25T08:00:20Z</time>
      </trkpt>
      <trkpt lat="46.88811" lon="12.17967">
        <ele>1696.86</ele>
        <time>2015-02-25T08:00:36Z</time>
      </trkpt>
      <trkpt lat="46.88818" lon="12.17984">
        <ele>1698.31</ele>
        <time>2015-02-25T08:00:52Z</time>
      </trkpt>
      <trkpt lat="46.88824" lon="12.17999">
        <ele>1699.75</ele>
        <time>2015-02-25T08:01:06Z</time>
      </trkpt>
      <trkpt lat="46.8883" lon="12.18012">
        <ele>1701.67</ele>
        <time>2015-02-25T08:01:20Z</time>
      </trkpt>
      <trkpt lat="46.88838" lon="12.18026">
        <ele>1703.11</ele>
        <time>2015-02-25T08:01:36Z</time>
      </trkpt>
      <trkpt lat="46.88846" lon="12.18041">
        <ele>1705.04</ele>
        <time>2015-02-25T08:01:51Z</time>
      </trkpt>
      <trkpt lat="46.88853" lon="12.18053">
        <ele>1706.48</ele>
        <time>2015-02-25T08:02:05Z</time>
      </trkpt>
      <trkpt lat="46.88859" lon="12.18068">
        <ele>1707.92</ele>
        <time>2015-02-25T08:02:19Z</time>
      </trkpt>
      <trkpt lat="46.88863" lon="12.18079">
        <ele>1708.88</ele>
        <time>2015-02-25T08:02:33Z</time>
      </trkpt>
      <trkpt lat="46.88863" lon="12.18073">
        <ele>1707.92</ele>
        <time>2015-02-25T08:02:53Z</time>
      </trkpt>
      <trkpt lat="46.88866" lon="12.18073">
        <ele>1707.44</ele>
        <time>2015-02-25T08:03:33Z</time>
      </trkpt>
      <trkpt lat="46.88867" lon="12.18081">
        <ele>1708.88</ele>
        <time>2015-02-25T08:03:50Z</time>
      </trkpt>
      <trkpt lat="46.88873" lon="12.18096">
        <ele>1710.32</ele>
        <time>2015-02-25T08:04:04Z</time>
      </trkpt>
      <trkpt lat="46.8888" lon="12.18111">
        <ele>1712.25</ele>
        <time>2015-02-25T08:04:19Z</time>
      </trkpt>
      <trkpt lat="46.88886" lon="12.18123">
        <ele>1713.69</ele>
        <time>2015-02-25T08:04:31Z</time>
      </trkpt>
      <trkpt lat="46.88888" lon="12.18135">
        <ele>1714.65</ele>
        <time>2015-02-25T08:04:40Z</time>
      </trkpt>
      <trkpt lat="46.88889" lon="12.18139">
        <ele>1715.13</ele>
        <time>2015-02-25T08:04:44Z</time>
      </trkpt>
      <trkpt lat="46.88892" lon="12.18153">
        <ele>1717.05</ele>
        <time>2015-02-25T08:04:58Z</time>
      </trkpt>
      <trkpt lat="46.88896" lon="12.18167">
        <ele>1718.49</ele>
        <time>2015-02-25T08:05:12Z</time>
      </trkpt>
      <trkpt lat="46.88897" lon="12.18185">
        <ele>1719.94</ele>
        <time>2015-02-25T08:05:29Z</time>
      </trkpt>
      <trkpt lat="46.88896" lon="12.182">
        <ele>1721.86</ele>
        <time>2015-02-25T08:05:42Z</time>
      </trkpt>
      <trkpt lat="46.88895" lon="12.18214">
        <ele>1722.82</ele>
        <time>2015-02-25T08:05:55Z</time>
      </trkpt>
      <trkpt lat="46.88894" lon="12.18232">
        <ele>1724.26</ele>
        <time>2015-02-25T08:06:09Z</time>
      </trkpt>
      <trkpt lat="46.8889" lon="12.18247">
        <ele>1725.22</ele>
        <time>2015-02-25T08:06:24Z</time>
      </trkpt>
      <trkpt lat="46.88886" lon="12.18261">
        <ele>1726.67</ele>
        <time>2015-02-25T08:06:40Z</time>
      </trkpt>
      <trkpt lat="46.88881" lon="12.1828">
        <ele>1727.63</ele>
        <time>2015-02-25T08:06:56Z</time>
      </trkpt>
      <trkpt lat="46.88875" lon="12.18299">
        <ele>1729.07</ele>
        <time>2015-02-25T08:07:10Z</time>
      </trkpt>
      <trkpt lat="46.88875" lon="12.18321">
        <ele>1730.51</ele>
        <time>2015-02-25T08:07:27Z</time>
      </trkpt>
      <trkpt lat="46.88878" lon="12.18343">
        <ele>1732.43</ele>
        <time>2015-02-25T08:07:44Z</time>
      </trkpt>
      <trkpt lat="46.88884" lon="12.18359">
        <ele>1734.84</ele>
        <time>2015-02-25T08:07:59Z</time>
      </trkpt>
      <trkpt lat="46.88888" lon="12.18377">
        <ele>1738.2</ele>
        <time>2015-02-25T08:08:15Z</time>
      </trkpt>
      <trkpt lat="46.88893" lon="12.18389">
        <ele>1738.2</ele>
        <time>2015-02-25T08:08:29Z</time>
      </trkpt>
      <trkpt lat="46.88898" lon="12.18406">
        <ele>1739.64</ele>
        <time>2015-02-25T08:08:46Z</time>
      </trkpt>
      <trkpt lat="46.88902" lon="12.18423">
        <ele>1741.08</ele>
        <time>2015-02-25T08:09:02Z</time>
      </trkpt>
      <trkpt lat="46.88905" lon="12.18439">
        <ele>1742.53</ele>
        <time>2015-02-25T08:09:17Z</time>
      </trkpt>
      <trkpt lat="46.8891" lon="12.18454">
        <ele>1743.97</ele>
        <time>2015-02-25T08:09:32Z</time>
      </trkpt>
      <trkpt lat="46.88914" lon="12.18473">
        <ele>1745.41</ele>
        <time>2015-02-25T08:09:48Z</time>
      </trkpt>
      <trkpt lat="46.88915" lon="12.18495">
        <ele>1747.81</ele>
        <time>2015-02-25T08:10:03Z</time>
      </trkpt>
      <trkpt lat="46.88918" lon="12.18507">
        <ele>1750.7</ele>
        <time>2015-02-25T08:10:16Z</time>
      </trkpt>
      <trkpt lat="46.8892" lon="12.18522">
        <ele>1750.22</ele>
        <time>2015-02-25T08:10:32Z</time>
      </trkpt>
      <trkpt lat="46.8892" lon="12.18537">
        <ele>1752.14</ele>
        <time>2015-02-25T08:10:47Z</time>
      </trkpt>
      <trkpt lat="46.88919" lon="12.18558">
        <ele>1753.58</ele>
        <time>2015-02-25T08:11:05Z</time>
      </trkpt>
      <trkpt lat="46.88917" lon="12.18584">
        <ele>1755.5</ele>
        <time>2015-02-25T08:11:23Z</time>
      </trkpt>
      <trkpt lat="46.88915" lon="12.18602">
        <ele>1756.95</ele>
        <time>2015-02-25T08:11:40Z</time>
      </trkpt>
      <trkpt lat="46.88915" lon="12.18622">
        <ele>1758.87</ele>
        <time>2015-02-25T08:11:57Z</time>
      </trkpt>
      <trkpt lat="46.88915" lon="12.18637">
        <ele>1760.31</ele>
        <time>2015-02-25T08:12:11Z</time>
      </trkpt>
      <trkpt lat="46.88915" lon="12.18654">
        <ele>1761.75</ele>
        <time>2015-02-25T08:12:26Z</time>
      </trkpt>
      <trkpt lat="46.88913" lon="12.18672">
        <ele>1763.2</ele>
        <time>2015-02-25T08:12:39Z</time>
      </trkpt>
      <trkpt lat="46.88914" lon="12.18688">
        <ele>1764.64</ele>
        <time>2015-02-25T08:12:54Z</time>
      </trkpt>
      <trkpt lat="46.88914" lon="12.18706">
        <ele>1766.08</ele>
        <time>2015-02-25T08:13:08Z</time>
      </trkpt>
      <trkpt lat="46.88915" lon="12.18722">
        <ele>1767.52</ele>
        <time>2015-02-25T08:13:22Z</time>
      </trkpt>
      <trkpt lat="46.88917" lon="12.18738">
        <ele>1768.96</ele>
        <time>2015-02-25T08:13:38Z</time>
      </trkpt>
      <trkpt lat="46.88919" lon="12.18756">
        <ele>1770.89</ele>
        <time>2015-02-25T08:13:53Z</time>
      </trkpt>
      <trkpt lat="46.88922" lon="12.18778">
        <ele>1772.33</ele>
        <time>2015-02-25T08:14:10Z</time>
      </trkpt>
      <trkpt lat="46.88927" lon="12.18787">
        <ele>1772.81</ele>
        <time>2015-02-25T08:14:26Z</time>
      </trkpt>
      <trkpt lat="46.88935" lon="12.1879">
        <ele>1773.29</ele>
        <time>2015-02-25T08:14:43Z</time>
      </trkpt>
      <trkpt lat="46.88942" lon="12.18787">
        <ele>1773.29</ele>
        <time>2015-02-25T08:15:04Z</time>
      </trkpt>
      <trkpt lat="46.88949" lon="12.18774">
        <ele>1773.77</ele>
        <time>2015-02-25T08:15:18Z</time>
      </trkpt>
      <trkpt lat="46.88953" lon="12.18768">
        <ele>1774.73</ele>
        <time>2015-02-25T08:15:24Z</time>
      </trkpt>
      <trkpt lat="46.8896" lon="12.18754">
        <ele>1775.21</ele>
        <time>2015-02-25T08:15:37Z</time>
      </trkpt>
      <trkpt lat="46.88968" lon="12.1874">
        <ele>1776.17</ele>
        <time>2015-02-25T08:15:51Z</time>
      </trkpt>
      <trkpt lat="46.88975" lon="12.18731">
        <ele>1777.13</ele>
        <time>2015-02-25T08:16:04Z</time>
      </trkpt>
      <trkpt lat="46.88981" lon="12.18722">
        <ele>1778.1</ele>
        <time>2015-02-25T08:16:14Z</time>
      </trkpt>
      <trkpt lat="46.88992" lon="12.18712">
        <ele>1779.54</ele>
        <time>2015-02-25T08:16:29Z</time>
      </trkpt>
      <trkpt lat="46.89004" lon="12.18704">
        <ele>1781.46</ele>
        <time>2015-02-25T08:16:44Z</time>
      </trkpt>
      <trkpt lat="46.89015" lon="12.18698">
        <ele>1782.42</ele>
        <time>2015-02-25T08:16:57Z</time>
      </trkpt>
      <trkpt lat="46.89025" lon="12.18691">
        <ele>1783.86</ele>
        <time>2015-02-25T08:17:09Z</time>
      </trkpt>
      <trkpt lat="46.89035" lon="12.18677">
        <ele>1784.82</ele>
        <time>2015-02-25T08:17:22Z</time>
      </trkpt>
      <trkpt lat="46.89042" lon="12.18661">
        <ele>1785.79</ele>
        <time>2015-02-25T08:17:37Z</time>
      </trkpt>
      <trkpt lat="46.89048" lon="12.18649">
        <ele>1786.75</ele>
        <time>2015-02-25T08:17:49Z</time>
      </trkpt>
      <trkpt lat="46.89048" lon="12.18647">
        <ele>1786.75</ele>
        <time>2015-02-25T08:17:50Z</time>
      </trkpt>
      <trkpt lat="46.89057" lon="12.18633">
        <ele>1787.71</ele>
        <time>2015-02-25T08:18:04Z</time>
      </trkpt>
      <trkpt lat="46.89066" lon="12.18622">
        <ele>1788.67</ele>
        <time>2015-02-25T08:18:17Z</time>
      </trkpt>
      <trkpt lat="46.89074" lon="12.1861">
        <ele>1789.63</ele>
        <time>2015-02-25T08:18:29Z</time>
      </trkpt>
      <trkpt lat="46.89081" lon="12.18598">
        <ele>1790.11</ele>
        <time>2015-02-25T08:18:41Z</time>
      </trkpt>
      <trkpt lat="46.89087" lon="12.18585">
        <ele>1791.55</ele>
        <time>2015-02-25T08:18:54Z</time>
      </trkpt>
      <trkpt lat="46.89094" lon="12.1857">
        <ele>1792.52</ele>
        <time>2015-02-25T08:19:08Z</time>
      </trkpt>
      <trkpt lat="46.89102" lon="12.18557">
        <ele>1793.48</ele>
        <time>2015-02-25T08:19:22Z</time>
      </trkpt>
      <trkpt lat="46.89107" lon="12.18542">
        <ele>1794.44</ele>
        <time>2015-02-25T08:19:37Z</time>
      </trkpt>
      <trkpt lat="46.89116" lon="12.18533">
        <ele>1794.92</ele>
        <time>2015-02-25T08:19:51Z</time>
      </trkpt>
      <trkpt lat="46.89121" lon="12.18552">
        <ele>1796.84</ele>
        <time>2015-02-25T08:20:10Z</time>
      </trkpt>
      <trkpt lat="46.89114" lon="12.18573">
        <ele>1798.28</ele>
        <time>2015-02-25T08:20:27Z</time>
      </trkpt>
      <trkpt lat="46.89113" lon="12.18578">
        <ele>1798.76</ele>
        <time>2015-02-25T08:20:32Z</time>
      </trkpt>
      <trkpt lat="46.8911" lon="12.186">
        <ele>1800.21</ele>
        <time>2015-02-25T08:20:47Z</time>
      </trkpt>
      <trkpt lat="46.89113" lon="12.1862">
        <ele>1801.65</ele>
        <time>2015-02-25T08:21:02Z</time>
      </trkpt>
      <trkpt lat="46.89113" lon="12.18622">
        <ele>1801.65</ele>
        <time>2015-02-25T08:21:03Z</time>
      </trkpt>
      <trkpt lat="46.89115" lon="12.18637">
        <ele>1803.09</ele>
        <time>2015-02-25T08:21:15Z</time>
      </trkpt>
      <trkpt lat="46.89114" lon="12.1865">
        <ele>1804.05</ele>
        <time>2015-02-25T08:21:28Z</time>
      </trkpt>
      <trkpt lat="46.89113" lon="12.1866">
        <ele>1805.01</ele>
        <time>2015-02-25T08:21:43Z</time>
      </trkpt>
      <trkpt lat="46.89113" lon="12.18675">
        <ele>1806.94</ele>
        <time>2015-02-25T08:21:56Z</time>
      </trkpt>
      <trkpt lat="46.89116" lon="12.18691">
        <ele>1808.38</ele>
        <time>2015-02-25T08:22:10Z</time>
      </trkpt>
      <trkpt lat="46.89119" lon="12.18704">
        <ele>1811.74</ele>
        <time>2015-02-25T08:22:23Z</time>
      </trkpt>
      <trkpt lat="46.89123" lon="12.18715">
        <ele>1810.78</ele>
        <time>2015-02-25T08:22:37Z</time>
      </trkpt>
      <trkpt lat="46.89123" lon="12.18719">
        <ele>1810.78</ele>
        <time>2015-02-25T08:22:41Z</time>
      </trkpt>
      <trkpt lat="46.89121" lon="12.18736">
        <ele>1812.22</ele>
        <time>2015-02-25T08:22:55Z</time>
      </trkpt>
      <trkpt lat="46.89118" lon="12.18751">
        <ele>1813.66</ele>
        <time>2015-02-25T08:23:08Z</time>
      </trkpt>
      <trkpt lat="46.89117" lon="12.18765">
        <ele>1814.63</ele>
        <time>2015-02-25T08:23:21Z</time>
      </trkpt>
      <trkpt lat="46.89117" lon="12.18783">
        <ele>1816.07</ele>
        <time>2015-02-25T08:23:35Z</time>
      </trkpt>
      <trkpt lat="46.89117" lon="12.188">
        <ele>1817.51</ele>
        <time>2015-02-25T08:23:50Z</time>
      </trkpt>
      <trkpt lat="46.89118" lon="12.18812">
        <ele>1818.95</ele>
        <time>2015-02-25T08:24:03Z</time>
      </trkpt>
      <trkpt lat="46.89118" lon="12.18823">
        <ele>1820.39</ele>
        <time>2015-02-25T08:24:21Z</time>
      </trkpt>
      <trkpt lat="46.8912" lon="12.18839">
        <ele>1821.35</ele>
        <time>2015-02-25T08:24:34Z</time>
      </trkpt>
      <trkpt lat="46.89123" lon="12.18851">
        <ele>1822.8</ele>
        <time>2015-02-25T08:24:49Z</time>
      </trkpt>
      <trkpt lat="46.89129" lon="12.18873">
        <ele>1823.76</ele>
        <time>2015-02-25T08:25:06Z</time>
      </trkpt>
      <trkpt lat="46.89129" lon="12.18875">
        <ele>1824.24</ele>
        <time>2015-02-25T08:25:08Z</time>
      </trkpt>
      <trkpt lat="46.89138" lon="12.18898">
        <ele>1825.68</ele>
        <time>2015-02-25T08:25:26Z</time>
      </trkpt>
      <trkpt lat="46.89141" lon="12.18906">
        <ele>1826.16</ele>
        <time>2015-02-25T08:25:35Z</time>
      </trkpt>
      <trkpt lat="46.89135" lon="12.18957">
        <ele>1828.08</ele>
        <time>2015-02-25T08:26:56Z</time>
      </trkpt>
      <trkpt lat="46.89119" lon="12.18964">
        <ele>1828.56</ele>
        <time>2015-02-25T08:27:08Z</time>
      </trkpt>
      <trkpt lat="46.89109" lon="12.18976">
        <ele>1829.53</ele>
        <time>2015-02-25T08:27:22Z</time>
      </trkpt>
      <trkpt lat="46.89101" lon="12.1899">
        <ele>1830.49</ele>
        <time>2015-02-25T08:27:37Z</time>
      </trkpt>
      <trkpt lat="46.89096" lon="12.19003">
        <ele>1830.97</ele>
        <time>2015-02-25T08:27:53Z</time>
      </trkpt>
      <trkpt lat="46.89089" lon="12.19015">
        <ele>1832.41</ele>
        <time>2015-02-25T08:28:08Z</time>
      </trkpt>
      <trkpt lat="46.89081" lon="12.1903">
        <ele>1833.37</ele>
        <time>2015-02-25T08:28:22Z</time>
      </trkpt>
      <trkpt lat="46.8908" lon="12.19033">
        <ele>1833.85</ele>
        <time>2015-02-25T08:28:26Z</time>
      </trkpt>
      <trkpt lat="46.89079" lon="12.1904">
        <ele>1833.85</ele>
        <time>2015-02-25T08:28:31Z</time>
      </trkpt>
      <trkpt lat="46.89074" lon="12.19062">
        <ele>1835.77</ele>
        <time>2015-02-25T08:28:46Z</time>
      </trkpt>
      <trkpt lat="46.89071" lon="12.19076">
        <ele>1836.74</ele>
        <time>2015-02-25T08:28:59Z</time>
      </trkpt>
      <trkpt lat="46.89068" lon="12.19094">
        <ele>1837.7</ele>
        <time>2015-02-25T08:29:14Z</time>
      </trkpt>
      <trkpt lat="46.89064" lon="12.19117">
        <ele>1838.66</ele>
        <time>2015-02-25T08:29:31Z</time>
      </trkpt>
      <trkpt lat="46.8906" lon="12.19133">
        <ele>1840.1</ele>
        <time>2015-02-25T08:29:44Z</time>
      </trkpt>
      <trkpt lat="46.89056" lon="12.19145">
        <ele>1840.58</ele>
        <time>2015-02-25T08:29:56Z</time>
      </trkpt>
      <trkpt lat="46.89049" lon="12.19161">
        <ele>1841.54</ele>
        <time>2015-02-25T08:30:11Z</time>
      </trkpt>
      <trkpt lat="46.89041" lon="12.19179">
        <ele>1842.5</ele>
        <time>2015-02-25T08:30:28Z</time>
      </trkpt>
      <trkpt lat="46.89033" lon="12.192">
        <ele>1843.47</ele>
        <time>2015-02-25T08:30:45Z</time>
      </trkpt>
      <trkpt lat="46.89027" lon="12.19208">
        <ele>1844.43</ele>
        <time>2015-02-25T08:30:54Z</time>
      </trkpt>
      <trkpt lat="46.89021" lon="12.19219">
        <ele>1845.39</ele>
        <time>2015-02-25T08:31:05Z</time>
      </trkpt>
      <trkpt lat="46.8901" lon="12.19232">
        <ele>1846.83</ele>
        <time>2015-02-25T08:31:21Z</time>
      </trkpt>
      <trkpt lat="46.89001" lon="12.19236">
        <ele>1847.31</ele>
        <time>2015-02-25T08:31:34Z</time>
      </trkpt>
      <trkpt lat="46.89" lon="12.19237">
        <ele>1847.31</ele>
        <time>2015-02-25T08:31:36Z</time>
      </trkpt>
      <trkpt lat="46.88987" lon="12.19242">
        <ele>1849.23</ele>
        <time>2015-02-25T08:31:52Z</time>
      </trkpt>
      <trkpt lat="46.88978" lon="12.19248">
        <ele>1850.19</ele>
        <time>2015-02-25T08:32:04Z</time>
      </trkpt>
      <trkpt lat="46.88965" lon="12.19254">
        <ele>1851.16</ele>
        <time>2015-02-25T08:32:19Z</time>
      </trkpt>
      <trkpt lat="46.88953" lon="12.19257">
        <ele>1852.12</ele>
        <time>2015-02-25T08:32:34Z</time>
      </trkpt>
      <trkpt lat="46.88942" lon="12.19251">
        <ele>1853.08</ele>
        <time>2015-02-25T08:32:46Z</time>
      </trkpt>
      <trkpt lat="46.88932" lon="12.19242">
        <ele>1854.04</ele>
        <time>2015-02-25T08:32:59Z</time>
      </trkpt>
      <trkpt lat="46.88928" lon="12.19241">
        <ele>1854.52</ele>
        <time>2015-02-25T08:33:03Z</time>
      </trkpt>
      <trkpt lat="46.8892" lon="12.19245">
        <ele>1855</ele>
        <time>2015-02-25T08:33:18Z</time>
      </trkpt>
      <trkpt lat="46.88922" lon="12.19243">
        <ele>1854.04</ele>
        <time>2015-02-25T08:33:34Z</time>
      </trkpt>
      <trkpt lat="46.88913" lon="12.19249">
        <ele>1854.52</ele>
        <time>2015-02-25T08:34:04Z</time>
      </trkpt>
      <trkpt lat="46.88917" lon="12.19244">
        <ele>1855</ele>
        <time>2015-02-25T08:34:37Z</time>
      </trkpt>
      <trkpt lat="46.88919" lon="12.19246">
        <ele>1855.48</ele>
        <time>2015-02-25T08:34:53Z</time>
      </trkpt>
      <trkpt lat="46.88913" lon="12.19246">
        <ele>1856.44</ele>
        <time>2015-02-25T08:35:08Z</time>
      </trkpt>
      <trkpt lat="46.8891" lon="12.19257">
        <ele>1858.37</ele>
        <time>2015-02-25T08:35:20Z</time>
      </trkpt>
      <trkpt lat="46.88908" lon="12.19261">
        <ele>1860.77</ele>
        <time>2015-02-25T08:35:35Z</time>
      </trkpt>
      <trkpt lat="46.88901" lon="12.19262">
        <ele>1862.69</ele>
        <time>2015-02-25T08:35:51Z</time>
      </trkpt>
      <trkpt lat="46.88896" lon="12.19271">
        <ele>1866.06</ele>
        <time>2015-02-25T08:36:05Z</time>
      </trkpt>
      <trkpt lat="46.889" lon="12.19285">
        <ele>1866.54</ele>
        <time>2015-02-25T08:36:23Z</time>
      </trkpt>
      <trkpt lat="46.88904" lon="12.19293">
        <ele>1867.5</ele>
        <time>2015-02-25T08:36:32Z</time>
      </trkpt>
      <trkpt lat="46.88908" lon="12.19307">
        <ele>1868.94</ele>
        <time>2015-02-25T08:36:41Z</time>
      </trkpt>
      <trkpt lat="46.88909" lon="12.19307">
        <ele>1867.98</ele>
        <time>2015-02-25T08:36:42Z</time>
      </trkpt>
      <trkpt lat="46.88918" lon="12.19324">
        <ele>1867.98</ele>
        <time>2015-02-25T08:36:59Z</time>
      </trkpt>
      <trkpt lat="46.88924" lon="12.19334">
        <ele>1870.86</ele>
        <time>2015-02-25T08:37:17Z</time>
      </trkpt>
      <trkpt lat="46.88917" lon="12.19345">
        <ele>1872.79</ele>
        <time>2015-02-25T08:37:33Z</time>
      </trkpt>
      <trkpt lat="46.88916" lon="12.19358">
        <ele>1875.67</ele>
        <time>2015-02-25T08:37:50Z</time>
      </trkpt>
      <trkpt lat="46.88913" lon="12.19362">
        <ele>1877.11</ele>
        <time>2015-02-25T08:38:03Z</time>
      </trkpt>
      <trkpt lat="46.8891" lon="12.19366">
        <ele>1879.03</ele>
        <time>2015-02-25T08:38:18Z</time>
      </trkpt>
      <trkpt lat="46.8891" lon="12.19373">
        <ele>1881.44</ele>
        <time>2015-02-25T08:38:31Z</time>
      </trkpt>
      <trkpt lat="46.8891" lon="12.19383">
        <ele>1884.32</ele>
        <time>2015-02-25T08:38:42Z</time>
      </trkpt>
      <trkpt lat="46.88911" lon="12.19383">
        <ele>1882.88</ele>
        <time>2015-02-25T08:38:43Z</time>
      </trkpt>
      <trkpt lat="46.88911" lon="12.19387">
        <ele>1885.28</ele>
        <time>2015-02-25T08:39:02Z</time>
      </trkpt>
      <trkpt lat="46.88908" lon="12.19392">
        <ele>1888.65</ele>
        <time>2015-02-25T08:39:14Z</time>
      </trkpt>
      <trkpt lat="46.88907" lon="12.19396">
        <ele>1889.13</ele>
        <time>2015-02-25T08:39:28Z</time>
      </trkpt>
      <trkpt lat="46.88908" lon="12.19407">
        <ele>1891.05</ele>
        <time>2015-02-25T08:39:46Z</time>
      </trkpt>
      <trkpt lat="46.88915" lon="12.1941">
        <ele>1892.97</ele>
        <time>2015-02-25T08:40:03Z</time>
      </trkpt>
      <trkpt lat="46.88912" lon="12.19413">
        <ele>1894.42</ele>
        <time>2015-02-25T08:40:21Z</time>
      </trkpt>
      <trkpt lat="46.88904" lon="12.19415">
        <ele>1896.34</ele>
        <time>2015-02-25T08:40:38Z</time>
      </trkpt>
      <trkpt lat="46.88903" lon="12.19418">
        <ele>1898.26</ele>
        <time>2015-02-25T08:40:44Z</time>
      </trkpt>
      <trkpt lat="46.88912" lon="12.19424">
        <ele>1898.74</ele>
        <time>2015-02-25T08:41:00Z</time>
      </trkpt>
      <trkpt lat="46.88923" lon="12.19419">
        <ele>1899.7</ele>
        <time>2015-02-25T08:41:14Z</time>
      </trkpt>
      <trkpt lat="46.88933" lon="12.19417">
        <ele>1902.11</ele>
        <time>2015-02-25T08:41:29Z</time>
      </trkpt>
      <trkpt lat="46.8894" lon="12.19424">
        <ele>1903.55</ele>
        <time>2015-02-25T08:41:45Z</time>
      </trkpt>
      <trkpt lat="46.88944" lon="12.19427">
        <ele>1904.51</ele>
        <time>2015-02-25T08:41:51Z</time>
      </trkpt>
      <trkpt lat="46.88947" lon="12.19439">
        <ele>1905.95</ele>
        <time>2015-02-25T08:42:08Z</time>
      </trkpt>
      <trkpt lat="46.88948" lon="12.19446">
        <ele>1908.83</ele>
        <time>2015-02-25T08:42:28Z</time>
      </trkpt>
      <trkpt lat="46.8894" lon="12.19448">
        <ele>1910.76</ele>
        <time>2015-02-25T08:42:44Z</time>
      </trkpt>
      <trkpt lat="46.88931" lon="12.19452">
        <ele>1913.16</ele>
        <time>2015-02-25T08:43:02Z</time>
      </trkpt>
      <trkpt lat="46.88922" lon="12.19457">
        <ele>1915.08</ele>
        <time>2015-02-25T08:43:16Z</time>
      </trkpt>
      <trkpt lat="46.88916" lon="12.19465">
        <ele>1917.01</ele>
        <time>2015-02-25T08:43:30Z</time>
      </trkpt>
      <trkpt lat="46.88912" lon="12.19466">
        <ele>1919.41</ele>
        <time>2015-02-25T08:43:46Z</time>
      </trkpt>
      <trkpt lat="46.88908" lon="12.19466">
        <ele>1919.89</ele>
        <time>2015-02-25T08:44:07Z</time>
      </trkpt>
      <trkpt lat="46.88908" lon="12.19469">
        <ele>1920.37</ele>
        <time>2015-02-25T08:44:11Z</time>
      </trkpt>
      <trkpt lat="46.88911" lon="12.19468">
        <ele>1918.45</ele>
        <time>2015-02-25T08:44:29Z</time>
      </trkpt>
      <trkpt lat="46.88908" lon="12.1947">
        <ele>1918.45</ele>
        <time>2015-02-25T08:44:58Z</time>
      </trkpt>
      <trkpt lat="46.8891" lon="12.19473">
        <ele>1918.45</ele>
        <time>2015-02-25T08:45:28Z</time>
      </trkpt>
      <trkpt lat="46.88912" lon="12.19472">
        <ele>1918.45</ele>
        <time>2015-02-25T08:46:02Z</time>
      </trkpt>
      <trkpt lat="46.88907" lon="12.19473">
        <ele>1918.93</ele>
        <time>2015-02-25T08:46:38Z</time>
      </trkpt>
      <trkpt lat="46.8891" lon="12.1947">
        <ele>1918.93</ele>
        <time>2015-02-25T08:46:59Z</time>
      </trkpt>
      <trkpt lat="46.88911" lon="12.19469">
        <ele>1918.93</ele>
        <time>2015-02-25T08:47:30Z</time>
      </trkpt>
      <trkpt lat="46.88907" lon="12.19468">
        <ele>1918.93</ele>
        <time>2015-02-25T08:47:57Z</time>
      </trkpt>
      <trkpt lat="46.88907" lon="12.19464">
        <ele>1919.41</ele>
        <time>2015-02-25T08:48:26Z</time>
      </trkpt>
      <trkpt lat="46.88903" lon="12.19464">
        <ele>1919.89</ele>
        <time>2015-02-25T08:48:58Z</time>
      </trkpt>
      <trkpt lat="46.88899" lon="12.19468">
        <ele>1919.41</ele>
        <time>2015-02-25T08:49:25Z</time>
      </trkpt>
      <trkpt lat="46.88909" lon="12.19472">
        <ele>1920.37</ele>
        <time>2015-02-25T08:50:00Z</time>
      </trkpt>
      <trkpt lat="46.88912" lon="12.19467">
        <ele>1920.37</ele>
        <time>2015-02-25T08:50:34Z</time>
      </trkpt>
      <trkpt lat="46.88912" lon="12.19469">
        <ele>1920.85</ele>
        <time>2015-02-25T08:51:00Z</time>
      </trkpt>
      <trkpt lat="46.88916" lon="12.19469">
        <ele>1919.41</ele>
        <time>2015-02-25T08:51:30Z</time>
      </trkpt>
      <trkpt lat="46.88923" lon="12.19472">
        <ele>1919.41</ele>
        <time>2015-02-25T08:52:04Z</time>
      </trkpt>
      <trkpt lat="46.88922" lon="12.1947">
        <ele>1919.41</ele>
        <time>2015-02-25T08:52:30Z</time>
      </trkpt>
      <trkpt lat="46.88919" lon="12.19471">
        <ele>1919.89</ele>
        <time>2015-02-25T08:52:54Z</time>
      </trkpt>
      <trkpt lat="46.88915" lon="12.19469">
        <ele>1921.33</ele>
        <time>2015-02-25T08:53:16Z</time>
      </trkpt>
      <trkpt lat="46.88904" lon="12.19467">
        <ele>1921.81</ele>
        <time>2015-02-25T08:53:47Z</time>
      </trkpt>
      <trkpt lat="46.88897" lon="12.1947">
        <ele>1921.81</ele>
        <time>2015-02-25T08:54:07Z</time>
      </trkpt>
      <trkpt lat="46.88887" lon="12.19465">
        <ele>1923.74</ele>
        <time>2015-02-25T08:54:23Z</time>
      </trkpt>
      <trkpt lat="46.88881" lon="12.19452">
        <ele>1926.14</ele>
        <time>2015-02-25T08:54:35Z</time>
      </trkpt>
      <trkpt lat="46.88872" lon="12.19443">
        <ele>1929.5</ele>
        <time>2015-02-25T08:54:51Z</time>
      </trkpt>
      <trkpt lat="46.88866" lon="12.19436">
        <ele>1929.5</ele>
        <time>2015-02-25T08:55:06Z</time>
      </trkpt>
      <trkpt lat="46.88857" lon="12.19429">
        <ele>1931.43</ele>
        <time>2015-02-25T08:55:22Z</time>
      </trkpt>
      <trkpt lat="46.88849" lon="12.19427">
        <ele>1932.39</ele>
        <time>2015-02-25T08:55:30Z</time>
      </trkpt>
      <trkpt lat="46.8884" lon="12.19425">
        <ele>1934.79</ele>
        <time>2015-02-25T08:55:46Z</time>
      </trkpt>
      <trkpt lat="46.88827" lon="12.19424">
        <ele>1936.71</ele>
        <time>2015-02-25T08:56:05Z</time>
      </trkpt>
      <trkpt lat="46.88817" lon="12.1942">
        <ele>1939.12</ele>
        <time>2015-02-25T08:56:27Z</time>
      </trkpt>
      <trkpt lat="46.88807" lon="12.19418">
        <ele>1942</ele>
        <time>2015-02-25T08:56:47Z</time>
      </trkpt>
      <trkpt lat="46.8881" lon="12.19436">
        <ele>1942.96</ele>
        <time>2015-02-25T08:57:02Z</time>
      </trkpt>
      <trkpt lat="46.88818" lon="12.19448">
        <ele>1944.4</ele>
        <time>2015-02-25T08:57:17Z</time>
      </trkpt>
      <trkpt lat="46.88817" lon="12.19459">
        <ele>1946.33</ele>
        <time>2015-02-25T08:57:33Z</time>
      </trkpt>
      <trkpt lat="46.88811" lon="12.19453">
        <ele>1948.73</ele>
        <time>2015-02-25T08:57:49Z</time>
      </trkpt>
      <trkpt lat="46.88799" lon="12.1945">
        <ele>1950.17</ele>
        <time>2015-02-25T08:58:05Z</time>
      </trkpt>
      <trkpt lat="46.88793" lon="12.19457">
        <ele>1951.61</ele>
        <time>2015-02-25T08:58:20Z</time>
      </trkpt>
      <trkpt lat="46.88802" lon="12.19463">
        <ele>1953.06</ele>
        <time>2015-02-25T08:58:34Z</time>
      </trkpt>
      <trkpt lat="46.88809" lon="12.1947">
        <ele>1954.5</ele>
        <time>2015-02-25T08:58:49Z</time>
      </trkpt>
      <trkpt lat="46.88813" lon="12.19478">
        <ele>1956.9</ele>
        <time>2015-02-25T08:59:09Z</time>
      </trkpt>
      <trkpt lat="46.88814" lon="12.19485">
        <ele>1956.42</ele>
        <time>2015-02-25T08:59:16Z</time>
      </trkpt>
      <trkpt lat="46.88824" lon="12.19497">
        <ele>1958.82</ele>
        <time>2015-02-25T08:59:35Z</time>
      </trkpt>
      <trkpt lat="46.88834" lon="12.19505">
        <ele>1960.27</ele>
        <time>2015-02-25T08:59:50Z</time>
      </trkpt>
      <trkpt lat="46.88838" lon="12.19516">
        <ele>1962.67</ele>
        <time>2015-02-25T09:00:08Z</time>
      </trkpt>
      <trkpt lat="46.88849" lon="12.19526">
        <ele>1965.55</ele>
        <time>2015-02-25T09:00:26Z</time>
      </trkpt>
      <trkpt lat="46.8885" lon="12.19528">
        <ele>1965.07</ele>
        <time>2015-02-25T09:00:28Z</time>
      </trkpt>
      <trkpt lat="46.88853" lon="12.19541">
        <ele>1966.51</ele>
        <time>2015-02-25T09:00:45Z</time>
      </trkpt>
      <trkpt lat="46.88853" lon="12.19544">
        <ele>1966.51</ele>
        <time>2015-02-25T09:00:47Z</time>
      </trkpt>
      <trkpt lat="46.88859" lon="12.19559">
        <ele>1967.96</ele>
        <time>2015-02-25T09:01:06Z</time>
      </trkpt>
      <trkpt lat="46.88865" lon="12.19573">
        <ele>1970.36</ele>
        <time>2015-02-25T09:01:27Z</time>
      </trkpt>
      <trkpt lat="46.88866" lon="12.19582">
        <ele>1971.8</ele>
        <time>2015-02-25T09:01:42Z</time>
      </trkpt>
      <trkpt lat="46.88858" lon="12.19579">
        <ele>1973.72</ele>
        <time>2015-02-25T09:01:58Z</time>
      </trkpt>
      <trkpt lat="46.88848" lon="12.19573">
        <ele>1976.13</ele>
        <time>2015-02-25T09:02:18Z</time>
      </trkpt>
      <trkpt lat="46.8884" lon="12.19568">
        <ele>1977.57</ele>
        <time>2015-02-25T09:02:33Z</time>
      </trkpt>
      <trkpt lat="46.8883" lon="12.1957">
        <ele>1979.49</ele>
        <time>2015-02-25T09:02:49Z</time>
      </trkpt>
      <trkpt lat="46.8884" lon="12.19582">
        <ele>1980.45</ele>
        <time>2015-02-25T09:03:04Z</time>
      </trkpt>
      <trkpt lat="46.8885" lon="12.19594">
        <ele>1982.86</ele>
        <time>2015-02-25T09:03:24Z</time>
      </trkpt>
      <trkpt lat="46.88855" lon="12.19604">
        <ele>1984.3</ele>
        <time>2015-02-25T09:03:41Z</time>
      </trkpt>
      <trkpt lat="46.88868" lon="12.1961">
        <ele>1987.66</ele>
        <time>2015-02-25T09:04:02Z</time>
      </trkpt>
      <trkpt lat="46.88878" lon="12.19619">
        <ele>1989.59</ele>
        <time>2015-02-25T09:04:23Z</time>
      </trkpt>
      <trkpt lat="46.8888" lon="12.19633">
        <ele>1991.51</ele>
        <time>2015-02-25T09:04:40Z</time>
      </trkpt>
      <trkpt lat="46.88891" lon="12.19641">
        <ele>1994.87</ele>
        <time>2015-02-25T09:04:56Z</time>
      </trkpt>
      <trkpt lat="46.88895" lon="12.19652">
        <ele>1994.39</ele>
        <time>2015-02-25T09:05:12Z</time>
      </trkpt>
      <trkpt lat="46.88891" lon="12.19654">
        <ele>1997.28</ele>
        <time>2015-02-25T09:05:33Z</time>
      </trkpt>
      <trkpt lat="46.88883" lon="12.19647">
        <ele>1999.2</ele>
        <time>2015-02-25T09:05:49Z</time>
      </trkpt>
      <trkpt lat="46.8887" lon="12.1964">
        <ele>2000.64</ele>
        <time>2015-02-25T09:06:07Z</time>
      </trkpt>
      <trkpt lat="46.88865" lon="12.19648">
        <ele>2002.08</ele>
        <time>2015-02-25T09:06:20Z</time>
      </trkpt>
      <trkpt lat="46.88872" lon="12.19657">
        <ele>2005.45</ele>
        <time>2015-02-25T09:06:39Z</time>
      </trkpt>
      <trkpt lat="46.8888" lon="12.19665">
        <ele>2006.89</ele>
        <time>2015-02-25T09:06:56Z</time>
      </trkpt>
      <trkpt lat="46.88884" lon="12.19676">
        <ele>2009.77</ele>
        <time>2015-02-25T09:07:12Z</time>
      </trkpt>
      <trkpt lat="46.88889" lon="12.19693">
        <ele>2010.25</ele>
        <time>2015-02-25T09:07:30Z</time>
      </trkpt>
      <trkpt lat="46.88902" lon="12.19703">
        <ele>2009.77</ele>
        <time>2015-02-25T09:07:47Z</time>
      </trkpt>
      <trkpt lat="46.88913" lon="12.19711">
        <ele>2010.73</ele>
        <time>2015-02-25T09:08:05Z</time>
      </trkpt>
      <trkpt lat="46.88915" lon="12.19721">
        <ele>2013.62</ele>
        <time>2015-02-25T09:08:19Z</time>
      </trkpt>
      <trkpt lat="46.8891" lon="12.19719">
        <ele>2015.06</ele>
        <time>2015-02-25T09:08:35Z</time>
      </trkpt>
      <trkpt lat="46.88911" lon="12.19726">
        <ele>2016.5</ele>
        <time>2015-02-25T09:08:51Z</time>
      </trkpt>
      <trkpt lat="46.88915" lon="12.19734">
        <ele>2019.39</ele>
        <time>2015-02-25T09:09:11Z</time>
      </trkpt>
      <trkpt lat="46.88908" lon="12.19741">
        <ele>2022.27</ele>
        <time>2015-02-25T09:09:28Z</time>
      </trkpt>
      <trkpt lat="46.88899" lon="12.19748">
        <ele>2023.71</ele>
        <time>2015-02-25T09:09:47Z</time>
      </trkpt>
      <trkpt lat="46.88891" lon="12.19745">
        <ele>2025.64</ele>
        <time>2015-02-25T09:10:02Z</time>
      </trkpt>
      <trkpt lat="46.88883" lon="12.19738">
        <ele>2026.6</ele>
        <time>2015-02-25T09:10:17Z</time>
      </trkpt>
      <trkpt lat="46.88877" lon="12.19737">
        <ele>2026.6</ele>
        <time>2015-02-25T09:10:32Z</time>
      </trkpt>
      <trkpt lat="46.88865" lon="12.19737">
        <ele>2027.56</ele>
        <time>2015-02-25T09:10:47Z</time>
      </trkpt>
      <trkpt lat="46.88861" lon="12.19735">
        <ele>2030.44</ele>
        <time>2015-02-25T09:10:59Z</time>
      </trkpt>
      <trkpt lat="46.88857" lon="12.19725">
        <ele>2031.4</ele>
        <time>2015-02-25T09:11:15Z</time>
      </trkpt>
      <trkpt lat="46.88854" lon="12.19721">
        <ele>2032.84</ele>
        <time>2015-02-25T09:11:31Z</time>
      </trkpt>
      <trkpt lat="46.8885" lon="12.19717">
        <ele>2032.84</ele>
        <time>2015-02-25T09:11:46Z</time>
      </trkpt>
      <trkpt lat="46.88847" lon="12.19715">
        <ele>2031.88</ele>
        <time>2015-02-25T09:12:02Z</time>
      </trkpt>
      <trkpt lat="46.88846" lon="12.19712">
        <ele>2031.4</ele>
        <time>2015-02-25T09:12:09Z</time>
      </trkpt>
      <trkpt lat="46.88841" lon="12.19716">
        <ele>2032.84</ele>
        <time>2015-02-25T09:12:22Z</time>
      </trkpt>
      <trkpt lat="46.8884" lon="12.1972">
        <ele>2034.77</ele>
        <time>2015-02-25T09:12:26Z</time>
      </trkpt>
      <trkpt lat="46.88832" lon="12.19733">
        <ele>2036.21</ele>
        <time>2015-02-25T09:12:45Z</time>
      </trkpt>
      <trkpt lat="46.88825" lon="12.19746">
        <ele>2039.57</ele>
        <time>2015-02-25T09:13:00Z</time>
      </trkpt>
      <trkpt lat="46.8882" lon="12.19757">
        <ele>2040.05</ele>
        <time>2015-02-25T09:13:14Z</time>
      </trkpt>
      <trkpt lat="46.88817" lon="12.19768">
        <ele>2042.46</ele>
        <time>2015-02-25T09:13:27Z</time>
      </trkpt>
      <trkpt lat="46.88814" lon="12.19779">
        <ele>2042.94</ele>
        <time>2015-02-25T09:13:42Z</time>
      </trkpt>
      <trkpt lat="46.88813" lon="12.19786">
        <ele>2046.3</ele>
        <time>2015-02-25T09:13:54Z</time>
      </trkpt>
      <trkpt lat="46.88811" lon="12.19795">
        <ele>2045.34</ele>
        <time>2015-02-25T09:14:07Z</time>
      </trkpt>
      <trkpt lat="46.8881" lon="12.198">
        <ele>2047.75</ele>
        <time>2015-02-25T09:14:14Z</time>
      </trkpt>
      <trkpt lat="46.88808" lon="12.1981">
        <ele>2049.19</ele>
        <time>2015-02-25T09:14:28Z</time>
      </trkpt>
      <trkpt lat="46.88801" lon="12.19822">
        <ele>2050.15</ele>
        <time>2015-02-25T09:14:45Z</time>
      </trkpt>
      <trkpt lat="46.88797" lon="12.19832">
        <ele>2051.59</ele>
        <time>2015-02-25T09:14:57Z</time>
      </trkpt>
      <trkpt lat="46.88792" lon="12.19843">
        <ele>2051.59</ele>
        <time>2015-02-25T09:15:11Z</time>
      </trkpt>
      <trkpt lat="46.88788" lon="12.19855">
        <ele>2053.99</ele>
        <time>2015-02-25T09:15:27Z</time>
      </trkpt>
      <trkpt lat="46.88785" lon="12.19864">
        <ele>2054.47</ele>
        <time>2015-02-25T09:15:41Z</time>
      </trkpt>
      <trkpt lat="46.88783" lon="12.19877">
        <ele>2056.88</ele>
        <time>2015-02-25T09:15:56Z</time>
      </trkpt>
      <trkpt lat="46.88782" lon="12.19884">
        <ele>2058.8</ele>
        <time>2015-02-25T09:16:10Z</time>
      </trkpt>
      <trkpt lat="46.88778" lon="12.19889">
        <ele>2059.76</ele>
        <time>2015-02-25T09:16:25Z</time>
      </trkpt>
      <trkpt lat="46.88773" lon="12.19896">
        <ele>2061.68</ele>
        <time>2015-02-25T09:16:35Z</time>
      </trkpt>
      <trkpt lat="46.88766" lon="12.19904">
        <ele>2062.65</ele>
        <time>2015-02-25T09:16:48Z</time>
      </trkpt>
      <trkpt lat="46.88763" lon="12.1991">
        <ele>2063.61</ele>
        <time>2015-02-25T09:17:03Z</time>
      </trkpt>
      <trkpt lat="46.88761" lon="12.19911">
        <ele>2063.13</ele>
        <time>2015-02-25T09:17:05Z</time>
      </trkpt>
      <trkpt lat="46.88749" lon="12.19905">
        <ele>2061.68</ele>
        <time>2015-02-25T09:17:21Z</time>
      </trkpt>
      <trkpt lat="46.88746" lon="12.19901">
        <ele>2061.68</ele>
        <time>2015-02-25T09:17:36Z</time>
      </trkpt>
      <trkpt lat="46.88747" lon="12.19903">
        <ele>2060.72</ele>
        <time>2015-02-25T09:17:55Z</time>
      </trkpt>
      <trkpt lat="46.88748" lon="12.19904">
        <ele>2060.24</ele>
        <time>2015-02-25T09:18:12Z</time>
      </trkpt>
      <trkpt lat="46.88748" lon="12.19906">
        <ele>2060.72</ele>
        <time>2015-02-25T09:18:39Z</time>
      </trkpt>
      <trkpt lat="46.88751" lon="12.19912">
        <ele>2059.28</ele>
        <time>2015-02-25T09:18:53Z</time>
      </trkpt>
      <trkpt lat="46.8875" lon="12.19909">
        <ele>2060.24</ele>
        <time>2015-02-25T09:19:16Z</time>
      </trkpt>
      <trkpt lat="46.88752" lon="12.19912">
        <ele>2060.72</ele>
        <time>2015-02-25T09:19:39Z</time>
      </trkpt>
      <trkpt lat="46.88752" lon="12.19911">
        <ele>2060.72</ele>
        <time>2015-02-25T09:20:11Z</time>
      </trkpt>
      <trkpt lat="46.88748" lon="12.1991">
        <ele>2060.24</ele>
        <time>2015-02-25T09:20:30Z</time>
      </trkpt>
      <trkpt lat="46.88748" lon="12.19909">
        <ele>2061.2</ele>
        <time>2015-02-25T09:21:01Z</time>
      </trkpt>
      <trkpt lat="46.88749" lon="12.1991">
        <ele>2062.65</ele>
        <time>2015-02-25T09:21:18Z</time>
      </trkpt>
      <trkpt lat="46.88747" lon="12.19908">
        <ele>2063.13</ele>
        <time>2015-02-25T09:21:39Z</time>
      </trkpt>
      <trkpt lat="46.88752" lon="12.19911">
        <ele>2060.72</ele>
        <time>2015-02-25T09:21:59Z</time>
      </trkpt>
      <trkpt lat="46.88751" lon="12.19909">
        <ele>2061.68</ele>
        <time>2015-02-25T09:22:22Z</time>
      </trkpt>
      <trkpt lat="46.88751" lon="12.19908">
        <ele>2062.17</ele>
        <time>2015-02-25T09:22:43Z</time>
      </trkpt>
      <trkpt lat="46.88749" lon="12.19903">
        <ele>2062.17</ele>
        <time>2015-02-25T09:22:49Z</time>
      </trkpt>
      <trkpt lat="46.88741" lon="12.19893">
        <ele>2061.2</ele>
        <time>2015-02-25T09:23:02Z</time>
      </trkpt>
      <trkpt lat="46.8874" lon="12.19893">
        <ele>2061.2</ele>
        <time>2015-02-25T09:23:03Z</time>
      </trkpt>
      <trkpt lat="46.88737" lon="12.19898">
        <ele>2063.61</ele>
        <time>2015-02-25T09:23:10Z</time>
      </trkpt>
      <trkpt lat="46.88731" lon="12.1991">
        <ele>2064.09</ele>
        <time>2015-02-25T09:23:23Z</time>
      </trkpt>
      <trkpt lat="46.88729" lon="12.19915">
        <ele>2065.53</ele>
        <time>2015-02-25T09:23:29Z</time>
      </trkpt>
      <trkpt lat="46.88725" lon="12.19931">
        <ele>2067.93</ele>
        <time>2015-02-25T09:23:44Z</time>
      </trkpt>
      <trkpt lat="46.88728" lon="12.19943">
        <ele>2066.49</ele>
        <time>2015-02-25T09:23:59Z</time>
      </trkpt>
      <trkpt lat="46.88728" lon="12.19946">
        <ele>2069.86</ele>
        <time>2015-02-25T09:24:02Z</time>
      </trkpt>
      <trkpt lat="46.8873" lon="12.19947">
        <ele>2067.93</ele>
        <time>2015-02-25T09:24:05Z</time>
      </trkpt>
      <trkpt lat="46.8873" lon="12.19948">
        <ele>2070.34</ele>
        <time>2015-02-25T09:24:10Z</time>
      </trkpt>
      <trkpt lat="46.88726" lon="12.19958">
        <ele>2069.38</ele>
        <time>2015-02-25T09:24:20Z</time>
      </trkpt>
      <trkpt lat="46.88726" lon="12.19964">
        <ele>2068.89</ele>
        <time>2015-02-25T09:24:24Z</time>
      </trkpt>
      <trkpt lat="46.88727" lon="12.19974">
        <ele>2069.38</ele>
        <time>2015-02-25T09:24:38Z</time>
      </trkpt>
      <trkpt lat="46.88725" lon="12.20003">
        <ele>2066.49</ele>
        <time>2015-02-25T09:24:52Z</time>
      </trkpt>
      <trkpt lat="46.88722" lon="12.20024">
        <ele>2066.97</ele>
        <time>2015-02-25T09:25:04Z</time>
      </trkpt>
      <trkpt lat="46.88721" lon="12.20031">
        <ele>2065.53</ele>
        <time>2015-02-25T09:25:09Z</time>
      </trkpt>
      <trkpt lat="46.8872" lon="12.20053">
        <ele>2065.53</ele>
        <time>2015-02-25T09:25:24Z</time>
      </trkpt>
      <trkpt lat="46.88717" lon="12.20071">
        <ele>2067.45</ele>
        <time>2015-02-25T09:25:40Z</time>
      </trkpt>
      <trkpt lat="46.88716" lon="12.20087">
        <ele>2069.86</ele>
        <time>2015-02-25T09:25:57Z</time>
      </trkpt>
      <trkpt lat="46.88715" lon="12.20102">
        <ele>2072.74</ele>
        <time>2015-02-25T09:26:13Z</time>
      </trkpt>
      <trkpt lat="46.88714" lon="12.20117">
        <ele>2075.14</ele>
        <time>2015-02-25T09:26:29Z</time>
      </trkpt>
      <trkpt lat="46.88711" lon="12.20124">
        <ele>2076.59</ele>
        <time>2015-02-25T09:26:41Z</time>
      </trkpt>
      <trkpt lat="46.88708" lon="12.20133">
        <ele>2078.51</ele>
        <time>2015-02-25T09:26:56Z</time>
      </trkpt>
      <trkpt lat="46.88705" lon="12.20145">
        <ele>2079.95</ele>
        <time>2015-02-25T09:27:11Z</time>
      </trkpt>
      <trkpt lat="46.887" lon="12.20155">
        <ele>2080.91</ele>
        <time>2015-02-25T09:27:23Z</time>
      </trkpt>
      <trkpt lat="46.88697" lon="12.20164">
        <ele>2082.35</ele>
        <time>2015-02-25T09:27:35Z</time>
      </trkpt>
      <trkpt lat="46.88692" lon="12.20178">
        <ele>2082.35</ele>
        <time>2015-02-25T09:27:50Z</time>
      </trkpt>
      <trkpt lat="46.88688" lon="12.20197">
        <ele>2083.79</ele>
        <time>2015-02-25T09:28:05Z</time>
      </trkpt>
      <trkpt lat="46.88685" lon="12.20212">
        <ele>2083.79</ele>
        <time>2015-02-25T09:28:18Z</time>
      </trkpt>
      <trkpt lat="46.88685" lon="12.20216">
        <ele>2084.76</ele>
        <time>2015-02-25T09:28:22Z</time>
      </trkpt>
      <trkpt lat="46.88684" lon="12.20229">
        <ele>2086.2</ele>
        <time>2015-02-25T09:28:37Z</time>
      </trkpt>
      <trkpt lat="46.88685" lon="12.20237">
        <ele>2088.6</ele>
        <time>2015-02-25T09:28:54Z</time>
      </trkpt>
      <trkpt lat="46.88685" lon="12.20245">
        <ele>2092.45</ele>
        <time>2015-02-25T09:29:07Z</time>
      </trkpt>
      <trkpt lat="46.88684" lon="12.20249">
        <ele>2092.45</ele>
        <time>2015-02-25T09:29:22Z</time>
      </trkpt>
      <trkpt lat="46.88681" lon="12.20255">
        <ele>2094.37</ele>
        <time>2015-02-25T09:29:35Z</time>
      </trkpt>
      <trkpt lat="46.88681" lon="12.20266">
        <ele>2095.81</ele>
        <time>2015-02-25T09:29:50Z</time>
      </trkpt>
      <trkpt lat="46.88682" lon="12.20275">
        <ele>2097.73</ele>
        <time>2015-02-25T09:30:04Z</time>
      </trkpt>
      <trkpt lat="46.88683" lon="12.20284">
        <ele>2099.18</ele>
        <time>2015-02-25T09:30:20Z</time>
      </trkpt>
      <trkpt lat="46.88684" lon="12.20292">
        <ele>2101.58</ele>
        <time>2015-02-25T09:30:33Z</time>
      </trkpt>
      <trkpt lat="46.88684" lon="12.20303">
        <ele>2102.54</ele>
        <time>2015-02-25T09:30:49Z</time>
      </trkpt>
      <trkpt lat="46.88683" lon="12.20312">
        <ele>2104.94</ele>
        <time>2015-02-25T09:31:04Z</time>
      </trkpt>
      <trkpt lat="46.88678" lon="12.20322">
        <ele>2105.42</ele>
        <time>2015-02-25T09:31:19Z</time>
      </trkpt>
      <trkpt lat="46.88677" lon="12.20324">
        <ele>2104.94</ele>
        <time>2015-02-25T09:31:21Z</time>
      </trkpt>
      <trkpt lat="46.88669" lon="12.20332">
        <ele>2105.42</ele>
        <time>2015-02-25T09:31:34Z</time>
      </trkpt>
      <trkpt lat="46.88663" lon="12.20339">
        <ele>2106.39</ele>
        <time>2015-02-25T09:31:48Z</time>
      </trkpt>
      <trkpt lat="46.88656" lon="12.20338">
        <ele>2109.27</ele>
        <time>2015-02-25T09:32:03Z</time>
      </trkpt>
      <trkpt lat="46.88652" lon="12.20333">
        <ele>2109.75</ele>
        <time>2015-02-25T09:32:09Z</time>
      </trkpt>
      <trkpt lat="46.88644" lon="12.20325">
        <ele>2109.75</ele>
        <time>2015-02-25T09:32:20Z</time>
      </trkpt>
      <trkpt lat="46.88633" lon="12.20325">
        <ele>2110.23</ele>
        <time>2015-02-25T09:32:36Z</time>
      </trkpt>
      <trkpt lat="46.88622" lon="12.20331">
        <ele>2110.71</ele>
        <time>2015-02-25T09:32:52Z</time>
      </trkpt>
      <trkpt lat="46.88614" lon="12.20327">
        <ele>2112.15</ele>
        <time>2015-02-25T09:33:07Z</time>
      </trkpt>
      <trkpt lat="46.88603" lon="12.20328">
        <ele>2114.08</ele>
        <time>2015-02-25T09:33:23Z</time>
      </trkpt>
      <trkpt lat="46.88592" lon="12.2033">
        <ele>2114.56</ele>
        <time>2015-02-25T09:33:38Z</time>
      </trkpt>
      <trkpt lat="46.88577" lon="12.20332">
        <ele>2115.04</ele>
        <time>2015-02-25T09:33:56Z</time>
      </trkpt>
      <trkpt lat="46.88569" lon="12.20331">
        <ele>2116</ele>
        <time>2015-02-25T09:34:10Z</time>
      </trkpt>
      <trkpt lat="46.88565" lon="12.20324">
        <ele>2117.44</ele>
        <time>2015-02-25T09:34:23Z</time>
      </trkpt>
      <trkpt lat="46.88563" lon="12.20325">
        <ele>2117.44</ele>
        <time>2015-02-25T09:34:48Z</time>
      </trkpt>
      <trkpt lat="46.88565" lon="12.20324">
        <ele>2117.44</ele>
        <time>2015-02-25T09:35:08Z</time>
      </trkpt>
      <trkpt lat="46.88565" lon="12.20324">
        <ele>2117.44</ele>
        <time>2015-02-25T09:35:29Z</time>
      </trkpt>
      <trkpt lat="46.88565" lon="12.20326">
        <ele>2117.92</ele>
        <time>2015-02-25T09:35:47Z</time>
      </trkpt>
      <trkpt lat="46.88564" lon="12.20324">
        <ele>2117.92</ele>
        <time>2015-02-25T09:36:05Z</time>
      </trkpt>
      <trkpt lat="46.88564" lon="12.20324">
        <ele>2117.92</ele>
        <time>2015-02-25T09:36:25Z</time>
      </trkpt>
      <trkpt lat="46.88564" lon="12.20324">
        <ele>2117.44</ele>
        <time>2015-02-25T09:36:27Z</time>
      </trkpt>
      <trkpt lat="46.88559" lon="12.20317">
        <ele>2116.96</ele>
        <time>2015-02-25T09:36:36Z</time>
      </trkpt>
      <trkpt lat="46.88558" lon="12.20316">
        <ele>2117.92</ele>
        <time>2015-02-25T09:36:52Z</time>
      </trkpt>
      <trkpt lat="46.88557" lon="12.20313">
        <ele>2118.88</ele>
        <time>2015-02-25T09:37:03Z</time>
      </trkpt>
      <trkpt lat="46.88552" lon="12.20305">
        <ele>2118.4</ele>
        <time>2015-02-25T09:37:16Z</time>
      </trkpt>
      <trkpt lat="46.88546" lon="12.20293">
        <ele>2118.88</ele>
        <time>2015-02-25T09:37:29Z</time>
      </trkpt>
      <trkpt lat="46.88542" lon="12.20285">
        <ele>2119.84</ele>
        <time>2015-02-25T09:37:41Z</time>
      </trkpt>
      <trkpt lat="46.88537" lon="12.20279">
        <ele>2122.25</ele>
        <time>2015-02-25T09:37:56Z</time>
      </trkpt>
      <trkpt lat="46.88527" lon="12.20263">
        <ele>2122.25</ele>
        <time>2015-02-25T09:38:12Z</time>
      </trkpt>
      <trkpt lat="46.8852" lon="12.2025">
        <ele>2122.73</ele>
        <time>2015-02-25T09:38:26Z</time>
      </trkpt>
      <trkpt lat="46.88519" lon="12.20235">
        <ele>2122.25</ele>
        <time>2015-02-25T09:38:40Z</time>
      </trkpt>
      <trkpt lat="46.88518" lon="12.20221">
        <ele>2123.21</ele>
        <time>2015-02-25T09:38:53Z</time>
      </trkpt>
      <trkpt lat="46.88513" lon="12.20203">
        <ele>2123.69</ele>
        <time>2015-02-25T09:39:07Z</time>
      </trkpt>
      <trkpt lat="46.88509" lon="12.20187">
        <ele>2124.65</ele>
        <time>2015-02-25T09:39:21Z</time>
      </trkpt>
      <trkpt lat="46.88507" lon="12.20176">
        <ele>2126.57</ele>
        <time>2015-02-25T09:39:30Z</time>
      </trkpt>
      <trkpt lat="46.88504" lon="12.20166">
        <ele>2126.57</ele>
        <time>2015-02-25T09:39:42Z</time>
      </trkpt>
      <trkpt lat="46.88501" lon="12.20151">
        <ele>2126.09</ele>
        <time>2015-02-25T09:39:57Z</time>
      </trkpt>
      <trkpt lat="46.88498" lon="12.20136">
        <ele>2126.57</ele>
        <time>2015-02-25T09:40:11Z</time>
      </trkpt>
      <trkpt lat="46.88498" lon="12.2012">
        <ele>2128.02</ele>
        <time>2015-02-25T09:40:27Z</time>
      </trkpt>
      <trkpt lat="46.88493" lon="12.20115">
        <ele>2128.98</ele>
        <time>2015-02-25T09:40:40Z</time>
      </trkpt>
      <trkpt lat="46.88494" lon="12.20114">
        <ele>2129.94</ele>
        <time>2015-02-25T09:40:45Z</time>
      </trkpt>
      <trkpt lat="46.88494" lon="12.20104">
        <ele>2129.94</ele>
        <time>2015-02-25T09:40:52Z</time>
      </trkpt>
      <trkpt lat="46.88492" lon="12.201">
        <ele>2130.42</ele>
        <time>2015-02-25T09:40:55Z</time>
      </trkpt>
      <trkpt lat="46.88483" lon="12.20082">
        <ele>2130.42</ele>
        <time>2015-02-25T09:41:10Z</time>
      </trkpt>
      <trkpt lat="46.88475" lon="12.20081">
        <ele>2132.34</ele>
        <time>2015-02-25T09:41:22Z</time>
      </trkpt>
      <trkpt lat="46.88464" lon="12.2009">
        <ele>2134.26</ele>
        <time>2015-02-25T09:41:44Z</time>
      </trkpt>
      <trkpt lat="46.88457" lon="12.20097">
        <ele>2136.67</ele>
        <time>2015-02-25T09:42:00Z</time>
      </trkpt>
      <trkpt lat="46.88453" lon="12.20106">
        <ele>2137.63</ele>
        <time>2015-02-25T09:42:15Z</time>
      </trkpt>
      <trkpt lat="46.88452" lon="12.20112">
        <ele>2139.55</ele>
        <time>2015-02-25T09:42:23Z</time>
      </trkpt>
      <trkpt lat="46.88448" lon="12.20123">
        <ele>2139.07</ele>
        <time>2015-02-25T09:42:38Z</time>
      </trkpt>
      <trkpt lat="46.88442" lon="12.20137">
        <ele>2139.07</ele>
        <time>2015-02-25T09:42:53Z</time>
      </trkpt>
      <trkpt lat="46.88434" lon="12.20142">
        <ele>2138.59</ele>
        <time>2015-02-25T09:43:05Z</time>
      </trkpt>
      <trkpt lat="46.88427" lon="12.20146">
        <ele>2138.11</ele>
        <time>2015-02-25T09:43:17Z</time>
      </trkpt>
      <trkpt lat="46.88423" lon="12.20145">
        <ele>2137.63</ele>
        <time>2015-02-25T09:43:22Z</time>
      </trkpt>
      <trkpt lat="46.88407" lon="12.20155">
        <ele>2136.19</ele>
        <time>2015-02-25T09:43:38Z</time>
      </trkpt>
      <trkpt lat="46.88393" lon="12.20163">
        <ele>2134.26</ele>
        <time>2015-02-25T09:43:55Z</time>
      </trkpt>
      <trkpt lat="46.88386" lon="12.20167">
        <ele>2133.78</ele>
        <time>2015-02-25T09:44:08Z</time>
      </trkpt>
      <trkpt lat="46.88382" lon="12.2017">
        <ele>2132.34</ele>
        <time>2015-02-25T09:44:16Z</time>
      </trkpt>
      <trkpt lat="46.88371" lon="12.20174">
        <ele>2131.86</ele>
        <time>2015-02-25T09:44:30Z</time>
      </trkpt>
      <trkpt lat="46.8837" lon="12.20174">
        <ele>2131.86</ele>
        <time>2015-02-25T09:44:31Z</time>
      </trkpt>
      <trkpt lat="46.88358" lon="12.20175">
        <ele>2132.34</ele>
        <time>2015-02-25T09:44:49Z</time>
      </trkpt>
      <trkpt lat="46.88351" lon="12.20177">
        <ele>2132.82</ele>
        <time>2015-02-25T09:45:03Z</time>
      </trkpt>
      <trkpt lat="46.8835" lon="12.20179">
        <ele>2132.34</ele>
        <time>2015-02-25T09:45:25Z</time>
      </trkpt>
      <trkpt lat="46.8835" lon="12.2018">
        <ele>2132.82</ele>
        <time>2015-02-25T09:45:52Z</time>
      </trkpt>
      <trkpt lat="46.8835" lon="12.20175">
        <ele>2132.82</ele>
        <time>2015-02-25T09:46:23Z</time>
      </trkpt>
      <trkpt lat="46.88343" lon="12.20179">
        <ele>2132.82</ele>
        <time>2015-02-25T09:46:40Z</time>
      </trkpt>
      <trkpt lat="46.88337" lon="12.20177">
        <ele>2133.3</ele>
        <time>2015-02-25T09:46:52Z</time>
      </trkpt>
      <trkpt lat="46.88332" lon="12.20174">
        <ele>2132.82</ele>
        <time>2015-02-25T09:46:58Z</time>
      </trkpt>
      <trkpt lat="46.88326" lon="12.20171">
        <ele>2131.38</ele>
        <time>2015-02-25T09:47:03Z</time>
      </trkpt>
      <trkpt lat="46.88314" lon="12.20161">
        <ele>2130.42</ele>
        <time>2015-02-25T09:47:17Z</time>
      </trkpt>
      <trkpt lat="46.883" lon="12.20152">
        <ele>2128.02</ele>
        <time>2015-02-25T09:47:33Z</time>
      </trkpt>
      <trkpt lat="46.88291" lon="12.20139">
        <ele>2127.05</ele>
        <time>2015-02-25T09:47:46Z</time>
      </trkpt>
      <trkpt lat="46.88288" lon="12.20132">
        <ele>2128.5</ele>
        <time>2015-02-25T09:47:59Z</time>
      </trkpt>
      <trkpt lat="46.88285" lon="12.20128">
        <ele>2128.5</ele>
        <time>2015-02-25T09:48:16Z</time>
      </trkpt>
      <trkpt lat="46.8828" lon="12.20118">
        <ele>2129.46</ele>
        <time>2015-02-25T09:48:26Z</time>
      </trkpt>
      <trkpt lat="46.88275" lon="12.20108">
        <ele>2130.9</ele>
        <time>2015-02-25T09:48:40Z</time>
      </trkpt>
      <trkpt lat="46.88271" lon="12.201">
        <ele>2132.82</ele>
        <time>2015-02-25T09:48:55Z</time>
      </trkpt>
      <trkpt lat="46.88261" lon="12.20094">
        <ele>2133.3</ele>
        <time>2015-02-25T09:49:09Z</time>
      </trkpt>
      <trkpt lat="46.88255" lon="12.20092">
        <ele>2134.74</ele>
        <time>2015-02-25T09:49:24Z</time>
      </trkpt>
      <trkpt lat="46.88245" lon="12.20095">
        <ele>2137.15</ele>
        <time>2015-02-25T09:49:42Z</time>
      </trkpt>
      <trkpt lat="46.88235" lon="12.20096">
        <ele>2138.59</ele>
        <time>2015-02-25T09:50:00Z</time>
      </trkpt>
      <trkpt lat="46.88229" lon="12.20099">
        <ele>2140.03</ele>
        <time>2015-02-25T09:50:15Z</time>
      </trkpt>
      <trkpt lat="46.88221" lon="12.20102">
        <ele>2140.99</ele>
        <time>2015-02-25T09:50:31Z</time>
      </trkpt>
      <trkpt lat="46.88214" lon="12.20108">
        <ele>2143.4</ele>
        <time>2015-02-25T09:50:49Z</time>
      </trkpt>
      <trkpt lat="46.88207" lon="12.20111">
        <ele>2145.32</ele>
        <time>2015-02-25T09:51:05Z</time>
      </trkpt>
      <trkpt lat="46.88202" lon="12.20115">
        <ele>2149.16</ele>
        <time>2015-02-25T09:51:18Z</time>
      </trkpt>
      <trkpt lat="46.88194" lon="12.20116">
        <ele>2148.68</ele>
        <time>2015-02-25T09:51:34Z</time>
      </trkpt>
      <trkpt lat="46.88189" lon="12.20116">
        <ele>2150.13</ele>
        <time>2015-02-25T09:51:49Z</time>
      </trkpt>
      <trkpt lat="46.88182" lon="12.20114">
        <ele>2152.05</ele>
        <time>2015-02-25T09:52:02Z</time>
      </trkpt>
      <trkpt lat="46.88176" lon="12.2012">
        <ele>2153.97</ele>
        <time>2015-02-25T09:52:17Z</time>
      </trkpt>
      <trkpt lat="46.8817" lon="12.20123">
        <ele>2155.41</ele>
        <time>2015-02-25T09:52:33Z</time>
      </trkpt>
      <trkpt lat="46.88165" lon="12.20127">
        <ele>2157.34</ele>
        <time>2015-02-25T09:52:48Z</time>
      </trkpt>
      <trkpt lat="46.88161" lon="12.20131">
        <ele>2159.26</ele>
        <time>2015-02-25T09:53:01Z</time>
      </trkpt>
      <trkpt lat="46.88156" lon="12.20135">
        <ele>2160.7</ele>
        <time>2015-02-25T09:53:15Z</time>
      </trkpt>
      <trkpt lat="46.8815" lon="12.2014">
        <ele>2162.62</ele>
        <time>2015-02-25T09:53:30Z</time>
      </trkpt>
      <trkpt lat="46.88143" lon="12.20142">
        <ele>2164.06</ele>
        <time>2015-02-25T09:53:45Z</time>
      </trkpt>
      <trkpt lat="46.88138" lon="12.20145">
        <ele>2165.51</ele>
        <time>2015-02-25T09:53:58Z</time>
      </trkpt>
      <trkpt lat="46.88134" lon="12.2015">
        <ele>2167.43</ele>
        <time>2015-02-25T09:54:10Z</time>
      </trkpt>
      <trkpt lat="46.88128" lon="12.20154">
        <ele>2168.87</ele>
        <time>2015-02-25T09:54:26Z</time>
      </trkpt>
      <trkpt lat="46.88122" lon="12.20145">
        <ele>2170.31</ele>
        <time>2015-02-25T09:54:40Z</time>
      </trkpt>
      <trkpt lat="46.88119" lon="12.20138">
        <ele>2171.76</ele>
        <time>2015-02-25T09:54:54Z</time>
      </trkpt>
      <trkpt lat="46.88114" lon="12.20126">
        <ele>2173.68</ele>
        <time>2015-02-25T09:55:08Z</time>
      </trkpt>
      <trkpt lat="46.88109" lon="12.20115">
        <ele>2174.64</ele>
        <time>2015-02-25T09:55:22Z</time>
      </trkpt>
      <trkpt lat="46.88102" lon="12.20101">
        <ele>2175.6</ele>
        <time>2015-02-25T09:55:37Z</time>
      </trkpt>
      <trkpt lat="46.88095" lon="12.20091">
        <ele>2176.56</ele>
        <time>2015-02-25T09:55:50Z</time>
      </trkpt>
      <trkpt lat="46.88087" lon="12.20081">
        <ele>2177.52</ele>
        <time>2015-02-25T09:56:04Z</time>
      </trkpt>
      <trkpt lat="46.88083" lon="12.20076">
        <ele>2178.48</ele>
        <time>2015-02-25T09:56:11Z</time>
      </trkpt>
      <trkpt lat="46.88074" lon="12.20068">
        <ele>2179.45</ele>
        <time>2015-02-25T09:56:26Z</time>
      </trkpt>
      <trkpt lat="46.88067" lon="12.20061">
        <ele>2180.89</ele>
        <time>2015-02-25T09:56:36Z</time>
      </trkpt>
      <trkpt lat="46.88062" lon="12.20055">
        <ele>2182.33</ele>
        <time>2015-02-25T09:56:50Z</time>
      </trkpt>
      <trkpt lat="46.88053" lon="12.20044">
        <ele>2184.25</ele>
        <time>2015-02-25T09:57:07Z</time>
      </trkpt>
      <trkpt lat="46.88047" lon="12.20035">
        <ele>2186.66</ele>
        <time>2015-02-25T09:57:20Z</time>
      </trkpt>
      <trkpt lat="46.88046" lon="12.20035">
        <ele>2186.66</ele>
        <time>2015-02-25T09:57:21Z</time>
      </trkpt>
      <trkpt lat="46.88036" lon="12.2003">
        <ele>2185.69</ele>
        <time>2015-02-25T09:57:36Z</time>
      </trkpt>
      <trkpt lat="46.88028" lon="12.20032">
        <ele>2186.66</ele>
        <time>2015-02-25T09:57:53Z</time>
      </trkpt>
      <trkpt lat="46.8802" lon="12.20033">
        <ele>2188.1</ele>
        <time>2015-02-25T09:58:09Z</time>
      </trkpt>
      <trkpt lat="46.88012" lon="12.20039">
        <ele>2190.98</ele>
        <time>2015-02-25T09:58:28Z</time>
      </trkpt>
      <trkpt lat="46.88011" lon="12.20048">
        <ele>2191.94</ele>
        <time>2015-02-25T09:58:41Z</time>
      </trkpt>
      <trkpt lat="46.8801" lon="12.20052">
        <ele>2192.9</ele>
        <time>2015-02-25T09:58:54Z</time>
      </trkpt>
      <trkpt lat="46.88009" lon="12.20053">
        <ele>2192.42</ele>
        <time>2015-02-25T09:59:12Z</time>
      </trkpt>
      <trkpt lat="46.88011" lon="12.20053">
        <ele>2192.42</ele>
        <time>2015-02-25T09:59:30Z</time>
      </trkpt>
      <trkpt lat="46.88008" lon="12.20057">
        <ele>2191.94</ele>
        <time>2015-02-25T09:59:57Z</time>
      </trkpt>
      <trkpt lat="46.88003" lon="12.20064">
        <ele>2192.9</ele>
        <time>2015-02-25T10:00:08Z</time>
      </trkpt>
      <trkpt lat="46.88001" lon="12.20074">
        <ele>2194.35</ele>
        <time>2015-02-25T10:00:21Z</time>
      </trkpt>
      <trkpt lat="46.87999" lon="12.20083">
        <ele>2195.31</ele>
        <time>2015-02-25T10:00:31Z</time>
      </trkpt>
      <trkpt lat="46.87997" lon="12.20095">
        <ele>2196.27</ele>
        <time>2015-02-25T10:00:45Z</time>
      </trkpt>
      <trkpt lat="46.87995" lon="12.20106">
        <ele>2196.75</ele>
        <time>2015-02-25T10:00:59Z</time>
      </trkpt>
      <trkpt lat="46.87992" lon="12.20114">
        <ele>2199.63</ele>
        <time>2015-02-25T10:01:16Z</time>
      </trkpt>
      <trkpt lat="46.8799" lon="12.20125">
        <ele>2201.08</ele>
        <time>2015-02-25T10:01:32Z</time>
      </trkpt>
      <trkpt lat="46.8799" lon="12.20135">
        <ele>2202.52</ele>
        <time>2015-02-25T10:01:46Z</time>
      </trkpt>
      <trkpt lat="46.87992" lon="12.20141">
        <ele>2203.48</ele>
        <time>2015-02-25T10:02:00Z</time>
      </trkpt>
      <trkpt lat="46.87992" lon="12.20137">
        <ele>2201.08</ele>
        <time>2015-02-25T10:02:10Z</time>
      </trkpt>
      <trkpt lat="46.87992" lon="12.20136">
        <ele>2201.56</ele>
        <time>2015-02-25T10:02:44Z</time>
      </trkpt>
      <trkpt lat="46.8799" lon="12.20135">
        <ele>2202.52</ele>
        <time>2015-02-25T10:03:00Z</time>
      </trkpt>
      <trkpt lat="46.87987" lon="12.20148">
        <ele>2203.96</ele>
        <time>2015-02-25T10:03:12Z</time>
      </trkpt>
      <trkpt lat="46.87984" lon="12.20161">
        <ele>2205.88</ele>
        <time>2015-02-25T10:03:25Z</time>
      </trkpt>
      <trkpt lat="46.87979" lon="12.20179">
        <ele>2208.29</ele>
        <time>2015-02-25T10:03:46Z</time>
      </trkpt>
      <trkpt lat="46.87975" lon="12.20187">
        <ele>2209.25</ele>
        <time>2015-02-25T10:04:01Z</time>
      </trkpt>
      <trkpt lat="46.87971" lon="12.20195">
        <ele>2211.65</ele>
        <time>2015-02-25T10:04:15Z</time>
      </trkpt>
      <trkpt lat="46.87967" lon="12.20204">
        <ele>2212.61</ele>
        <time>2015-02-25T10:04:31Z</time>
      </trkpt>
      <trkpt lat="46.8796" lon="12.20213">
        <ele>2214.53</ele>
        <time>2015-02-25T10:04:47Z</time>
      </trkpt>
      <trkpt lat="46.87954" lon="12.2022">
        <ele>2215.98</ele>
        <time>2015-02-25T10:05:03Z</time>
      </trkpt>
      <trkpt lat="46.87948" lon="12.20224">
        <ele>2217.9</ele>
        <time>2015-02-25T10:05:19Z</time>
      </trkpt>
      <trkpt lat="46.87941" lon="12.20227">
        <ele>2220.3</ele>
        <time>2015-02-25T10:05:33Z</time>
      </trkpt>
      <trkpt lat="46.87933" lon="12.20228">
        <ele>2221.26</ele>
        <time>2015-02-25T10:05:49Z</time>
      </trkpt>
      <trkpt lat="46.87925" lon="12.20233">
        <ele>2222.22</ele>
        <time>2015-02-25T10:06:04Z</time>
      </trkpt>
      <trkpt lat="46.87917" lon="12.20228">
        <ele>2224.63</ele>
        <time>2015-02-25T10:06:21Z</time>
      </trkpt>
      <trkpt lat="46.87906" lon="12.20218">
        <ele>2225.59</ele>
        <time>2015-02-25T10:06:37Z</time>
      </trkpt>
      <trkpt lat="46.87897" lon="12.20214">
        <ele>2226.07</ele>
        <time>2015-02-25T10:06:55Z</time>
      </trkpt>
      <trkpt lat="46.87889" lon="12.2021">
        <ele>2227.51</ele>
        <time>2015-02-25T10:07:08Z</time>
      </trkpt>
      <trkpt lat="46.8788" lon="12.2021">
        <ele>2228.95</ele>
        <time>2015-02-25T10:07:21Z</time>
      </trkpt>
      <trkpt lat="46.87873" lon="12.20212">
        <ele>2230.88</ele>
        <time>2015-02-25T10:07:36Z</time>
      </trkpt>
      <trkpt lat="46.87867" lon="12.20213">
        <ele>2232.32</ele>
        <time>2015-02-25T10:07:53Z</time>
      </trkpt>
      <trkpt lat="46.87861" lon="12.20215">
        <ele>2233.76</ele>
        <time>2015-02-25T10:08:11Z</time>
      </trkpt>
      <trkpt lat="46.87856" lon="12.20218">
        <ele>2235.2</ele>
        <time>2015-02-25T10:08:25Z</time>
      </trkpt>
      <trkpt lat="46.87853" lon="12.2022">
        <ele>2237.13</ele>
        <time>2015-02-25T10:08:38Z</time>
      </trkpt>
      <trkpt lat="46.87848" lon="12.20218">
        <ele>2238.57</ele>
        <time>2015-02-25T10:08:52Z</time>
      </trkpt>
      <trkpt lat="46.87842" lon="12.20211">
        <ele>2239.53</ele>
        <time>2015-02-25T10:09:09Z</time>
      </trkpt>
      <trkpt lat="46.8784" lon="12.20207">
        <ele>2240.49</ele>
        <time>2015-02-25T10:09:21Z</time>
      </trkpt>
      <trkpt lat="46.87836" lon="12.202">
        <ele>2241.93</ele>
        <time>2015-02-25T10:09:35Z</time>
      </trkpt>
      <trkpt lat="46.87833" lon="12.20195">
        <ele>2243.37</ele>
        <time>2015-02-25T10:09:52Z</time>
      </trkpt>
      <trkpt lat="46.87827" lon="12.20189">
        <ele>2244.33</ele>
        <time>2015-02-25T10:10:07Z</time>
      </trkpt>
      <trkpt lat="46.87822" lon="12.20191">
        <ele>2245.3</ele>
        <time>2015-02-25T10:10:22Z</time>
      </trkpt>
      <trkpt lat="46.87819" lon="12.2019">
        <ele>2246.26</ele>
        <time>2015-02-25T10:10:36Z</time>
      </trkpt>
      <trkpt lat="46.87817" lon="12.20191">
        <ele>2246.26</ele>
        <time>2015-02-25T10:11:01Z</time>
      </trkpt>
      <trkpt lat="46.87813" lon="12.20191">
        <ele>2246.26</ele>
        <time>2015-02-25T10:11:18Z</time>
      </trkpt>
      <trkpt lat="46.87811" lon="12.2019">
        <ele>2246.74</ele>
        <time>2015-02-25T10:11:32Z</time>
      </trkpt>
      <trkpt lat="46.87811" lon="12.20189">
        <ele>2246.26</ele>
        <time>2015-02-25T10:11:57Z</time>
      </trkpt>
      <trkpt lat="46.8781" lon="12.20189">
        <ele>2246.74</ele>
        <time>2015-02-25T10:12:19Z</time>
      </trkpt>
      <trkpt lat="46.87805" lon="12.20185">
        <ele>2247.22</ele>
        <time>2015-02-25T10:12:36Z</time>
      </trkpt>
      <trkpt lat="46.87805" lon="12.20188">
        <ele>2247.22</ele>
        <time>2015-02-25T10:12:59Z</time>
      </trkpt>
      <trkpt lat="46.87802" lon="12.20187">
        <ele>2247.7</ele>
        <time>2015-02-25T10:13:19Z</time>
      </trkpt>
      <trkpt lat="46.87798" lon="12.20186">
        <ele>2248.66</ele>
        <time>2015-02-25T10:13:35Z</time>
      </trkpt>
      <trkpt lat="46.87792" lon="12.20185">
        <ele>2249.14</ele>
        <time>2015-02-25T10:13:51Z</time>
      </trkpt>
      <trkpt lat="46.87786" lon="12.20181">
        <ele>2248.66</ele>
        <time>2015-02-25T10:14:07Z</time>
      </trkpt>
      <trkpt lat="46.87776" lon="12.20181">
        <ele>2250.1</ele>
        <time>2015-02-25T10:14:22Z</time>
      </trkpt>
      <trkpt lat="46.87773" lon="12.20183">
        <ele>2250.1</ele>
        <time>2015-02-25T10:14:36Z</time>
      </trkpt>
      <trkpt lat="46.87766" lon="12.20188">
        <ele>2249.62</ele>
        <time>2015-02-25T10:14:54Z</time>
      </trkpt>
      <trkpt lat="46.87757" lon="12.20193">
        <ele>2251.54</ele>
        <time>2015-02-25T10:15:08Z</time>
      </trkpt>
      <trkpt lat="46.8775" lon="12.20203">
        <ele>2252.51</ele>
        <time>2015-02-25T10:15:23Z</time>
      </trkpt>
      <trkpt lat="46.87748" lon="12.20214">
        <ele>2254.43</ele>
        <time>2015-02-25T10:15:38Z</time>
      </trkpt>
      <trkpt lat="46.87746" lon="12.20221">
        <ele>2253.95</ele>
        <time>2015-02-25T10:15:51Z</time>
      </trkpt>
      <trkpt lat="46.87742" lon="12.20225">
        <ele>2253.47</ele>
        <time>2015-02-25T10:16:06Z</time>
      </trkpt>
      <trkpt lat="46.8774" lon="12.20224">
        <ele>2253.47</ele>
        <time>2015-02-25T10:16:33Z</time>
      </trkpt>
      <trkpt lat="46.87739" lon="12.20224">
        <ele>2253.47</ele>
        <time>2015-02-25T10:16:54Z</time>
      </trkpt>
      <trkpt lat="46.8774" lon="12.20226">
        <ele>2253.47</ele>
        <time>2015-02-25T10:17:15Z</time>
      </trkpt>
      <trkpt lat="46.87742" lon="12.20225">
        <ele>2253.47</ele>
        <time>2015-02-25T10:17:41Z</time>
      </trkpt>
      <trkpt lat="46.87745" lon="12.20226">
        <ele>2253.47</ele>
        <time>2015-02-25T10:18:13Z</time>
      </trkpt>
      <trkpt lat="46.87741" lon="12.20227">
        <ele>2253.47</ele>
        <time>2015-02-25T10:18:37Z</time>
      </trkpt>
      <trkpt lat="46.87736" lon="12.20226">
        <ele>2252.99</ele>
        <time>2015-02-25T10:18:56Z</time>
      </trkpt>
      <trkpt lat="46.87727" lon="12.20227">
        <ele>2253.95</ele>
        <time>2015-02-25T10:19:10Z</time>
      </trkpt>
      <trkpt lat="46.87712" lon="12.2023">
        <ele>2252.51</ele>
        <time>2015-02-25T10:19:25Z</time>
      </trkpt>
      <trkpt lat="46.877" lon="12.20227">
        <ele>2251.54</ele>
        <time>2015-02-25T10:19:40Z</time>
      </trkpt>
      <trkpt lat="46.87694" lon="12.20226">
        <ele>2251.54</ele>
        <time>2015-02-25T10:19:54Z</time>
      </trkpt>
      <trkpt lat="46.87686" lon="12.20225">
        <ele>2253.47</ele>
        <time>2015-02-25T10:20:10Z</time>
      </trkpt>
      <trkpt lat="46.87676" lon="12.20228">
        <ele>2253.95</ele>
        <time>2015-02-25T10:20:25Z</time>
      </trkpt>
      <trkpt lat="46.87674" lon="12.20231">
        <ele>2255.39</ele>
        <time>2015-02-25T10:20:39Z</time>
      </trkpt>
      <trkpt lat="46.87669" lon="12.20228">
        <ele>2256.83</ele>
        <time>2015-02-25T10:20:53Z</time>
      </trkpt>
      <trkpt lat="46.87661" lon="12.20233">
        <ele>2258.27</ele>
        <time>2015-02-25T10:21:11Z</time>
      </trkpt>
      <trkpt lat="46.87649" lon="12.20237">
        <ele>2258.27</ele>
        <time>2015-02-25T10:21:24Z</time>
      </trkpt>
      <trkpt lat="46.87637" lon="12.20245">
        <ele>2258.27</ele>
        <time>2015-02-25T10:21:40Z</time>
      </trkpt>
      <trkpt lat="46.8763" lon="12.20248">
        <ele>2258.75</ele>
        <time>2015-02-25T10:21:51Z</time>
      </trkpt>
      <trkpt lat="46.87619" lon="12.20254">
        <ele>2260.2</ele>
        <time>2015-02-25T10:22:06Z</time>
      </trkpt>
      <trkpt lat="46.8761" lon="12.20257">
        <ele>2261.16</ele>
        <time>2015-02-25T10:22:22Z</time>
      </trkpt>
      <trkpt lat="46.876" lon="12.20261">
        <ele>2263.08</ele>
        <time>2015-02-25T10:22:41Z</time>
      </trkpt>
      <trkpt lat="46.87592" lon="12.20264">
        <ele>2265</ele>
        <time>2015-02-25T10:22:57Z</time>
      </trkpt>
      <trkpt lat="46.87585" lon="12.20266">
        <ele>2268.85</ele>
        <time>2015-02-25T10:23:11Z</time>
      </trkpt>
      <trkpt lat="46.87577" lon="12.20266">
        <ele>2268.37</ele>
        <time>2015-02-25T10:23:25Z</time>
      </trkpt>
      <trkpt lat="46.87574" lon="12.20269">
        <ele>2269.81</ele>
        <time>2015-02-25T10:23:39Z</time>
      </trkpt>
      <trkpt lat="46.8757" lon="12.20276">
        <ele>2268.85</ele>
        <time>2015-02-25T10:23:51Z</time>
      </trkpt>
      <trkpt lat="46.87564" lon="12.20285">
        <ele>2270.77</ele>
        <time>2015-02-25T10:24:05Z</time>
      </trkpt>
      <trkpt lat="46.87558" lon="12.20295">
        <ele>2271.73</ele>
        <time>2015-02-25T10:24:22Z</time>
      </trkpt>
      <trkpt lat="46.87553" lon="12.20303">
        <ele>2272.69</ele>
        <time>2015-02-25T10:24:36Z</time>
      </trkpt>
      <trkpt lat="46.87546" lon="12.20308">
        <ele>2273.66</ele>
        <time>2015-02-25T10:24:52Z</time>
      </trkpt>
      <trkpt lat="46.87541" lon="12.20303">
        <ele>2273.66</ele>
        <time>2015-02-25T10:25:05Z</time>
      </trkpt>
      <trkpt lat="46.87537" lon="12.20301">
        <ele>2276.54</ele>
        <time>2015-02-25T10:25:12Z</time>
      </trkpt>
      <trkpt lat="46.87529" lon="12.203">
        <ele>2275.1</ele>
        <time>2015-02-25T10:25:25Z</time>
      </trkpt>
      <trkpt lat="46.87521" lon="12.20297">
        <ele>2276.54</ele>
        <time>2015-02-25T10:25:40Z</time>
      </trkpt>
      <trkpt lat="46.87511" lon="12.20299">
        <ele>2278.46</ele>
        <time>2015-02-25T10:25:57Z</time>
      </trkpt>
      <trkpt lat="46.87503" lon="12.20303">
        <ele>2279.9</ele>
        <time>2015-02-25T10:26:11Z</time>
      </trkpt>
      <trkpt lat="46.8749" lon="12.20307">
        <ele>2279.9</ele>
        <time>2015-02-25T10:26:27Z</time>
      </trkpt>
      <trkpt lat="46.87477" lon="12.20311">
        <ele>2279.42</ele>
        <time>2015-02-25T10:26:42Z</time>
      </trkpt>
      <trkpt lat="46.87462" lon="12.20314">
        <ele>2278.94</ele>
        <time>2015-02-25T10:27:01Z</time>
      </trkpt>
      <trkpt lat="46.87452" lon="12.20313">
        <ele>2280.38</ele>
        <time>2015-02-25T10:27:18Z</time>
      </trkpt>
      <trkpt lat="46.87443" lon="12.20314">
        <ele>2281.83</ele>
        <time>2015-02-25T10:27:31Z</time>
      </trkpt>
      <trkpt lat="46.87433" lon="12.20313">
        <ele>2283.27</ele>
        <time>2015-02-25T10:27:47Z</time>
      </trkpt>
      <trkpt lat="46.87425" lon="12.20309">
        <ele>2284.23</ele>
        <time>2015-02-25T10:28:03Z</time>
      </trkpt>
      <trkpt lat="46.87419" lon="12.20304">
        <ele>2286.15</ele>
        <time>2015-02-25T10:28:19Z</time>
      </trkpt>
      <trkpt lat="46.87412" lon="12.203">
        <ele>2288.08</ele>
        <time>2015-02-25T10:28:33Z</time>
      </trkpt>
      <trkpt lat="46.87402" lon="12.20298">
        <ele>2290.96</ele>
        <time>2015-02-25T10:28:52Z</time>
      </trkpt>
      <trkpt lat="46.87396" lon="12.20312">
        <ele>2291.92</ele>
        <time>2015-02-25T10:29:07Z</time>
      </trkpt>
      <trkpt lat="46.87393" lon="12.20322">
        <ele>2292.88</ele>
        <time>2015-02-25T10:29:18Z</time>
      </trkpt>
      <trkpt lat="46.87385" lon="12.20334">
        <ele>2293.36</ele>
        <time>2015-02-25T10:29:35Z</time>
      </trkpt>
      <trkpt lat="46.87378" lon="12.20341">
        <ele>2293.84</ele>
        <time>2015-02-25T10:29:47Z</time>
      </trkpt>
      <trkpt lat="46.87365" lon="12.20348">
        <ele>2293.84</ele>
        <time>2015-02-25T10:30:05Z</time>
      </trkpt>
      <trkpt lat="46.87355" lon="12.20352">
        <ele>2295.77</ele>
        <time>2015-02-25T10:30:24Z</time>
      </trkpt>
      <trkpt lat="46.87347" lon="12.20357">
        <ele>2297.69</ele>
        <time>2015-02-25T10:30:43Z</time>
      </trkpt>
      <trkpt lat="46.87341" lon="12.20363">
        <ele>2298.65</ele>
        <time>2015-02-25T10:30:52Z</time>
      </trkpt>
      <trkpt lat="46.87327" lon="12.20364">
        <ele>2298.65</ele>
        <time>2015-02-25T10:31:09Z</time>
      </trkpt>
      <trkpt lat="46.87315" lon="12.20365">
        <ele>2299.13</ele>
        <time>2015-02-25T10:31:23Z</time>
      </trkpt>
      <trkpt lat="46.87308" lon="12.20364">
        <ele>2301.05</ele>
        <time>2015-02-25T10:31:41Z</time>
      </trkpt>
      <trkpt lat="46.87299" lon="12.20365">
        <ele>2302.49</ele>
        <time>2015-02-25T10:31:55Z</time>
      </trkpt>
      <trkpt lat="46.8729" lon="12.20363">
        <ele>2303.46</ele>
        <time>2015-02-25T10:32:10Z</time>
      </trkpt>
      <trkpt lat="46.87283" lon="12.20359">
        <ele>2304.42</ele>
        <time>2015-02-25T10:32:26Z</time>
      </trkpt>
      <trkpt lat="46.87278" lon="12.20358">
        <ele>2306.34</ele>
        <time>2015-02-25T10:32:40Z</time>
      </trkpt>
      <trkpt lat="46.87271" lon="12.20354">
        <ele>2308.26</ele>
        <time>2015-02-25T10:32:56Z</time>
      </trkpt>
      <trkpt lat="46.87266" lon="12.20348">
        <ele>2309.22</ele>
        <time>2015-02-25T10:33:10Z</time>
      </trkpt>
      <trkpt lat="46.8726" lon="12.20347">
        <ele>2311.63</ele>
        <time>2015-02-25T10:33:24Z</time>
      </trkpt>
      <trkpt lat="46.87252" lon="12.20344">
        <ele>2313.07</ele>
        <time>2015-02-25T10:33:39Z</time>
      </trkpt>
      <trkpt lat="46.87246" lon="12.20344">
        <ele>2314.03</ele>
        <time>2015-02-25T10:33:52Z</time>
      </trkpt>
      <trkpt lat="46.8724" lon="12.20345">
        <ele>2315.95</ele>
        <time>2015-02-25T10:34:07Z</time>
      </trkpt>
      <trkpt lat="46.87234" lon="12.20348">
        <ele>2316.91</ele>
        <time>2015-02-25T10:34:20Z</time>
      </trkpt>
      <trkpt lat="46.87228" lon="12.20352">
        <ele>2318.36</ele>
        <time>2015-02-25T10:34:34Z</time>
      </trkpt>
      <trkpt lat="46.87224" lon="12.20354">
        <ele>2319.8</ele>
        <time>2015-02-25T10:34:47Z</time>
      </trkpt>
      <trkpt lat="46.87217" lon="12.20351">
        <ele>2321.72</ele>
        <time>2015-02-25T10:35:02Z</time>
      </trkpt>
      <trkpt lat="46.87209" lon="12.20349">
        <ele>2322.68</ele>
        <time>2015-02-25T10:35:18Z</time>
      </trkpt>
      <trkpt lat="46.87202" lon="12.20346">
        <ele>2323.16</ele>
        <time>2015-02-25T10:35:34Z</time>
      </trkpt>
      <trkpt lat="46.87198" lon="12.2034">
        <ele>2325.09</ele>
        <time>2015-02-25T10:35:47Z</time>
      </trkpt>
      <trkpt lat="46.87191" lon="12.20333">
        <ele>2326.05</ele>
        <time>2015-02-25T10:36:02Z</time>
      </trkpt>
      <trkpt lat="46.87186" lon="12.20329">
        <ele>2327.01</ele>
        <time>2015-02-25T10:36:16Z</time>
      </trkpt>
      <trkpt lat="46.87181" lon="12.20323">
        <ele>2328.93</ele>
        <time>2015-02-25T10:36:31Z</time>
      </trkpt>
      <trkpt lat="46.87178" lon="12.20317">
        <ele>2330.37</ele>
        <time>2015-02-25T10:36:45Z</time>
      </trkpt>
      <trkpt lat="46.87175" lon="12.20311">
        <ele>2332.3</ele>
        <time>2015-02-25T10:37:01Z</time>
      </trkpt>
      <trkpt lat="46.87172" lon="12.20307">
        <ele>2334.22</ele>
        <time>2015-02-25T10:37:16Z</time>
      </trkpt>
      <trkpt lat="46.87169" lon="12.20317">
        <ele>2336.14</ele>
        <time>2015-02-25T10:37:31Z</time>
      </trkpt>
      <trkpt lat="46.87167" lon="12.20323">
        <ele>2338.06</ele>
        <time>2015-02-25T10:37:45Z</time>
      </trkpt>
      <trkpt lat="46.87165" lon="12.20319">
        <ele>2338.54</ele>
        <time>2015-02-25T10:37:59Z</time>
      </trkpt>
      <trkpt lat="46.87162" lon="12.20313">
        <ele>2339.99</ele>
        <time>2015-02-25T10:38:12Z</time>
      </trkpt>
      <trkpt lat="46.8716" lon="12.20305">
        <ele>2341.91</ele>
        <time>2015-02-25T10:38:28Z</time>
      </trkpt>
      <trkpt lat="46.87157" lon="12.20307">
        <ele>2343.35</ele>
        <time>2015-02-25T10:38:44Z</time>
      </trkpt>
      <trkpt lat="46.87154" lon="12.20313">
        <ele>2344.79</ele>
        <time>2015-02-25T10:38:59Z</time>
      </trkpt>
      <trkpt lat="46.87151" lon="12.20307">
        <ele>2346.23</ele>
        <time>2015-02-25T10:39:11Z</time>
      </trkpt>
      <trkpt lat="46.8715" lon="12.20302">
        <ele>2347.68</ele>
        <time>2015-02-25T10:39:26Z</time>
      </trkpt>
      <trkpt lat="46.8715" lon="12.20296">
        <ele>2348.64</ele>
        <time>2015-02-25T10:39:38Z</time>
      </trkpt>
      <trkpt lat="46.87146" lon="12.2029">
        <ele>2350.56</ele>
        <time>2015-02-25T10:39:51Z</time>
      </trkpt>
      <trkpt lat="46.87141" lon="12.20291">
        <ele>2352</ele>
        <time>2015-02-25T10:40:05Z</time>
      </trkpt>
      <trkpt lat="46.87139" lon="12.20287">
        <ele>2353.44</ele>
        <time>2015-02-25T10:40:19Z</time>
      </trkpt>
      <trkpt lat="46.87136" lon="12.20282">
        <ele>2355.37</ele>
        <time>2015-02-25T10:40:34Z</time>
      </trkpt>
      <trkpt lat="46.8713" lon="12.20277">
        <ele>2356.81</ele>
        <time>2015-02-25T10:40:48Z</time>
      </trkpt>
      <trkpt lat="46.87125" lon="12.20275">
        <ele>2358.25</ele>
        <time>2015-02-25T10:41:02Z</time>
      </trkpt>
      <trkpt lat="46.87121" lon="12.20274">
        <ele>2359.69</ele>
        <time>2015-02-25T10:41:14Z</time>
      </trkpt>
      <trkpt lat="46.87117" lon="12.20273">
        <ele>2361.14</ele>
        <time>2015-02-25T10:41:26Z</time>
      </trkpt>
      <trkpt lat="46.87112" lon="12.20275">
        <ele>2362.1</ele>
        <time>2015-02-25T10:41:40Z</time>
      </trkpt>
      <trkpt lat="46.87108" lon="12.20278">
        <ele>2363.54</ele>
        <time>2015-02-25T10:41:52Z</time>
      </trkpt>
      <trkpt lat="46.87103" lon="12.2028">
        <ele>2364.98</ele>
        <time>2015-02-25T10:42:05Z</time>
      </trkpt>
      <trkpt lat="46.87101" lon="12.20289">
        <ele>2366.42</ele>
        <time>2015-02-25T10:42:19Z</time>
      </trkpt>
      <trkpt lat="46.871" lon="12.20294">
        <ele>2367.86</ele>
        <time>2015-02-25T10:42:31Z</time>
      </trkpt>
      <trkpt lat="46.871" lon="12.20302">
        <ele>2369.31</ele>
        <time>2015-02-25T10:42:43Z</time>
      </trkpt>
      <trkpt lat="46.87097" lon="12.20307">
        <ele>2370.75</ele>
        <time>2015-02-25T10:42:56Z</time>
      </trkpt>
      <trkpt lat="46.87095" lon="12.20311">
        <ele>2372.19</ele>
        <time>2015-02-25T10:43:08Z</time>
      </trkpt>
      <trkpt lat="46.87092" lon="12.20312">
        <ele>2374.11</ele>
        <time>2015-02-25T10:43:22Z</time>
      </trkpt>
      <trkpt lat="46.87087" lon="12.20312">
        <ele>2375.07</ele>
        <time>2015-02-25T10:43:35Z</time>
      </trkpt>
      <trkpt lat="46.87083" lon="12.20313">
        <ele>2375.55</ele>
        <time>2015-02-25T10:43:46Z</time>
      </trkpt>
      <trkpt lat="46.87078" lon="12.20314">
        <ele>2377.48</ele>
        <time>2015-02-25T10:43:59Z</time>
      </trkpt>
      <trkpt lat="46.87074" lon="12.20316">
        <ele>2379.4</ele>
        <time>2015-02-25T10:44:12Z</time>
      </trkpt>
      <trkpt lat="46.87071" lon="12.20317">
        <ele>2381.32</ele>
        <time>2015-02-25T10:44:25Z</time>
      </trkpt>
      <trkpt lat="46.87069" lon="12.20312">
        <ele>2382.76</ele>
        <time>2015-02-25T10:44:39Z</time>
      </trkpt>
      <trkpt lat="46.87066" lon="12.20307">
        <ele>2384.21</ele>
        <time>2015-02-25T10:44:53Z</time>
      </trkpt>
      <trkpt lat="46.87062" lon="12.20306">
        <ele>2385.65</ele>
        <time>2015-02-25T10:45:06Z</time>
      </trkpt>
      <trkpt lat="46.87057" lon="12.20308">
        <ele>2386.61</ele>
        <time>2015-02-25T10:45:19Z</time>
      </trkpt>
      <trkpt lat="46.87055" lon="12.20315">
        <ele>2388.05</ele>
        <time>2015-02-25T10:45:33Z</time>
      </trkpt>
      <trkpt lat="46.87052" lon="12.2032">
        <ele>2389.49</ele>
        <time>2015-02-25T10:45:46Z</time>
      </trkpt>
      <trkpt lat="46.87048" lon="12.20323">
        <ele>2390.94</ele>
        <time>2015-02-25T10:45:59Z</time>
      </trkpt>
      <trkpt lat="46.87046" lon="12.20328">
        <ele>2391.9</ele>
        <time>2015-02-25T10:46:11Z</time>
      </trkpt>
      <trkpt lat="46.87043" lon="12.2033">
        <ele>2392.86</ele>
        <time>2015-02-25T10:46:24Z</time>
      </trkpt>
      <trkpt lat="46.87039" lon="12.20335">
        <ele>2394.3</ele>
        <time>2015-02-25T10:46:37Z</time>
      </trkpt>
      <trkpt lat="46.87035" lon="12.20339">
        <ele>2395.74</ele>
        <time>2015-02-25T10:46:54Z</time>
      </trkpt>
      <trkpt lat="46.87032" lon="12.20341">
        <ele>2396.7</ele>
        <time>2015-02-25T10:47:09Z</time>
      </trkpt>
      <trkpt lat="46.87028" lon="12.2034">
        <ele>2398.15</ele>
        <time>2015-02-25T10:47:22Z</time>
      </trkpt>
      <trkpt lat="46.87025" lon="12.20333">
        <ele>2400.07</ele>
        <time>2015-02-25T10:47:37Z</time>
      </trkpt>
      <trkpt lat="46.87021" lon="12.20326">
        <ele>2401.03</ele>
        <time>2015-02-25T10:47:52Z</time>
      </trkpt>
      <trkpt lat="46.8702" lon="12.20323">
        <ele>2402.47</ele>
        <time>2015-02-25T10:47:58Z</time>
      </trkpt>
      <trkpt lat="46.87018" lon="12.20317">
        <ele>2402.47</ele>
        <time>2015-02-25T10:48:12Z</time>
      </trkpt>
      <trkpt lat="46.87016" lon="12.20313">
        <ele>2403.43</ele>
        <time>2015-02-25T10:48:25Z</time>
      </trkpt>
      <trkpt lat="46.87014" lon="12.20309">
        <ele>2405.84</ele>
        <time>2015-02-25T10:48:38Z</time>
      </trkpt>
      <trkpt lat="46.87013" lon="12.20305">
        <ele>2406.8</ele>
        <time>2015-02-25T10:48:47Z</time>
      </trkpt>
      <trkpt lat="46.87008" lon="12.20301">
        <ele>2408.24</ele>
        <time>2015-02-25T10:49:02Z</time>
      </trkpt>
      <trkpt lat="46.87004" lon="12.20298">
        <ele>2409.2</ele>
        <time>2015-02-25T10:49:17Z</time>
      </trkpt>
      <trkpt lat="46.86999" lon="12.20294">
        <ele>2410.64</ele>
        <time>2015-02-25T10:49:30Z</time>
      </trkpt>
      <trkpt lat="46.86993" lon="12.20291">
        <ele>2411.6</ele>
        <time>2015-02-25T10:49:44Z</time>
      </trkpt>
      <trkpt lat="46.86989" lon="12.20288">
        <ele>2413.05</ele>
        <time>2015-02-25T10:49:58Z</time>
      </trkpt>
      <trkpt lat="46.86985" lon="12.20285">
        <ele>2414.01</ele>
        <time>2015-02-25T10:50:10Z</time>
      </trkpt>
      <trkpt lat="46.86981" lon="12.20284">
        <ele>2415.45</ele>
        <time>2015-02-25T10:50:24Z</time>
      </trkpt>
      <trkpt lat="46.86977" lon="12.20283">
        <ele>2417.37</ele>
        <time>2015-02-25T10:50:39Z</time>
      </trkpt>
      <trkpt lat="46.86976" lon="12.20286">
        <ele>2418.81</ele>
        <time>2015-02-25T10:50:55Z</time>
      </trkpt>
      <trkpt lat="46.86977" lon="12.20286">
        <ele>2418.81</ele>
        <time>2015-02-25T10:51:16Z</time>
      </trkpt>
      <trkpt lat="46.86979" lon="12.20286">
        <ele>2417.85</ele>
        <time>2015-02-25T10:51:35Z</time>
      </trkpt>
      <trkpt lat="46.86977" lon="12.20287">
        <ele>2417.37</ele>
        <time>2015-02-25T10:52:01Z</time>
      </trkpt>
      <trkpt lat="46.86977" lon="12.2029">
        <ele>2417.85</ele>
        <time>2015-02-25T10:52:27Z</time>
      </trkpt>
      <trkpt lat="46.86977" lon="12.20286">
        <ele>2417.85</ele>
        <time>2015-02-25T10:52:59Z</time>
      </trkpt>
      <trkpt lat="46.86979" lon="12.20284">
        <ele>2417.85</ele>
        <time>2015-02-25T10:53:34Z</time>
      </trkpt>
      <trkpt lat="46.86978" lon="12.20285">
        <ele>2417.85</ele>
        <time>2015-02-25T10:54:09Z</time>
      </trkpt>
      <trkpt lat="46.86977" lon="12.20285">
        <ele>2417.85</ele>
        <time>2015-02-25T10:54:43Z</time>
      </trkpt>
      <trkpt lat="46.86975" lon="12.20283">
        <ele>2418.33</ele>
        <time>2015-02-25T10:55:06Z</time>
      </trkpt>
      <trkpt lat="46.86977" lon="12.20289">
        <ele>2418.81</ele>
        <time>2015-02-25T10:55:25Z</time>
      </trkpt>
      <trkpt lat="46.86977" lon="12.2029">
        <ele>2419.78</ele>
        <time>2015-02-25T10:55:27Z</time>
      </trkpt>
      <trkpt lat="46.86978" lon="12.20292">
        <ele>2419.78</ele>
        <time>2015-02-25T10:55:46Z</time>
      </trkpt>
      <trkpt lat="46.86978" lon="12.20289">
        <ele>2419.78</ele>
        <time>2015-02-25T10:56:03Z</time>
      </trkpt>
      <trkpt lat="46.86975" lon="12.20285">
        <ele>2420.26</ele>
        <time>2015-02-25T10:56:21Z</time>
      </trkpt>
      <trkpt lat="46.86971" lon="12.2028">
        <ele>2421.7</ele>
        <time>2015-02-25T10:56:33Z</time>
      </trkpt>
      <trkpt lat="46.86967" lon="12.20273">
        <ele>2423.62</ele>
        <time>2015-02-25T10:56:47Z</time>
      </trkpt>
      <trkpt lat="46.86965" lon="12.20266">
        <ele>2424.58</ele>
        <time>2015-02-25T10:57:01Z</time>
      </trkpt>
      <trkpt lat="46.86965" lon="12.20261">
        <ele>2425.06</ele>
        <time>2015-02-25T10:57:17Z</time>
      </trkpt>
      <trkpt lat="46.86965" lon="12.20255">
        <ele>2426.99</ele>
        <time>2015-02-25T10:57:32Z</time>
      </trkpt>
      <trkpt lat="46.86965" lon="12.20248">
        <ele>2428.43</ele>
        <time>2015-02-25T10:57:47Z</time>
      </trkpt>
      <trkpt lat="46.86964" lon="12.20242">
        <ele>2430.35</ele>
        <time>2015-02-25T10:58:02Z</time>
      </trkpt>
      <trkpt lat="46.86964" lon="12.20235">
        <ele>2431.31</ele>
        <time>2015-02-25T10:58:15Z</time>
      </trkpt>
      <trkpt lat="46.86963" lon="12.2023">
        <ele>2431.79</ele>
        <time>2015-02-25T10:58:28Z</time>
      </trkpt>
      <trkpt lat="46.86963" lon="12.2023">
        <ele>2433.71</ele>
        <time>2015-02-25T10:58:30Z</time>
      </trkpt>
      <trkpt lat="46.86962" lon="12.20223">
        <ele>2434.68</ele>
        <time>2015-02-25T10:58:43Z</time>
      </trkpt>
      <trkpt lat="46.86962" lon="12.20217">
        <ele>2437.08</ele>
        <time>2015-02-25T10:58:56Z</time>
      </trkpt>
      <trkpt lat="46.86959" lon="12.2021">
        <ele>2437.56</ele>
        <time>2015-02-25T10:59:09Z</time>
      </trkpt>
      <trkpt lat="46.86957" lon="12.20202">
        <ele>2440.44</ele>
        <time>2015-02-25T10:59:22Z</time>
      </trkpt>
      <trkpt lat="46.86952" lon="12.20196">
        <ele>2439.48</ele>
        <time>2015-02-25T10:59:35Z</time>
      </trkpt>
      <trkpt lat="46.86944" lon="12.2019">
        <ele>2440.92</ele>
        <time>2015-02-25T10:59:51Z</time>
      </trkpt>
      <trkpt lat="46.86939" lon="12.20183">
        <ele>2441.89</ele>
        <time>2015-02-25T11:00:06Z</time>
      </trkpt>
      <trkpt lat="46.86936" lon="12.20176">
        <ele>2442.85</ele>
        <time>2015-02-25T11:00:20Z</time>
      </trkpt>
      <trkpt lat="46.86931" lon="12.2017">
        <ele>2443.33</ele>
        <time>2015-02-25T11:00:34Z</time>
      </trkpt>
      <trkpt lat="46.86927" lon="12.20163">
        <ele>2445.25</ele>
        <time>2015-02-25T11:00:49Z</time>
      </trkpt>
      <trkpt lat="46.86923" lon="12.20158">
        <ele>2446.69</ele>
        <time>2015-02-25T11:01:02Z</time>
      </trkpt>
      <trkpt lat="46.86919" lon="12.20151">
        <ele>2449.1</ele>
        <time>2015-02-25T11:01:18Z</time>
      </trkpt>
      <trkpt lat="46.86917" lon="12.20146">
        <ele>2450.06</ele>
        <time>2015-02-25T11:01:31Z</time>
      </trkpt>
      <trkpt lat="46.86916" lon="12.2014">
        <ele>2451.5</ele>
        <time>2015-02-25T11:01:45Z</time>
      </trkpt>
      <trkpt lat="46.86915" lon="12.20134">
        <ele>2453.42</ele>
        <time>2015-02-25T11:01:58Z</time>
      </trkpt>
      <trkpt lat="46.86914" lon="12.20127">
        <ele>2454.86</ele>
        <time>2015-02-25T11:02:12Z</time>
      </trkpt>
      <trkpt lat="46.86911" lon="12.20119">
        <ele>2457.27</ele>
        <time>2015-02-25T11:02:26Z</time>
      </trkpt>
      <trkpt lat="46.86909" lon="12.20113">
        <ele>2458.23</ele>
        <time>2015-02-25T11:02:39Z</time>
      </trkpt>
      <trkpt lat="46.86905" lon="12.20106">
        <ele>2459.19</ele>
        <time>2015-02-25T11:02:51Z</time>
      </trkpt>
      <trkpt lat="46.86902" lon="12.201">
        <ele>2461.11</ele>
        <time>2015-02-25T11:03:06Z</time>
      </trkpt>
      <trkpt lat="46.86899" lon="12.20092">
        <ele>2462.55</ele>
        <time>2015-02-25T11:03:21Z</time>
      </trkpt>
      <trkpt lat="46.86895" lon="12.20085">
        <ele>2465.44</ele>
        <time>2015-02-25T11:03:35Z</time>
      </trkpt>
      <trkpt lat="46.86887" lon="12.20077">
        <ele>2465.44</ele>
        <time>2015-02-25T11:03:51Z</time>
      </trkpt>
      <trkpt lat="46.8688" lon="12.20073">
        <ele>2467.36</ele>
        <time>2015-02-25T11:04:06Z</time>
      </trkpt>
      <trkpt lat="46.86875" lon="12.20068">
        <ele>2468.8</ele>
        <time>2015-02-25T11:04:19Z</time>
      </trkpt>
      <trkpt lat="46.86869" lon="12.20063">
        <ele>2470.73</ele>
        <time>2015-02-25T11:04:34Z</time>
      </trkpt>
      <trkpt lat="46.86862" lon="12.20057">
        <ele>2472.65</ele>
        <time>2015-02-25T11:04:49Z</time>
      </trkpt>
      <trkpt lat="46.86855" lon="12.20048">
        <ele>2474.09</ele>
        <time>2015-02-25T11:05:09Z</time>
      </trkpt>
      <trkpt lat="46.86846" lon="12.20037">
        <ele>2476.97</ele>
        <time>2015-02-25T11:05:24Z</time>
      </trkpt>
      <trkpt lat="46.86836" lon="12.20027">
        <ele>2476.49</ele>
        <time>2015-02-25T11:05:42Z</time>
      </trkpt>
      <trkpt lat="46.86834" lon="12.20026">
        <ele>2477.45</ele>
        <time>2015-02-25T11:05:55Z</time>
      </trkpt>
      <trkpt lat="46.86826" lon="12.20027">
        <ele>2477.94</ele>
        <time>2015-02-25T11:06:07Z</time>
      </trkpt>
      <trkpt lat="46.86816" lon="12.20028">
        <ele>2478.9</ele>
        <time>2015-02-25T11:06:22Z</time>
      </trkpt>
      <trkpt lat="46.86806" lon="12.20031">
        <ele>2478.9</ele>
        <time>2015-02-25T11:06:36Z</time>
      </trkpt>
      <trkpt lat="46.86794" lon="12.20032">
        <ele>2480.34</ele>
        <time>2015-02-25T11:06:52Z</time>
      </trkpt>
      <trkpt lat="46.86787" lon="12.20029">
        <ele>2481.78</ele>
        <time>2015-02-25T11:07:05Z</time>
      </trkpt>
      <trkpt lat="46.86784" lon="12.2003">
        <ele>2482.26</ele>
        <time>2015-02-25T11:07:19Z</time>
      </trkpt>
      <trkpt lat="46.86782" lon="12.20029">
        <ele>2481.78</ele>
        <time>2015-02-25T11:07:32Z</time>
      </trkpt>
      <trkpt lat="46.86772" lon="12.2002">
        <ele>2481.3</ele>
        <time>2015-02-25T11:07:46Z</time>
      </trkpt>
      <trkpt lat="46.86769" lon="12.2002">
        <ele>2480.82</ele>
        <time>2015-02-25T11:07:49Z</time>
      </trkpt>
      <trkpt lat="46.86759" lon="12.2001">
        <ele>2480.34</ele>
        <time>2015-02-25T11:08:02Z</time>
      </trkpt>
      <trkpt lat="46.86751" lon="12.20001">
        <ele>2480.34</ele>
        <time>2015-02-25T11:08:15Z</time>
      </trkpt>
      <trkpt lat="46.86746" lon="12.19991">
        <ele>2482.26</ele>
        <time>2015-02-25T11:08:29Z</time>
      </trkpt>
      <trkpt lat="46.86739" lon="12.1998">
        <ele>2484.18</ele>
        <time>2015-02-25T11:08:45Z</time>
      </trkpt>
      <trkpt lat="46.8673" lon="12.19972">
        <ele>2486.11</ele>
        <time>2015-02-25T11:09:01Z</time>
      </trkpt>
      <trkpt lat="46.86724" lon="12.19966">
        <ele>2487.07</ele>
        <time>2015-02-25T11:09:16Z</time>
      </trkpt>
      <trkpt lat="46.86717" lon="12.19959">
        <ele>2488.03</ele>
        <time>2015-02-25T11:09:31Z</time>
      </trkpt>
      <trkpt lat="46.86711" lon="12.1995">
        <ele>2488.99</ele>
        <time>2015-02-25T11:09:46Z</time>
      </trkpt>
      <trkpt lat="46.86708" lon="12.19943">
        <ele>2490.91</ele>
        <time>2015-02-25T11:10:00Z</time>
      </trkpt>
      <trkpt lat="46.86706" lon="12.19933">
        <ele>2492.84</ele>
        <time>2015-02-25T11:10:16Z</time>
      </trkpt>
      <trkpt lat="46.86704" lon="12.19929">
        <ele>2494.76</ele>
        <time>2015-02-25T11:10:24Z</time>
      </trkpt>
      <trkpt lat="46.86699" lon="12.19924">
        <ele>2495.72</ele>
        <time>2015-02-25T11:10:37Z</time>
      </trkpt>
      <trkpt lat="46.86697" lon="12.1992">
        <ele>2496.68</ele>
        <time>2015-02-25T11:10:50Z</time>
      </trkpt>
      <trkpt lat="46.86694" lon="12.19916">
        <ele>2496.2</ele>
        <time>2015-02-25T11:11:08Z</time>
      </trkpt>
      <trkpt lat="46.8669" lon="12.19909">
        <ele>2497.16</ele>
        <time>2015-02-25T11:11:23Z</time>
      </trkpt>
      <trkpt lat="46.86689" lon="12.19908">
        <ele>2497.64</ele>
        <time>2015-02-25T11:11:30Z</time>
      </trkpt>
      <trkpt lat="46.86686" lon="12.19899">
        <ele>2497.16</ele>
        <time>2015-02-25T11:11:47Z</time>
      </trkpt>
      <trkpt lat="46.86682" lon="12.19885">
        <ele>2497.64</ele>
        <time>2015-02-25T11:12:02Z</time>
      </trkpt>
      <trkpt lat="46.8668" lon="12.19883">
        <ele>2496.68</ele>
        <time>2015-02-25T11:12:13Z</time>
      </trkpt>
      <trkpt lat="46.8668" lon="12.19878">
        <ele>2496.68</ele>
        <time>2015-02-25T11:12:25Z</time>
      </trkpt>
      <trkpt lat="46.86679" lon="12.19866">
        <ele>2495.72</ele>
        <time>2015-02-25T11:12:38Z</time>
      </trkpt>
      <trkpt lat="46.86677" lon="12.19851">
        <ele>2496.2</ele>
        <time>2015-02-25T11:12:53Z</time>
      </trkpt>
      <trkpt lat="46.86675" lon="12.19842">
        <ele>2496.68</ele>
        <time>2015-02-25T11:13:05Z</time>
      </trkpt>
      <trkpt lat="46.86673" lon="12.19826">
        <ele>2498.12</ele>
        <time>2015-02-25T11:13:21Z</time>
      </trkpt>
      <trkpt lat="46.86669" lon="12.19811">
        <ele>2498.6</ele>
        <time>2015-02-25T11:13:36Z</time>
      </trkpt>
      <trkpt lat="46.86665" lon="12.19798">
        <ele>2499.57</ele>
        <time>2015-02-25T11:13:50Z</time>
      </trkpt>
      <trkpt lat="46.86664" lon="12.19796">
        <ele>2499.57</ele>
        <time>2015-02-25T11:13:52Z</time>
      </trkpt>
      <trkpt lat="46.86659" lon="12.19783">
        <ele>2500.53</ele>
        <time>2015-02-25T11:14:06Z</time>
      </trkpt>
      <trkpt lat="46.86655" lon="12.19771">
        <ele>2501.01</ele>
        <time>2015-02-25T11:14:21Z</time>
      </trkpt>
      <trkpt lat="46.86649" lon="12.19757">
        <ele>2501.49</ele>
        <time>2015-02-25T11:14:41Z</time>
      </trkpt>
      <trkpt lat="46.86646" lon="12.19745">
        <ele>2502.93</ele>
        <time>2015-02-25T11:14:57Z</time>
      </trkpt>
      <trkpt lat="46.86644" lon="12.19739">
        <ele>2503.89</ele>
        <time>2015-02-25T11:15:10Z</time>
      </trkpt>
      <trkpt lat="46.86642" lon="12.1973">
        <ele>2504.85</ele>
        <time>2015-02-25T11:15:23Z</time>
      </trkpt>
      <trkpt lat="46.86641" lon="12.19721">
        <ele>2505.33</ele>
        <time>2015-02-25T11:15:35Z</time>
      </trkpt>
      <trkpt lat="46.86641" lon="12.19713">
        <ele>2506.77</ele>
        <time>2015-02-25T11:15:48Z</time>
      </trkpt>
      <trkpt lat="46.86641" lon="12.19702">
        <ele>2507.74</ele>
        <time>2015-02-25T11:16:02Z</time>
      </trkpt>
      <trkpt lat="46.86644" lon="12.1969">
        <ele>2509.18</ele>
        <time>2015-02-25T11:16:19Z</time>
      </trkpt>
      <trkpt lat="46.86645" lon="12.19677">
        <ele>2511.1</ele>
        <time>2015-02-25T11:16:35Z</time>
      </trkpt>
      <trkpt lat="46.86645" lon="12.19663">
        <ele>2511.1</ele>
        <time>2015-02-25T11:16:49Z</time>
      </trkpt>
      <trkpt lat="46.86647" lon="12.19651">
        <ele>2511.1</ele>
        <time>2015-02-25T11:17:05Z</time>
      </trkpt>
      <trkpt lat="46.86647" lon="12.1965">
        <ele>2512.54</ele>
        <time>2015-02-25T11:17:29Z</time>
      </trkpt>
      <trkpt lat="46.86651" lon="12.19646">
        <ele>2510.14</ele>
        <time>2015-02-25T11:17:45Z</time>
      </trkpt>
      <trkpt lat="46.86656" lon="12.1963">
        <ele>2512.06</ele>
        <time>2015-02-25T11:18:04Z</time>
      </trkpt>
      <trkpt lat="46.8666" lon="12.19624">
        <ele>2513.02</ele>
        <time>2015-02-25T11:18:16Z</time>
      </trkpt>
      <trkpt lat="46.86661" lon="12.19618">
        <ele>2513.98</ele>
        <time>2015-02-25T11:18:28Z</time>
      </trkpt>
      <trkpt lat="46.86663" lon="12.1961">
        <ele>2515.91</ele>
        <time>2015-02-25T11:18:43Z</time>
      </trkpt>
      <trkpt lat="46.86664" lon="12.19594">
        <ele>2516.39</ele>
        <time>2015-02-25T11:18:58Z</time>
      </trkpt>
      <trkpt lat="46.86666" lon="12.19579">
        <ele>2516.87</ele>
        <time>2015-02-25T11:19:15Z</time>
      </trkpt>
      <trkpt lat="46.86668" lon="12.19563">
        <ele>2518.79</ele>
        <time>2015-02-25T11:19:30Z</time>
      </trkpt>
      <trkpt lat="46.86672" lon="12.1955">
        <ele>2517.83</ele>
        <time>2015-02-25T11:19:45Z</time>
      </trkpt>
      <trkpt lat="46.86675" lon="12.1954">
        <ele>2519.27</ele>
        <time>2015-02-25T11:19:58Z</time>
      </trkpt>
      <trkpt lat="46.86678" lon="12.19528">
        <ele>2520.71</ele>
        <time>2015-02-25T11:20:13Z</time>
      </trkpt>
      <trkpt lat="46.8668" lon="12.19517">
        <ele>2522.16</ele>
        <time>2015-02-25T11:20:28Z</time>
      </trkpt>
      <trkpt lat="46.86683" lon="12.19501">
        <ele>2522.64</ele>
        <time>2015-02-25T11:20:45Z</time>
      </trkpt>
      <trkpt lat="46.86685" lon="12.19489">
        <ele>2523.6</ele>
        <time>2015-02-25T11:20:59Z</time>
      </trkpt>
      <trkpt lat="46.86686" lon="12.19475">
        <ele>2524.56</ele>
        <time>2015-02-25T11:21:13Z</time>
      </trkpt>
      <trkpt lat="46.86685" lon="12.19461">
        <ele>2525.52</ele>
        <time>2015-02-25T11:21:29Z</time>
      </trkpt>
      <trkpt lat="46.86683" lon="12.19447">
        <ele>2526.48</ele>
        <time>2015-02-25T11:21:43Z</time>
      </trkpt>
      <trkpt lat="46.86682" lon="12.19434">
        <ele>2526.96</ele>
        <time>2015-02-25T11:21:59Z</time>
      </trkpt>
      <trkpt lat="46.86682" lon="12.19417">
        <ele>2527.44</ele>
        <time>2015-02-25T11:22:15Z</time>
      </trkpt>
      <trkpt lat="46.86682" lon="12.19407">
        <ele>2528.4</ele>
        <time>2015-02-25T11:22:28Z</time>
      </trkpt>
      <trkpt lat="46.86681" lon="12.19391">
        <ele>2530.33</ele>
        <time>2015-02-25T11:22:45Z</time>
      </trkpt>
      <trkpt lat="46.8668" lon="12.19375">
        <ele>2530.81</ele>
        <time>2015-02-25T11:23:03Z</time>
      </trkpt>
      <trkpt lat="46.86679" lon="12.19371">
        <ele>2531.29</ele>
        <time>2015-02-25T11:23:11Z</time>
      </trkpt>
      <trkpt lat="46.86677" lon="12.19362">
        <ele>2531.77</ele>
        <time>2015-02-25T11:23:25Z</time>
      </trkpt>
      <trkpt lat="46.86675" lon="12.1935">
        <ele>2531.77</ele>
        <time>2015-02-25T11:23:37Z</time>
      </trkpt>
      <trkpt lat="46.86673" lon="12.19339">
        <ele>2532.73</ele>
        <time>2015-02-25T11:23:51Z</time>
      </trkpt>
      <trkpt lat="46.86671" lon="12.19324">
        <ele>2533.21</ele>
        <time>2015-02-25T11:24:08Z</time>
      </trkpt>
      <trkpt lat="46.86668" lon="12.19311">
        <ele>2534.17</ele>
        <time>2015-02-25T11:24:21Z</time>
      </trkpt>
      <trkpt lat="46.86668" lon="12.19302">
        <ele>2534.65</ele>
        <time>2015-02-25T11:24:34Z</time>
      </trkpt>
      <trkpt lat="46.86669" lon="12.19291">
        <ele>2536.1</ele>
        <time>2015-02-25T11:24:49Z</time>
      </trkpt>
      <trkpt lat="46.86669" lon="12.19281">
        <ele>2536.1</ele>
        <time>2015-02-25T11:25:02Z</time>
      </trkpt>
      <trkpt lat="46.86672" lon="12.19268">
        <ele>2536.58</ele>
        <time>2015-02-25T11:25:15Z</time>
      </trkpt>
      <trkpt lat="46.86675" lon="12.19257">
        <ele>2538.02</ele>
        <time>2015-02-25T11:25:30Z</time>
      </trkpt>
      <trkpt lat="46.86677" lon="12.19246">
        <ele>2539.94</ele>
        <time>2015-02-25T11:25:48Z</time>
      </trkpt>
      <trkpt lat="46.86678" lon="12.19238">
        <ele>2541.38</ele>
        <time>2015-02-25T11:26:03Z</time>
      </trkpt>
      <trkpt lat="46.86679" lon="12.19231">
        <ele>2542.34</ele>
        <time>2015-02-25T11:26:17Z</time>
      </trkpt>
      <trkpt lat="46.86679" lon="12.19222">
        <ele>2543.79</ele>
        <time>2015-02-25T11:26:32Z</time>
      </trkpt>
      <trkpt lat="46.8668" lon="12.19214">
        <ele>2545.71</ele>
        <time>2015-02-25T11:26:46Z</time>
      </trkpt>
      <trkpt lat="46.86679" lon="12.19208">
        <ele>2546.67</ele>
        <time>2015-02-25T11:27:00Z</time>
      </trkpt>
      <trkpt lat="46.86681" lon="12.192">
        <ele>2548.11</ele>
        <time>2015-02-25T11:27:14Z</time>
      </trkpt>
      <trkpt lat="46.86682" lon="12.19192">
        <ele>2549.07</ele>
        <time>2015-02-25T11:27:28Z</time>
      </trkpt>
      <trkpt lat="46.86684" lon="12.19182">
        <ele>2550.51</ele>
        <time>2015-02-25T11:27:43Z</time>
      </trkpt>
      <trkpt lat="46.86686" lon="12.19174">
        <ele>2552.92</ele>
        <time>2015-02-25T11:27:57Z</time>
      </trkpt>
      <trkpt lat="46.86688" lon="12.19169">
        <ele>2553.4</ele>
        <time>2015-02-25T11:28:11Z</time>
      </trkpt>
      <trkpt lat="46.86689" lon="12.19158">
        <ele>2554.36</ele>
        <time>2015-02-25T11:28:26Z</time>
      </trkpt>
      <trkpt lat="46.86689" lon="12.19149">
        <ele>2555.8</ele>
        <time>2015-02-25T11:28:40Z</time>
      </trkpt>
      <trkpt lat="46.86689" lon="12.19141">
        <ele>2557.24</ele>
        <time>2015-02-25T11:28:54Z</time>
      </trkpt>
      <trkpt lat="46.86687" lon="12.19131">
        <ele>2558.21</ele>
        <time>2015-02-25T11:29:10Z</time>
      </trkpt>
      <trkpt lat="46.86681" lon="12.19134">
        <ele>2559.65</ele>
        <time>2015-02-25T11:29:22Z</time>
      </trkpt>
      <trkpt lat="46.8668" lon="12.19132">
        <ele>2561.09</ele>
        <time>2015-02-25T11:29:27Z</time>
      </trkpt>
      <trkpt lat="46.86678" lon="12.19129">
        <ele>2562.05</ele>
        <time>2015-02-25T11:29:34Z</time>
      </trkpt>
      <trkpt lat="46.86675" lon="12.19126">
        <ele>2563.49</ele>
        <time>2015-02-25T11:29:44Z</time>
      </trkpt>
      <trkpt lat="46.8667" lon="12.19122">
        <ele>2563.97</ele>
        <time>2015-02-25T11:29:58Z</time>
      </trkpt>
      <trkpt lat="46.86667" lon="12.19118">
        <ele>2566.38</ele>
        <time>2015-02-25T11:30:11Z</time>
      </trkpt>
      <trkpt lat="46.86663" lon="12.19114">
        <ele>2566.86</ele>
        <time>2015-02-25T11:30:26Z</time>
      </trkpt>
      <trkpt lat="46.86661" lon="12.19109">
        <ele>2567.34</ele>
        <time>2015-02-25T11:30:40Z</time>
      </trkpt>
      <trkpt lat="46.86658" lon="12.19102">
        <ele>2568.78</ele>
        <time>2015-02-25T11:30:54Z</time>
      </trkpt>
      <trkpt lat="46.86657" lon="12.19096">
        <ele>2570.7</ele>
        <time>2015-02-25T11:31:09Z</time>
      </trkpt>
      <trkpt lat="46.86656" lon="12.1909">
        <ele>2572.63</ele>
        <time>2015-02-25T11:31:23Z</time>
      </trkpt>
      <trkpt lat="46.86654" lon="12.19081">
        <ele>2575.03</ele>
        <time>2015-02-25T11:31:38Z</time>
      </trkpt>
      <trkpt lat="46.86653" lon="12.19074">
        <ele>2575.03</ele>
        <time>2015-02-25T11:31:51Z</time>
      </trkpt>
      <trkpt lat="46.86653" lon="12.19066">
        <ele>2576.47</ele>
        <time>2015-02-25T11:32:05Z</time>
      </trkpt>
      <trkpt lat="46.86652" lon="12.19057">
        <ele>2578.87</ele>
        <time>2015-02-25T11:32:21Z</time>
      </trkpt>
      <trkpt lat="46.86651" lon="12.19047">
        <ele>2581.28</ele>
        <time>2015-02-25T11:32:38Z</time>
      </trkpt>
      <trkpt lat="46.8665" lon="12.19038">
        <ele>2581.28</ele>
        <time>2015-02-25T11:32:54Z</time>
      </trkpt>
      <trkpt lat="46.86648" lon="12.19026">
        <ele>2583.2</ele>
        <time>2015-02-25T11:33:12Z</time>
      </trkpt>
      <trkpt lat="46.86646" lon="12.19017">
        <ele>2585.6</ele>
        <time>2015-02-25T11:33:27Z</time>
      </trkpt>
      <trkpt lat="46.86647" lon="12.19007">
        <ele>2587.04</ele>
        <time>2015-02-25T11:33:42Z</time>
      </trkpt>
      <trkpt lat="46.86649" lon="12.18995">
        <ele>2589.93</ele>
        <time>2015-02-25T11:33:59Z</time>
      </trkpt>
      <trkpt lat="46.86653" lon="12.18979">
        <ele>2590.41</ele>
        <time>2015-02-25T11:34:21Z</time>
      </trkpt>
      <trkpt lat="46.86654" lon="12.18964">
        <ele>2590.41</ele>
        <time>2015-02-25T11:34:36Z</time>
      </trkpt>
      <trkpt lat="46.86658" lon="12.18951">
        <ele>2588.49</ele>
        <time>2015-02-25T11:34:50Z</time>
      </trkpt>
      <trkpt lat="46.86658" lon="12.18948">
        <ele>2588.01</ele>
        <time>2015-02-25T11:34:52Z</time>
      </trkpt>
      <trkpt lat="46.86658" lon="12.18929">
        <ele>2588.01</ele>
        <time>2015-02-25T11:35:08Z</time>
      </trkpt>
      <trkpt lat="46.86659" lon="12.18915">
        <ele>2589.93</ele>
        <time>2015-02-25T11:35:26Z</time>
      </trkpt>
      <trkpt lat="46.86659" lon="12.18905">
        <ele>2591.85</ele>
        <time>2015-02-25T11:35:41Z</time>
      </trkpt>
      <trkpt lat="46.86659" lon="12.18894">
        <ele>2593.29</ele>
        <time>2015-02-25T11:35:57Z</time>
      </trkpt>
      <trkpt lat="46.86658" lon="12.18887">
        <ele>2596.66</ele>
        <time>2015-02-25T11:36:10Z</time>
      </trkpt>
      <trkpt lat="46.86659" lon="12.18875">
        <ele>2595.22</ele>
        <time>2015-02-25T11:36:25Z</time>
      </trkpt>
      <trkpt lat="46.8666" lon="12.18867">
        <ele>2596.18</ele>
        <time>2015-02-25T11:36:37Z</time>
      </trkpt>
      <trkpt lat="46.86663" lon="12.18853">
        <ele>2597.62</ele>
        <time>2015-02-25T11:36:56Z</time>
      </trkpt>
      <trkpt lat="46.86665" lon="12.18841">
        <ele>2599.06</ele>
        <time>2015-02-25T11:37:15Z</time>
      </trkpt>
      <trkpt lat="46.8667" lon="12.18823">
        <ele>2597.62</ele>
        <time>2015-02-25T11:37:30Z</time>
      </trkpt>
      <trkpt lat="46.86673" lon="12.18807">
        <ele>2597.62</ele>
        <time>2015-02-25T11:37:44Z</time>
      </trkpt>
      <trkpt lat="46.86673" lon="12.18794">
        <ele>2599.06</ele>
        <time>2015-02-25T11:38:03Z</time>
      </trkpt>
      <trkpt lat="46.86673" lon="12.18784">
        <ele>2600.5</ele>
        <time>2015-02-25T11:38:17Z</time>
      </trkpt>
      <trkpt lat="46.86674" lon="12.18774">
        <ele>2601.95</ele>
        <time>2015-02-25T11:38:33Z</time>
      </trkpt>
      <trkpt lat="46.86677" lon="12.18765">
        <ele>2602.91</ele>
        <time>2015-02-25T11:38:48Z</time>
      </trkpt>
      <trkpt lat="46.86679" lon="12.18758">
        <ele>2603.87</ele>
        <time>2015-02-25T11:39:02Z</time>
      </trkpt>
      <trkpt lat="46.86681" lon="12.18752">
        <ele>2605.79</ele>
        <time>2015-02-25T11:39:16Z</time>
      </trkpt>
      <trkpt lat="46.86683" lon="12.18746">
        <ele>2606.27</ele>
        <time>2015-02-25T11:39:30Z</time>
      </trkpt>
      <trkpt lat="46.86685" lon="12.18739">
        <ele>2608.67</ele>
        <time>2015-02-25T11:39:44Z</time>
      </trkpt>
      <trkpt lat="46.86687" lon="12.18733">
        <ele>2609.64</ele>
        <time>2015-02-25T11:39:59Z</time>
      </trkpt>
      <trkpt lat="46.86689" lon="12.18725">
        <ele>2611.08</ele>
        <time>2015-02-25T11:40:14Z</time>
      </trkpt>
      <trkpt lat="46.86691" lon="12.18717">
        <ele>2612.04</ele>
        <time>2015-02-25T11:40:29Z</time>
      </trkpt>
      <trkpt lat="46.86692" lon="12.1871">
        <ele>2613.48</ele>
        <time>2015-02-25T11:40:43Z</time>
      </trkpt>
      <trkpt lat="46.86696" lon="12.18701">
        <ele>2613.96</ele>
        <time>2015-02-25T11:40:57Z</time>
      </trkpt>
      <trkpt lat="46.86698" lon="12.18692">
        <ele>2614.92</ele>
        <time>2015-02-25T11:41:13Z</time>
      </trkpt>
      <trkpt lat="46.867" lon="12.18685">
        <ele>2616.37</ele>
        <time>2015-02-25T11:41:27Z</time>
      </trkpt>
      <trkpt lat="46.86702" lon="12.18677">
        <ele>2617.81</ele>
        <time>2015-02-25T11:41:41Z</time>
      </trkpt>
      <trkpt lat="46.86703" lon="12.1867">
        <ele>2619.25</ele>
        <time>2015-02-25T11:41:55Z</time>
      </trkpt>
      <trkpt lat="46.86704" lon="12.18664">
        <ele>2621.17</ele>
        <time>2015-02-25T11:42:08Z</time>
      </trkpt>
      <trkpt lat="46.86706" lon="12.18659">
        <ele>2622.13</ele>
        <time>2015-02-25T11:42:21Z</time>
      </trkpt>
      <trkpt lat="46.86708" lon="12.18652">
        <ele>2624.06</ele>
        <time>2015-02-25T11:42:35Z</time>
      </trkpt>
      <trkpt lat="46.86708" lon="12.18646">
        <ele>2625.02</ele>
        <time>2015-02-25T11:42:47Z</time>
      </trkpt>
      <trkpt lat="46.86709" lon="12.1864">
        <ele>2626.46</ele>
        <time>2015-02-25T11:43:02Z</time>
      </trkpt>
      <trkpt lat="46.86709" lon="12.18631">
        <ele>2627.9</ele>
        <time>2015-02-25T11:43:17Z</time>
      </trkpt>
      <trkpt lat="46.86709" lon="12.18626">
        <ele>2629.34</ele>
        <time>2015-02-25T11:43:30Z</time>
      </trkpt>
      <trkpt lat="46.86709" lon="12.1862">
        <ele>2630.3</ele>
        <time>2015-02-25T11:43:42Z</time>
      </trkpt>
      <trkpt lat="46.86709" lon="12.18614">
        <ele>2631.75</ele>
        <time>2015-02-25T11:43:56Z</time>
      </trkpt>
      <trkpt lat="46.8671" lon="12.18607">
        <ele>2633.19</ele>
        <time>2015-02-25T11:44:11Z</time>
      </trkpt>
      <trkpt lat="46.8671" lon="12.18603">
        <ele>2634.63</ele>
        <time>2015-02-25T11:44:25Z</time>
      </trkpt>
      <trkpt lat="46.8671" lon="12.18597">
        <ele>2635.59</ele>
        <time>2015-02-25T11:44:37Z</time>
      </trkpt>
      <trkpt lat="46.8671" lon="12.1859">
        <ele>2637.51</ele>
        <time>2015-02-25T11:44:51Z</time>
      </trkpt>
      <trkpt lat="46.86708" lon="12.18585">
        <ele>2637.99</ele>
        <time>2015-02-25T11:45:03Z</time>
      </trkpt>
      <trkpt lat="46.86711" lon="12.18582">
        <ele>2639.44</ele>
        <time>2015-02-25T11:45:16Z</time>
      </trkpt>
      <trkpt lat="46.86715" lon="12.18583">
        <ele>2640.4</ele>
        <time>2015-02-25T11:45:30Z</time>
      </trkpt>
      <trkpt lat="46.86716" lon="12.18581">
        <ele>2641.84</ele>
        <time>2015-02-25T11:45:44Z</time>
      </trkpt>
      <trkpt lat="46.86716" lon="12.18576">
        <ele>2643.28</ele>
        <time>2015-02-25T11:45:57Z</time>
      </trkpt>
      <trkpt lat="46.86716" lon="12.1857">
        <ele>2644.24</ele>
        <time>2015-02-25T11:46:11Z</time>
      </trkpt>
      <trkpt lat="46.86716" lon="12.18564">
        <ele>2645.21</ele>
        <time>2015-02-25T11:46:26Z</time>
      </trkpt>
      <trkpt lat="46.86714" lon="12.18559">
        <ele>2646.65</ele>
        <time>2015-02-25T11:46:38Z</time>
      </trkpt>
      <trkpt lat="46.86716" lon="12.1856">
        <ele>2646.17</ele>
        <time>2015-02-25T11:46:50Z</time>
      </trkpt>
      <trkpt lat="46.86717" lon="12.18556">
        <ele>2647.61</ele>
        <time>2015-02-25T11:47:12Z</time>
      </trkpt>
      <trkpt lat="46.86719" lon="12.18552">
        <ele>2650.01</ele>
        <time>2015-02-25T11:47:25Z</time>
      </trkpt>
      <trkpt lat="46.86718" lon="12.18546">
        <ele>2650.97</ele>
        <time>2015-02-25T11:47:37Z</time>
      </trkpt>
      <trkpt lat="46.8672" lon="12.18543">
        <ele>2652.42</ele>
        <time>2015-02-25T11:47:52Z</time>
      </trkpt>
      <trkpt lat="46.86722" lon="12.18539">
        <ele>2654.34</ele>
        <time>2015-02-25T11:48:05Z</time>
      </trkpt>
      <trkpt lat="46.86721" lon="12.18534">
        <ele>2655.3</ele>
        <time>2015-02-25T11:48:18Z</time>
      </trkpt>
      <trkpt lat="46.86722" lon="12.18529">
        <ele>2657.22</ele>
        <time>2015-02-25T11:48:33Z</time>
      </trkpt>
      <trkpt lat="46.86718" lon="12.18524">
        <ele>2658.18</ele>
        <time>2015-02-25T11:48:46Z</time>
      </trkpt>
      <trkpt lat="46.86716" lon="12.18521">
        <ele>2660.11</ele>
        <time>2015-02-25T11:48:59Z</time>
      </trkpt>
      <trkpt lat="46.86712" lon="12.18517">
        <ele>2661.07</ele>
        <time>2015-02-25T11:49:12Z</time>
      </trkpt>
      <trkpt lat="46.8671" lon="12.18512">
        <ele>2662.03</ele>
        <time>2015-02-25T11:49:23Z</time>
      </trkpt>
      <trkpt lat="46.86706" lon="12.18507">
        <ele>2662.99</ele>
        <time>2015-02-25T11:49:36Z</time>
      </trkpt>
      <trkpt lat="46.86702" lon="12.18503">
        <ele>2664.43</ele>
        <time>2015-02-25T11:49:50Z</time>
      </trkpt>
      <trkpt lat="46.86699" lon="12.18499">
        <ele>2665.39</ele>
        <time>2015-02-25T11:50:03Z</time>
      </trkpt>
      <trkpt lat="46.86695" lon="12.18494">
        <ele>2667.31</ele>
        <time>2015-02-25T11:50:17Z</time>
      </trkpt>
      <trkpt lat="46.86691" lon="12.1849">
        <ele>2668.76</ele>
        <time>2015-02-25T11:50:31Z</time>
      </trkpt>
      <trkpt lat="46.86689" lon="12.18485">
        <ele>2670.2</ele>
        <time>2015-02-25T11:50:47Z</time>
      </trkpt>
      <trkpt lat="46.86685" lon="12.18477">
        <ele>2671.64</ele>
        <time>2015-02-25T11:51:02Z</time>
      </trkpt>
      <trkpt lat="46.86684" lon="12.18474">
        <ele>2672.12</ele>
        <time>2015-02-25T11:51:22Z</time>
      </trkpt>
      <trkpt lat="46.86677" lon="12.18462">
        <ele>2673.56</ele>
        <time>2015-02-25T11:51:39Z</time>
      </trkpt>
      <trkpt lat="46.86672" lon="12.1845">
        <ele>2675.01</ele>
        <time>2015-02-25T11:51:55Z</time>
      </trkpt>
      <trkpt lat="46.86665" lon="12.18439">
        <ele>2675.97</ele>
        <time>2015-02-25T11:52:09Z</time>
      </trkpt>
      <trkpt lat="46.8666" lon="12.18428">
        <ele>2676.45</ele>
        <time>2015-02-25T11:52:24Z</time>
      </trkpt>
      <trkpt lat="46.86657" lon="12.1842">
        <ele>2678.37</ele>
        <time>2015-02-25T11:52:39Z</time>
      </trkpt>
      <trkpt lat="46.86653" lon="12.18408">
        <ele>2679.81</ele>
        <time>2015-02-25T11:52:56Z</time>
      </trkpt>
      <trkpt lat="46.8665" lon="12.184">
        <ele>2680.29</ele>
        <time>2015-02-25T11:53:10Z</time>
      </trkpt>
      <trkpt lat="46.86648" lon="12.18396">
        <ele>2681.73</ele>
        <time>2015-02-25T11:53:25Z</time>
      </trkpt>
      <trkpt lat="46.86646" lon="12.18391">
        <ele>2683.18</ele>
        <time>2015-02-25T11:53:41Z</time>
      </trkpt>
      <trkpt lat="46.86643" lon="12.18386">
        <ele>2685.58</ele>
        <time>2015-02-25T11:53:57Z</time>
      </trkpt>
      <trkpt lat="46.86642" lon="12.18381">
        <ele>2687.02</ele>
        <time>2015-02-25T11:54:10Z</time>
      </trkpt>
      <trkpt lat="46.86642" lon="12.18374">
        <ele>2687.98</ele>
        <time>2015-02-25T11:54:24Z</time>
      </trkpt>
      <trkpt lat="46.8664" lon="12.18367">
        <ele>2689.91</ele>
        <time>2015-02-25T11:54:37Z</time>
      </trkpt>
      <trkpt lat="46.86639" lon="12.18361">
        <ele>2691.35</ele>
        <time>2015-02-25T11:54:51Z</time>
      </trkpt>
      <trkpt lat="46.86638" lon="12.18355">
        <ele>2692.31</ele>
        <time>2015-02-25T11:55:09Z</time>
      </trkpt>
      <trkpt lat="46.86636" lon="12.18354">
        <ele>2692.79</ele>
        <time>2015-02-25T11:55:20Z</time>
      </trkpt>
      <trkpt lat="46.86638" lon="12.18353">
        <ele>2691.35</ele>
        <time>2015-02-25T11:55:41Z</time>
      </trkpt>
      <trkpt lat="46.86638" lon="12.18355">
        <ele>2691.35</ele>
        <time>2015-02-25T11:56:07Z</time>
      </trkpt>
      <trkpt lat="46.86637" lon="12.18356">
        <ele>2690.87</ele>
        <time>2015-02-25T11:56:36Z</time>
      </trkpt>
      <trkpt lat="46.86636" lon="12.18355">
        <ele>2692.31</ele>
        <time>2015-02-25T11:57:10Z</time>
      </trkpt>
      <trkpt lat="46.86637" lon="12.18355">
        <ele>2692.79</ele>
        <time>2015-02-25T11:57:27Z</time>
      </trkpt>
      <trkpt lat="46.86638" lon="12.1835">
        <ele>2692.79</ele>
        <time>2015-02-25T11:57:42Z</time>
      </trkpt>
      <trkpt lat="46.86637" lon="12.18345">
        <ele>2693.27</ele>
        <time>2015-02-25T11:57:59Z</time>
      </trkpt>
      <trkpt lat="46.86634" lon="12.18336">
        <ele>2694.23</ele>
        <time>2015-02-25T11:58:14Z</time>
      </trkpt>
      <trkpt lat="46.8663" lon="12.18326">
        <ele>2695.67</ele>
        <time>2015-02-25T11:58:27Z</time>
      </trkpt>
      <trkpt lat="46.86626" lon="12.18314">
        <ele>2696.64</ele>
        <time>2015-02-25T11:58:41Z</time>
      </trkpt>
      <trkpt lat="46.86622" lon="12.18304">
        <ele>2698.08</ele>
        <time>2015-02-25T11:58:58Z</time>
      </trkpt>
      <trkpt lat="46.86619" lon="12.18297">
        <ele>2699.52</ele>
        <time>2015-02-25T11:59:14Z</time>
      </trkpt>
      <trkpt lat="46.86618" lon="12.1829">
        <ele>2700.48</ele>
        <time>2015-02-25T11:59:26Z</time>
      </trkpt>
      <trkpt lat="46.86615" lon="12.18282">
        <ele>2701.44</ele>
        <time>2015-02-25T11:59:40Z</time>
      </trkpt>
      <trkpt lat="46.86613" lon="12.18275">
        <ele>2702.4</ele>
        <time>2015-02-25T11:59:54Z</time>
      </trkpt>
      <trkpt lat="46.8661" lon="12.18268">
        <ele>2703.85</ele>
        <time>2015-02-25T12:00:07Z</time>
      </trkpt>
      <trkpt lat="46.86607" lon="12.18258">
        <ele>2704.81</ele>
        <time>2015-02-25T12:00:21Z</time>
      </trkpt>
      <trkpt lat="46.86603" lon="12.18249">
        <ele>2705.77</ele>
        <time>2015-02-25T12:00:35Z</time>
      </trkpt>
      <trkpt lat="46.86599" lon="12.18241">
        <ele>2706.73</ele>
        <time>2015-02-25T12:00:49Z</time>
      </trkpt>
      <trkpt lat="46.86596" lon="12.18234">
        <ele>2707.69</ele>
        <time>2015-02-25T12:01:03Z</time>
      </trkpt>
      <trkpt lat="46.86593" lon="12.18227">
        <ele>2708.65</ele>
        <time>2015-02-25T12:01:17Z</time>
      </trkpt>
      <trkpt lat="46.8659" lon="12.1822">
        <ele>2709.61</ele>
        <time>2015-02-25T12:01:31Z</time>
      </trkpt>
      <trkpt lat="46.86589" lon="12.18216">
        <ele>2710.57</ele>
        <time>2015-02-25T12:01:46Z</time>
      </trkpt>
      <trkpt lat="46.86586" lon="12.1821">
        <ele>2712.02</ele>
        <time>2015-02-25T12:01:59Z</time>
      </trkpt>
      <trkpt lat="46.86583" lon="12.18206">
        <ele>2713.46</ele>
        <time>2015-02-25T12:02:14Z</time>
      </trkpt>
      <trkpt lat="46.8658" lon="12.18199">
        <ele>2714.9</ele>
        <time>2015-02-25T12:02:28Z</time>
      </trkpt>
      <trkpt lat="46.86578" lon="12.18195">
        <ele>2715.86</ele>
        <time>2015-02-25T12:02:42Z</time>
      </trkpt>
      <trkpt lat="46.86574" lon="12.1819">
        <ele>2717.3</ele>
        <time>2015-02-25T12:02:58Z</time>
      </trkpt>
      <trkpt lat="46.8657" lon="12.18184">
        <ele>2718.27</ele>
        <time>2015-02-25T12:03:13Z</time>
      </trkpt>
      <trkpt lat="46.86566" lon="12.1818">
        <ele>2719.71</ele>
        <time>2015-02-25T12:03:31Z</time>
      </trkpt>
      <trkpt lat="46.86562" lon="12.18175">
        <ele>2721.63</ele>
        <time>2015-02-25T12:03:49Z</time>
      </trkpt>
      <trkpt lat="46.86557" lon="12.1817">
        <ele>2723.07</ele>
        <time>2015-02-25T12:04:05Z</time>
      </trkpt>
      <trkpt lat="46.86553" lon="12.18165">
        <ele>2724.99</ele>
        <time>2015-02-25T12:04:22Z</time>
      </trkpt>
      <trkpt lat="46.8655" lon="12.18162">
        <ele>2726.92</ele>
        <time>2015-02-25T12:04:38Z</time>
      </trkpt>
      <trkpt lat="46.86545" lon="12.18159">
        <ele>2728.36</ele>
        <time>2015-02-25T12:04:54Z</time>
      </trkpt>
      <trkpt lat="46.86541" lon="12.18156">
        <ele>2729.32</ele>
        <time>2015-02-25T12:05:11Z</time>
      </trkpt>
      <trkpt lat="46.86536" lon="12.18151">
        <ele>2730.28</ele>
        <time>2015-02-25T12:05:26Z</time>
      </trkpt>
      <trkpt lat="46.86533" lon="12.18149">
        <ele>2731.72</ele>
        <time>2015-02-25T12:05:41Z</time>
      </trkpt>
      <trkpt lat="46.86528" lon="12.18144">
        <ele>2732.68</ele>
        <time>2015-02-25T12:05:54Z</time>
      </trkpt>
      <trkpt lat="46.86524" lon="12.18139">
        <ele>2733.65</ele>
        <time>2015-02-25T12:06:08Z</time>
      </trkpt>
      <trkpt lat="46.86522" lon="12.18137">
        <ele>2734.13</ele>
        <time>2015-02-25T12:06:23Z</time>
      </trkpt>
      <trkpt lat="46.86517" lon="12.18129">
        <ele>2735.57</ele>
        <time>2015-02-25T12:06:39Z</time>
      </trkpt>
      <trkpt lat="46.86513" lon="12.18123">
        <ele>2737.01</ele>
        <time>2015-02-25T12:06:57Z</time>
      </trkpt>
      <trkpt lat="46.8651" lon="12.18115">
        <ele>2738.45</ele>
        <time>2015-02-25T12:07:13Z</time>
      </trkpt>
      <trkpt lat="46.86504" lon="12.18108">
        <ele>2739.89</ele>
        <time>2015-02-25T12:07:29Z</time>
      </trkpt>
      <trkpt lat="46.865" lon="12.18104">
        <ele>2740.86</ele>
        <time>2015-02-25T12:07:45Z</time>
      </trkpt>
      <trkpt lat="46.86496" lon="12.18099">
        <ele>2742.3</ele>
        <time>2015-02-25T12:08:01Z</time>
      </trkpt>
      <trkpt lat="46.86492" lon="12.18094">
        <ele>2743.74</ele>
        <time>2015-02-25T12:08:18Z</time>
      </trkpt>
      <trkpt lat="46.86489" lon="12.18089">
        <ele>2744.7</ele>
        <time>2015-02-25T12:08:33Z</time>
      </trkpt>
      <trkpt lat="46.86485" lon="12.18086">
        <ele>2746.14</ele>
        <time>2015-02-25T12:08:46Z</time>
      </trkpt>
      <trkpt lat="46.86484" lon="12.18087">
        <ele>2746.62</ele>
        <time>2015-02-25T12:09:04Z</time>
      </trkpt>
      <trkpt lat="46.8648" lon="12.18083">
        <ele>2748.55</ele>
        <time>2015-02-25T12:09:18Z</time>
      </trkpt>
      <trkpt lat="46.86476" lon="12.18081">
        <ele>2749.99</ele>
        <time>2015-02-25T12:09:33Z</time>
      </trkpt>
      <trkpt lat="46.86472" lon="12.18079">
        <ele>2751.91</ele>
        <time>2015-02-25T12:09:48Z</time>
      </trkpt>
      <trkpt lat="46.86468" lon="12.18078">
        <ele>2753.35</ele>
        <time>2015-02-25T12:10:03Z</time>
      </trkpt>
      <trkpt lat="46.86464" lon="12.18075">
        <ele>2755.28</ele>
        <time>2015-02-25T12:10:18Z</time>
      </trkpt>
      <trkpt lat="46.8646" lon="12.18072">
        <ele>2756.72</ele>
        <time>2015-02-25T12:10:32Z</time>
      </trkpt>
      <trkpt lat="46.86457" lon="12.18069">
        <ele>2758.64</ele>
        <time>2015-02-25T12:10:45Z</time>
      </trkpt>
      <trkpt lat="46.86454" lon="12.18068">
        <ele>2759.12</ele>
        <time>2015-02-25T12:11:01Z</time>
      </trkpt>
      <trkpt lat="46.86451" lon="12.18069">
        <ele>2762</ele>
        <time>2015-02-25T12:11:14Z</time>
      </trkpt>
      <trkpt lat="46.86448" lon="12.18071">
        <ele>2762</ele>
        <time>2015-02-25T12:11:27Z</time>
      </trkpt>
      <trkpt lat="46.86445" lon="12.18072">
        <ele>2764.89</ele>
        <time>2015-02-25T12:11:38Z</time>
      </trkpt>
      <trkpt lat="46.86443" lon="12.18074">
        <ele>2764.41</ele>
        <time>2015-02-25T12:11:49Z</time>
      </trkpt>
      <trkpt lat="46.86439" lon="12.1808">
        <ele>2765.37</ele>
        <time>2015-02-25T12:12:04Z</time>
      </trkpt>
      <trkpt lat="46.86436" lon="12.18083">
        <ele>2765.85</ele>
        <time>2015-02-25T12:12:16Z</time>
      </trkpt>
      <trkpt lat="46.86434" lon="12.18087">
        <ele>2767.29</ele>
        <time>2015-02-25T12:12:28Z</time>
      </trkpt>
      <trkpt lat="46.86432" lon="12.18091">
        <ele>2768.25</ele>
        <time>2015-02-25T12:12:39Z</time>
      </trkpt>
      <trkpt lat="46.86431" lon="12.18096">
        <ele>2769.21</ele>
        <time>2015-02-25T12:12:53Z</time>
      </trkpt>
      <trkpt lat="46.86429" lon="12.18101">
        <ele>2770.66</ele>
        <time>2015-02-25T12:13:06Z</time>
      </trkpt>
      <trkpt lat="46.86429" lon="12.18103">
        <ele>2769.7</ele>
        <time>2015-02-25T12:13:23Z</time>
      </trkpt>
      <trkpt lat="46.86429" lon="12.18099">
        <ele>2769.7</ele>
        <time>2015-02-25T12:13:54Z</time>
      </trkpt>
      <trkpt lat="46.8643" lon="12.18102">
        <ele>2770.18</ele>
        <time>2015-02-25T12:14:30Z</time>
      </trkpt>
      <trkpt lat="46.8643" lon="12.18103">
        <ele>2772.1</ele>
        <time>2015-02-25T12:15:07Z</time>
      </trkpt>
      <trkpt lat="46.86426" lon="12.18105">
        <ele>2772.58</ele>
        <time>2015-02-25T12:15:22Z</time>
      </trkpt>
      <trkpt lat="46.86424" lon="12.18103">
        <ele>2773.06</ele>
        <time>2015-02-25T12:15:37Z</time>
      </trkpt>
      <trkpt lat="46.86422" lon="12.18096">
        <ele>2774.5</ele>
        <time>2015-02-25T12:15:53Z</time>
      </trkpt>
      <trkpt lat="46.8642" lon="12.18088">
        <ele>2776.42</ele>
        <time>2015-02-25T12:16:08Z</time>
      </trkpt>
      <trkpt lat="46.86418" lon="12.18081">
        <ele>2776.91</ele>
        <time>2015-02-25T12:16:22Z</time>
      </trkpt>
      <trkpt lat="46.86416" lon="12.18076">
        <ele>2778.83</ele>
        <time>2015-02-25T12:16:36Z</time>
      </trkpt>
      <trkpt lat="46.86415" lon="12.18078">
        <ele>2780.27</ele>
        <time>2015-02-25T12:16:50Z</time>
      </trkpt>
      <trkpt lat="46.86415" lon="12.1808">
        <ele>2781.23</ele>
        <time>2015-02-25T12:17:11Z</time>
      </trkpt>
      <trkpt lat="46.86412" lon="12.18082">
        <ele>2782.67</ele>
        <time>2015-02-25T12:17:23Z</time>
      </trkpt>
      <trkpt lat="46.8641" lon="12.18085">
        <ele>2784.12</ele>
        <time>2015-02-25T12:17:35Z</time>
      </trkpt>
      <trkpt lat="46.86408" lon="12.18087">
        <ele>2784.6</ele>
        <time>2015-02-25T12:17:47Z</time>
      </trkpt>
      <trkpt lat="46.86406" lon="12.18091">
        <ele>2786.04</ele>
        <time>2015-02-25T12:17:59Z</time>
      </trkpt>
      <trkpt lat="46.86403" lon="12.18092">
        <ele>2787</ele>
        <time>2015-02-25T12:18:13Z</time>
      </trkpt>
      <trkpt lat="46.86402" lon="12.18096">
        <ele>2788.92</ele>
        <time>2015-02-25T12:18:29Z</time>
      </trkpt>
      <trkpt lat="46.864" lon="12.18099">
        <ele>2789.88</ele>
        <time>2015-02-25T12:18:41Z</time>
      </trkpt>
      <trkpt lat="46.86399" lon="12.18103">
        <ele>2791.33</ele>
        <time>2015-02-25T12:18:55Z</time>
      </trkpt>
      <trkpt lat="46.86397" lon="12.18101">
        <ele>2791.81</ele>
        <time>2015-02-25T12:19:08Z</time>
      </trkpt>
      <trkpt lat="46.86396" lon="12.18098">
        <ele>2791.33</ele>
        <time>2015-02-25T12:19:21Z</time>
      </trkpt>
      <trkpt lat="46.86395" lon="12.18095">
        <ele>2793.73</ele>
        <time>2015-02-25T12:19:29Z</time>
      </trkpt>
      <trkpt lat="46.86393" lon="12.18091">
        <ele>2793.73</ele>
        <time>2015-02-25T12:19:40Z</time>
      </trkpt>
      <trkpt lat="46.86392" lon="12.18089">
        <ele>2794.21</ele>
        <time>2015-02-25T12:19:58Z</time>
      </trkpt>
      <trkpt lat="46.86392" lon="12.18079">
        <ele>2796.13</ele>
        <time>2015-02-25T12:20:12Z</time>
      </trkpt>
      <trkpt lat="46.86392" lon="12.18071">
        <ele>2795.65</ele>
        <time>2015-02-25T12:20:26Z</time>
      </trkpt>
      <trkpt lat="46.86392" lon="12.18066">
        <ele>2799.02</ele>
        <time>2015-02-25T12:20:42Z</time>
      </trkpt>
      <trkpt lat="46.86393" lon="12.18057">
        <ele>2799.02</ele>
        <time>2015-02-25T12:20:57Z</time>
      </trkpt>
      <trkpt lat="46.86396" lon="12.18053">
        <ele>2800.94</ele>
        <time>2015-02-25T12:21:05Z</time>
      </trkpt>
      <trkpt lat="46.86397" lon="12.18051">
        <ele>2797.57</ele>
        <time>2015-02-25T12:21:11Z</time>
      </trkpt>
      <trkpt lat="46.86397" lon="12.18051">
        <ele>2798.54</ele>
        <time>2015-02-25T12:21:12Z</time>
      </trkpt>
      <trkpt lat="46.86399" lon="12.18049">
        <ele>2799.98</ele>
        <time>2015-02-25T12:21:15Z</time>
      </trkpt>
      <trkpt lat="46.86399" lon="12.18047">
        <ele>2803.34</ele>
        <time>2015-02-25T12:21:23Z</time>
      </trkpt>
      <trkpt lat="46.86397" lon="12.18046">
        <ele>2803.34</ele>
        <time>2015-02-25T12:21:40Z</time>
      </trkpt>
      <trkpt lat="46.86397" lon="12.18046">
        <ele>2801.42</ele>
        <time>2015-02-25T12:21:46Z</time>
      </trkpt>
      <trkpt lat="46.86397" lon="12.18046">
        <ele>2803.34</ele>
        <time>2015-02-25T12:21:49Z</time>
      </trkpt>
      <trkpt lat="46.86398" lon="12.18046">
        <ele>2800.94</ele>
        <time>2015-02-25T12:21:59Z</time>
      </trkpt>
      <trkpt lat="46.86398" lon="12.18046">
        <ele>2803.82</ele>
        <time>2015-02-25T12:22:04Z</time>
      </trkpt>
      <trkpt lat="46.86398" lon="12.18044">
        <ele>2803.34</ele>
        <time>2015-02-25T12:22:19Z</time>
      </trkpt>
      <trkpt lat="46.86399" lon="12.18045">
        <ele>2802.86</ele>
        <time>2015-02-25T12:22:38Z</time>
      </trkpt>
      <trkpt lat="46.86398" lon="12.18046">
        <ele>2802.86</ele>
        <time>2015-02-25T12:22:57Z</time>
      </trkpt>
      <trkpt lat="46.86398" lon="12.18047">
        <ele>2802.86</ele>
        <time>2015-02-25T12:23:12Z</time>
      </trkpt>
      <trkpt lat="46.86398" lon="12.18048">
        <ele>2804.3</ele>
        <time>2015-02-25T12:23:27Z</time>
      </trkpt>
      <trkpt lat="46.86399" lon="12.18051">
        <ele>2801.9</ele>
        <time>2015-02-25T12:23:53Z</time>
      </trkpt>
      <trkpt lat="46.86398" lon="12.1805">
        <ele>2803.34</ele>
        <time>2015-02-25T12:24:38Z</time>
      </trkpt>
      <trkpt lat="46.86399" lon="12.18051">
        <ele>2802.86</ele>
        <time>2015-02-25T12:25:18Z</time>
      </trkpt>
      <trkpt lat="46.86399" lon="12.18051">
        <ele>2802.86</ele>
        <time>2015-02-25T12:25:44Z</time>
      </trkpt>
      <trkpt lat="46.86397" lon="12.18052">
        <ele>2804.3</ele>
        <time>2015-02-25T12:26:21Z</time>
      </trkpt>
      <trkpt lat="46.86396" lon="12.18051">
        <ele>2804.78</ele>
        <time>2015-02-25T12:26:54Z</time>
      </trkpt>
      <trkpt lat="46.86397" lon="12.18051">
        <ele>2803.34</ele>
        <time>2015-02-25T12:27:12Z</time>
      </trkpt>
      <trkpt lat="46.86397" lon="12.18048">
        <ele>2803.34</ele>
        <time>2015-02-25T12:27:45Z</time>
      </trkpt>
      <trkpt lat="46.86396" lon="12.18047">
        <ele>2804.3</ele>
        <time>2015-02-25T12:27:57Z</time>
      </trkpt>
      <trkpt lat="46.86397" lon="12.18046">
        <ele>2800.94</ele>
        <time>2015-02-25T12:28:12Z</time>
      </trkpt>
      <trkpt lat="46.86397" lon="12.18047">
        <ele>2800.94</ele>
        <time>2015-02-25T12:28:13Z</time>
      </trkpt>
      <trkpt lat="46.86397" lon="12.18047">
        <ele>2804.3</ele>
        <time>2015-02-25T12:28:25Z</time>
      </trkpt>
      <trkpt lat="46.86395" lon="12.18044">
        <ele>2804.78</ele>
        <time>2015-02-25T12:28:42Z</time>
      </trkpt>
      <trkpt lat="46.86395" lon="12.18041">
        <ele>2804.3</ele>
        <time>2015-02-25T12:29:03Z</time>
      </trkpt>
      <trkpt lat="46.86394" lon="12.18039">
        <ele>2805.26</ele>
        <time>2015-02-25T12:29:17Z</time>
      </trkpt>
      <trkpt lat="46.86393" lon="12.18038">
        <ele>2803.82</ele>
        <time>2015-02-25T12:29:38Z</time>
      </trkpt>
      <trkpt lat="46.86396" lon="12.18036">
        <ele>2805.26</ele>
        <time>2015-02-25T12:29:46Z</time>
      </trkpt>
      <trkpt lat="46.86397" lon="12.18038">
        <ele>2808.63</ele>
        <time>2015-02-25T12:29:54Z</time>
      </trkpt>
      <trkpt lat="46.86397" lon="12.18038">
        <ele>2805.26</ele>
        <time>2015-02-25T12:30:03Z</time>
      </trkpt>
      <trkpt lat="46.86398" lon="12.18043">
        <ele>2800.94</ele>
        <time>2015-02-25T12:30:14Z</time>
      </trkpt>
      <trkpt lat="46.86398" lon="12.18044">
        <ele>2800.94</ele>
        <time>2015-02-25T12:30:15Z</time>
      </trkpt>
      <trkpt lat="46.86396" lon="12.18048">
        <ele>2804.3</ele>
        <time>2015-02-25T12:30:21Z</time>
      </trkpt>
      <trkpt lat="46.86395" lon="12.18044">
        <ele>2804.3</ele>
        <time>2015-02-25T12:30:41Z</time>
      </trkpt>
      <trkpt lat="46.86396" lon="12.18042">
        <ele>2806.23</ele>
        <time>2015-02-25T12:31:07Z</time>
      </trkpt>
      <trkpt lat="46.86396" lon="12.18044">
        <ele>2805.75</ele>
        <time>2015-02-25T12:31:21Z</time>
      </trkpt>
      <trkpt lat="46.86394" lon="12.18044">
        <ele>2804.78</ele>
        <time>2015-02-25T12:31:51Z</time>
      </trkpt>
      <trkpt lat="46.86393" lon="12.18044">
        <ele>2804.78</ele>
        <time>2015-02-25T12:32:04Z</time>
      </trkpt>
      <trkpt lat="46.86396" lon="12.18047">
        <ele>2805.75</ele>
        <time>2015-02-25T12:32:16Z</time>
      </trkpt>
      <trkpt lat="46.86396" lon="12.18047">
        <ele>2803.82</ele>
        <time>2015-02-25T12:32:21Z</time>
      </trkpt>
      <trkpt lat="46.86395" lon="12.18041">
        <ele>2803.34</ele>
        <time>2015-02-25T12:32:35Z</time>
      </trkpt>
      <trkpt lat="46.86396" lon="12.18037">
        <ele>2804.78</ele>
        <time>2015-02-25T12:32:55Z</time>
      </trkpt>
      <trkpt lat="46.86396" lon="12.18031">
        <ele>2806.23</ele>
        <time>2015-02-25T12:33:14Z</time>
      </trkpt>
      <trkpt lat="46.86397" lon="12.18023">
        <ele>2806.71</ele>
        <time>2015-02-25T12:33:30Z</time>
      </trkpt>
      <trkpt lat="46.864" lon="12.18017">
        <ele>2806.23</ele>
        <time>2015-02-25T12:33:43Z</time>
      </trkpt>
      <trkpt lat="46.86405" lon="12.18012">
        <ele>2805.75</ele>
        <time>2015-02-25T12:33:56Z</time>
      </trkpt>
      <trkpt lat="46.86406" lon="12.18012">
        <ele>2804.78</ele>
        <time>2015-02-25T12:34:15Z</time>
      </trkpt>
      <trkpt lat="46.86411" lon="12.18007">
        <ele>2806.23</ele>
        <time>2015-02-25T12:34:31Z</time>
      </trkpt>
      <trkpt lat="46.86414" lon="12.18003">
        <ele>2805.75</ele>
        <time>2015-02-25T12:34:43Z</time>
      </trkpt>
      <trkpt lat="46.86418" lon="12.17997">
        <ele>2807.67</ele>
        <time>2015-02-25T12:35:01Z</time>
      </trkpt>
      <trkpt lat="46.86419" lon="12.17996">
        <ele>2811.03</ele>
        <time>2015-02-25T12:35:09Z</time>
      </trkpt>
      <trkpt lat="46.86421" lon="12.17996">
        <ele>2810.55</ele>
        <time>2015-02-25T12:35:16Z</time>
      </trkpt>
      <trkpt lat="46.86423" lon="12.17994">
        <ele>2811.51</ele>
        <time>2015-02-25T12:35:30Z</time>
      </trkpt>
      <trkpt lat="46.86425" lon="12.17993">
        <ele>2812.96</ele>
        <time>2015-02-25T12:35:50Z</time>
      </trkpt>
      <trkpt lat="46.86425" lon="12.17991">
        <ele>2814.4</ele>
        <time>2015-02-25T12:35:55Z</time>
      </trkpt>
      <trkpt lat="46.86428" lon="12.17989">
        <ele>2815.36</ele>
        <time>2015-02-25T12:36:10Z</time>
      </trkpt>
      <trkpt lat="46.86428" lon="12.17987">
        <ele>2818.24</ele>
        <time>2015-02-25T12:36:17Z</time>
      </trkpt>
      <trkpt lat="46.86431" lon="12.17983">
        <ele>2818.24</ele>
        <time>2015-02-25T12:36:33Z</time>
      </trkpt>
      <trkpt lat="46.86431" lon="12.17983">
        <ele>2817.28</ele>
        <time>2015-02-25T12:36:37Z</time>
      </trkpt>
      <trkpt lat="46.86433" lon="12.1798">
        <ele>2817.76</ele>
        <time>2015-02-25T12:36:51Z</time>
      </trkpt>
      <trkpt lat="46.86436" lon="12.17978">
        <ele>2818.72</ele>
        <time>2015-02-25T12:37:07Z</time>
      </trkpt>
      <trkpt lat="46.86436" lon="12.17977">
        <ele>2820.65</ele>
        <time>2015-02-25T12:37:15Z</time>
      </trkpt>
      <trkpt lat="46.86439" lon="12.17975">
        <ele>2822.57</ele>
        <time>2015-02-25T12:37:31Z</time>
      </trkpt>
      <trkpt lat="46.8644" lon="12.17975">
        <ele>2823.53</ele>
        <time>2015-02-25T12:37:38Z</time>
      </trkpt>
      <trkpt lat="46.86443" lon="12.17972">
        <ele>2825.45</ele>
        <time>2015-02-25T12:37:52Z</time>
      </trkpt>
      <trkpt lat="46.86446" lon="12.17967">
        <ele>2825.93</ele>
        <time>2015-02-25T12:38:09Z</time>
      </trkpt>
      <trkpt lat="46.86448" lon="12.17964">
        <ele>2826.89</ele>
        <time>2015-02-25T12:38:25Z</time>
      </trkpt>
      <trkpt lat="46.86451" lon="12.17961">
        <ele>2828.34</ele>
        <time>2015-02-25T12:38:40Z</time>
      </trkpt>
      <trkpt lat="46.86454" lon="12.17958">
        <ele>2830.26</ele>
        <time>2015-02-25T12:38:57Z</time>
      </trkpt>
      <trkpt lat="46.86457" lon="12.17956">
        <ele>2832.18</ele>
        <time>2015-02-25T12:39:12Z</time>
      </trkpt>
      <trkpt lat="46.86457" lon="12.17956">
        <ele>2831.22</ele>
        <time>2015-02-25T12:39:18Z</time>
      </trkpt>
      <trkpt lat="46.86457" lon="12.17953">
        <ele>2832.66</ele>
        <time>2015-02-25T12:39:41Z</time>
      </trkpt>
      <trkpt lat="46.86456" lon="12.17953">
        <ele>2832.18</ele>
        <time>2015-02-25T12:40:05Z</time>
      </trkpt>
      <trkpt lat="46.86459" lon="12.17954">
        <ele>2833.14</ele>
        <time>2015-02-25T12:40:16Z</time>
      </trkpt>
      <trkpt lat="46.86459" lon="12.17956">
        <ele>2833.62</ele>
        <time>2015-02-25T12:40:36Z</time>
      </trkpt>
      <trkpt lat="46.8646" lon="12.17951">
        <ele>2834.58</ele>
        <time>2015-02-25T12:40:51Z</time>
      </trkpt>
      <trkpt lat="46.86461" lon="12.17946">
        <ele>2835.55</ele>
        <time>2015-02-25T12:41:07Z</time>
      </trkpt>
      <trkpt lat="46.86463" lon="12.17949">
        <ele>2829.3</ele>
        <time>2015-02-25T12:41:12Z</time>
      </trkpt>
      <trkpt lat="46.86463" lon="12.1795">
        <ele>2832.66</ele>
        <time>2015-02-25T12:41:13Z</time>
      </trkpt>
      <trkpt lat="46.86464" lon="12.17951">
        <ele>2830.74</ele>
        <time>2015-02-25T12:41:19Z</time>
      </trkpt>
      <trkpt lat="46.86464" lon="12.17952">
        <ele>2833.62</ele>
        <time>2015-02-25T12:41:24Z</time>
      </trkpt>
      <trkpt lat="46.86464" lon="12.17952">
        <ele>2831.7</ele>
        <time>2015-02-25T12:41:26Z</time>
      </trkpt>
      <trkpt lat="46.86463" lon="12.17951">
        <ele>2836.03</ele>
        <time>2015-02-25T12:41:29Z</time>
      </trkpt>
      <trkpt lat="46.86464" lon="12.17951">
        <ele>2836.03</ele>
        <time>2015-02-25T12:41:30Z</time>
      </trkpt>
      <trkpt lat="46.86464" lon="12.17951">
        <ele>2832.66</ele>
        <time>2015-02-25T12:41:35Z</time>
      </trkpt>
      <trkpt lat="46.86464" lon="12.17951">
        <ele>2836.03</ele>
        <time>2015-02-25T12:41:37Z</time>
      </trkpt>
      <trkpt lat="46.86464" lon="12.17951">
        <ele>2836.03</ele>
        <time>2015-02-25T12:41:38Z</time>
      </trkpt>
      <trkpt lat="46.86463" lon="12.17952">
        <ele>2833.14</ele>
        <time>2015-02-25T12:41:46Z</time>
      </trkpt>
      <trkpt lat="46.86463" lon="12.17954">
        <ele>2834.58</ele>
        <time>2015-02-25T12:42:06Z</time>
      </trkpt>
      <trkpt lat="46.86463" lon="12.17953">
        <ele>2832.66</ele>
        <time>2015-02-25T12:42:09Z</time>
      </trkpt>
      <trkpt lat="46.86464" lon="12.17953">
        <ele>2835.55</ele>
        <time>2015-02-25T12:42:17Z</time>
      </trkpt>
      <trkpt lat="46.86464" lon="12.17953">
        <ele>2835.06</ele>
        <time>2015-02-25T12:42:18Z</time>
      </trkpt>
      <trkpt lat="46.86463" lon="12.17953">
        <ele>2832.18</ele>
        <time>2015-02-25T12:42:32Z</time>
      </trkpt>
      <trkpt lat="46.86463" lon="12.17953">
        <ele>2831.7</ele>
        <time>2015-02-25T12:42:33Z</time>
      </trkpt>
      <trkpt lat="46.86463" lon="12.1795">
        <ele>2838.43</ele>
        <time>2015-02-25T12:42:45Z</time>
      </trkpt>
      <trkpt lat="46.86463" lon="12.1795">
        <ele>2832.66</ele>
        <time>2015-02-25T12:42:46Z</time>
      </trkpt>
      <trkpt lat="46.86463" lon="12.17952">
        <ele>2830.74</ele>
        <time>2015-02-25T12:42:50Z</time>
      </trkpt>
      <trkpt lat="46.86463" lon="12.17954">
        <ele>2834.1</ele>
        <time>2015-02-25T12:42:53Z</time>
      </trkpt>
      <trkpt lat="46.86463" lon="12.17955">
        <ele>2830.74</ele>
        <time>2015-02-25T12:42:57Z</time>
      </trkpt>
      <trkpt lat="46.86463" lon="12.17955">
        <ele>2831.7</ele>
        <time>2015-02-25T12:42:58Z</time>
      </trkpt>
      <trkpt lat="46.86463" lon="12.17955">
        <ele>2836.51</ele>
        <time>2015-02-25T12:43:00Z</time>
      </trkpt>
      <trkpt lat="46.86463" lon="12.17955">
        <ele>2836.51</ele>
        <time>2015-02-25T12:43:01Z</time>
      </trkpt>
      <trkpt lat="46.86463" lon="12.17955">
        <ele>2832.66</ele>
        <time>2015-02-25T12:43:03Z</time>
      </trkpt>
      <trkpt lat="46.86463" lon="12.17955">
        <ele>2832.66</ele>
        <time>2015-02-25T12:43:04Z</time>
      </trkpt>
      <trkpt lat="46.86463" lon="12.17956">
        <ele>2831.22</ele>
        <time>2015-02-25T12:43:07Z</time>
      </trkpt>
      <trkpt lat="46.86463" lon="12.17959">
        <ele>2827.85</ele>
        <time>2015-02-25T12:43:16Z</time>
      </trkpt>
      <trkpt lat="46.86462" lon="12.17959">
        <ele>2829.3</ele>
        <time>2015-02-25T12:43:17Z</time>
      </trkpt>
      <trkpt lat="46.86462" lon="12.17958">
        <ele>2835.06</ele>
        <time>2015-02-25T12:43:19Z</time>
      </trkpt>
      <trkpt lat="46.86461" lon="12.17958">
        <ele>2830.26</ele>
        <time>2015-02-25T12:43:21Z</time>
      </trkpt>
      <trkpt lat="46.86461" lon="12.17959">
        <ele>2827.85</ele>
        <time>2015-02-25T12:43:23Z</time>
      </trkpt>
      <trkpt lat="46.8646" lon="12.1796">
        <ele>2835.55</ele>
        <time>2015-02-25T12:43:27Z</time>
      </trkpt>
      <trkpt lat="46.86458" lon="12.1796">
        <ele>2836.99</ele>
        <time>2015-02-25T12:43:29Z</time>
      </trkpt>
      <trkpt lat="46.86458" lon="12.17961">
        <ele>2833.14</ele>
        <time>2015-02-25T12:43:37Z</time>
      </trkpt>
      <trkpt lat="46.86457" lon="12.17962">
        <ele>2829.3</ele>
        <time>2015-02-25T12:43:43Z</time>
      </trkpt>
      <trkpt lat="46.86457" lon="12.17963">
        <ele>2829.78</ele>
        <time>2015-02-25T12:43:44Z</time>
      </trkpt>
      <trkpt lat="46.86457" lon="12.17964">
        <ele>2826.41</ele>
        <time>2015-02-25T12:43:46Z</time>
      </trkpt>
      <trkpt lat="46.86455" lon="12.17965">
        <ele>2833.14</ele>
        <time>2015-02-25T12:43:53Z</time>
      </trkpt>
      <trkpt lat="46.86454" lon="12.17965">
        <ele>2826.41</ele>
        <time>2015-02-25T12:43:58Z</time>
      </trkpt>
      <trkpt lat="46.86454" lon="12.17965">
        <ele>2827.37</ele>
        <time>2015-02-25T12:43:59Z</time>
      </trkpt>
      <trkpt lat="46.86454" lon="12.17966">
        <ele>2831.7</ele>
        <time>2015-02-25T12:44:04Z</time>
      </trkpt>
      <trkpt lat="46.86454" lon="12.17966">
        <ele>2831.22</ele>
        <time>2015-02-25T12:44:05Z</time>
      </trkpt>
      <trkpt lat="46.86454" lon="12.17967">
        <ele>2828.34</ele>
        <time>2015-02-25T12:44:07Z</time>
      </trkpt>
      <trkpt lat="46.86453" lon="12.17967">
        <ele>2828.34</ele>
        <time>2015-02-25T12:44:08Z</time>
      </trkpt>
      <trkpt lat="46.86454" lon="12.17967">
        <ele>2825.45</ele>
        <time>2015-02-25T12:44:09Z</time>
      </trkpt>
      <trkpt lat="46.86454" lon="12.17966">
        <ele>2825.93</ele>
        <time>2015-02-25T12:44:10Z</time>
      </trkpt>
      <trkpt lat="46.86455" lon="12.17965">
        <ele>2824.01</ele>
        <time>2015-02-25T12:44:14Z</time>
      </trkpt>
      <trkpt lat="46.86453" lon="12.17965">
        <ele>2824.01</ele>
        <time>2015-02-25T12:44:28Z</time>
      </trkpt>
      <trkpt lat="46.86449" lon="12.17971">
        <ele>2823.05</ele>
        <time>2015-02-25T12:44:43Z</time>
      </trkpt>
      <trkpt lat="46.8645" lon="12.17969">
        <ele>2826.89</ele>
        <time>2015-02-25T12:44:47Z</time>
      </trkpt>
      <trkpt lat="46.8645" lon="12.17969">
        <ele>2823.05</ele>
        <time>2015-02-25T12:44:48Z</time>
      </trkpt>
      <trkpt lat="46.8645" lon="12.17968">
        <ele>2824.49</ele>
        <time>2015-02-25T12:44:49Z</time>
      </trkpt>
      <trkpt lat="46.86451" lon="12.17968">
        <ele>2827.85</ele>
        <time>2015-02-25T12:44:53Z</time>
      </trkpt>
      <trkpt lat="46.86451" lon="12.17968">
        <ele>2826.41</ele>
        <time>2015-02-25T12:44:54Z</time>
      </trkpt>
      <trkpt lat="46.86451" lon="12.1797">
        <ele>2821.61</ele>
        <time>2015-02-25T12:44:57Z</time>
      </trkpt>
      <trkpt lat="46.86451" lon="12.17971">
        <ele>2821.61</ele>
        <time>2015-02-25T12:44:58Z</time>
      </trkpt>
      <trkpt lat="46.86449" lon="12.17975">
        <ele>2819.68</ele>
        <time>2015-02-25T12:45:03Z</time>
      </trkpt>
      <trkpt lat="46.86444" lon="12.17981">
        <ele>2818.72</ele>
        <time>2015-02-25T12:45:19Z</time>
      </trkpt>
      <trkpt lat="46.86442" lon="12.17983">
        <ele>2814.88</ele>
        <time>2015-02-25T12:45:30Z</time>
      </trkpt>
      <trkpt lat="46.8644" lon="12.17984">
        <ele>2819.68</ele>
        <time>2015-02-25T12:45:35Z</time>
      </trkpt>
      <trkpt lat="46.86439" lon="12.17984">
        <ele>2815.36</ele>
        <time>2015-02-25T12:45:36Z</time>
      </trkpt>
      <trkpt lat="46.86439" lon="12.17983">
        <ele>2813.92</ele>
        <time>2015-02-25T12:45:42Z</time>
      </trkpt>
      <trkpt lat="46.86439" lon="12.17983">
        <ele>2817.28</ele>
        <time>2015-02-25T12:45:43Z</time>
      </trkpt>
      <trkpt lat="46.86439" lon="12.17982">
        <ele>2816.8</ele>
        <time>2015-02-25T12:45:50Z</time>
      </trkpt>
      <trkpt lat="46.86438" lon="12.17987">
        <ele>2814.4</ele>
        <time>2015-02-25T12:46:06Z</time>
      </trkpt>
      <trkpt lat="46.86436" lon="12.17988">
        <ele>2810.55</ele>
        <time>2015-02-25T12:46:10Z</time>
      </trkpt>
      <trkpt lat="46.86434" lon="12.1799">
        <ele>2810.07</ele>
        <time>2015-02-25T12:46:18Z</time>
      </trkpt>
      <trkpt lat="46.86434" lon="12.17989">
        <ele>2811.51</ele>
        <time>2015-02-25T12:46:20Z</time>
      </trkpt>
      <trkpt lat="46.86432" lon="12.17995">
        <ele>2809.11</ele>
        <time>2015-02-25T12:46:35Z</time>
      </trkpt>
      <trkpt lat="46.86431" lon="12.17996">
        <ele>2812.47</ele>
        <time>2015-02-25T12:46:44Z</time>
      </trkpt>
      <trkpt lat="46.8643" lon="12.17996">
        <ele>2809.59</ele>
        <time>2015-02-25T12:46:50Z</time>
      </trkpt>
      <trkpt lat="46.8643" lon="12.18">
        <ele>2806.71</ele>
        <time>2015-02-25T12:47:06Z</time>
      </trkpt>
      <trkpt lat="46.86426" lon="12.18004">
        <ele>2804.78</ele>
        <time>2015-02-25T12:47:22Z</time>
      </trkpt>
      <trkpt lat="46.86423" lon="12.1801">
        <ele>2802.86</ele>
        <time>2015-02-25T12:47:39Z</time>
      </trkpt>
      <trkpt lat="46.86421" lon="12.1801">
        <ele>2804.3</ele>
        <time>2015-02-25T12:47:45Z</time>
      </trkpt>
      <trkpt lat="46.86419" lon="12.18006">
        <ele>2806.23</ele>
        <time>2015-02-25T12:48:02Z</time>
      </trkpt>
      <trkpt lat="46.86419" lon="12.18005">
        <ele>2806.71</ele>
        <time>2015-02-25T12:48:15Z</time>
      </trkpt>
      <trkpt lat="46.8642" lon="12.18007">
        <ele>2801.9</ele>
        <time>2015-02-25T12:48:20Z</time>
      </trkpt>
      <trkpt lat="46.86421" lon="12.18009">
        <ele>2803.82</ele>
        <time>2015-02-25T12:48:31Z</time>
      </trkpt>
      <trkpt lat="46.8642" lon="12.18009">
        <ele>2803.34</ele>
        <time>2015-02-25T12:48:36Z</time>
      </trkpt>
      <trkpt lat="46.86421" lon="12.1801">
        <ele>2804.78</ele>
        <time>2015-02-25T12:48:39Z</time>
      </trkpt>
      <trkpt lat="46.8642" lon="12.18006">
        <ele>2805.75</ele>
        <time>2015-02-25T12:49:01Z</time>
      </trkpt>
      <trkpt lat="46.86422" lon="12.18009">
        <ele>2802.38</ele>
        <time>2015-02-25T12:49:07Z</time>
      </trkpt>
      <trkpt lat="46.86422" lon="12.18009">
        <ele>2804.78</ele>
        <time>2015-02-25T12:49:11Z</time>
      </trkpt>
      <trkpt lat="46.86422" lon="12.1801">
        <ele>2806.23</ele>
        <time>2015-02-25T12:49:13Z</time>
      </trkpt>
      <trkpt lat="46.8642" lon="12.18006">
        <ele>2808.63</ele>
        <time>2015-02-25T12:49:30Z</time>
      </trkpt>
      <trkpt lat="46.8642" lon="12.18004">
        <ele>2807.67</ele>
        <time>2015-02-25T12:49:40Z</time>
      </trkpt>
      <trkpt lat="46.86421" lon="12.18007">
        <ele>2803.34</ele>
        <time>2015-02-25T12:49:45Z</time>
      </trkpt>
      <trkpt lat="46.86421" lon="12.18008">
        <ele>2804.3</ele>
        <time>2015-02-25T12:49:46Z</time>
      </trkpt>
      <trkpt lat="46.86421" lon="12.18006">
        <ele>2805.26</ele>
        <time>2015-02-25T12:49:51Z</time>
      </trkpt>
      <trkpt lat="46.86422" lon="12.18005">
        <ele>2808.63</ele>
        <time>2015-02-25T12:49:53Z</time>
      </trkpt>
      <trkpt lat="46.86422" lon="12.18004">
        <ele>2802.86</ele>
        <time>2015-02-25T12:50:01Z</time>
      </trkpt>
      <trkpt lat="46.86422" lon="12.18004">
        <ele>2804.3</ele>
        <time>2015-02-25T12:50:02Z</time>
      </trkpt>
      <trkpt lat="46.86424" lon="12.18006">
        <ele>2801.42</ele>
        <time>2015-02-25T12:50:12Z</time>
      </trkpt>
      <trkpt lat="46.86423" lon="12.18006">
        <ele>2805.26</ele>
        <time>2015-02-25T12:50:16Z</time>
      </trkpt>
      <trkpt lat="46.86422" lon="12.18006">
        <ele>2806.23</ele>
        <time>2015-02-25T12:50:18Z</time>
      </trkpt>
      <trkpt lat="46.86421" lon="12.18007">
        <ele>2803.34</ele>
        <time>2015-02-25T12:50:31Z</time>
      </trkpt>
      <trkpt lat="46.86421" lon="12.18008">
        <ele>2802.38</ele>
        <time>2015-02-25T12:50:33Z</time>
      </trkpt>
      <trkpt lat="46.86421" lon="12.18008">
        <ele>2800.94</ele>
        <time>2015-02-25T12:50:36Z</time>
      </trkpt>
      <trkpt lat="46.86421" lon="12.1801">
        <ele>2801.42</ele>
        <time>2015-02-25T12:50:44Z</time>
      </trkpt>
      <trkpt lat="46.86416" lon="12.18016">
        <ele>2799.98</ele>
        <time>2015-02-25T12:50:59Z</time>
      </trkpt>
      <trkpt lat="46.86414" lon="12.18018">
        <ele>2798.54</ele>
        <time>2015-02-25T12:51:01Z</time>
      </trkpt>
      <trkpt lat="46.86412" lon="12.18019">
        <ele>2797.57</ele>
        <time>2015-02-25T12:51:05Z</time>
      </trkpt>
      <trkpt lat="46.86404" lon="12.18026">
        <ele>2799.98</ele>
        <time>2015-02-25T12:51:18Z</time>
      </trkpt>
      <trkpt lat="46.86404" lon="12.18028">
        <ele>2798.05</ele>
        <time>2015-02-25T12:51:21Z</time>
      </trkpt>
      <trkpt lat="46.86404" lon="12.18029">
        <ele>2799.98</ele>
        <time>2015-02-25T12:51:24Z</time>
      </trkpt>
      <trkpt lat="46.86402" lon="12.18039">
        <ele>2799.02</ele>
        <time>2015-02-25T12:51:39Z</time>
      </trkpt>
      <trkpt lat="46.86401" lon="12.18037">
        <ele>2802.38</ele>
        <time>2015-02-25T12:51:42Z</time>
      </trkpt>
      <trkpt lat="46.86397" lon="12.18035">
        <ele>2804.3</ele>
        <time>2015-02-25T12:52:01Z</time>
      </trkpt>
      <trkpt lat="46.86397" lon="12.18034">
        <ele>2802.38</ele>
        <time>2015-02-25T12:52:06Z</time>
      </trkpt>
      <trkpt lat="46.86399" lon="12.18038">
        <ele>2796.13</ele>
        <time>2015-02-25T12:52:09Z</time>
      </trkpt>
      <trkpt lat="46.86399" lon="12.1804">
        <ele>2797.57</ele>
        <time>2015-02-25T12:52:10Z</time>
      </trkpt>
      <trkpt lat="46.86399" lon="12.18046">
        <ele>2800.46</ele>
        <time>2015-02-25T12:52:16Z</time>
      </trkpt>
      <trkpt lat="46.86398" lon="12.1805">
        <ele>2802.38</ele>
        <time>2015-02-25T12:52:24Z</time>
      </trkpt>
      <trkpt lat="46.86396" lon="12.18047">
        <ele>2801.9</ele>
        <time>2015-02-25T12:52:39Z</time>
      </trkpt>
      <trkpt lat="46.86396" lon="12.18048">
        <ele>2803.34</ele>
        <time>2015-02-25T12:52:55Z</time>
      </trkpt>
      <trkpt lat="46.86397" lon="12.18048">
        <ele>2801.9</ele>
        <time>2015-02-25T12:53:11Z</time>
      </trkpt>
      <trkpt lat="46.86395" lon="12.18046">
        <ele>2801.9</ele>
        <time>2015-02-25T12:53:30Z</time>
      </trkpt>
      <trkpt lat="46.86396" lon="12.18048">
        <ele>2801.9</ele>
        <time>2015-02-25T12:53:42Z</time>
      </trkpt>
      <trkpt lat="46.86396" lon="12.18048">
        <ele>2801.9</ele>
        <time>2015-02-25T12:54:09Z</time>
      </trkpt>
      <trkpt lat="46.86396" lon="12.18048">
        <ele>2801.42</ele>
        <time>2015-02-25T12:54:32Z</time>
      </trkpt>
      <trkpt lat="46.86396" lon="12.18048">
        <ele>2804.78</ele>
        <time>2015-02-25T12:55:06Z</time>
      </trkpt>
      <trkpt lat="46.86396" lon="12.18048">
        <ele>2805.26</ele>
        <time>2015-02-25T12:55:07Z</time>
      </trkpt>
      <trkpt lat="46.86396" lon="12.18047">
        <ele>2803.82</ele>
        <time>2015-02-25T12:55:17Z</time>
      </trkpt>
      <trkpt lat="46.86395" lon="12.18047">
        <ele>2800.94</ele>
        <time>2015-02-25T12:55:28Z</time>
      </trkpt>
      <trkpt lat="46.86396" lon="12.18047">
        <ele>2797.57</ele>
        <time>2015-02-25T12:55:33Z</time>
      </trkpt>
      <trkpt lat="46.86397" lon="12.18047">
        <ele>2802.86</ele>
        <time>2015-02-25T12:55:35Z</time>
      </trkpt>
      <trkpt lat="46.86396" lon="12.18047">
        <ele>2801.9</ele>
        <time>2015-02-25T12:55:36Z</time>
      </trkpt>
      <trkpt lat="46.86396" lon="12.18046">
        <ele>2798.54</ele>
        <time>2015-02-25T12:55:42Z</time>
      </trkpt>
      <trkpt lat="46.86396" lon="12.18046">
        <ele>2798.54</ele>
        <time>2015-02-25T12:55:43Z</time>
      </trkpt>
      <trkpt lat="46.86396" lon="12.18045">
        <ele>2801.9</ele>
        <time>2015-02-25T12:55:53Z</time>
      </trkpt>
      <trkpt lat="46.86395" lon="12.18048">
        <ele>2802.86</ele>
        <time>2015-02-25T12:56:00Z</time>
      </trkpt>
      <trkpt lat="46.86396" lon="12.1805">
        <ele>2799.98</ele>
        <time>2015-02-25T12:56:11Z</time>
      </trkpt>
      <trkpt lat="46.86396" lon="12.1805">
        <ele>2799.98</ele>
        <time>2015-02-25T12:56:12Z</time>
      </trkpt>
      <trkpt lat="46.86396" lon="12.1805">
        <ele>2804.78</ele>
        <time>2015-02-25T12:56:13Z</time>
      </trkpt>
      <trkpt lat="46.86396" lon="12.1805">
        <ele>2804.3</ele>
        <time>2015-02-25T12:56:14Z</time>
      </trkpt>
      <trkpt lat="46.86396" lon="12.18051">
        <ele>2800.94</ele>
        <time>2015-02-25T12:56:17Z</time>
      </trkpt>
      <trkpt lat="46.86396" lon="12.18051">
        <ele>2800.94</ele>
        <time>2015-02-25T12:56:18Z</time>
      </trkpt>
      <trkpt lat="46.86395" lon="12.18055">
        <ele>2801.42</ele>
        <time>2015-02-25T12:56:38Z</time>
      </trkpt>
      <trkpt lat="46.86395" lon="12.18054">
        <ele>2798.54</ele>
        <time>2015-02-25T12:56:40Z</time>
      </trkpt>
      <trkpt lat="46.86395" lon="12.18053">
        <ele>2801.9</ele>
        <time>2015-02-25T12:56:48Z</time>
      </trkpt>
      <trkpt lat="46.86396" lon="12.18054">
        <ele>2799.5</ele>
        <time>2015-02-25T12:56:51Z</time>
      </trkpt>
      <trkpt lat="46.86395" lon="12.18055">
        <ele>2802.86</ele>
        <time>2015-02-25T12:56:54Z</time>
      </trkpt>
      <trkpt lat="46.86395" lon="12.18055">
        <ele>2800.46</ele>
        <time>2015-02-25T12:56:55Z</time>
      </trkpt>
      <trkpt lat="46.86395" lon="12.18052">
        <ele>2804.3</ele>
        <time>2015-02-25T12:57:10Z</time>
      </trkpt>
      <trkpt lat="46.86395" lon="12.18052">
        <ele>2803.34</ele>
        <time>2015-02-25T12:57:11Z</time>
      </trkpt>
      <trkpt lat="46.86394" lon="12.18057">
        <ele>2803.82</ele>
        <time>2015-02-25T12:57:27Z</time>
      </trkpt>
      <trkpt lat="46.86392" lon="12.18056">
        <ele>2801.42</ele>
        <time>2015-02-25T12:57:30Z</time>
      </trkpt>
      <trkpt lat="46.86389" lon="12.18059">
        <ele>2800.46</ele>
        <time>2015-02-25T12:57:32Z</time>
      </trkpt>
      <trkpt lat="46.86391" lon="12.18064">
        <ele>2795.17</ele>
        <time>2015-02-25T12:57:36Z</time>
      </trkpt>
      <trkpt lat="46.86391" lon="12.18065">
        <ele>2798.05</ele>
        <time>2015-02-25T12:57:38Z</time>
      </trkpt>
      <trkpt lat="46.86389" lon="12.18065">
        <ele>2797.09</ele>
        <time>2015-02-25T12:57:51Z</time>
      </trkpt>
      <trkpt lat="46.86389" lon="12.18065">
        <ele>2797.57</ele>
        <time>2015-02-25T12:58:01Z</time>
      </trkpt>
      <trkpt lat="46.86391" lon="12.18069">
        <ele>2797.57</ele>
        <time>2015-02-25T12:58:17Z</time>
      </trkpt>
      <trkpt lat="46.86391" lon="12.18079">
        <ele>2797.09</ele>
        <time>2015-02-25T12:58:20Z</time>
      </trkpt>
      <trkpt lat="46.86391" lon="12.18082">
        <ele>2793.25</ele>
        <time>2015-02-25T12:58:29Z</time>
      </trkpt>
      <trkpt lat="46.86391" lon="12.18083">
        <ele>2793.73</ele>
        <time>2015-02-25T12:58:30Z</time>
      </trkpt>
      <trkpt lat="46.86391" lon="12.18083">
        <ele>2795.17</ele>
        <time>2015-02-25T12:58:32Z</time>
      </trkpt>
      <trkpt lat="46.86391" lon="12.18083">
        <ele>2793.25</ele>
        <time>2015-02-25T12:58:40Z</time>
      </trkpt>
      <trkpt lat="46.86391" lon="12.18082">
        <ele>2793.73</ele>
        <time>2015-02-25T12:58:52Z</time>
      </trkpt>
      <trkpt lat="46.86392" lon="12.18082">
        <ele>2792.29</ele>
        <time>2015-02-25T12:58:56Z</time>
      </trkpt>
      <trkpt lat="46.86392" lon="12.18081">
        <ele>2792.29</ele>
        <time>2015-02-25T12:59:14Z</time>
      </trkpt>
      <trkpt lat="46.86391" lon="12.18082">
        <ele>2794.21</ele>
        <time>2015-02-25T12:59:19Z</time>
      </trkpt>
      <trkpt lat="46.8639" lon="12.18085">
        <ele>2796.13</ele>
        <time>2015-02-25T12:59:33Z</time>
      </trkpt>
      <trkpt lat="46.86394" lon="12.18113">
        <ele>2793.25</ele>
        <time>2015-02-25T12:59:43Z</time>
      </trkpt>
      <trkpt lat="46.86395" lon="12.18112">
        <ele>2792.77</ele>
        <time>2015-02-25T12:59:44Z</time>
      </trkpt>
      <trkpt lat="46.86396" lon="12.18111">
        <ele>2789.4</ele>
        <time>2015-02-25T12:59:47Z</time>
      </trkpt>
      <trkpt lat="46.86396" lon="12.1811">
        <ele>2790.36</ele>
        <time>2015-02-25T12:59:48Z</time>
      </trkpt>
      <trkpt lat="46.86396" lon="12.18109">
        <ele>2793.25</ele>
        <time>2015-02-25T13:00:08Z</time>
      </trkpt>
      <trkpt lat="46.86396" lon="12.18109">
        <ele>2790.84</ele>
        <time>2015-02-25T13:00:20Z</time>
      </trkpt>
      <trkpt lat="46.86395" lon="12.18108">
        <ele>2790.84</ele>
        <time>2015-02-25T13:00:45Z</time>
      </trkpt>
      <trkpt lat="46.86396" lon="12.18108">
        <ele>2790.84</ele>
        <time>2015-02-25T13:01:06Z</time>
      </trkpt>
      <trkpt lat="46.86395" lon="12.18109">
        <ele>2792.29</ele>
        <time>2015-02-25T13:01:30Z</time>
      </trkpt>
      <trkpt lat="46.86394" lon="12.18109">
        <ele>2791.81</ele>
        <time>2015-02-25T13:01:49Z</time>
      </trkpt>
      <trkpt lat="46.86395" lon="12.18108">
        <ele>2792.77</ele>
        <time>2015-02-25T13:02:14Z</time>
      </trkpt>
      <trkpt lat="46.86395" lon="12.18108">
        <ele>2791.33</ele>
        <time>2015-02-25T13:02:30Z</time>
      </trkpt>
      <trkpt lat="46.86394" lon="12.18108">
        <ele>2792.29</ele>
        <time>2015-02-25T13:02:58Z</time>
      </trkpt>
      <trkpt lat="46.86395" lon="12.18109">
        <ele>2790.84</ele>
        <time>2015-02-25T13:03:04Z</time>
      </trkpt>
      <trkpt lat="46.86395" lon="12.18108">
        <ele>2792.29</ele>
        <time>2015-02-25T13:03:06Z</time>
      </trkpt>
      <trkpt lat="46.86393" lon="12.18108">
        <ele>2792.29</ele>
        <time>2015-02-25T13:03:22Z</time>
      </trkpt>
      <trkpt lat="46.86395" lon="12.18108">
        <ele>2793.73</ele>
        <time>2015-02-25T13:03:44Z</time>
      </trkpt>
      <trkpt lat="46.86396" lon="12.18108">
        <ele>2792.29</ele>
        <time>2015-02-25T13:03:47Z</time>
      </trkpt>
      <trkpt lat="46.86396" lon="12.18108">
        <ele>2792.77</ele>
        <time>2015-02-25T13:04:10Z</time>
      </trkpt>
      <trkpt lat="46.86397" lon="12.18109">
        <ele>2793.73</ele>
        <time>2015-02-25T13:04:33Z</time>
      </trkpt>
      <trkpt lat="46.86398" lon="12.1811">
        <ele>2792.77</ele>
        <time>2015-02-25T13:04:55Z</time>
      </trkpt>
      <trkpt lat="46.86398" lon="12.1811">
        <ele>2791.33</ele>
        <time>2015-02-25T13:05:16Z</time>
      </trkpt>
      <trkpt lat="46.86394" lon="12.18109">
        <ele>2792.77</ele>
        <time>2015-02-25T13:05:41Z</time>
      </trkpt>
      <trkpt lat="46.86395" lon="12.18107">
        <ele>2793.25</ele>
        <time>2015-02-25T13:05:47Z</time>
      </trkpt>
      <trkpt lat="46.86396" lon="12.18103">
        <ele>2792.29</ele>
        <time>2015-02-25T13:05:50Z</time>
      </trkpt>
      <trkpt lat="46.864" lon="12.18098">
        <ele>2791.33</ele>
        <time>2015-02-25T13:05:52Z</time>
      </trkpt>
      <trkpt lat="46.86401" lon="12.18093">
        <ele>2786.04</ele>
        <time>2015-02-25T13:05:53Z</time>
      </trkpt>
      <trkpt lat="46.86403" lon="12.1809">
        <ele>2786.04</ele>
        <time>2015-02-25T13:05:54Z</time>
      </trkpt>
      <trkpt lat="46.8641" lon="12.18077">
        <ele>2780.75</ele>
        <time>2015-02-25T13:05:59Z</time>
      </trkpt>
      <trkpt lat="46.86417" lon="12.18068">
        <ele>2778.83</ele>
        <time>2015-02-25T13:06:03Z</time>
      </trkpt>
      <trkpt lat="46.86416" lon="12.18076">
        <ele>2777.87</ele>
        <time>2015-02-25T13:06:13Z</time>
      </trkpt>
      <trkpt lat="46.86418" lon="12.18077">
        <ele>2778.83</ele>
        <time>2015-02-25T13:06:44Z</time>
      </trkpt>
      <trkpt lat="46.86417" lon="12.18074">
        <ele>2778.83</ele>
        <time>2015-02-25T13:07:11Z</time>
      </trkpt>
      <trkpt lat="46.86417" lon="12.18076">
        <ele>2779.31</ele>
        <time>2015-02-25T13:07:31Z</time>
      </trkpt>
      <trkpt lat="46.86417" lon="12.18083">
        <ele>2778.83</ele>
        <time>2015-02-25T13:07:50Z</time>
      </trkpt>
      <trkpt lat="46.86419" lon="12.18088">
        <ele>2777.87</ele>
        <time>2015-02-25T13:07:52Z</time>
      </trkpt>
      <trkpt lat="46.86421" lon="12.18087">
        <ele>2773.54</ele>
        <time>2015-02-25T13:07:53Z</time>
      </trkpt>
      <trkpt lat="46.86422" lon="12.18085">
        <ele>2774.02</ele>
        <time>2015-02-25T13:07:54Z</time>
      </trkpt>
      <trkpt lat="46.8642" lon="12.18082">
        <ele>2773.54</ele>
        <time>2015-02-25T13:08:11Z</time>
      </trkpt>
      <trkpt lat="46.86422" lon="12.18082">
        <ele>2774.02</ele>
        <time>2015-02-25T13:08:18Z</time>
      </trkpt>
      <trkpt lat="46.86423" lon="12.1808">
        <ele>2773.06</ele>
        <time>2015-02-25T13:08:19Z</time>
      </trkpt>
      <trkpt lat="46.86424" lon="12.18079">
        <ele>2772.58</ele>
        <time>2015-02-25T13:08:20Z</time>
      </trkpt>
      <trkpt lat="46.86425" lon="12.18078">
        <ele>2771.14</ele>
        <time>2015-02-25T13:08:21Z</time>
      </trkpt>
      <trkpt lat="46.86427" lon="12.18081">
        <ele>2771.14</ele>
        <time>2015-02-25T13:08:22Z</time>
      </trkpt>
      <trkpt lat="46.86427" lon="12.18084">
        <ele>2770.18</ele>
        <time>2015-02-25T13:08:23Z</time>
      </trkpt>
      <trkpt lat="46.86428" lon="12.18087">
        <ele>2769.21</ele>
        <time>2015-02-25T13:08:24Z</time>
      </trkpt>
      <trkpt lat="46.86429" lon="12.18088">
        <ele>2768.25</ele>
        <time>2015-02-25T13:08:25Z</time>
      </trkpt>
      <trkpt lat="46.86431" lon="12.18087">
        <ele>2766.81</ele>
        <time>2015-02-25T13:08:26Z</time>
      </trkpt>
      <trkpt lat="46.86432" lon="12.18084">
        <ele>2766.81</ele>
        <time>2015-02-25T13:08:27Z</time>
      </trkpt>
      <trkpt lat="46.86433" lon="12.18081">
        <ele>2766.33</ele>
        <time>2015-02-25T13:08:34Z</time>
      </trkpt>
      <trkpt lat="46.86436" lon="12.18077">
        <ele>2764.89</ele>
        <time>2015-02-25T13:08:36Z</time>
      </trkpt>
      <trkpt lat="46.86439" lon="12.18076">
        <ele>2763.45</ele>
        <time>2015-02-25T13:08:37Z</time>
      </trkpt>
      <trkpt lat="46.86441" lon="12.18079">
        <ele>2763.45</ele>
        <time>2015-02-25T13:08:38Z</time>
      </trkpt>
      <trkpt lat="46.86442" lon="12.18083">
        <ele>2761.52</ele>
        <time>2015-02-25T13:08:39Z</time>
      </trkpt>
      <trkpt lat="46.86443" lon="12.18087">
        <ele>2760.56</ele>
        <time>2015-02-25T13:08:40Z</time>
      </trkpt>
      <trkpt lat="46.86445" lon="12.18088">
        <ele>2759.12</ele>
        <time>2015-02-25T13:08:41Z</time>
      </trkpt>
      <trkpt lat="46.86447" lon="12.18085">
        <ele>2758.16</ele>
        <time>2015-02-25T13:08:42Z</time>
      </trkpt>
      <trkpt lat="46.86454" lon="12.18081">
        <ele>2756.72</ele>
        <time>2015-02-25T13:08:44Z</time>
      </trkpt>
      <trkpt lat="46.86459" lon="12.18088">
        <ele>2752.39</ele>
        <time>2015-02-25T13:08:46Z</time>
      </trkpt>
      <trkpt lat="46.86462" lon="12.18089">
        <ele>2749.51</ele>
        <time>2015-02-25T13:08:48Z</time>
      </trkpt>
      <trkpt lat="46.86466" lon="12.18084">
        <ele>2749.03</ele>
        <time>2015-02-25T13:08:50Z</time>
      </trkpt>
      <trkpt lat="46.86469" lon="12.18085">
        <ele>2749.03</ele>
        <time>2015-02-25T13:09:01Z</time>
      </trkpt>
      <trkpt lat="46.86469" lon="12.18084">
        <ele>2749.51</ele>
        <time>2015-02-25T13:09:21Z</time>
      </trkpt>
      <trkpt lat="46.86472" lon="12.18084">
        <ele>2749.51</ele>
        <time>2015-02-25T13:09:40Z</time>
      </trkpt>
      <trkpt lat="46.86471" lon="12.18084">
        <ele>2749.99</ele>
        <time>2015-02-25T13:10:04Z</time>
      </trkpt>
      <trkpt lat="46.86472" lon="12.18086">
        <ele>2749.03</ele>
        <time>2015-02-25T13:10:26Z</time>
      </trkpt>
      <trkpt lat="46.86467" lon="12.1809">
        <ele>2748.07</ele>
        <time>2015-02-25T13:10:43Z</time>
      </trkpt>
      <trkpt lat="46.86465" lon="12.18084">
        <ele>2748.07</ele>
        <time>2015-02-25T13:11:13Z</time>
      </trkpt>
      <trkpt lat="46.86465" lon="12.18083">
        <ele>2748.55</ele>
        <time>2015-02-25T13:11:37Z</time>
      </trkpt>
      <trkpt lat="46.86466" lon="12.18083">
        <ele>2748.55</ele>
        <time>2015-02-25T13:12:18Z</time>
      </trkpt>
      <trkpt lat="46.86465" lon="12.18084">
        <ele>2748.55</ele>
        <time>2015-02-25T13:12:40Z</time>
      </trkpt>
      <trkpt lat="46.86466" lon="12.18082">
        <ele>2748.55</ele>
        <time>2015-02-25T13:13:16Z</time>
      </trkpt>
      <trkpt lat="46.86465" lon="12.18079">
        <ele>2748.55</ele>
        <time>2015-02-25T13:13:55Z</time>
      </trkpt>
      <trkpt lat="46.86465" lon="12.18079">
        <ele>2749.03</ele>
        <time>2015-02-25T13:14:10Z</time>
      </trkpt>
      <trkpt lat="46.86469" lon="12.18085">
        <ele>2750.47</ele>
        <time>2015-02-25T13:14:24Z</time>
      </trkpt>
      <trkpt lat="46.86471" lon="12.18083">
        <ele>2749.51</ele>
        <time>2015-02-25T13:14:44Z</time>
      </trkpt>
      <trkpt lat="46.86471" lon="12.18085">
        <ele>2749.03</ele>
        <time>2015-02-25T13:14:58Z</time>
      </trkpt>
      <trkpt lat="46.86471" lon="12.18087">
        <ele>2749.03</ele>
        <time>2015-02-25T13:15:05Z</time>
      </trkpt>
      <trkpt lat="46.86489" lon="12.18098">
        <ele>2743.74</ele>
        <time>2015-02-25T13:15:11Z</time>
      </trkpt>
      <trkpt lat="46.86502" lon="12.18109">
        <ele>2740.38</ele>
        <time>2015-02-25T13:15:14Z</time>
      </trkpt>
      <trkpt lat="46.86509" lon="12.18117">
        <ele>2737.49</ele>
        <time>2015-02-25T13:15:16Z</time>
      </trkpt>
      <trkpt lat="46.86513" lon="12.18121">
        <ele>2737.01</ele>
        <time>2015-02-25T13:15:17Z</time>
      </trkpt>
      <trkpt lat="46.86525" lon="12.18143">
        <ele>2732.68</ele>
        <time>2015-02-25T13:15:21Z</time>
      </trkpt>
      <trkpt lat="46.86538" lon="12.18155">
        <ele>2728.84</ele>
        <time>2015-02-25T13:15:24Z</time>
      </trkpt>
      <trkpt lat="46.86552" lon="12.18168">
        <ele>2724.03</ele>
        <time>2015-02-25T13:15:28Z</time>
      </trkpt>
      <trkpt lat="46.86562" lon="12.18178">
        <ele>2720.19</ele>
        <time>2015-02-25T13:15:31Z</time>
      </trkpt>
      <trkpt lat="46.86568" lon="12.1819">
        <ele>2716.82</ele>
        <time>2015-02-25T13:15:34Z</time>
      </trkpt>
      <trkpt lat="46.86577" lon="12.18204">
        <ele>2713.94</ele>
        <time>2015-02-25T13:15:38Z</time>
      </trkpt>
      <trkpt lat="46.86584" lon="12.18218">
        <ele>2710.57</ele>
        <time>2015-02-25T13:15:41Z</time>
      </trkpt>
      <trkpt lat="46.86593" lon="12.1823">
        <ele>2705.77</ele>
        <time>2015-02-25T13:15:43Z</time>
      </trkpt>
      <trkpt lat="46.86601" lon="12.18252">
        <ele>2702.88</ele>
        <time>2015-02-25T13:15:47Z</time>
      </trkpt>
      <trkpt lat="46.8661" lon="12.18275">
        <ele>2699.52</ele>
        <time>2015-02-25T13:15:51Z</time>
      </trkpt>
      <trkpt lat="46.86622" lon="12.18306">
        <ele>2695.19</ele>
        <time>2015-02-25T13:15:57Z</time>
      </trkpt>
      <trkpt lat="46.86624" lon="12.18313">
        <ele>2695.19</ele>
        <time>2015-02-25T13:15:58Z</time>
      </trkpt>
      <trkpt lat="46.86626" lon="12.18329">
        <ele>2691.35</ele>
        <time>2015-02-25T13:16:00Z</time>
      </trkpt>
      <trkpt lat="46.86634" lon="12.18344">
        <ele>2689.43</ele>
        <time>2015-02-25T13:16:03Z</time>
      </trkpt>
      <trkpt lat="46.86636" lon="12.18354">
        <ele>2687.98</ele>
        <time>2015-02-25T13:16:08Z</time>
      </trkpt>
      <trkpt lat="46.86636" lon="12.18354">
        <ele>2687.98</ele>
        <time>2015-02-25T13:16:18Z</time>
      </trkpt>
      <trkpt lat="46.86636" lon="12.18356">
        <ele>2687.98</ele>
        <time>2015-02-25T13:16:21Z</time>
      </trkpt>
      <trkpt lat="46.86637" lon="12.1836">
        <ele>2687.5</ele>
        <time>2015-02-25T13:16:23Z</time>
      </trkpt>
      <trkpt lat="46.86632" lon="12.18385">
        <ele>2685.58</ele>
        <time>2015-02-25T13:16:30Z</time>
      </trkpt>
      <trkpt lat="46.86638" lon="12.18399">
        <ele>2681.25</ele>
        <time>2015-02-25T13:16:34Z</time>
      </trkpt>
      <trkpt lat="46.86644" lon="12.18421">
        <ele>2676.93</ele>
        <time>2015-02-25T13:16:38Z</time>
      </trkpt>
      <trkpt lat="46.86656" lon="12.18438">
        <ele>2672.6</ele>
        <time>2015-02-25T13:16:41Z</time>
      </trkpt>
      <trkpt lat="46.86663" lon="12.1844">
        <ele>2672.12</ele>
        <time>2015-02-25T13:16:43Z</time>
      </trkpt>
      <trkpt lat="46.86663" lon="12.18435">
        <ele>2672.6</ele>
        <time>2015-02-25T13:16:53Z</time>
      </trkpt>
      <trkpt lat="46.86662" lon="12.18436">
        <ele>2672.6</ele>
        <time>2015-02-25T13:17:13Z</time>
      </trkpt>
      <trkpt lat="46.86662" lon="12.18436">
        <ele>2672.6</ele>
        <time>2015-02-25T13:17:33Z</time>
      </trkpt>
      <trkpt lat="46.8666" lon="12.18435">
        <ele>2672.6</ele>
        <time>2015-02-25T13:18:02Z</time>
      </trkpt>
      <trkpt lat="46.86663" lon="12.18439">
        <ele>2672.12</ele>
        <time>2015-02-25T13:18:10Z</time>
      </trkpt>
      <trkpt lat="46.86674" lon="12.18465">
        <ele>2668.28</ele>
        <time>2015-02-25T13:18:23Z</time>
      </trkpt>
      <trkpt lat="46.86682" lon="12.18472">
        <ele>2668.28</ele>
        <time>2015-02-25T13:18:27Z</time>
      </trkpt>
      <trkpt lat="46.86685" lon="12.18486">
        <ele>2664.91</ele>
        <time>2015-02-25T13:18:31Z</time>
      </trkpt>
      <trkpt lat="46.86686" lon="12.1849">
        <ele>2664.43</ele>
        <time>2015-02-25T13:18:32Z</time>
      </trkpt>
      <trkpt lat="46.86695" lon="12.18502">
        <ele>2661.55</ele>
        <time>2015-02-25T13:18:35Z</time>
      </trkpt>
      <trkpt lat="46.86706" lon="12.18512">
        <ele>2659.14</ele>
        <time>2015-02-25T13:18:39Z</time>
      </trkpt>
      <trkpt lat="46.86708" lon="12.18513">
        <ele>2659.14</ele>
        <time>2015-02-25T13:18:40Z</time>
      </trkpt>
      <trkpt lat="46.86714" lon="12.18513">
        <ele>2658.18</ele>
        <time>2015-02-25T13:18:52Z</time>
      </trkpt>
      <trkpt lat="46.86714" lon="12.18514">
        <ele>2658.18</ele>
        <time>2015-02-25T13:19:16Z</time>
      </trkpt>
      <trkpt lat="46.86715" lon="12.18514">
        <ele>2657.7</ele>
        <time>2015-02-25T13:19:30Z</time>
      </trkpt>
      <trkpt lat="46.86715" lon="12.18533">
        <ele>2653.86</ele>
        <time>2015-02-25T13:19:35Z</time>
      </trkpt>
      <trkpt lat="46.86717" lon="12.18545">
        <ele>2650.01</ele>
        <time>2015-02-25T13:19:39Z</time>
      </trkpt>
      <trkpt lat="46.86715" lon="12.18556">
        <ele>2646.65</ele>
        <time>2015-02-25T13:19:42Z</time>
      </trkpt>
      <trkpt lat="46.86713" lon="12.18566">
        <ele>2642.32</ele>
        <time>2015-02-25T13:19:44Z</time>
      </trkpt>
      <trkpt lat="46.8671" lon="12.18567">
        <ele>2639.44</ele>
        <time>2015-02-25T13:19:48Z</time>
      </trkpt>
      <trkpt lat="46.8671" lon="12.18564">
        <ele>2639.92</ele>
        <time>2015-02-25T13:19:54Z</time>
      </trkpt>
      <trkpt lat="46.86709" lon="12.1857">
        <ele>2637.51</ele>
        <time>2015-02-25T13:19:57Z</time>
      </trkpt>
      <trkpt lat="46.86707" lon="12.18581">
        <ele>2634.63</ele>
        <time>2015-02-25T13:20:00Z</time>
      </trkpt>
      <trkpt lat="46.86705" lon="12.18589">
        <ele>2633.67</ele>
        <time>2015-02-25T13:20:02Z</time>
      </trkpt>
      <trkpt lat="46.86706" lon="12.18593">
        <ele>2630.79</ele>
        <time>2015-02-25T13:20:05Z</time>
      </trkpt>
      <trkpt lat="46.86705" lon="12.18592">
        <ele>2631.27</ele>
        <time>2015-02-25T13:20:29Z</time>
      </trkpt>
      <trkpt lat="46.86706" lon="12.18594">
        <ele>2630.79</ele>
        <time>2015-02-25T13:20:43Z</time>
      </trkpt>
      <trkpt lat="46.86705" lon="12.18613">
        <ele>2628.86</ele>
        <time>2015-02-25T13:20:48Z</time>
      </trkpt>
      <trkpt lat="46.86705" lon="12.18623">
        <ele>2624.54</ele>
        <time>2015-02-25T13:20:50Z</time>
      </trkpt>
      <trkpt lat="46.86706" lon="12.18641">
        <ele>2621.65</ele>
        <time>2015-02-25T13:20:53Z</time>
      </trkpt>
      <trkpt lat="46.86704" lon="12.18656">
        <ele>2618.29</ele>
        <time>2015-02-25T13:20:56Z</time>
      </trkpt>
      <trkpt lat="46.86699" lon="12.18671">
        <ele>2614.92</ele>
        <time>2015-02-25T13:20:59Z</time>
      </trkpt>
      <trkpt lat="46.86694" lon="12.18687">
        <ele>2611.08</ele>
        <time>2015-02-25T13:21:02Z</time>
      </trkpt>
      <trkpt lat="46.86689" lon="12.18699">
        <ele>2608.19</ele>
        <time>2015-02-25T13:21:05Z</time>
      </trkpt>
      <trkpt lat="46.86688" lon="12.18704">
        <ele>2606.75</ele>
        <time>2015-02-25T13:21:16Z</time>
      </trkpt>
      <trkpt lat="46.86689" lon="12.18706">
        <ele>2606.27</ele>
        <time>2015-02-25T13:21:30Z</time>
      </trkpt>
      <trkpt lat="46.86688" lon="12.18708">
        <ele>2606.27</ele>
        <time>2015-02-25T13:21:45Z</time>
      </trkpt>
      <trkpt lat="46.86681" lon="12.18734">
        <ele>2601.95</ele>
        <time>2015-02-25T13:21:56Z</time>
      </trkpt>
      <trkpt lat="46.86679" lon="12.18739">
        <ele>2600.5</ele>
        <time>2015-02-25T13:21:57Z</time>
      </trkpt>
      <trkpt lat="46.86674" lon="12.18766">
        <ele>2596.18</ele>
        <time>2015-02-25T13:22:01Z</time>
      </trkpt>
      <trkpt lat="46.86673" lon="12.18781">
        <ele>2593.77</ele>
        <time>2015-02-25T13:22:03Z</time>
      </trkpt>
      <trkpt lat="46.86666" lon="12.18823">
        <ele>2589.45</ele>
        <time>2015-02-25T13:22:08Z</time>
      </trkpt>
      <trkpt lat="46.86666" lon="12.18831">
        <ele>2588.49</ele>
        <time>2015-02-25T13:22:09Z</time>
      </trkpt>
      <trkpt lat="46.86666" lon="12.18841">
        <ele>2589.45</ele>
        <time>2015-02-25T13:22:16Z</time>
      </trkpt>
      <trkpt lat="46.86663" lon="12.18859">
        <ele>2587.53</ele>
        <time>2015-02-25T13:22:29Z</time>
      </trkpt>
      <trkpt lat="46.8666" lon="12.18875">
        <ele>2586.08</ele>
        <time>2015-02-25T13:22:32Z</time>
      </trkpt>
      <trkpt lat="46.8666" lon="12.18881">
        <ele>2584.64</ele>
        <time>2015-02-25T13:22:33Z</time>
      </trkpt>
      <trkpt lat="46.86659" lon="12.18886">
        <ele>2585.6</ele>
        <time>2015-02-25T13:22:34Z</time>
      </trkpt>
      <trkpt lat="46.86658" lon="12.18888">
        <ele>2584.16</ele>
        <time>2015-02-25T13:22:35Z</time>
      </trkpt>
      <trkpt lat="46.86658" lon="12.18887">
        <ele>2585.6</ele>
        <time>2015-02-25T13:22:47Z</time>
      </trkpt>
      <trkpt lat="46.86661" lon="12.18889">
        <ele>2585.12</ele>
        <time>2015-02-25T13:22:59Z</time>
      </trkpt>
      <trkpt lat="46.86662" lon="12.18892">
        <ele>2584.64</ele>
        <time>2015-02-25T13:23:00Z</time>
      </trkpt>
      <trkpt lat="46.86662" lon="12.18897">
        <ele>2584.16</ele>
        <time>2015-02-25T13:23:01Z</time>
      </trkpt>
      <trkpt lat="46.86661" lon="12.18904">
        <ele>2583.68</ele>
        <time>2015-02-25T13:23:02Z</time>
      </trkpt>
      <trkpt lat="46.86661" lon="12.18913">
        <ele>2584.16</ele>
        <time>2015-02-25T13:23:03Z</time>
      </trkpt>
      <trkpt lat="46.86659" lon="12.18934">
        <ele>2579.35</ele>
        <time>2015-02-25T13:23:05Z</time>
      </trkpt>
      <trkpt lat="46.86657" lon="12.18953">
        <ele>2577.91</ele>
        <time>2015-02-25T13:23:07Z</time>
      </trkpt>
      <trkpt lat="46.86654" lon="12.18964">
        <ele>2578.39</ele>
        <time>2015-02-25T13:23:14Z</time>
      </trkpt>
      <trkpt lat="46.86652" lon="12.18973">
        <ele>2579.35</ele>
        <time>2015-02-25T13:23:27Z</time>
      </trkpt>
      <trkpt lat="46.86652" lon="12.18977">
        <ele>2579.84</ele>
        <time>2015-02-25T13:23:40Z</time>
      </trkpt>
      <trkpt lat="46.86653" lon="12.1898">
        <ele>2580.32</ele>
        <time>2015-02-25T13:23:46Z</time>
      </trkpt>
      <trkpt lat="46.86654" lon="12.18982">
        <ele>2579.84</ele>
        <time>2015-02-25T13:23:47Z</time>
      </trkpt>
      <trkpt lat="46.86654" lon="12.18989">
        <ele>2579.84</ele>
        <time>2015-02-25T13:23:52Z</time>
      </trkpt>
      <trkpt lat="46.86649" lon="12.19">
        <ele>2579.35</ele>
        <time>2015-02-25T13:24:06Z</time>
      </trkpt>
      <trkpt lat="46.86647" lon="12.19004">
        <ele>2579.35</ele>
        <time>2015-02-25T13:24:15Z</time>
      </trkpt>
      <trkpt lat="46.86647" lon="12.19006">
        <ele>2579.84</ele>
        <time>2015-02-25T13:24:16Z</time>
      </trkpt>
      <trkpt lat="46.86647" lon="12.19008">
        <ele>2576.47</ele>
        <time>2015-02-25T13:24:17Z</time>
      </trkpt>
      <trkpt lat="46.86648" lon="12.1901">
        <ele>2576.95</ele>
        <time>2015-02-25T13:24:18Z</time>
      </trkpt>
      <trkpt lat="46.86647" lon="12.19013">
        <ele>2575.51</ele>
        <time>2015-02-25T13:24:19Z</time>
      </trkpt>
      <trkpt lat="46.86647" lon="12.19018">
        <ele>2574.55</ele>
        <time>2015-02-25T13:24:20Z</time>
      </trkpt>
      <trkpt lat="46.86647" lon="12.19023">
        <ele>2573.11</ele>
        <time>2015-02-25T13:24:21Z</time>
      </trkpt>
      <trkpt lat="46.86648" lon="12.1903">
        <ele>2572.63</ele>
        <time>2015-02-25T13:24:22Z</time>
      </trkpt>
      <trkpt lat="46.86652" lon="12.1905">
        <ele>2569.74</ele>
        <time>2015-02-25T13:24:25Z</time>
      </trkpt>
      <trkpt lat="46.86654" lon="12.19072">
        <ele>2566.86</ele>
        <time>2015-02-25T13:24:29Z</time>
      </trkpt>
      <trkpt lat="46.86653" lon="12.19085">
        <ele>2563.49</ele>
        <time>2015-02-25T13:24:32Z</time>
      </trkpt>
      <trkpt lat="46.86658" lon="12.19091">
        <ele>2563.01</ele>
        <time>2015-02-25T13:24:37Z</time>
      </trkpt>
      <trkpt lat="46.86654" lon="12.19108">
        <ele>2558.69</ele>
        <time>2015-02-25T13:24:41Z</time>
      </trkpt>
      <trkpt lat="46.86662" lon="12.19115">
        <ele>2556.76</ele>
        <time>2015-02-25T13:24:45Z</time>
      </trkpt>
      <trkpt lat="46.86663" lon="12.19117">
        <ele>2556.76</ele>
        <time>2015-02-25T13:24:52Z</time>
      </trkpt>
      <trkpt lat="46.86666" lon="12.19129">
        <ele>2552.44</ele>
        <time>2015-02-25T13:24:56Z</time>
      </trkpt>
      <trkpt lat="46.86668" lon="12.19131">
        <ele>2552.44</ele>
        <time>2015-02-25T13:24:57Z</time>
      </trkpt>
      <trkpt lat="46.86681" lon="12.1914">
        <ele>2548.59</ele>
        <time>2015-02-25T13:25:01Z</time>
      </trkpt>
      <trkpt lat="46.8668" lon="12.19146">
        <ele>2548.59</ele>
        <time>2015-02-25T13:25:02Z</time>
      </trkpt>
      <trkpt lat="46.86676" lon="12.1915">
        <ele>2547.63</ele>
        <time>2015-02-25T13:25:09Z</time>
      </trkpt>
      <trkpt lat="46.86677" lon="12.1915">
        <ele>2548.59</ele>
        <time>2015-02-25T13:25:31Z</time>
      </trkpt>
      <trkpt lat="46.86679" lon="12.19157">
        <ele>2546.19</ele>
        <time>2015-02-25T13:25:34Z</time>
      </trkpt>
      <trkpt lat="46.8668" lon="12.1917">
        <ele>2541.86</ele>
        <time>2015-02-25T13:25:37Z</time>
      </trkpt>
      <trkpt lat="46.86678" lon="12.19181">
        <ele>2540.42</ele>
        <time>2015-02-25T13:25:39Z</time>
      </trkpt>
      <trkpt lat="46.86675" lon="12.19216">
        <ele>2535.13</ele>
        <time>2015-02-25T13:25:46Z</time>
      </trkpt>
      <trkpt lat="46.86673" lon="12.19235">
        <ele>2532.25</ele>
        <time>2015-02-25T13:25:49Z</time>
      </trkpt>
      <trkpt lat="46.86671" lon="12.19253">
        <ele>2528.89</ele>
        <time>2015-02-25T13:25:51Z</time>
      </trkpt>
      <trkpt lat="46.86669" lon="12.19264">
        <ele>2527.92</ele>
        <time>2015-02-25T13:25:52Z</time>
      </trkpt>
      <trkpt lat="46.86667" lon="12.19298">
        <ele>2525.52</ele>
        <time>2015-02-25T13:25:55Z</time>
      </trkpt>
      <trkpt lat="46.86667" lon="12.19307">
        <ele>2524.08</ele>
        <time>2015-02-25T13:25:56Z</time>
      </trkpt>
      <trkpt lat="46.86673" lon="12.19344">
        <ele>2520.23</ele>
        <time>2015-02-25T13:26:03Z</time>
      </trkpt>
      <trkpt lat="46.86678" lon="12.19369">
        <ele>2519.27</ele>
        <time>2015-02-25T13:26:17Z</time>
      </trkpt>
      <trkpt lat="46.86681" lon="12.19408">
        <ele>2516.39</ele>
        <time>2015-02-25T13:26:28Z</time>
      </trkpt>
      <trkpt lat="46.86682" lon="12.19447">
        <ele>2514.47</ele>
        <time>2015-02-25T13:26:41Z</time>
      </trkpt>
      <trkpt lat="46.86685" lon="12.19485">
        <ele>2511.58</ele>
        <time>2015-02-25T13:26:56Z</time>
      </trkpt>
      <trkpt lat="46.86682" lon="12.19507">
        <ele>2510.62</ele>
        <time>2015-02-25T13:27:09Z</time>
      </trkpt>
      <trkpt lat="46.86682" lon="12.19508">
        <ele>2510.14</ele>
        <time>2015-02-25T13:27:10Z</time>
      </trkpt>
      <trkpt lat="46.86672" lon="12.19546">
        <ele>2506.77</ele>
        <time>2015-02-25T13:27:22Z</time>
      </trkpt>
      <trkpt lat="46.86668" lon="12.1957">
        <ele>2503.41</ele>
        <time>2015-02-25T13:27:26Z</time>
      </trkpt>
      <trkpt lat="46.86661" lon="12.19617">
        <ele>2502.93</ele>
        <time>2015-02-25T13:27:40Z</time>
      </trkpt>
      <trkpt lat="46.86653" lon="12.19636">
        <ele>2500.05</ele>
        <time>2015-02-25T13:27:44Z</time>
      </trkpt>
      <trkpt lat="46.86648" lon="12.19648">
        <ele>2497.64</ele>
        <time>2015-02-25T13:27:46Z</time>
      </trkpt>
      <trkpt lat="46.86644" lon="12.19672">
        <ele>2498.6</ele>
        <time>2015-02-25T13:27:55Z</time>
      </trkpt>
      <trkpt lat="46.86641" lon="12.19699">
        <ele>2496.68</ele>
        <time>2015-02-25T13:28:08Z</time>
      </trkpt>
      <trkpt lat="46.8664" lon="12.19707">
        <ele>2495.24</ele>
        <time>2015-02-25T13:28:20Z</time>
      </trkpt>
      <trkpt lat="46.8664" lon="12.19706">
        <ele>2495.24</ele>
        <time>2015-02-25T13:28:38Z</time>
      </trkpt>
      <trkpt lat="46.86642" lon="12.19734">
        <ele>2493.32</ele>
        <time>2015-02-25T13:28:46Z</time>
      </trkpt>
      <trkpt lat="46.86646" lon="12.19752">
        <ele>2490.43</ele>
        <time>2015-02-25T13:28:50Z</time>
      </trkpt>
      <trkpt lat="46.86647" lon="12.19758">
        <ele>2489.95</ele>
        <time>2015-02-25T13:28:51Z</time>
      </trkpt>
      <trkpt lat="46.86664" lon="12.19799">
        <ele>2486.11</ele>
        <time>2015-02-25T13:28:59Z</time>
      </trkpt>
      <trkpt lat="46.86678" lon="12.19862">
        <ele>2483.22</ele>
        <time>2015-02-25T13:29:12Z</time>
      </trkpt>
      <trkpt lat="46.86679" lon="12.19874">
        <ele>2481.78</ele>
        <time>2015-02-25T13:29:20Z</time>
      </trkpt>
      <trkpt lat="46.8668" lon="12.19876">
        <ele>2482.26</ele>
        <time>2015-02-25T13:29:35Z</time>
      </trkpt>
      <trkpt lat="46.8668" lon="12.19879">
        <ele>2482.74</ele>
        <time>2015-02-25T13:29:48Z</time>
      </trkpt>
      <trkpt lat="46.8668" lon="12.19881">
        <ele>2482.74</ele>
        <time>2015-02-25T13:30:01Z</time>
      </trkpt>
      <trkpt lat="46.86686" lon="12.19897">
        <ele>2483.7</ele>
        <time>2015-02-25T13:30:15Z</time>
      </trkpt>
      <trkpt lat="46.8669" lon="12.19908">
        <ele>2485.63</ele>
        <time>2015-02-25T13:30:21Z</time>
      </trkpt>
      <trkpt lat="46.86697" lon="12.19921">
        <ele>2482.74</ele>
        <time>2015-02-25T13:30:27Z</time>
      </trkpt>
      <trkpt lat="46.86701" lon="12.19927">
        <ele>2481.78</ele>
        <time>2015-02-25T13:30:29Z</time>
      </trkpt>
      <trkpt lat="46.86703" lon="12.1993">
        <ele>2481.3</ele>
        <time>2015-02-25T13:30:30Z</time>
      </trkpt>
      <trkpt lat="46.86703" lon="12.19936">
        <ele>2481.3</ele>
        <time>2015-02-25T13:30:37Z</time>
      </trkpt>
      <trkpt lat="46.86708" lon="12.19939">
        <ele>2476.97</ele>
        <time>2015-02-25T13:30:40Z</time>
      </trkpt>
      <trkpt lat="46.8671" lon="12.1994">
        <ele>2477.94</ele>
        <time>2015-02-25T13:30:41Z</time>
      </trkpt>
      <trkpt lat="46.86713" lon="12.19945">
        <ele>2476.49</ele>
        <time>2015-02-25T13:30:42Z</time>
      </trkpt>
      <trkpt lat="46.86718" lon="12.19957">
        <ele>2474.09</ele>
        <time>2015-02-25T13:30:44Z</time>
      </trkpt>
      <trkpt lat="46.86732" lon="12.19975">
        <ele>2472.17</ele>
        <time>2015-02-25T13:30:48Z</time>
      </trkpt>
      <trkpt lat="46.86735" lon="12.19979">
        <ele>2470.73</ele>
        <time>2015-02-25T13:30:49Z</time>
      </trkpt>
      <trkpt lat="46.86753" lon="12.20007">
        <ele>2469.28</ele>
        <time>2015-02-25T13:30:55Z</time>
      </trkpt>
      <trkpt lat="46.86771" lon="12.20026">
        <ele>2465.92</ele>
        <time>2015-02-25T13:31:05Z</time>
      </trkpt>
      <trkpt lat="46.86773" lon="12.20024">
        <ele>2467.36</ele>
        <time>2015-02-25T13:31:10Z</time>
      </trkpt>
      <trkpt lat="46.8678" lon="12.2003">
        <ele>2466.88</ele>
        <time>2015-02-25T13:31:23Z</time>
      </trkpt>
      <trkpt lat="46.86783" lon="12.20031">
        <ele>2468.32</ele>
        <time>2015-02-25T13:31:27Z</time>
      </trkpt>
      <trkpt lat="46.8679" lon="12.20033">
        <ele>2466.4</ele>
        <time>2015-02-25T13:31:32Z</time>
      </trkpt>
      <trkpt lat="46.86801" lon="12.20034">
        <ele>2464</ele>
        <time>2015-02-25T13:31:36Z</time>
      </trkpt>
      <trkpt lat="46.86809" lon="12.20033">
        <ele>2463.52</ele>
        <time>2015-02-25T13:31:38Z</time>
      </trkpt>
      <trkpt lat="46.86833" lon="12.20027">
        <ele>2460.15</ele>
        <time>2015-02-25T13:31:49Z</time>
      </trkpt>
      <trkpt lat="46.86853" lon="12.20045">
        <ele>2459.67</ele>
        <time>2015-02-25T13:32:02Z</time>
      </trkpt>
      <trkpt lat="46.8686" lon="12.20059">
        <ele>2458.23</ele>
        <time>2015-02-25T13:32:14Z</time>
      </trkpt>
      <trkpt lat="46.86861" lon="12.2006">
        <ele>2457.27</ele>
        <time>2015-02-25T13:32:19Z</time>
      </trkpt>
      <trkpt lat="46.86866" lon="12.20063">
        <ele>2456.31</ele>
        <time>2015-02-25T13:32:22Z</time>
      </trkpt>
      <trkpt lat="46.86876" lon="12.20074">
        <ele>2454.38</ele>
        <time>2015-02-25T13:32:26Z</time>
      </trkpt>
      <trkpt lat="46.8688" lon="12.20085">
        <ele>2453.42</ele>
        <time>2015-02-25T13:32:28Z</time>
      </trkpt>
      <trkpt lat="46.86888" lon="12.20097">
        <ele>2450.54</ele>
        <time>2015-02-25T13:32:32Z</time>
      </trkpt>
      <trkpt lat="46.86892" lon="12.20094">
        <ele>2449.1</ele>
        <time>2015-02-25T13:32:35Z</time>
      </trkpt>
      <trkpt lat="46.8689" lon="12.20093">
        <ele>2451.02</ele>
        <time>2015-02-25T13:32:51Z</time>
      </trkpt>
      <trkpt lat="46.86889" lon="12.20092">
        <ele>2451.5</ele>
        <time>2015-02-25T13:33:05Z</time>
      </trkpt>
      <trkpt lat="46.869" lon="12.20097">
        <ele>2448.62</ele>
        <time>2015-02-25T13:33:13Z</time>
      </trkpt>
      <trkpt lat="46.86902" lon="12.20097">
        <ele>2447.65</ele>
        <time>2015-02-25T13:33:32Z</time>
      </trkpt>
      <trkpt lat="46.86903" lon="12.20097">
        <ele>2449.58</ele>
        <time>2015-02-25T13:33:35Z</time>
      </trkpt>
      <trkpt lat="46.8691" lon="12.2012">
        <ele>2443.81</ele>
        <time>2015-02-25T13:33:42Z</time>
      </trkpt>
      <trkpt lat="46.86909" lon="12.20124">
        <ele>2441.89</ele>
        <time>2015-02-25T13:33:50Z</time>
      </trkpt>
      <trkpt lat="46.86908" lon="12.20124">
        <ele>2441.89</ele>
        <time>2015-02-25T13:34:02Z</time>
      </trkpt>
      <trkpt lat="46.86908" lon="12.20125">
        <ele>2442.85</ele>
        <time>2015-02-25T13:34:13Z</time>
      </trkpt>
      <trkpt lat="46.8691" lon="12.20134">
        <ele>2440.92</ele>
        <time>2015-02-25T13:34:18Z</time>
      </trkpt>
      <trkpt lat="46.8691" lon="12.20135">
        <ele>2440.92</ele>
        <time>2015-02-25T13:34:19Z</time>
      </trkpt>
      <trkpt lat="46.86911" lon="12.20149">
        <ele>2435.64</ele>
        <time>2015-02-25T13:34:25Z</time>
      </trkpt>
      <trkpt lat="46.86915" lon="12.20154">
        <ele>2437.08</ele>
        <time>2015-02-25T13:34:27Z</time>
      </trkpt>
      <trkpt lat="46.86923" lon="12.2017">
        <ele>2433.23</ele>
        <time>2015-02-25T13:34:30Z</time>
      </trkpt>
      <trkpt lat="46.86935" lon="12.20191">
        <ele>2428.91</ele>
        <time>2015-02-25T13:34:33Z</time>
      </trkpt>
      <trkpt lat="46.8694" lon="12.20196">
        <ele>2427.95</ele>
        <time>2015-02-25T13:34:34Z</time>
      </trkpt>
      <trkpt lat="46.86951" lon="12.2021">
        <ele>2424.58</ele>
        <time>2015-02-25T13:34:42Z</time>
      </trkpt>
      <trkpt lat="46.86957" lon="12.20217">
        <ele>2424.1</ele>
        <time>2015-02-25T13:34:54Z</time>
      </trkpt>
      <trkpt lat="46.86958" lon="12.2022">
        <ele>2422.66</ele>
        <time>2015-02-25T13:35:10Z</time>
      </trkpt>
      <trkpt lat="46.86961" lon="12.20243">
        <ele>2420.26</ele>
        <time>2015-02-25T13:35:18Z</time>
      </trkpt>
      <trkpt lat="46.86961" lon="12.20242">
        <ele>2420.26</ele>
        <time>2015-02-25T13:35:26Z</time>
      </trkpt>
      <trkpt lat="46.86964" lon="12.20262">
        <ele>2416.41</ele>
        <time>2015-02-25T13:35:31Z</time>
      </trkpt>
      <trkpt lat="46.86964" lon="12.20274">
        <ele>2413.05</ele>
        <time>2015-02-25T13:35:33Z</time>
      </trkpt>
      <trkpt lat="46.86965" lon="12.20286">
        <ele>2412.09</ele>
        <time>2015-02-25T13:35:35Z</time>
      </trkpt>
      <trkpt lat="46.86971" lon="12.20305">
        <ele>2409.68</ele>
        <time>2015-02-25T13:35:39Z</time>
      </trkpt>
      <trkpt lat="46.86974" lon="12.20308">
        <ele>2405.84</ele>
        <time>2015-02-25T13:35:41Z</time>
      </trkpt>
      <trkpt lat="46.86976" lon="12.20303">
        <ele>2405.84</ele>
        <time>2015-02-25T13:35:42Z</time>
      </trkpt>
      <trkpt lat="46.86976" lon="12.20293">
        <ele>2405.36</ele>
        <time>2015-02-25T13:35:55Z</time>
      </trkpt>
      <trkpt lat="46.86978" lon="12.20301">
        <ele>2404.88</ele>
        <time>2015-02-25T13:36:07Z</time>
      </trkpt>
      <trkpt lat="46.86978" lon="12.20302">
        <ele>2404.88</ele>
        <time>2015-02-25T13:36:31Z</time>
      </trkpt>
      <trkpt lat="46.86979" lon="12.20304">
        <ele>2404.39</ele>
        <time>2015-02-25T13:36:52Z</time>
      </trkpt>
      <trkpt lat="46.86979" lon="12.20299">
        <ele>2405.36</ele>
        <time>2015-02-25T13:37:09Z</time>
      </trkpt>
      <trkpt lat="46.86979" lon="12.20297">
        <ele>2405.36</ele>
        <time>2015-02-25T13:37:25Z</time>
      </trkpt>
      <trkpt lat="46.86979" lon="12.20298">
        <ele>2404.88</ele>
        <time>2015-02-25T13:37:47Z</time>
      </trkpt>
      <trkpt lat="46.86982" lon="12.20292">
        <ele>2402.95</ele>
        <time>2015-02-25T13:37:51Z</time>
      </trkpt>
      <trkpt lat="46.86982" lon="12.20291">
        <ele>2402.95</ele>
        <time>2015-02-25T13:37:58Z</time>
      </trkpt>
      <trkpt lat="46.86988" lon="12.20295">
        <ele>2401.03</ele>
        <time>2015-02-25T13:38:05Z</time>
      </trkpt>
      <trkpt lat="46.87004" lon="12.20306">
        <ele>2398.15</ele>
        <time>2015-02-25T13:38:11Z</time>
      </trkpt>
      <trkpt lat="46.87008" lon="12.20319">
        <ele>2395.26</ele>
        <time>2015-02-25T13:38:14Z</time>
      </trkpt>
      <trkpt lat="46.87018" lon="12.20327">
        <ele>2392.38</ele>
        <time>2015-02-25T13:38:17Z</time>
      </trkpt>
      <trkpt lat="46.8702" lon="12.20325">
        <ele>2389.97</ele>
        <time>2015-02-25T13:38:18Z</time>
      </trkpt>
      <trkpt lat="46.87026" lon="12.20332">
        <ele>2386.61</ele>
        <time>2015-02-25T13:38:21Z</time>
      </trkpt>
      <trkpt lat="46.87028" lon="12.20342">
        <ele>2383.73</ele>
        <time>2015-02-25T13:38:24Z</time>
      </trkpt>
      <trkpt lat="46.87029" lon="12.20343">
        <ele>2383.73</ele>
        <time>2015-02-25T13:38:25Z</time>
      </trkpt>
      <trkpt lat="46.87034" lon="12.20343">
        <ele>2381.32</ele>
        <time>2015-02-25T13:38:27Z</time>
      </trkpt>
      <trkpt lat="46.87037" lon="12.20345">
        <ele>2380.36</ele>
        <time>2015-02-25T13:38:29Z</time>
      </trkpt>
      <trkpt lat="46.87045" lon="12.20337">
        <ele>2377.96</ele>
        <time>2015-02-25T13:38:31Z</time>
      </trkpt>
      <trkpt lat="46.87049" lon="12.20333">
        <ele>2377.96</ele>
        <time>2015-02-25T13:38:32Z</time>
      </trkpt>
      <trkpt lat="46.87043" lon="12.20326">
        <ele>2377.96</ele>
        <time>2015-02-25T13:38:48Z</time>
      </trkpt>
      <trkpt lat="46.87043" lon="12.20325">
        <ele>2377.48</ele>
        <time>2015-02-25T13:38:51Z</time>
      </trkpt>
      <trkpt lat="46.87059" lon="12.20326">
        <ele>2373.63</ele>
        <time>2015-02-25T13:38:58Z</time>
      </trkpt>
      <trkpt lat="46.8706" lon="12.2032">
        <ele>2372.67</ele>
        <time>2015-02-25T13:39:00Z</time>
      </trkpt>
      <trkpt lat="46.87057" lon="12.20319">
        <ele>2373.63</ele>
        <time>2015-02-25T13:39:13Z</time>
      </trkpt>
      <trkpt lat="46.87057" lon="12.20317">
        <ele>2373.15</ele>
        <time>2015-02-25T13:39:26Z</time>
      </trkpt>
      <trkpt lat="46.87068" lon="12.20319">
        <ele>2368.83</ele>
        <time>2015-02-25T13:39:32Z</time>
      </trkpt>
      <trkpt lat="46.87071" lon="12.20319">
        <ele>2368.35</ele>
        <time>2015-02-25T13:39:33Z</time>
      </trkpt>
      <trkpt lat="46.87078" lon="12.20321">
        <ele>2364.5</ele>
        <time>2015-02-25T13:39:35Z</time>
      </trkpt>
      <trkpt lat="46.87082" lon="12.20321">
        <ele>2364.02</ele>
        <time>2015-02-25T13:39:36Z</time>
      </trkpt>
      <trkpt lat="46.87089" lon="12.20324">
        <ele>2362.1</ele>
        <time>2015-02-25T13:39:38Z</time>
      </trkpt>
      <trkpt lat="46.87095" lon="12.20318">
        <ele>2360.17</ele>
        <time>2015-02-25T13:39:40Z</time>
      </trkpt>
      <trkpt lat="46.871" lon="12.20313">
        <ele>2356.33</ele>
        <time>2015-02-25T13:39:41Z</time>
      </trkpt>
      <trkpt lat="46.87096" lon="12.20305">
        <ele>2356.81</ele>
        <time>2015-02-25T13:39:51Z</time>
      </trkpt>
      <trkpt lat="46.87096" lon="12.20304">
        <ele>2355.85</ele>
        <time>2015-02-25T13:39:53Z</time>
      </trkpt>
      <trkpt lat="46.87108" lon="12.20303">
        <ele>2351.52</ele>
        <time>2015-02-25T13:39:58Z</time>
      </trkpt>
      <trkpt lat="46.8711" lon="12.20301">
        <ele>2352</ele>
        <time>2015-02-25T13:39:59Z</time>
      </trkpt>
      <trkpt lat="46.87117" lon="12.20301">
        <ele>2348.16</ele>
        <time>2015-02-25T13:40:01Z</time>
      </trkpt>
      <trkpt lat="46.87122" lon="12.2029">
        <ele>2345.75</ele>
        <time>2015-02-25T13:40:04Z</time>
      </trkpt>
      <trkpt lat="46.87127" lon="12.20291">
        <ele>2345.75</ele>
        <time>2015-02-25T13:40:13Z</time>
      </trkpt>
      <trkpt lat="46.87128" lon="12.20288">
        <ele>2345.75</ele>
        <time>2015-02-25T13:40:33Z</time>
      </trkpt>
      <trkpt lat="46.87127" lon="12.20286">
        <ele>2346.23</ele>
        <time>2015-02-25T13:40:53Z</time>
      </trkpt>
      <trkpt lat="46.87125" lon="12.20286">
        <ele>2346.23</ele>
        <time>2015-02-25T13:41:15Z</time>
      </trkpt>
      <trkpt lat="46.87125" lon="12.20286">
        <ele>2346.23</ele>
        <time>2015-02-25T13:41:38Z</time>
      </trkpt>
      <trkpt lat="46.87126" lon="12.20286">
        <ele>2348.16</ele>
        <time>2015-02-25T13:41:39Z</time>
      </trkpt>
      <trkpt lat="46.87126" lon="12.20287">
        <ele>2346.23</ele>
        <time>2015-02-25T13:41:41Z</time>
      </trkpt>
      <trkpt lat="46.87127" lon="12.20287">
        <ele>2346.72</ele>
        <time>2015-02-25T13:42:04Z</time>
      </trkpt>
      <trkpt lat="46.87129" lon="12.20286">
        <ele>2346.72</ele>
        <time>2015-02-25T13:42:23Z</time>
      </trkpt>
      <trkpt lat="46.87128" lon="12.20286">
        <ele>2346.72</ele>
        <time>2015-02-25T13:42:45Z</time>
      </trkpt>
      <trkpt lat="46.87126" lon="12.20285">
        <ele>2346.72</ele>
        <time>2015-02-25T13:43:04Z</time>
      </trkpt>
      <trkpt lat="46.87128" lon="12.20289">
        <ele>2346.72</ele>
        <time>2015-02-25T13:43:29Z</time>
      </trkpt>
      <trkpt lat="46.87128" lon="12.20291">
        <ele>2346.23</ele>
        <time>2015-02-25T13:43:35Z</time>
      </trkpt>
      <trkpt lat="46.87138" lon="12.20298">
        <ele>2342.87</ele>
        <time>2015-02-25T13:43:42Z</time>
      </trkpt>
      <trkpt lat="46.87139" lon="12.20296">
        <ele>2342.39</ele>
        <time>2015-02-25T13:43:43Z</time>
      </trkpt>
      <trkpt lat="46.87141" lon="12.20297">
        <ele>2342.39</ele>
        <time>2015-02-25T13:43:44Z</time>
      </trkpt>
      <trkpt lat="46.87145" lon="12.20306">
        <ele>2338.54</ele>
        <time>2015-02-25T13:43:49Z</time>
      </trkpt>
      <trkpt lat="46.87148" lon="12.20304">
        <ele>2339.02</ele>
        <time>2015-02-25T13:43:51Z</time>
      </trkpt>
      <trkpt lat="46.87154" lon="12.20308">
        <ele>2337.1</ele>
        <time>2015-02-25T13:43:54Z</time>
      </trkpt>
      <trkpt lat="46.87155" lon="12.20312">
        <ele>2335.18</ele>
        <time>2015-02-25T13:43:55Z</time>
      </trkpt>
      <trkpt lat="46.87159" lon="12.20306">
        <ele>2332.3</ele>
        <time>2015-02-25T13:44:02Z</time>
      </trkpt>
      <trkpt lat="46.87163" lon="12.20313">
        <ele>2332.3</ele>
        <time>2015-02-25T13:44:05Z</time>
      </trkpt>
      <trkpt lat="46.87165" lon="12.20316">
        <ele>2328.93</ele>
        <time>2015-02-25T13:44:06Z</time>
      </trkpt>
      <trkpt lat="46.87166" lon="12.20314">
        <ele>2327.97</ele>
        <time>2015-02-25T13:44:07Z</time>
      </trkpt>
      <trkpt lat="46.87168" lon="12.20314">
        <ele>2328.45</ele>
        <time>2015-02-25T13:44:08Z</time>
      </trkpt>
      <trkpt lat="46.87171" lon="12.20322">
        <ele>2326.05</ele>
        <time>2015-02-25T13:44:11Z</time>
      </trkpt>
      <trkpt lat="46.87173" lon="12.20324">
        <ele>2323.16</ele>
        <time>2015-02-25T13:44:14Z</time>
      </trkpt>
      <trkpt lat="46.87175" lon="12.2032">
        <ele>2322.68</ele>
        <time>2015-02-25T13:44:16Z</time>
      </trkpt>
      <trkpt lat="46.87179" lon="12.20322">
        <ele>2322.2</ele>
        <time>2015-02-25T13:44:25Z</time>
      </trkpt>
      <trkpt lat="46.87177" lon="12.20318">
        <ele>2322.68</ele>
        <time>2015-02-25T13:44:50Z</time>
      </trkpt>
      <trkpt lat="46.87177" lon="12.20319">
        <ele>2322.68</ele>
        <time>2015-02-25T13:45:00Z</time>
      </trkpt>
      <trkpt lat="46.87179" lon="12.20327">
        <ele>2322.2</ele>
        <time>2015-02-25T13:45:03Z</time>
      </trkpt>
      <trkpt lat="46.87184" lon="12.20334">
        <ele>2319.8</ele>
        <time>2015-02-25T13:45:05Z</time>
      </trkpt>
      <trkpt lat="46.87194" lon="12.20344">
        <ele>2316.91</ele>
        <time>2015-02-25T13:45:07Z</time>
      </trkpt>
      <trkpt lat="46.87201" lon="12.20351">
        <ele>2315.47</ele>
        <time>2015-02-25T13:45:08Z</time>
      </trkpt>
      <trkpt lat="46.87212" lon="12.20361">
        <ele>2312.59</ele>
        <time>2015-02-25T13:45:10Z</time>
      </trkpt>
      <trkpt lat="46.87216" lon="12.20365">
        <ele>2312.59</ele>
        <time>2015-02-25T13:45:11Z</time>
      </trkpt>
      <trkpt lat="46.8722" lon="12.20366">
        <ele>2312.11</ele>
        <time>2015-02-25T13:45:12Z</time>
      </trkpt>
      <trkpt lat="46.87224" lon="12.20367">
        <ele>2311.15</ele>
        <time>2015-02-25T13:45:13Z</time>
      </trkpt>
      <trkpt lat="46.87231" lon="12.20365">
        <ele>2309.7</ele>
        <time>2015-02-25T13:45:14Z</time>
      </trkpt>
      <trkpt lat="46.87234" lon="12.20365">
        <ele>2308.26</ele>
        <time>2015-02-25T13:45:15Z</time>
      </trkpt>
      <trkpt lat="46.87243" lon="12.20368">
        <ele>2305.86</ele>
        <time>2015-02-25T13:45:16Z</time>
      </trkpt>
      <trkpt lat="46.87247" lon="12.20371">
        <ele>2305.38</ele>
        <time>2015-02-25T13:45:17Z</time>
      </trkpt>
      <trkpt lat="46.87251" lon="12.20373">
        <ele>2304.9</ele>
        <time>2015-02-25T13:45:18Z</time>
      </trkpt>
      <trkpt lat="46.87258" lon="12.2037">
        <ele>2302.98</ele>
        <time>2015-02-25T13:45:20Z</time>
      </trkpt>
      <trkpt lat="46.87269" lon="12.20376">
        <ele>2302.01</ele>
        <time>2015-02-25T13:45:29Z</time>
      </trkpt>
      <trkpt lat="46.87269" lon="12.20378">
        <ele>2302.98</ele>
        <time>2015-02-25T13:45:41Z</time>
      </trkpt>
      <trkpt lat="46.87269" lon="12.20378">
        <ele>2301.53</ele>
        <time>2015-02-25T13:45:42Z</time>
      </trkpt>
      <trkpt lat="46.8727" lon="12.20375">
        <ele>2300.57</ele>
        <time>2015-02-25T13:45:53Z</time>
      </trkpt>
      <trkpt lat="46.87273" lon="12.20371">
        <ele>2299.13</ele>
        <time>2015-02-25T13:45:54Z</time>
      </trkpt>
      <trkpt lat="46.87281" lon="12.2037">
        <ele>2297.69</ele>
        <time>2015-02-25T13:45:56Z</time>
      </trkpt>
      <trkpt lat="46.87289" lon="12.20381">
        <ele>2295.28</ele>
        <time>2015-02-25T13:45:59Z</time>
      </trkpt>
      <trkpt lat="46.87292" lon="12.20382">
        <ele>2294.8</ele>
        <time>2015-02-25T13:46:00Z</time>
      </trkpt>
      <trkpt lat="46.87296" lon="12.2038">
        <ele>2293.84</ele>
        <time>2015-02-25T13:46:01Z</time>
      </trkpt>
      <trkpt lat="46.87303" lon="12.20382">
        <ele>2292.4</ele>
        <time>2015-02-25T13:46:02Z</time>
      </trkpt>
      <trkpt lat="46.87334" lon="12.20367">
        <ele>2288.08</ele>
        <time>2015-02-25T13:46:08Z</time>
      </trkpt>
      <trkpt lat="46.87345" lon="12.20365">
        <ele>2286.15</ele>
        <time>2015-02-25T13:46:10Z</time>
      </trkpt>
      <trkpt lat="46.87359" lon="12.20358">
        <ele>2286.15</ele>
        <time>2015-02-25T13:46:14Z</time>
      </trkpt>
      <trkpt lat="46.87377" lon="12.20346">
        <ele>2280.87</ele>
        <time>2015-02-25T13:46:18Z</time>
      </trkpt>
      <trkpt lat="46.87388" lon="12.20341">
        <ele>2279.9</ele>
        <time>2015-02-25T13:46:20Z</time>
      </trkpt>
      <trkpt lat="46.87404" lon="12.20319">
        <ele>2279.42</ele>
        <time>2015-02-25T13:46:27Z</time>
      </trkpt>
      <trkpt lat="46.87405" lon="12.20309">
        <ele>2281.83</ele>
        <time>2015-02-25T13:46:38Z</time>
      </trkpt>
      <trkpt lat="46.87403" lon="12.20309">
        <ele>2281.83</ele>
        <time>2015-02-25T13:46:59Z</time>
      </trkpt>
      <trkpt lat="46.87404" lon="12.20309">
        <ele>2281.35</ele>
        <time>2015-02-25T13:47:20Z</time>
      </trkpt>
      <trkpt lat="46.87403" lon="12.20311">
        <ele>2282.79</ele>
        <time>2015-02-25T13:47:38Z</time>
      </trkpt>
      <trkpt lat="46.87403" lon="12.20311">
        <ele>2281.83</ele>
        <time>2015-02-25T13:47:48Z</time>
      </trkpt>
      <trkpt lat="46.87402" lon="12.20313">
        <ele>2282.79</ele>
        <time>2015-02-25T13:48:17Z</time>
      </trkpt>
      <trkpt lat="46.87402" lon="12.20311">
        <ele>2282.79</ele>
        <time>2015-02-25T13:48:42Z</time>
      </trkpt>
      <trkpt lat="46.87402" lon="12.2031">
        <ele>2282.31</ele>
        <time>2015-02-25T13:49:05Z</time>
      </trkpt>
      <trkpt lat="46.87403" lon="12.20308">
        <ele>2281.83</ele>
        <time>2015-02-25T13:49:19Z</time>
      </trkpt>
      <trkpt lat="46.87404" lon="12.20306">
        <ele>2281.83</ele>
        <time>2015-02-25T13:49:20Z</time>
      </trkpt>
      <trkpt lat="46.87405" lon="12.20304">
        <ele>2280.38</ele>
        <time>2015-02-25T13:49:21Z</time>
      </trkpt>
      <trkpt lat="46.87407" lon="12.20302">
        <ele>2280.38</ele>
        <time>2015-02-25T13:49:22Z</time>
      </trkpt>
      <trkpt lat="46.87409" lon="12.20301">
        <ele>2280.38</ele>
        <time>2015-02-25T13:49:23Z</time>
      </trkpt>
      <trkpt lat="46.87411" lon="12.20302">
        <ele>2280.87</ele>
        <time>2015-02-25T13:49:24Z</time>
      </trkpt>
      <trkpt lat="46.87413" lon="12.20304">
        <ele>2280.38</ele>
        <time>2015-02-25T13:49:25Z</time>
      </trkpt>
      <trkpt lat="46.87418" lon="12.20308">
        <ele>2279.42</ele>
        <time>2015-02-25T13:49:37Z</time>
      </trkpt>
      <trkpt lat="46.87418" lon="12.20308">
        <ele>2279.42</ele>
        <time>2015-02-25T13:49:59Z</time>
      </trkpt>
      <trkpt lat="46.87419" lon="12.20308">
        <ele>2278.46</ele>
        <time>2015-02-25T13:50:04Z</time>
      </trkpt>
      <trkpt lat="46.87423" lon="12.20308">
        <ele>2277.98</ele>
        <time>2015-02-25T13:50:06Z</time>
      </trkpt>
      <trkpt lat="46.87432" lon="12.20311">
        <ele>2277.5</ele>
        <time>2015-02-25T13:50:08Z</time>
      </trkpt>
      <trkpt lat="46.87443" lon="12.20314">
        <ele>2274.14</ele>
        <time>2015-02-25T13:50:10Z</time>
      </trkpt>
      <trkpt lat="46.87464" lon="12.20314">
        <ele>2271.73</ele>
        <time>2015-02-25T13:50:13Z</time>
      </trkpt>
      <trkpt lat="46.87488" lon="12.20308">
        <ele>2270.77</ele>
        <time>2015-02-25T13:50:20Z</time>
      </trkpt>
      <trkpt lat="46.87502" lon="12.20303">
        <ele>2271.25</ele>
        <time>2015-02-25T13:50:35Z</time>
      </trkpt>
      <trkpt lat="46.87508" lon="12.20298">
        <ele>2271.25</ele>
        <time>2015-02-25T13:50:49Z</time>
      </trkpt>
      <trkpt lat="46.87508" lon="12.20298">
        <ele>2269.81</ele>
        <time>2015-02-25T13:50:51Z</time>
      </trkpt>
      <trkpt lat="46.8753" lon="12.20296">
        <ele>2267.41</ele>
        <time>2015-02-25T13:51:01Z</time>
      </trkpt>
      <trkpt lat="46.87534" lon="12.20297">
        <ele>2266.93</ele>
        <time>2015-02-25T13:51:02Z</time>
      </trkpt>
      <trkpt lat="46.8755" lon="12.20303">
        <ele>2266.45</ele>
        <time>2015-02-25T13:51:07Z</time>
      </trkpt>
      <trkpt lat="46.87555" lon="12.20301">
        <ele>2265</ele>
        <time>2015-02-25T13:51:10Z</time>
      </trkpt>
      <trkpt lat="46.8756" lon="12.20292">
        <ele>2263.56</ele>
        <time>2015-02-25T13:51:21Z</time>
      </trkpt>
      <trkpt lat="46.87572" lon="12.20277">
        <ele>2259.72</ele>
        <time>2015-02-25T13:51:26Z</time>
      </trkpt>
      <trkpt lat="46.87582" lon="12.20262">
        <ele>2259.24</ele>
        <time>2015-02-25T13:51:34Z</time>
      </trkpt>
      <trkpt lat="46.87583" lon="12.20261">
        <ele>2258.27</ele>
        <time>2015-02-25T13:51:58Z</time>
      </trkpt>
      <trkpt lat="46.87584" lon="12.20263">
        <ele>2259.24</ele>
        <time>2015-02-25T13:52:01Z</time>
      </trkpt>
      <trkpt lat="46.87593" lon="12.20262">
        <ele>2258.27</ele>
        <time>2015-02-25T13:52:05Z</time>
      </trkpt>
      <trkpt lat="46.87602" lon="12.20258">
        <ele>2255.39</ele>
        <time>2015-02-25T13:52:07Z</time>
      </trkpt>
      <trkpt lat="46.87608" lon="12.20256">
        <ele>2255.39</ele>
        <time>2015-02-25T13:52:08Z</time>
      </trkpt>
      <trkpt lat="46.87614" lon="12.20253">
        <ele>2251.06</ele>
        <time>2015-02-25T13:52:09Z</time>
      </trkpt>
      <trkpt lat="46.87628" lon="12.20247">
        <ele>2249.14</ele>
        <time>2015-02-25T13:52:11Z</time>
      </trkpt>
      <trkpt lat="46.8765" lon="12.20236">
        <ele>2250.1</ele>
        <time>2015-02-25T13:52:15Z</time>
      </trkpt>
      <trkpt lat="46.87667" lon="12.20227">
        <ele>2250.1</ele>
        <time>2015-02-25T13:52:24Z</time>
      </trkpt>
      <trkpt lat="46.87678" lon="12.20225">
        <ele>2248.18</ele>
        <time>2015-02-25T13:52:37Z</time>
      </trkpt>
      <trkpt lat="46.87698" lon="12.20224">
        <ele>2244.82</ele>
        <time>2015-02-25T13:52:42Z</time>
      </trkpt>
      <trkpt lat="46.87709" lon="12.20228">
        <ele>2243.37</ele>
        <time>2015-02-25T13:52:45Z</time>
      </trkpt>
      <trkpt lat="46.87723" lon="12.20227">
        <ele>2242.89</ele>
        <time>2015-02-25T13:52:52Z</time>
      </trkpt>
      <trkpt lat="46.87729" lon="12.20226">
        <ele>2243.37</ele>
        <time>2015-02-25T13:53:07Z</time>
      </trkpt>
      <trkpt lat="46.8774" lon="12.20224">
        <ele>2243.85</ele>
        <time>2015-02-25T13:53:24Z</time>
      </trkpt>
      <trkpt lat="46.8775" lon="12.20224">
        <ele>2244.33</ele>
        <time>2015-02-25T13:53:38Z</time>
      </trkpt>
      <trkpt lat="46.87754" lon="12.20217">
        <ele>2244.33</ele>
        <time>2015-02-25T13:53:52Z</time>
      </trkpt>
      <trkpt lat="46.87753" lon="12.20215">
        <ele>2244.33</ele>
        <time>2015-02-25T13:54:09Z</time>
      </trkpt>
      <trkpt lat="46.87754" lon="12.20211">
        <ele>2244.33</ele>
        <time>2015-02-25T13:54:20Z</time>
      </trkpt>
      <trkpt lat="46.87758" lon="12.20195">
        <ele>2241.93</ele>
        <time>2015-02-25T13:54:25Z</time>
      </trkpt>
      <trkpt lat="46.87765" lon="12.20187">
        <ele>2241.45</ele>
        <time>2015-02-25T13:54:30Z</time>
      </trkpt>
      <trkpt lat="46.87781" lon="12.20182">
        <ele>2240.49</ele>
        <time>2015-02-25T13:54:42Z</time>
      </trkpt>
      <trkpt lat="46.87781" lon="12.20182">
        <ele>2240.01</ele>
        <time>2015-02-25T13:55:00Z</time>
      </trkpt>
      <trkpt lat="46.87783" lon="12.20182">
        <ele>2239.53</ele>
        <time>2015-02-25T13:55:19Z</time>
      </trkpt>
      <trkpt lat="46.87798" lon="12.20185">
        <ele>2239.05</ele>
        <time>2015-02-25T13:55:27Z</time>
      </trkpt>
      <trkpt lat="46.87805" lon="12.20187">
        <ele>2238.57</ele>
        <time>2015-02-25T13:55:39Z</time>
      </trkpt>
      <trkpt lat="46.87808" lon="12.20184">
        <ele>2238.09</ele>
        <time>2015-02-25T13:55:58Z</time>
      </trkpt>
      <trkpt lat="46.87821" lon="12.20187">
        <ele>2237.13</ele>
        <time>2015-02-25T13:56:11Z</time>
      </trkpt>
      <trkpt lat="46.87824" lon="12.20188">
        <ele>2237.13</ele>
        <time>2015-02-25T13:56:22Z</time>
      </trkpt>
      <trkpt lat="46.87824" lon="12.2019">
        <ele>2236.64</ele>
        <time>2015-02-25T13:56:37Z</time>
      </trkpt>
      <trkpt lat="46.87832" lon="12.20191">
        <ele>2235.68</ele>
        <time>2015-02-25T13:56:48Z</time>
      </trkpt>
      <trkpt lat="46.87838" lon="12.20195">
        <ele>2234.24</ele>
        <time>2015-02-25T13:57:00Z</time>
      </trkpt>
      <trkpt lat="46.87839" lon="12.20197">
        <ele>2234.72</ele>
        <time>2015-02-25T13:57:16Z</time>
      </trkpt>
      <trkpt lat="46.87844" lon="12.20205">
        <ele>2234.24</ele>
        <time>2015-02-25T13:57:20Z</time>
      </trkpt>
      <trkpt lat="46.87854" lon="12.20222">
        <ele>2229.92</ele>
        <time>2015-02-25T13:57:24Z</time>
      </trkpt>
      <trkpt lat="46.87863" lon="12.20211">
        <ele>2226.55</ele>
        <time>2015-02-25T13:57:28Z</time>
      </trkpt>
      <trkpt lat="46.87866" lon="12.20208">
        <ele>2225.11</ele>
        <time>2015-02-25T13:57:30Z</time>
      </trkpt>
      <trkpt lat="46.8787" lon="12.20213">
        <ele>2225.11</ele>
        <time>2015-02-25T13:57:32Z</time>
      </trkpt>
      <trkpt lat="46.87876" lon="12.20206">
        <ele>2222.22</ele>
        <time>2015-02-25T13:57:36Z</time>
      </trkpt>
      <trkpt lat="46.87879" lon="12.20206">
        <ele>2221.26</ele>
        <time>2015-02-25T13:57:37Z</time>
      </trkpt>
      <trkpt lat="46.8789" lon="12.20196">
        <ele>2217.42</ele>
        <time>2015-02-25T13:57:41Z</time>
      </trkpt>
      <trkpt lat="46.87896" lon="12.20197">
        <ele>2217.42</ele>
        <time>2015-02-25T13:57:42Z</time>
      </trkpt>
      <trkpt lat="46.87913" lon="12.20205">
        <ele>2215.98</ele>
        <time>2015-02-25T13:57:50Z</time>
      </trkpt>
      <trkpt lat="46.87911" lon="12.20209">
        <ele>2216.46</ele>
        <time>2015-02-25T13:58:08Z</time>
      </trkpt>
      <trkpt lat="46.87914" lon="12.20211">
        <ele>2216.46</ele>
        <time>2015-02-25T13:58:32Z</time>
      </trkpt>
      <trkpt lat="46.87914" lon="12.20217">
        <ele>2216.46</ele>
        <time>2015-02-25T13:58:43Z</time>
      </trkpt>
      <trkpt lat="46.87922" lon="12.20225">
        <ele>2215.98</ele>
        <time>2015-02-25T13:58:57Z</time>
      </trkpt>
      <trkpt lat="46.87923" lon="12.20226">
        <ele>2215.5</ele>
        <time>2015-02-25T13:58:58Z</time>
      </trkpt>
      <trkpt lat="46.87924" lon="12.20228">
        <ele>2215.5</ele>
        <time>2015-02-25T13:58:59Z</time>
      </trkpt>
      <trkpt lat="46.87925" lon="12.2023">
        <ele>2215.01</ele>
        <time>2015-02-25T13:59:00Z</time>
      </trkpt>
      <trkpt lat="46.87927" lon="12.20231">
        <ele>2214.53</ele>
        <time>2015-02-25T13:59:01Z</time>
      </trkpt>
      <trkpt lat="46.8793" lon="12.20232">
        <ele>2214.05</ele>
        <time>2015-02-25T13:59:02Z</time>
      </trkpt>
      <trkpt lat="46.87932" lon="12.20232">
        <ele>2213.57</ele>
        <time>2015-02-25T13:59:03Z</time>
      </trkpt>
      <trkpt lat="46.87936" lon="12.2023">
        <ele>2213.09</ele>
        <time>2015-02-25T13:59:04Z</time>
      </trkpt>
      <trkpt lat="46.87939" lon="12.20226">
        <ele>2212.13</ele>
        <time>2015-02-25T13:59:05Z</time>
      </trkpt>
      <trkpt lat="46.87943" lon="12.20223">
        <ele>2211.65</ele>
        <time>2015-02-25T13:59:06Z</time>
      </trkpt>
      <trkpt lat="46.87947" lon="12.20221">
        <ele>2211.17</ele>
        <time>2015-02-25T13:59:07Z</time>
      </trkpt>
      <trkpt lat="46.8795" lon="12.2022">
        <ele>2209.73</ele>
        <time>2015-02-25T13:59:08Z</time>
      </trkpt>
      <trkpt lat="46.87965" lon="12.20209">
        <ele>2206.84</ele>
        <time>2015-02-25T13:59:13Z</time>
      </trkpt>
      <trkpt lat="46.87975" lon="12.20197">
        <ele>2203.96</ele>
        <time>2015-02-25T13:59:17Z</time>
      </trkpt>
      <trkpt lat="46.87977" lon="12.20193">
        <ele>2203.96</ele>
        <time>2015-02-25T13:59:18Z</time>
      </trkpt>
      <trkpt lat="46.8798" lon="12.20181">
        <ele>2202.52</ele>
        <time>2015-02-25T13:59:22Z</time>
      </trkpt>
      <trkpt lat="46.87985" lon="12.2017">
        <ele>2201.08</ele>
        <time>2015-02-25T13:59:25Z</time>
      </trkpt>
      <trkpt lat="46.87989" lon="12.2016">
        <ele>2199.15</ele>
        <time>2015-02-25T13:59:27Z</time>
      </trkpt>
      <trkpt lat="46.87994" lon="12.2015">
        <ele>2197.23</ele>
        <time>2015-02-25T13:59:29Z</time>
      </trkpt>
      <trkpt lat="46.88002" lon="12.20134">
        <ele>2193.87</ele>
        <time>2015-02-25T13:59:32Z</time>
      </trkpt>
      <trkpt lat="46.88003" lon="12.20129">
        <ele>2192.9</ele>
        <time>2015-02-25T13:59:33Z</time>
      </trkpt>
      <trkpt lat="46.88004" lon="12.20124">
        <ele>2193.39</ele>
        <time>2015-02-25T13:59:34Z</time>
      </trkpt>
      <trkpt lat="46.88006" lon="12.20116">
        <ele>2192.9</ele>
        <time>2015-02-25T13:59:36Z</time>
      </trkpt>
      <trkpt lat="46.88005" lon="12.20111">
        <ele>2192.9</ele>
        <time>2015-02-25T13:59:37Z</time>
      </trkpt>
      <trkpt lat="46.88005" lon="12.20105">
        <ele>2191.94</ele>
        <time>2015-02-25T13:59:38Z</time>
      </trkpt>
      <trkpt lat="46.88005" lon="12.201">
        <ele>2190.02</ele>
        <time>2015-02-25T13:59:39Z</time>
      </trkpt>
      <trkpt lat="46.88005" lon="12.20095">
        <ele>2190.98</ele>
        <time>2015-02-25T13:59:40Z</time>
      </trkpt>
      <trkpt lat="46.88006" lon="12.2009">
        <ele>2189.54</ele>
        <time>2015-02-25T13:59:41Z</time>
      </trkpt>
      <trkpt lat="46.88007" lon="12.20083">
        <ele>2187.62</ele>
        <time>2015-02-25T13:59:42Z</time>
      </trkpt>
      <trkpt lat="46.88013" lon="12.20061">
        <ele>2188.58</ele>
        <time>2015-02-25T13:59:47Z</time>
      </trkpt>
      <trkpt lat="46.88012" lon="12.20061">
        <ele>2187.62</ele>
        <time>2015-02-25T13:59:56Z</time>
      </trkpt>
      <trkpt lat="46.88012" lon="12.20059">
        <ele>2187.14</ele>
        <time>2015-02-25T13:59:57Z</time>
      </trkpt>
      <trkpt lat="46.88011" lon="12.20054">
        <ele>2186.18</ele>
        <time>2015-02-25T13:59:58Z</time>
      </trkpt>
      <trkpt lat="46.88012" lon="12.2005">
        <ele>2185.69</ele>
        <time>2015-02-25T13:59:59Z</time>
      </trkpt>
      <trkpt lat="46.88013" lon="12.20045">
        <ele>2184.73</ele>
        <time>2015-02-25T14:00:00Z</time>
      </trkpt>
      <trkpt lat="46.88014" lon="12.20043">
        <ele>2184.25</ele>
        <time>2015-02-25T14:00:01Z</time>
      </trkpt>
      <trkpt lat="46.88015" lon="12.20041">
        <ele>2184.25</ele>
        <time>2015-02-25T14:00:02Z</time>
      </trkpt>
      <trkpt lat="46.88022" lon="12.20031">
        <ele>2180.89</ele>
        <time>2015-02-25T14:00:09Z</time>
      </trkpt>
      <trkpt lat="46.88024" lon="12.20032">
        <ele>2180.89</ele>
        <time>2015-02-25T14:00:13Z</time>
      </trkpt>
      <trkpt lat="46.88025" lon="12.20029">
        <ele>2180.41</ele>
        <time>2015-02-25T14:00:14Z</time>
      </trkpt>
      <trkpt lat="46.88029" lon="12.20026">
        <ele>2178.48</ele>
        <time>2015-02-25T14:00:15Z</time>
      </trkpt>
      <trkpt lat="46.88032" lon="12.20025">
        <ele>2178</ele>
        <time>2015-02-25T14:00:16Z</time>
      </trkpt>
      <trkpt lat="46.88035" lon="12.20025">
        <ele>2177.04</ele>
        <time>2015-02-25T14:00:17Z</time>
      </trkpt>
      <trkpt lat="46.88044" lon="12.20028">
        <ele>2176.08</ele>
        <time>2015-02-25T14:00:20Z</time>
      </trkpt>
      <trkpt lat="46.88062" lon="12.20046">
        <ele>2173.2</ele>
        <time>2015-02-25T14:00:31Z</time>
      </trkpt>
      <trkpt lat="46.88067" lon="12.20052">
        <ele>2173.2</ele>
        <time>2015-02-25T14:00:50Z</time>
      </trkpt>
      <trkpt lat="46.88072" lon="12.20059">
        <ele>2172.24</ele>
        <time>2015-02-25T14:00:52Z</time>
      </trkpt>
      <trkpt lat="46.88076" lon="12.20064">
        <ele>2171.76</ele>
        <time>2015-02-25T14:00:53Z</time>
      </trkpt>
      <trkpt lat="46.8808" lon="12.20068">
        <ele>2171.27</ele>
        <time>2015-02-25T14:00:54Z</time>
      </trkpt>
      <trkpt lat="46.88089" lon="12.20075">
        <ele>2170.79</ele>
        <time>2015-02-25T14:00:56Z</time>
      </trkpt>
      <trkpt lat="46.88093" lon="12.2008">
        <ele>2169.83</ele>
        <time>2015-02-25T14:00:57Z</time>
      </trkpt>
      <trkpt lat="46.88104" lon="12.20093">
        <ele>2167.91</ele>
        <time>2015-02-25T14:01:00Z</time>
      </trkpt>
      <trkpt lat="46.88106" lon="12.20097">
        <ele>2166.95</ele>
        <time>2015-02-25T14:01:01Z</time>
      </trkpt>
      <trkpt lat="46.88108" lon="12.20101">
        <ele>2167.43</ele>
        <time>2015-02-25T14:01:02Z</time>
      </trkpt>
      <trkpt lat="46.8811" lon="12.20105">
        <ele>2167.43</ele>
        <time>2015-02-25T14:01:03Z</time>
      </trkpt>
      <trkpt lat="46.88112" lon="12.20109">
        <ele>2166.47</ele>
        <time>2015-02-25T14:01:04Z</time>
      </trkpt>
      <trkpt lat="46.88114" lon="12.20114">
        <ele>2165.51</ele>
        <time>2015-02-25T14:01:05Z</time>
      </trkpt>
      <trkpt lat="46.88116" lon="12.20118">
        <ele>2165.03</ele>
        <time>2015-02-25T14:01:06Z</time>
      </trkpt>
      <trkpt lat="46.88124" lon="12.20138">
        <ele>2162.62</ele>
        <time>2015-02-25T14:01:10Z</time>
      </trkpt>
      <trkpt lat="46.88126" lon="12.20143">
        <ele>2161.66</ele>
        <time>2015-02-25T14:01:11Z</time>
      </trkpt>
      <trkpt lat="46.88127" lon="12.20148">
        <ele>2161.66</ele>
        <time>2015-02-25T14:01:12Z</time>
      </trkpt>
      <trkpt lat="46.88129" lon="12.20151">
        <ele>2162.62</ele>
        <time>2015-02-25T14:01:13Z</time>
      </trkpt>
      <trkpt lat="46.88132" lon="12.20154">
        <ele>2161.66</ele>
        <time>2015-02-25T14:01:14Z</time>
      </trkpt>
      <trkpt lat="46.88133" lon="12.20158">
        <ele>2160.7</ele>
        <time>2015-02-25T14:01:15Z</time>
      </trkpt>
      <trkpt lat="46.88136" lon="12.20159">
        <ele>2161.66</ele>
        <time>2015-02-25T14:01:16Z</time>
      </trkpt>
      <trkpt lat="46.88139" lon="12.20157">
        <ele>2160.7</ele>
        <time>2015-02-25T14:01:17Z</time>
      </trkpt>
      <trkpt lat="46.88141" lon="12.20154">
        <ele>2160.7</ele>
        <time>2015-02-25T14:01:18Z</time>
      </trkpt>
      <trkpt lat="46.88139" lon="12.2015">
        <ele>2160.22</ele>
        <time>2015-02-25T14:01:19Z</time>
      </trkpt>
      <trkpt lat="46.88136" lon="12.20146">
        <ele>2158.3</ele>
        <time>2015-02-25T14:01:33Z</time>
      </trkpt>
      <trkpt lat="46.8815" lon="12.20145">
        <ele>2155.41</ele>
        <time>2015-02-25T14:01:38Z</time>
      </trkpt>
      <trkpt lat="46.8816" lon="12.20137">
        <ele>2153.01</ele>
        <time>2015-02-25T14:01:41Z</time>
      </trkpt>
      <trkpt lat="46.88169" lon="12.20129">
        <ele>2149.65</ele>
        <time>2015-02-25T14:01:44Z</time>
      </trkpt>
      <trkpt lat="46.88171" lon="12.20123">
        <ele>2149.16</ele>
        <time>2015-02-25T14:01:45Z</time>
      </trkpt>
      <trkpt lat="46.88177" lon="12.20116">
        <ele>2147.72</ele>
        <time>2015-02-25T14:01:47Z</time>
      </trkpt>
      <trkpt lat="46.88183" lon="12.20115">
        <ele>2147.24</ele>
        <time>2015-02-25T14:01:49Z</time>
      </trkpt>
      <trkpt lat="46.88186" lon="12.20111">
        <ele>2143.88</ele>
        <time>2015-02-25T14:01:50Z</time>
      </trkpt>
      <trkpt lat="46.88189" lon="12.20103">
        <ele>2141.95</ele>
        <time>2015-02-25T14:01:52Z</time>
      </trkpt>
      <trkpt lat="46.88192" lon="12.20106">
        <ele>2141.47</ele>
        <time>2015-02-25T14:01:53Z</time>
      </trkpt>
      <trkpt lat="46.8819" lon="12.20113">
        <ele>2141.95</ele>
        <time>2015-02-25T14:02:06Z</time>
      </trkpt>
      <trkpt lat="46.88202" lon="12.20117">
        <ele>2140.51</ele>
        <time>2015-02-25T14:02:27Z</time>
      </trkpt>
      <trkpt lat="46.88205" lon="12.20115">
        <ele>2140.51</ele>
        <time>2015-02-25T14:02:28Z</time>
      </trkpt>
      <trkpt lat="46.88207" lon="12.20111">
        <ele>2139.07</ele>
        <time>2015-02-25T14:02:29Z</time>
      </trkpt>
      <trkpt lat="46.8821" lon="12.20107">
        <ele>2137.63</ele>
        <time>2015-02-25T14:02:30Z</time>
      </trkpt>
      <trkpt lat="46.88214" lon="12.20104">
        <ele>2135.23</ele>
        <time>2015-02-25T14:02:31Z</time>
      </trkpt>
      <trkpt lat="46.88218" lon="12.20103">
        <ele>2134.74</ele>
        <time>2015-02-25T14:02:32Z</time>
      </trkpt>
      <trkpt lat="46.88222" lon="12.20104">
        <ele>2134.26</ele>
        <time>2015-02-25T14:02:33Z</time>
      </trkpt>
      <trkpt lat="46.88227" lon="12.20103">
        <ele>2134.26</ele>
        <time>2015-02-25T14:02:34Z</time>
      </trkpt>
      <trkpt lat="46.88231" lon="12.20101">
        <ele>2134.74</ele>
        <time>2015-02-25T14:02:35Z</time>
      </trkpt>
      <trkpt lat="46.88236" lon="12.201">
        <ele>2132.82</ele>
        <time>2015-02-25T14:02:36Z</time>
      </trkpt>
      <trkpt lat="46.8824" lon="12.20098">
        <ele>2131.86</ele>
        <time>2015-02-25T14:02:37Z</time>
      </trkpt>
      <trkpt lat="46.88245" lon="12.20094">
        <ele>2131.86</ele>
        <time>2015-02-25T14:02:38Z</time>
      </trkpt>
      <trkpt lat="46.8825" lon="12.2009">
        <ele>2130.42</ele>
        <time>2015-02-25T14:02:39Z</time>
      </trkpt>
      <trkpt lat="46.88254" lon="12.20089">
        <ele>2128.98</ele>
        <time>2015-02-25T14:02:40Z</time>
      </trkpt>
      <trkpt lat="46.88262" lon="12.2009">
        <ele>2128.02</ele>
        <time>2015-02-25T14:02:42Z</time>
      </trkpt>
      <trkpt lat="46.88266" lon="12.20087">
        <ele>2127.53</ele>
        <time>2015-02-25T14:02:43Z</time>
      </trkpt>
      <trkpt lat="46.88269" lon="12.20084">
        <ele>2126.57</ele>
        <time>2015-02-25T14:02:44Z</time>
      </trkpt>
      <trkpt lat="46.88273" lon="12.20086">
        <ele>2125.61</ele>
        <time>2015-02-25T14:02:45Z</time>
      </trkpt>
      <trkpt lat="46.88275" lon="12.2009">
        <ele>2125.13</ele>
        <time>2015-02-25T14:02:46Z</time>
      </trkpt>
      <trkpt lat="46.88277" lon="12.20093">
        <ele>2124.65</ele>
        <time>2015-02-25T14:02:47Z</time>
      </trkpt>
      <trkpt lat="46.88278" lon="12.20095">
        <ele>2124.65</ele>
        <time>2015-02-25T14:02:48Z</time>
      </trkpt>
      <trkpt lat="46.88279" lon="12.20105">
        <ele>2123.21</ele>
        <time>2015-02-25T14:03:03Z</time>
      </trkpt>
      <trkpt lat="46.88278" lon="12.20106">
        <ele>2122.73</ele>
        <time>2015-02-25T14:03:16Z</time>
      </trkpt>
      <trkpt lat="46.8829" lon="12.2012">
        <ele>2121.29</ele>
        <time>2015-02-25T14:03:30Z</time>
      </trkpt>
      <trkpt lat="46.88298" lon="12.20136">
        <ele>2118.4</ele>
        <time>2015-02-25T14:03:33Z</time>
      </trkpt>
      <trkpt lat="46.88301" lon="12.20141">
        <ele>2118.4</ele>
        <time>2015-02-25T14:03:34Z</time>
      </trkpt>
      <trkpt lat="46.88303" lon="12.20146">
        <ele>2118.4</ele>
        <time>2015-02-25T14:03:35Z</time>
      </trkpt>
      <trkpt lat="46.88309" lon="12.20156">
        <ele>2118.4</ele>
        <time>2015-02-25T14:03:42Z</time>
      </trkpt>
      <trkpt lat="46.88312" lon="12.20159">
        <ele>2118.88</ele>
        <time>2015-02-25T14:03:57Z</time>
      </trkpt>
      <trkpt lat="46.88316" lon="12.20161">
        <ele>2119.84</ele>
        <time>2015-02-25T14:04:12Z</time>
      </trkpt>
      <trkpt lat="46.8832" lon="12.20165">
        <ele>2120.81</ele>
        <time>2015-02-25T14:04:27Z</time>
      </trkpt>
      <trkpt lat="46.88322" lon="12.20165">
        <ele>2121.29</ele>
        <time>2015-02-25T14:04:44Z</time>
      </trkpt>
      <trkpt lat="46.88322" lon="12.20165">
        <ele>2121.29</ele>
        <time>2015-02-25T14:05:08Z</time>
      </trkpt>
      <trkpt lat="46.88327" lon="12.20173">
        <ele>2121.29</ele>
        <time>2015-02-25T14:05:26Z</time>
      </trkpt>
      <trkpt lat="46.88333" lon="12.20178">
        <ele>2122.25</ele>
        <time>2015-02-25T14:05:42Z</time>
      </trkpt>
      <trkpt lat="46.8834" lon="12.20179">
        <ele>2124.17</ele>
        <time>2015-02-25T14:05:59Z</time>
      </trkpt>
      <trkpt lat="46.88344" lon="12.20178">
        <ele>2124.65</ele>
        <time>2015-02-25T14:06:14Z</time>
      </trkpt>
      <trkpt lat="46.88351" lon="12.2018">
        <ele>2124.65</ele>
        <time>2015-02-25T14:06:31Z</time>
      </trkpt>
      <trkpt lat="46.88352" lon="12.2018">
        <ele>2124.65</ele>
        <time>2015-02-25T14:06:32Z</time>
      </trkpt>
      <trkpt lat="46.88371" lon="12.20171">
        <ele>2123.21</ele>
        <time>2015-02-25T14:06:44Z</time>
      </trkpt>
      <trkpt lat="46.88381" lon="12.20173">
        <ele>2123.21</ele>
        <time>2015-02-25T14:06:56Z</time>
      </trkpt>
      <trkpt lat="46.88386" lon="12.20172">
        <ele>2123.69</ele>
        <time>2015-02-25T14:07:08Z</time>
      </trkpt>
      <trkpt lat="46.88386" lon="12.20164">
        <ele>2125.13</ele>
        <time>2015-02-25T14:07:22Z</time>
      </trkpt>
      <trkpt lat="46.88394" lon="12.20163">
        <ele>2124.65</ele>
        <time>2015-02-25T14:07:33Z</time>
      </trkpt>
      <trkpt lat="46.88392" lon="12.20159">
        <ele>2125.61</ele>
        <time>2015-02-25T14:07:47Z</time>
      </trkpt>
      <trkpt lat="46.88394" lon="12.20156">
        <ele>2126.09</ele>
        <time>2015-02-25T14:08:01Z</time>
      </trkpt>
      <trkpt lat="46.88398" lon="12.20155">
        <ele>2126.09</ele>
        <time>2015-02-25T14:08:12Z</time>
      </trkpt>
      <trkpt lat="46.88403" lon="12.20153">
        <ele>2126.09</ele>
        <time>2015-02-25T14:08:25Z</time>
      </trkpt>
      <trkpt lat="46.88405" lon="12.20153">
        <ele>2127.05</ele>
        <time>2015-02-25T14:08:38Z</time>
      </trkpt>
      <trkpt lat="46.88408" lon="12.20152">
        <ele>2127.05</ele>
        <time>2015-02-25T14:08:49Z</time>
      </trkpt>
      <trkpt lat="46.8841" lon="12.20151">
        <ele>2127.53</ele>
        <time>2015-02-25T14:09:05Z</time>
      </trkpt>
      <trkpt lat="46.88416" lon="12.20152">
        <ele>2128.02</ele>
        <time>2015-02-25T14:09:18Z</time>
      </trkpt>
      <trkpt lat="46.88421" lon="12.2015">
        <ele>2128.02</ele>
        <time>2015-02-25T14:09:31Z</time>
      </trkpt>
      <trkpt lat="46.88424" lon="12.2015">
        <ele>2128.5</ele>
        <time>2015-02-25T14:09:42Z</time>
      </trkpt>
      <trkpt lat="46.8843" lon="12.2015">
        <ele>2128.02</ele>
        <time>2015-02-25T14:09:55Z</time>
      </trkpt>
      <trkpt lat="46.88435" lon="12.2015">
        <ele>2128.02</ele>
        <time>2015-02-25T14:10:10Z</time>
      </trkpt>
      <trkpt lat="46.88445" lon="12.20152">
        <ele>2127.53</ele>
        <time>2015-02-25T14:10:23Z</time>
      </trkpt>
      <trkpt lat="46.88453" lon="12.20155">
        <ele>2128.02</ele>
        <time>2015-02-25T14:10:36Z</time>
      </trkpt>
      <trkpt lat="46.88452" lon="12.20152">
        <ele>2128.02</ele>
        <time>2015-02-25T14:10:57Z</time>
      </trkpt>
      <trkpt lat="46.88458" lon="12.20155">
        <ele>2127.53</ele>
        <time>2015-02-25T14:11:09Z</time>
      </trkpt>
      <trkpt lat="46.88471" lon="12.20155">
        <ele>2124.65</ele>
        <time>2015-02-25T14:11:16Z</time>
      </trkpt>
      <trkpt lat="46.88475" lon="12.20153">
        <ele>2123.21</ele>
        <time>2015-02-25T14:11:17Z</time>
      </trkpt>
      <trkpt lat="46.8848" lon="12.20153">
        <ele>2122.25</ele>
        <time>2015-02-25T14:11:18Z</time>
      </trkpt>
      <trkpt lat="46.88484" lon="12.20152">
        <ele>2120.81</ele>
        <time>2015-02-25T14:11:19Z</time>
      </trkpt>
      <trkpt lat="46.88489" lon="12.20151">
        <ele>2120.32</ele>
        <time>2015-02-25T14:11:20Z</time>
      </trkpt>
      <trkpt lat="46.88494" lon="12.20153">
        <ele>2120.32</ele>
        <time>2015-02-25T14:11:21Z</time>
      </trkpt>
      <trkpt lat="46.8851" lon="12.20165">
        <ele>2116.96</ele>
        <time>2015-02-25T14:11:25Z</time>
      </trkpt>
      <trkpt lat="46.88512" lon="12.2017">
        <ele>2116.96</ele>
        <time>2015-02-25T14:11:26Z</time>
      </trkpt>
      <trkpt lat="46.88515" lon="12.20183">
        <ele>2117.92</ele>
        <time>2015-02-25T14:11:28Z</time>
      </trkpt>
      <trkpt lat="46.88517" lon="12.20203">
        <ele>2114.56</ele>
        <time>2015-02-25T14:11:32Z</time>
      </trkpt>
      <trkpt lat="46.88525" lon="12.20229">
        <ele>2114.56</ele>
        <time>2015-02-25T14:11:42Z</time>
      </trkpt>
      <trkpt lat="46.88544" lon="12.2026">
        <ele>2112.15</ele>
        <time>2015-02-25T14:11:56Z</time>
      </trkpt>
      <trkpt lat="46.88554" lon="12.20284">
        <ele>2109.27</ele>
        <time>2015-02-25T14:12:02Z</time>
      </trkpt>
      <trkpt lat="46.88555" lon="12.20289">
        <ele>2109.27</ele>
        <time>2015-02-25T14:12:03Z</time>
      </trkpt>
      <trkpt lat="46.88561" lon="12.2031">
        <ele>2108.79</ele>
        <time>2015-02-25T14:12:12Z</time>
      </trkpt>
      <trkpt lat="46.88564" lon="12.20317">
        <ele>2109.75</ele>
        <time>2015-02-25T14:12:29Z</time>
      </trkpt>
      <trkpt lat="46.88563" lon="12.20318">
        <ele>2109.75</ele>
        <time>2015-02-25T14:12:57Z</time>
      </trkpt>
      <trkpt lat="46.88566" lon="12.20321">
        <ele>2108.31</ele>
        <time>2015-02-25T14:13:02Z</time>
      </trkpt>
      <trkpt lat="46.88577" lon="12.20336">
        <ele>2106.87</ele>
        <time>2015-02-25T14:13:09Z</time>
      </trkpt>
      <trkpt lat="46.88582" lon="12.20346">
        <ele>2105.91</ele>
        <time>2015-02-25T14:13:11Z</time>
      </trkpt>
      <trkpt lat="46.88586" lon="12.20357">
        <ele>2104.94</ele>
        <time>2015-02-25T14:13:13Z</time>
      </trkpt>
      <trkpt lat="46.88602" lon="12.20372">
        <ele>2103.98</ele>
        <time>2015-02-25T14:13:19Z</time>
      </trkpt>
      <trkpt lat="46.88623" lon="12.20366">
        <ele>2101.1</ele>
        <time>2015-02-25T14:13:27Z</time>
      </trkpt>
      <trkpt lat="46.88647" lon="12.20365">
        <ele>2099.66</ele>
        <time>2015-02-25T14:13:37Z</time>
      </trkpt>
      <trkpt lat="46.88671" lon="12.2038">
        <ele>2095.81</ele>
        <time>2015-02-25T14:13:44Z</time>
      </trkpt>
      <trkpt lat="46.88675" lon="12.20382">
        <ele>2095.33</ele>
        <time>2015-02-25T14:13:45Z</time>
      </trkpt>
      <trkpt lat="46.88697" lon="12.2039">
        <ele>2090.52</ele>
        <time>2015-02-25T14:13:49Z</time>
      </trkpt>
      <trkpt lat="46.88702" lon="12.20389">
        <ele>2091</ele>
        <time>2015-02-25T14:13:50Z</time>
      </trkpt>
      <trkpt lat="46.88722" lon="12.20374">
        <ele>2088.6</ele>
        <time>2015-02-25T14:13:57Z</time>
      </trkpt>
      <trkpt lat="46.88719" lon="12.20369">
        <ele>2087.64</ele>
        <time>2015-02-25T14:14:03Z</time>
      </trkpt>
      <trkpt lat="46.8872" lon="12.20368">
        <ele>2088.12</ele>
        <time>2015-02-25T14:14:18Z</time>
      </trkpt>
      <trkpt lat="46.88719" lon="12.20357">
        <ele>2086.2</ele>
        <time>2015-02-25T14:14:23Z</time>
      </trkpt>
      <trkpt lat="46.8872" lon="12.20321">
        <ele>2081.87</ele>
        <time>2015-02-25T14:14:28Z</time>
      </trkpt>
      <trkpt lat="46.8872" lon="12.20314">
        <ele>2081.87</ele>
        <time>2015-02-25T14:14:29Z</time>
      </trkpt>
      <trkpt lat="46.88721" lon="12.20298">
        <ele>2080.91</ele>
        <time>2015-02-25T14:14:31Z</time>
      </trkpt>
      <trkpt lat="46.88725" lon="12.20253">
        <ele>2076.59</ele>
        <time>2015-02-25T14:14:36Z</time>
      </trkpt>
      <trkpt lat="46.88723" lon="12.20218">
        <ele>2075.62</ele>
        <time>2015-02-25T14:14:46Z</time>
      </trkpt>
      <trkpt lat="46.88723" lon="12.20224">
        <ele>2076.1</ele>
        <time>2015-02-25T14:15:06Z</time>
      </trkpt>
      <trkpt lat="46.88727" lon="12.20201">
        <ele>2073.22</ele>
        <time>2015-02-25T14:15:21Z</time>
      </trkpt>
      <trkpt lat="46.88727" lon="12.20172">
        <ele>2068.89</ele>
        <time>2015-02-25T14:15:25Z</time>
      </trkpt>
      <trkpt lat="46.88726" lon="12.20148">
        <ele>2066.97</ele>
        <time>2015-02-25T14:15:28Z</time>
      </trkpt>
      <trkpt lat="46.88723" lon="12.20127">
        <ele>2065.05</ele>
        <time>2015-02-25T14:15:31Z</time>
      </trkpt>
      <trkpt lat="46.88719" lon="12.2011">
        <ele>2064.57</ele>
        <time>2015-02-25T14:15:34Z</time>
      </trkpt>
      <trkpt lat="46.88719" lon="12.20079">
        <ele>2060.72</ele>
        <time>2015-02-25T14:15:39Z</time>
      </trkpt>
      <trkpt lat="46.8872" lon="12.20068">
        <ele>2058.8</ele>
        <time>2015-02-25T14:15:40Z</time>
      </trkpt>
      <trkpt lat="46.88722" lon="12.20057">
        <ele>2056.4</ele>
        <time>2015-02-25T14:15:41Z</time>
      </trkpt>
      <trkpt lat="46.88727" lon="12.20024">
        <ele>2054.47</ele>
        <time>2015-02-25T14:15:44Z</time>
      </trkpt>
      <trkpt lat="46.88733" lon="12.20004">
        <ele>2055.44</ele>
        <time>2015-02-25T14:15:47Z</time>
      </trkpt>
      <trkpt lat="46.88737" lon="12.2">
        <ele>2053.51</ele>
        <time>2015-02-25T14:15:48Z</time>
      </trkpt>
      <trkpt lat="46.88742" lon="12.19996">
        <ele>2052.07</ele>
        <time>2015-02-25T14:15:49Z</time>
      </trkpt>
      <trkpt lat="46.88747" lon="12.19997">
        <ele>2051.59</ele>
        <time>2015-02-25T14:15:50Z</time>
      </trkpt>
      <trkpt lat="46.88752" lon="12.19997">
        <ele>2051.59</ele>
        <time>2015-02-25T14:15:51Z</time>
      </trkpt>
      <trkpt lat="46.88756" lon="12.19996">
        <ele>2052.07</ele>
        <time>2015-02-25T14:15:52Z</time>
      </trkpt>
      <trkpt lat="46.8876" lon="12.19995">
        <ele>2051.59</ele>
        <time>2015-02-25T14:15:53Z</time>
      </trkpt>
      <trkpt lat="46.88763" lon="12.19994">
        <ele>2052.07</ele>
        <time>2015-02-25T14:15:54Z</time>
      </trkpt>
      <trkpt lat="46.88765" lon="12.19994">
        <ele>2053.99</ele>
        <time>2015-02-25T14:15:55Z</time>
      </trkpt>
      <trkpt lat="46.88768" lon="12.19994">
        <ele>2052.07</ele>
        <time>2015-02-25T14:15:56Z</time>
      </trkpt>
      <trkpt lat="46.88769" lon="12.19993">
        <ele>2053.51</ele>
        <time>2015-02-25T14:15:57Z</time>
      </trkpt>
      <trkpt lat="46.88779" lon="12.19982">
        <ele>2053.03</ele>
        <time>2015-02-25T14:16:08Z</time>
      </trkpt>
      <trkpt lat="46.88782" lon="12.1998">
        <ele>2053.51</ele>
        <time>2015-02-25T14:16:23Z</time>
      </trkpt>
      <trkpt lat="46.88782" lon="12.19977">
        <ele>2053.51</ele>
        <time>2015-02-25T14:16:43Z</time>
      </trkpt>
      <trkpt lat="46.88783" lon="12.19978">
        <ele>2053.51</ele>
        <time>2015-02-25T14:17:00Z</time>
      </trkpt>
      <trkpt lat="46.88783" lon="12.19978">
        <ele>2053.51</ele>
        <time>2015-02-25T14:17:24Z</time>
      </trkpt>
      <trkpt lat="46.88782" lon="12.19978">
        <ele>2052.55</ele>
        <time>2015-02-25T14:17:47Z</time>
      </trkpt>
      <trkpt lat="46.88783" lon="12.19978">
        <ele>2052.55</ele>
        <time>2015-02-25T14:18:10Z</time>
      </trkpt>
      <trkpt lat="46.88783" lon="12.19979">
        <ele>2053.03</ele>
        <time>2015-02-25T14:18:30Z</time>
      </trkpt>
      <trkpt lat="46.88786" lon="12.19977">
        <ele>2053.51</ele>
        <time>2015-02-25T14:18:55Z</time>
      </trkpt>
      <trkpt lat="46.88782" lon="12.19974">
        <ele>2055.44</ele>
        <time>2015-02-25T14:19:10Z</time>
      </trkpt>
      <trkpt lat="46.88779" lon="12.19977">
        <ele>2055.44</ele>
        <time>2015-02-25T14:19:23Z</time>
      </trkpt>
      <trkpt lat="46.88777" lon="12.19974">
        <ele>2055.44</ele>
        <time>2015-02-25T14:19:45Z</time>
      </trkpt>
      <trkpt lat="46.88773" lon="12.19961">
        <ele>2055.44</ele>
        <time>2015-02-25T14:19:58Z</time>
      </trkpt>
      <trkpt lat="46.88773" lon="12.1996">
        <ele>2055.44</ele>
        <time>2015-02-25T14:19:59Z</time>
      </trkpt>
      <trkpt lat="46.88773" lon="12.19947">
        <ele>2054.96</ele>
        <time>2015-02-25T14:20:17Z</time>
      </trkpt>
      <trkpt lat="46.88772" lon="12.19945">
        <ele>2055.44</ele>
        <time>2015-02-25T14:20:33Z</time>
      </trkpt>
      <trkpt lat="46.88773" lon="12.19944">
        <ele>2055.92</ele>
        <time>2015-02-25T14:21:00Z</time>
      </trkpt>
      <trkpt lat="46.88768" lon="12.19924">
        <ele>2053.99</ele>
        <time>2015-02-25T14:21:16Z</time>
      </trkpt>
      <trkpt lat="46.88768" lon="12.19909">
        <ele>2054.96</ele>
        <time>2015-02-25T14:21:26Z</time>
      </trkpt>
      <trkpt lat="46.8877" lon="12.19901">
        <ele>2054.47</ele>
        <time>2015-02-25T14:21:44Z</time>
      </trkpt>
      <trkpt lat="46.88771" lon="12.199">
        <ele>2054.47</ele>
        <time>2015-02-25T14:22:03Z</time>
      </trkpt>
      <trkpt lat="46.88772" lon="12.19899">
        <ele>2051.59</ele>
        <time>2015-02-25T14:22:10Z</time>
      </trkpt>
      <trkpt lat="46.88774" lon="12.19899">
        <ele>2054.47</ele>
        <time>2015-02-25T14:22:28Z</time>
      </trkpt>
      <trkpt lat="46.88773" lon="12.19898">
        <ele>2052.07</ele>
        <time>2015-02-25T14:22:41Z</time>
      </trkpt>
      <trkpt lat="46.88775" lon="12.19897">
        <ele>2053.99</ele>
        <time>2015-02-25T14:22:52Z</time>
      </trkpt>
      <trkpt lat="46.88777" lon="12.19895">
        <ele>2053.51</ele>
        <time>2015-02-25T14:22:53Z</time>
      </trkpt>
      <trkpt lat="46.88779" lon="12.19893">
        <ele>2052.55</ele>
        <time>2015-02-25T14:22:54Z</time>
      </trkpt>
      <trkpt lat="46.88798" lon="12.19864">
        <ele>2049.67</ele>
        <time>2015-02-25T14:23:00Z</time>
      </trkpt>
      <trkpt lat="46.88806" lon="12.19843">
        <ele>2047.26</ele>
        <time>2015-02-25T14:23:04Z</time>
      </trkpt>
      <trkpt lat="46.88808" lon="12.19838">
        <ele>2047.26</ele>
        <time>2015-02-25T14:23:05Z</time>
      </trkpt>
      <trkpt lat="46.8881" lon="12.19831">
        <ele>2046.3</ele>
        <time>2015-02-25T14:23:06Z</time>
      </trkpt>
      <trkpt lat="46.88811" lon="12.19826">
        <ele>2044.86</ele>
        <time>2015-02-25T14:23:07Z</time>
      </trkpt>
      <trkpt lat="46.88813" lon="12.19826">
        <ele>2044.86</ele>
        <time>2015-02-25T14:23:08Z</time>
      </trkpt>
      <trkpt lat="46.88812" lon="12.19825">
        <ele>2044.38</ele>
        <time>2015-02-25T14:23:20Z</time>
      </trkpt>
      <trkpt lat="46.88813" lon="12.19823">
        <ele>2044.38</ele>
        <time>2015-02-25T14:23:21Z</time>
      </trkpt>
      <trkpt lat="46.88815" lon="12.19821">
        <ele>2044.38</ele>
        <time>2015-02-25T14:23:22Z</time>
      </trkpt>
      <trkpt lat="46.88816" lon="12.19817">
        <ele>2043.9</ele>
        <time>2015-02-25T14:23:23Z</time>
      </trkpt>
      <trkpt lat="46.88817" lon="12.19814">
        <ele>2043.42</ele>
        <time>2015-02-25T14:23:24Z</time>
      </trkpt>
      <trkpt lat="46.88824" lon="12.19796">
        <ele>2042.46</ele>
        <time>2015-02-25T14:23:28Z</time>
      </trkpt>
      <trkpt lat="46.88827" lon="12.19792">
        <ele>2041.5</ele>
        <time>2015-02-25T14:23:29Z</time>
      </trkpt>
      <trkpt lat="46.88831" lon="12.19787">
        <ele>2041.02</ele>
        <time>2015-02-25T14:23:30Z</time>
      </trkpt>
      <trkpt lat="46.88838" lon="12.19779">
        <ele>2040.05</ele>
        <time>2015-02-25T14:23:32Z</time>
      </trkpt>
      <trkpt lat="46.88842" lon="12.19777">
        <ele>2039.57</ele>
        <time>2015-02-25T14:23:33Z</time>
      </trkpt>
      <trkpt lat="46.88847" lon="12.19778">
        <ele>2039.09</ele>
        <time>2015-02-25T14:23:34Z</time>
      </trkpt>
      <trkpt lat="46.88851" lon="12.19781">
        <ele>2038.13</ele>
        <time>2015-02-25T14:23:35Z</time>
      </trkpt>
      <trkpt lat="46.88854" lon="12.19783">
        <ele>2037.17</ele>
        <time>2015-02-25T14:23:36Z</time>
      </trkpt>
      <trkpt lat="46.88861" lon="12.19789">
        <ele>2036.21</ele>
        <time>2015-02-25T14:23:37Z</time>
      </trkpt>
      <trkpt lat="46.88867" lon="12.19793">
        <ele>2035.73</ele>
        <time>2015-02-25T14:23:38Z</time>
      </trkpt>
      <trkpt lat="46.88873" lon="12.19793">
        <ele>2035.25</ele>
        <time>2015-02-25T14:23:39Z</time>
      </trkpt>
      <trkpt lat="46.88879" lon="12.19792">
        <ele>2034.29</ele>
        <time>2015-02-25T14:23:40Z</time>
      </trkpt>
      <trkpt lat="46.88885" lon="12.19791">
        <ele>2034.29</ele>
        <time>2015-02-25T14:23:41Z</time>
      </trkpt>
      <trkpt lat="46.88891" lon="12.19791">
        <ele>2033.33</ele>
        <time>2015-02-25T14:23:42Z</time>
      </trkpt>
      <trkpt lat="46.88897" lon="12.19793">
        <ele>2032.84</ele>
        <time>2015-02-25T14:23:43Z</time>
      </trkpt>
      <trkpt lat="46.88903" lon="12.19795">
        <ele>2032.36</ele>
        <time>2015-02-25T14:23:44Z</time>
      </trkpt>
      <trkpt lat="46.88909" lon="12.19797">
        <ele>2031.88</ele>
        <time>2015-02-25T14:23:45Z</time>
      </trkpt>
      <trkpt lat="46.8892" lon="12.19802">
        <ele>2030.92</ele>
        <time>2015-02-25T14:23:47Z</time>
      </trkpt>
      <trkpt lat="46.88931" lon="12.19801">
        <ele>2030.92</ele>
        <time>2015-02-25T14:23:49Z</time>
      </trkpt>
      <trkpt lat="46.88941" lon="12.19797">
        <ele>2030.92</ele>
        <time>2015-02-25T14:23:51Z</time>
      </trkpt>
      <trkpt lat="46.88943" lon="12.19793">
        <ele>2029.96</ele>
        <time>2015-02-25T14:23:53Z</time>
      </trkpt>
      <trkpt lat="46.8889" lon="12.19774">
        <ele>2029</ele>
        <time>2015-02-25T14:24:09Z</time>
      </trkpt>
      <trkpt lat="46.88869" lon="12.19759">
        <ele>2028.04</ele>
        <time>2015-02-25T14:24:17Z</time>
      </trkpt>
      <trkpt lat="46.88858" lon="12.19744">
        <ele>2026.12</ele>
        <time>2015-02-25T14:24:21Z</time>
      </trkpt>
      <trkpt lat="46.88855" lon="12.1974">
        <ele>2026.12</ele>
        <time>2015-02-25T14:24:22Z</time>
      </trkpt>
      <trkpt lat="46.88853" lon="12.19735">
        <ele>2025.64</ele>
        <time>2015-02-25T14:24:23Z</time>
      </trkpt>
      <trkpt lat="46.88852" lon="12.19731">
        <ele>2024.67</ele>
        <time>2015-02-25T14:24:24Z</time>
      </trkpt>
      <trkpt lat="46.88851" lon="12.19725">
        <ele>2024.19</ele>
        <time>2015-02-25T14:24:25Z</time>
      </trkpt>
      <trkpt lat="46.88851" lon="12.1972">
        <ele>2024.19</ele>
        <time>2015-02-25T14:24:26Z</time>
      </trkpt>
      <trkpt lat="46.88838" lon="12.19694">
        <ele>2021.79</ele>
        <time>2015-02-25T14:24:33Z</time>
      </trkpt>
      <trkpt lat="46.88804" lon="12.19715">
        <ele>2019.39</ele>
        <time>2015-02-25T14:24:44Z</time>
      </trkpt>
      <trkpt lat="46.88775" lon="12.19746">
        <ele>2016.5</ele>
        <time>2015-02-25T14:24:58Z</time>
      </trkpt>
      <trkpt lat="46.88777" lon="12.19741">
        <ele>2016.02</ele>
        <time>2015-02-25T14:24:59Z</time>
      </trkpt>
      <trkpt lat="46.88785" lon="12.19726">
        <ele>2014.1</ele>
        <time>2015-02-25T14:25:02Z</time>
      </trkpt>
      <trkpt lat="46.88832" lon="12.19672">
        <ele>2011.7</ele>
        <time>2015-02-25T14:25:20Z</time>
      </trkpt>
      <trkpt lat="46.88846" lon="12.19664">
        <ele>2010.25</ele>
        <time>2015-02-25T14:25:24Z</time>
      </trkpt>
      <trkpt lat="46.8885" lon="12.19665">
        <ele>2009.77</ele>
        <time>2015-02-25T14:25:25Z</time>
      </trkpt>
      <trkpt lat="46.88854" lon="12.19666">
        <ele>2008.81</ele>
        <time>2015-02-25T14:25:26Z</time>
      </trkpt>
      <trkpt lat="46.88859" lon="12.19666">
        <ele>2008.33</ele>
        <time>2015-02-25T14:25:27Z</time>
      </trkpt>
      <trkpt lat="46.88863" lon="12.19667">
        <ele>2007.85</ele>
        <time>2015-02-25T14:25:28Z</time>
      </trkpt>
      <trkpt lat="46.88873" lon="12.19674">
        <ele>2006.89</ele>
        <time>2015-02-25T14:25:30Z</time>
      </trkpt>
      <trkpt lat="46.88878" lon="12.19683">
        <ele>2006.41</ele>
        <time>2015-02-25T14:25:31Z</time>
      </trkpt>
      <trkpt lat="46.88883" lon="12.1969">
        <ele>2005.93</ele>
        <time>2015-02-25T14:25:32Z</time>
      </trkpt>
      <trkpt lat="46.88887" lon="12.19697">
        <ele>2005.45</ele>
        <time>2015-02-25T14:25:33Z</time>
      </trkpt>
      <trkpt lat="46.8889" lon="12.19704">
        <ele>2004.97</ele>
        <time>2015-02-25T14:25:34Z</time>
      </trkpt>
      <trkpt lat="46.88893" lon="12.1971">
        <ele>2004.49</ele>
        <time>2015-02-25T14:25:35Z</time>
      </trkpt>
      <trkpt lat="46.88896" lon="12.19715">
        <ele>2004.01</ele>
        <time>2015-02-25T14:25:36Z</time>
      </trkpt>
      <trkpt lat="46.88899" lon="12.1972">
        <ele>2004.01</ele>
        <time>2015-02-25T14:25:37Z</time>
      </trkpt>
      <trkpt lat="46.88902" lon="12.19723">
        <ele>2004.01</ele>
        <time>2015-02-25T14:25:38Z</time>
      </trkpt>
      <trkpt lat="46.88907" lon="12.19724">
        <ele>2004.01</ele>
        <time>2015-02-25T14:25:39Z</time>
      </trkpt>
      <trkpt lat="46.88912" lon="12.19722">
        <ele>2003.52</ele>
        <time>2015-02-25T14:25:40Z</time>
      </trkpt>
      <trkpt lat="46.88915" lon="12.1972">
        <ele>2003.52</ele>
        <time>2015-02-25T14:25:41Z</time>
      </trkpt>
      <trkpt lat="46.88901" lon="12.19702">
        <ele>2003.04</ele>
        <time>2015-02-25T14:25:46Z</time>
      </trkpt>
      <trkpt lat="46.88898" lon="12.19699">
        <ele>2002.56</ele>
        <time>2015-02-25T14:25:47Z</time>
      </trkpt>
      <trkpt lat="46.88895" lon="12.19696">
        <ele>2002.56</ele>
        <time>2015-02-25T14:25:48Z</time>
      </trkpt>
      <trkpt lat="46.88893" lon="12.19692">
        <ele>2002.08</ele>
        <time>2015-02-25T14:25:49Z</time>
      </trkpt>
      <trkpt lat="46.8889" lon="12.19688">
        <ele>2001.12</ele>
        <time>2015-02-25T14:25:50Z</time>
      </trkpt>
      <trkpt lat="46.88888" lon="12.19683">
        <ele>2001.12</ele>
        <time>2015-02-25T14:25:51Z</time>
      </trkpt>
      <trkpt lat="46.88886" lon="12.19679">
        <ele>2000.64</ele>
        <time>2015-02-25T14:25:52Z</time>
      </trkpt>
      <trkpt lat="46.88884" lon="12.19674">
        <ele>2000.16</ele>
        <time>2015-02-25T14:25:53Z</time>
      </trkpt>
      <trkpt lat="46.88881" lon="12.19669">
        <ele>1999.68</ele>
        <time>2015-02-25T14:25:54Z</time>
      </trkpt>
      <trkpt lat="46.88877" lon="12.19665">
        <ele>1999.2</ele>
        <time>2015-02-25T14:25:55Z</time>
      </trkpt>
      <trkpt lat="46.88873" lon="12.1966">
        <ele>1998.72</ele>
        <time>2015-02-25T14:25:56Z</time>
      </trkpt>
      <trkpt lat="46.88868" lon="12.19656">
        <ele>1998.24</ele>
        <time>2015-02-25T14:25:57Z</time>
      </trkpt>
      <trkpt lat="46.88854" lon="12.19644">
        <ele>1999.2</ele>
        <time>2015-02-25T14:26:00Z</time>
      </trkpt>
      <trkpt lat="46.88849" lon="12.1964">
        <ele>1996.32</ele>
        <time>2015-02-25T14:26:01Z</time>
      </trkpt>
      <trkpt lat="46.88844" lon="12.19636">
        <ele>1994.87</ele>
        <time>2015-02-25T14:26:02Z</time>
      </trkpt>
      <trkpt lat="46.88839" lon="12.19632">
        <ele>1993.91</ele>
        <time>2015-02-25T14:26:03Z</time>
      </trkpt>
      <trkpt lat="46.88834" lon="12.19628">
        <ele>1993.43</ele>
        <time>2015-02-25T14:26:04Z</time>
      </trkpt>
      <trkpt lat="46.88824" lon="12.19619">
        <ele>1991.99</ele>
        <time>2015-02-25T14:26:06Z</time>
      </trkpt>
      <trkpt lat="46.8882" lon="12.19614">
        <ele>1991.03</ele>
        <time>2015-02-25T14:26:07Z</time>
      </trkpt>
      <trkpt lat="46.88816" lon="12.19609">
        <ele>1991.03</ele>
        <time>2015-02-25T14:26:08Z</time>
      </trkpt>
      <trkpt lat="46.88808" lon="12.19601">
        <ele>1990.07</ele>
        <time>2015-02-25T14:26:10Z</time>
      </trkpt>
      <trkpt lat="46.88803" lon="12.196">
        <ele>1989.1</ele>
        <time>2015-02-25T14:26:11Z</time>
      </trkpt>
      <trkpt lat="46.88799" lon="12.19601">
        <ele>1988.62</ele>
        <time>2015-02-25T14:26:12Z</time>
      </trkpt>
      <trkpt lat="46.8879" lon="12.19612">
        <ele>1986.7</ele>
        <time>2015-02-25T14:26:15Z</time>
      </trkpt>
      <trkpt lat="46.88788" lon="12.19621">
        <ele>1986.7</ele>
        <time>2015-02-25T14:26:16Z</time>
      </trkpt>
      <trkpt lat="46.88787" lon="12.19627">
        <ele>1985.74</ele>
        <time>2015-02-25T14:26:17Z</time>
      </trkpt>
      <trkpt lat="46.8878" lon="12.19653">
        <ele>1982.86</ele>
        <time>2015-02-25T14:26:21Z</time>
      </trkpt>
      <trkpt lat="46.88769" lon="12.19688">
        <ele>1979.49</ele>
        <time>2015-02-25T14:26:28Z</time>
      </trkpt>
      <trkpt lat="46.8876" lon="12.19687">
        <ele>1979.49</ele>
        <time>2015-02-25T14:26:30Z</time>
      </trkpt>
      <trkpt lat="46.88755" lon="12.19685">
        <ele>1979.01</ele>
        <time>2015-02-25T14:26:31Z</time>
      </trkpt>
      <trkpt lat="46.88751" lon="12.19684">
        <ele>1979.01</ele>
        <time>2015-02-25T14:26:32Z</time>
      </trkpt>
      <trkpt lat="46.88748" lon="12.19684">
        <ele>1978.53</ele>
        <time>2015-02-25T14:26:33Z</time>
      </trkpt>
      <trkpt lat="46.88745" lon="12.19683">
        <ele>1978.05</ele>
        <time>2015-02-25T14:26:34Z</time>
      </trkpt>
      <trkpt lat="46.88742" lon="12.19681">
        <ele>1978.05</ele>
        <time>2015-02-25T14:26:35Z</time>
      </trkpt>
      <trkpt lat="46.88723" lon="12.19683">
        <ele>1975.17</ele>
        <time>2015-02-25T14:26:40Z</time>
      </trkpt>
      <trkpt lat="46.88722" lon="12.19682">
        <ele>1975.17</ele>
        <time>2015-02-25T14:26:41Z</time>
      </trkpt>
      <trkpt lat="46.88721" lon="12.1968">
        <ele>1974.2</ele>
        <time>2015-02-25T14:26:43Z</time>
      </trkpt>
      <trkpt lat="46.8872" lon="12.1968">
        <ele>1974.2</ele>
        <time>2015-02-25T14:26:44Z</time>
      </trkpt>
      <trkpt lat="46.88706" lon="12.19676">
        <ele>1972.76</ele>
        <time>2015-02-25T14:26:52Z</time>
      </trkpt>
      <trkpt lat="46.88711" lon="12.19674">
        <ele>1972.76</ele>
        <time>2015-02-25T14:27:04Z</time>
      </trkpt>
      <trkpt lat="46.88712" lon="12.19672">
        <ele>1972.28</ele>
        <time>2015-02-25T14:27:05Z</time>
      </trkpt>
      <trkpt lat="46.88715" lon="12.19669">
        <ele>1972.28</ele>
        <time>2015-02-25T14:27:06Z</time>
      </trkpt>
      <trkpt lat="46.88718" lon="12.19668">
        <ele>1971.32</ele>
        <time>2015-02-25T14:27:07Z</time>
      </trkpt>
      <trkpt lat="46.88721" lon="12.19668">
        <ele>1970.84</ele>
        <time>2015-02-25T14:27:08Z</time>
      </trkpt>
      <trkpt lat="46.88726" lon="12.19669">
        <ele>1970.36</ele>
        <time>2015-02-25T14:27:09Z</time>
      </trkpt>
      <trkpt lat="46.8873" lon="12.19668">
        <ele>1969.88</ele>
        <time>2015-02-25T14:27:10Z</time>
      </trkpt>
      <trkpt lat="46.88735" lon="12.19666">
        <ele>1969.4</ele>
        <time>2015-02-25T14:27:11Z</time>
      </trkpt>
      <trkpt lat="46.8874" lon="12.19665">
        <ele>1968.92</ele>
        <time>2015-02-25T14:27:12Z</time>
      </trkpt>
      <trkpt lat="46.88744" lon="12.19663">
        <ele>1967.96</ele>
        <time>2015-02-25T14:27:13Z</time>
      </trkpt>
      <trkpt lat="46.88749" lon="12.19661">
        <ele>1967.96</ele>
        <time>2015-02-25T14:27:14Z</time>
      </trkpt>
      <trkpt lat="46.88754" lon="12.19658">
        <ele>1967.48</ele>
        <time>2015-02-25T14:27:15Z</time>
      </trkpt>
      <trkpt lat="46.8878" lon="12.19638">
        <ele>1964.11</ele>
        <time>2015-02-25T14:27:20Z</time>
      </trkpt>
      <trkpt lat="46.88802" lon="12.19619">
        <ele>1960.75</ele>
        <time>2015-02-25T14:27:24Z</time>
      </trkpt>
      <trkpt lat="46.88807" lon="12.19614">
        <ele>1960.27</ele>
        <time>2015-02-25T14:27:25Z</time>
      </trkpt>
      <trkpt lat="46.88835" lon="12.19589">
        <ele>1956.9</ele>
        <time>2015-02-25T14:27:30Z</time>
      </trkpt>
      <trkpt lat="46.88839" lon="12.19584">
        <ele>1956.42</ele>
        <time>2015-02-25T14:27:31Z</time>
      </trkpt>
      <trkpt lat="46.88799" lon="12.19535">
        <ele>1954.5</ele>
        <time>2015-02-25T14:27:35Z</time>
      </trkpt>
      <trkpt lat="46.88798" lon="12.19519">
        <ele>1953.06</ele>
        <time>2015-02-25T14:27:37Z</time>
      </trkpt>
      <trkpt lat="46.88796" lon="12.1951">
        <ele>1952.57</ele>
        <time>2015-02-25T14:27:38Z</time>
      </trkpt>
      <trkpt lat="46.88789" lon="12.19499">
        <ele>1952.09</ele>
        <time>2015-02-25T14:27:39Z</time>
      </trkpt>
      <trkpt lat="46.88783" lon="12.19489">
        <ele>1951.13</ele>
        <time>2015-02-25T14:27:40Z</time>
      </trkpt>
      <trkpt lat="46.88784" lon="12.19482">
        <ele>1950.65</ele>
        <time>2015-02-25T14:27:41Z</time>
      </trkpt>
      <trkpt lat="46.88783" lon="12.19461">
        <ele>1948.73</ele>
        <time>2015-02-25T14:27:45Z</time>
      </trkpt>
      <trkpt lat="46.88791" lon="12.19444">
        <ele>1946.33</ele>
        <time>2015-02-25T14:27:51Z</time>
      </trkpt>
      <trkpt lat="46.88793" lon="12.19443">
        <ele>1945.85</ele>
        <time>2015-02-25T14:27:52Z</time>
      </trkpt>
      <trkpt lat="46.88816" lon="12.19459">
        <ele>1945.85</ele>
        <time>2015-02-25T14:28:04Z</time>
      </trkpt>
      <trkpt lat="46.88818" lon="12.19466">
        <ele>1946.33</ele>
        <time>2015-02-25T14:28:25Z</time>
      </trkpt>
      <trkpt lat="46.8882" lon="12.19475">
        <ele>1945.36</ele>
        <time>2015-02-25T14:28:34Z</time>
      </trkpt>
      <trkpt lat="46.88822" lon="12.19478">
        <ele>1945.36</ele>
        <time>2015-02-25T14:28:35Z</time>
      </trkpt>
      <trkpt lat="46.88824" lon="12.19479">
        <ele>1944.88</ele>
        <time>2015-02-25T14:28:36Z</time>
      </trkpt>
      <trkpt lat="46.88827" lon="12.1948">
        <ele>1944.88</ele>
        <time>2015-02-25T14:28:37Z</time>
      </trkpt>
      <trkpt lat="46.8883" lon="12.19481">
        <ele>1943.92</ele>
        <time>2015-02-25T14:28:38Z</time>
      </trkpt>
      <trkpt lat="46.88833" lon="12.19484">
        <ele>1943.92</ele>
        <time>2015-02-25T14:28:39Z</time>
      </trkpt>
      <trkpt lat="46.88837" lon="12.19486">
        <ele>1943.44</ele>
        <time>2015-02-25T14:28:40Z</time>
      </trkpt>
      <trkpt lat="46.88841" lon="12.19488">
        <ele>1943.44</ele>
        <time>2015-02-25T14:28:41Z</time>
      </trkpt>
      <trkpt lat="46.88846" lon="12.1949">
        <ele>1942.48</ele>
        <time>2015-02-25T14:28:42Z</time>
      </trkpt>
      <trkpt lat="46.8885" lon="12.19492">
        <ele>1942</ele>
        <time>2015-02-25T14:28:43Z</time>
      </trkpt>
      <trkpt lat="46.88854" lon="12.19493">
        <ele>1942</ele>
        <time>2015-02-25T14:28:44Z</time>
      </trkpt>
      <trkpt lat="46.88858" lon="12.19495">
        <ele>1941.52</ele>
        <time>2015-02-25T14:28:45Z</time>
      </trkpt>
      <trkpt lat="46.88862" lon="12.19498">
        <ele>1941.04</ele>
        <time>2015-02-25T14:28:46Z</time>
      </trkpt>
      <trkpt lat="46.88867" lon="12.19502">
        <ele>1940.56</ele>
        <time>2015-02-25T14:28:47Z</time>
      </trkpt>
      <trkpt lat="46.88872" lon="12.19506">
        <ele>1940.08</ele>
        <time>2015-02-25T14:28:48Z</time>
      </trkpt>
      <trkpt lat="46.88875" lon="12.1951">
        <ele>1939.6</ele>
        <time>2015-02-25T14:28:49Z</time>
      </trkpt>
      <trkpt lat="46.88879" lon="12.19513">
        <ele>1939.6</ele>
        <time>2015-02-25T14:28:50Z</time>
      </trkpt>
      <trkpt lat="46.88883" lon="12.19517">
        <ele>1939.12</ele>
        <time>2015-02-25T14:28:51Z</time>
      </trkpt>
      <trkpt lat="46.88886" lon="12.1952">
        <ele>1938.16</ele>
        <time>2015-02-25T14:28:52Z</time>
      </trkpt>
      <trkpt lat="46.8889" lon="12.19523">
        <ele>1937.67</ele>
        <time>2015-02-25T14:28:53Z</time>
      </trkpt>
      <trkpt lat="46.88894" lon="12.19525">
        <ele>1937.19</ele>
        <time>2015-02-25T14:28:54Z</time>
      </trkpt>
      <trkpt lat="46.88898" lon="12.19526">
        <ele>1936.71</ele>
        <time>2015-02-25T14:28:55Z</time>
      </trkpt>
      <trkpt lat="46.88903" lon="12.19526">
        <ele>1936.23</ele>
        <time>2015-02-25T14:28:56Z</time>
      </trkpt>
      <trkpt lat="46.88908" lon="12.19526">
        <ele>1936.23</ele>
        <time>2015-02-25T14:28:57Z</time>
      </trkpt>
      <trkpt lat="46.88913" lon="12.19525">
        <ele>1935.75</ele>
        <time>2015-02-25T14:28:58Z</time>
      </trkpt>
      <trkpt lat="46.88917" lon="12.19525">
        <ele>1935.27</ele>
        <time>2015-02-25T14:28:59Z</time>
      </trkpt>
      <trkpt lat="46.88921" lon="12.19525">
        <ele>1933.83</ele>
        <time>2015-02-25T14:29:00Z</time>
      </trkpt>
      <trkpt lat="46.88931" lon="12.19525">
        <ele>1931.91</ele>
        <time>2015-02-25T14:29:02Z</time>
      </trkpt>
      <trkpt lat="46.88936" lon="12.19526">
        <ele>1931.91</ele>
        <time>2015-02-25T14:29:03Z</time>
      </trkpt>
      <trkpt lat="46.88941" lon="12.19526">
        <ele>1931.91</ele>
        <time>2015-02-25T14:29:04Z</time>
      </trkpt>
      <trkpt lat="46.88947" lon="12.19527">
        <ele>1930.46</ele>
        <time>2015-02-25T14:29:05Z</time>
      </trkpt>
      <trkpt lat="46.88952" lon="12.19531">
        <ele>1929.5</ele>
        <time>2015-02-25T14:29:06Z</time>
      </trkpt>
      <trkpt lat="46.88957" lon="12.19535">
        <ele>1929.98</ele>
        <time>2015-02-25T14:29:07Z</time>
      </trkpt>
      <trkpt lat="46.88961" lon="12.19538">
        <ele>1930.95</ele>
        <time>2015-02-25T14:29:08Z</time>
      </trkpt>
      <trkpt lat="46.88971" lon="12.19579">
        <ele>1929.02</ele>
        <time>2015-02-25T14:29:20Z</time>
      </trkpt>
      <trkpt lat="46.89" lon="12.19625">
        <ele>1926.62</ele>
        <time>2015-02-25T14:29:33Z</time>
      </trkpt>
      <trkpt lat="46.89004" lon="12.19625">
        <ele>1925.66</ele>
        <time>2015-02-25T14:29:34Z</time>
      </trkpt>
      <trkpt lat="46.89009" lon="12.19623">
        <ele>1925.66</ele>
        <time>2015-02-25T14:29:35Z</time>
      </trkpt>
      <trkpt lat="46.89013" lon="12.19621">
        <ele>1926.14</ele>
        <time>2015-02-25T14:29:36Z</time>
      </trkpt>
      <trkpt lat="46.89017" lon="12.19617">
        <ele>1925.66</ele>
        <time>2015-02-25T14:29:37Z</time>
      </trkpt>
      <trkpt lat="46.8902" lon="12.19613">
        <ele>1925.66</ele>
        <time>2015-02-25T14:29:38Z</time>
      </trkpt>
      <trkpt lat="46.89023" lon="12.19608">
        <ele>1925.66</ele>
        <time>2015-02-25T14:29:39Z</time>
      </trkpt>
      <trkpt lat="46.89026" lon="12.19602">
        <ele>1925.18</ele>
        <time>2015-02-25T14:29:40Z</time>
      </trkpt>
      <trkpt lat="46.89028" lon="12.19596">
        <ele>1924.22</ele>
        <time>2015-02-25T14:29:41Z</time>
      </trkpt>
      <trkpt lat="46.8903" lon="12.19589">
        <ele>1923.74</ele>
        <time>2015-02-25T14:29:42Z</time>
      </trkpt>
      <trkpt lat="46.89029" lon="12.19581">
        <ele>1923.74</ele>
        <time>2015-02-25T14:29:43Z</time>
      </trkpt>
      <trkpt lat="46.89023" lon="12.19571">
        <ele>1923.25</ele>
        <time>2015-02-25T14:29:44Z</time>
      </trkpt>
      <trkpt lat="46.89022" lon="12.19533">
        <ele>1920.37</ele>
        <time>2015-02-25T14:29:48Z</time>
      </trkpt>
      <trkpt lat="46.89031" lon="12.1949">
        <ele>1916.04</ele>
        <time>2015-02-25T14:29:53Z</time>
      </trkpt>
      <trkpt lat="46.89032" lon="12.19481">
        <ele>1915.08</ele>
        <time>2015-02-25T14:29:54Z</time>
      </trkpt>
      <trkpt lat="46.89032" lon="12.19472">
        <ele>1915.08</ele>
        <time>2015-02-25T14:29:55Z</time>
      </trkpt>
      <trkpt lat="46.89034" lon="12.19463">
        <ele>1913.16</ele>
        <time>2015-02-25T14:29:56Z</time>
      </trkpt>
      <trkpt lat="46.89035" lon="12.19455">
        <ele>1913.16</ele>
        <time>2015-02-25T14:29:57Z</time>
      </trkpt>
      <trkpt lat="46.89045" lon="12.19407">
        <ele>1909.32</ele>
        <time>2015-02-25T14:30:03Z</time>
      </trkpt>
      <trkpt lat="46.89046" lon="12.19398">
        <ele>1907.39</ele>
        <time>2015-02-25T14:30:04Z</time>
      </trkpt>
      <trkpt lat="46.89048" lon="12.1939">
        <ele>1906.43</ele>
        <time>2015-02-25T14:30:05Z</time>
      </trkpt>
      <trkpt lat="46.89049" lon="12.19381">
        <ele>1906.43</ele>
        <time>2015-02-25T14:30:06Z</time>
      </trkpt>
      <trkpt lat="46.89051" lon="12.19374">
        <ele>1905.47</ele>
        <time>2015-02-25T14:30:07Z</time>
      </trkpt>
      <trkpt lat="46.89053" lon="12.19366">
        <ele>1904.51</ele>
        <time>2015-02-25T14:30:08Z</time>
      </trkpt>
      <trkpt lat="46.89054" lon="12.19358">
        <ele>1904.03</ele>
        <time>2015-02-25T14:30:09Z</time>
      </trkpt>
      <trkpt lat="46.89056" lon="12.1935">
        <ele>1903.07</ele>
        <time>2015-02-25T14:30:10Z</time>
      </trkpt>
      <trkpt lat="46.89058" lon="12.19342">
        <ele>1903.07</ele>
        <time>2015-02-25T14:30:11Z</time>
      </trkpt>
      <trkpt lat="46.89059" lon="12.19335">
        <ele>1901.63</ele>
        <time>2015-02-25T14:30:12Z</time>
      </trkpt>
      <trkpt lat="46.89062" lon="12.19327">
        <ele>1901.14</ele>
        <time>2015-02-25T14:30:13Z</time>
      </trkpt>
      <trkpt lat="46.89064" lon="12.1932">
        <ele>1901.14</ele>
        <time>2015-02-25T14:30:14Z</time>
      </trkpt>
      <trkpt lat="46.8907" lon="12.19298">
        <ele>1899.7</ele>
        <time>2015-02-25T14:30:17Z</time>
      </trkpt>
      <trkpt lat="46.89072" lon="12.19291">
        <ele>1898.74</ele>
        <time>2015-02-25T14:30:18Z</time>
      </trkpt>
      <trkpt lat="46.89074" lon="12.19284">
        <ele>1898.26</ele>
        <time>2015-02-25T14:30:19Z</time>
      </trkpt>
      <trkpt lat="46.89077" lon="12.1927">
        <ele>1895.86</ele>
        <time>2015-02-25T14:30:21Z</time>
      </trkpt>
      <trkpt lat="46.89079" lon="12.19264">
        <ele>1896.34</ele>
        <time>2015-02-25T14:30:22Z</time>
      </trkpt>
      <trkpt lat="46.89082" lon="12.19244">
        <ele>1894.9</ele>
        <time>2015-02-25T14:30:25Z</time>
      </trkpt>
      <trkpt lat="46.89084" lon="12.19237">
        <ele>1893.45</ele>
        <time>2015-02-25T14:30:26Z</time>
      </trkpt>
      <trkpt lat="46.89086" lon="12.19222">
        <ele>1892.01</ele>
        <time>2015-02-25T14:30:28Z</time>
      </trkpt>
      <trkpt lat="46.89088" lon="12.19208">
        <ele>1890.57</ele>
        <time>2015-02-25T14:30:30Z</time>
      </trkpt>
      <trkpt lat="46.8909" lon="12.19201">
        <ele>1890.57</ele>
        <time>2015-02-25T14:30:31Z</time>
      </trkpt>
      <trkpt lat="46.89091" lon="12.19194">
        <ele>1890.09</ele>
        <time>2015-02-25T14:30:32Z</time>
      </trkpt>
      <trkpt lat="46.89097" lon="12.19174">
        <ele>1888.17</ele>
        <time>2015-02-25T14:30:35Z</time>
      </trkpt>
      <trkpt lat="46.89101" lon="12.19162">
        <ele>1887.21</ele>
        <time>2015-02-25T14:30:37Z</time>
      </trkpt>
      <trkpt lat="46.89105" lon="12.1915">
        <ele>1886.24</ele>
        <time>2015-02-25T14:30:39Z</time>
      </trkpt>
      <trkpt lat="46.89107" lon="12.19144">
        <ele>1885.76</ele>
        <time>2015-02-25T14:30:40Z</time>
      </trkpt>
      <trkpt lat="46.89116" lon="12.1912">
        <ele>1884.32</ele>
        <time>2015-02-25T14:30:45Z</time>
      </trkpt>
      <trkpt lat="46.89126" lon="12.1911">
        <ele>1881.92</ele>
        <time>2015-02-25T14:30:51Z</time>
      </trkpt>
      <trkpt lat="46.89129" lon="12.19111">
        <ele>1881.44</ele>
        <time>2015-02-25T14:30:52Z</time>
      </trkpt>
      <trkpt lat="46.89131" lon="12.19111">
        <ele>1881.44</ele>
        <time>2015-02-25T14:30:53Z</time>
      </trkpt>
      <trkpt lat="46.89134" lon="12.19112">
        <ele>1880.96</ele>
        <time>2015-02-25T14:30:54Z</time>
      </trkpt>
      <trkpt lat="46.89135" lon="12.19113">
        <ele>1880.48</ele>
        <time>2015-02-25T14:30:55Z</time>
      </trkpt>
      <trkpt lat="46.89137" lon="12.19114">
        <ele>1880</ele>
        <time>2015-02-25T14:30:56Z</time>
      </trkpt>
      <trkpt lat="46.8914" lon="12.19114">
        <ele>1880</ele>
        <time>2015-02-25T14:30:57Z</time>
      </trkpt>
      <trkpt lat="46.89143" lon="12.19113">
        <ele>1879.51</ele>
        <time>2015-02-25T14:30:58Z</time>
      </trkpt>
      <trkpt lat="46.89147" lon="12.19111">
        <ele>1879.51</ele>
        <time>2015-02-25T14:30:59Z</time>
      </trkpt>
      <trkpt lat="46.89152" lon="12.19111">
        <ele>1879.51</ele>
        <time>2015-02-25T14:31:00Z</time>
      </trkpt>
      <trkpt lat="46.89166" lon="12.19112">
        <ele>1879.03</ele>
        <time>2015-02-25T14:31:09Z</time>
      </trkpt>
      <trkpt lat="46.89166" lon="12.19113">
        <ele>1879.03</ele>
        <time>2015-02-25T14:31:14Z</time>
      </trkpt>
      <trkpt lat="46.89166" lon="12.19115">
        <ele>1879.03</ele>
        <time>2015-02-25T14:31:27Z</time>
      </trkpt>
      <trkpt lat="46.89166" lon="12.19115">
        <ele>1879.03</ele>
        <time>2015-02-25T14:31:33Z</time>
      </trkpt>
      <trkpt lat="46.89167" lon="12.19121">
        <ele>1878.07</ele>
        <time>2015-02-25T14:31:51Z</time>
      </trkpt>
      <trkpt lat="46.89167" lon="12.19118">
        <ele>1878.55</ele>
        <time>2015-02-25T14:32:24Z</time>
      </trkpt>
      <trkpt lat="46.89163" lon="12.19115">
        <ele>1880</ele>
        <time>2015-02-25T14:32:52Z</time>
      </trkpt>
      <trkpt lat="46.89166" lon="12.19121">
        <ele>1880.48</ele>
        <time>2015-02-25T14:33:12Z</time>
      </trkpt>
      <trkpt lat="46.89168" lon="12.19123">
        <ele>1880</ele>
        <time>2015-02-25T14:33:30Z</time>
      </trkpt>
      <trkpt lat="46.89167" lon="12.19122">
        <ele>1880</ele>
        <time>2015-02-25T14:33:46Z</time>
      </trkpt>
      <trkpt lat="46.89164" lon="12.19124">
        <ele>1881.92</ele>
        <time>2015-02-25T14:34:04Z</time>
      </trkpt>
      <trkpt lat="46.89162" lon="12.19124">
        <ele>1879.51</ele>
        <time>2015-02-25T14:34:25Z</time>
      </trkpt>
      <trkpt lat="46.89133" lon="12.19122">
        <ele>1877.59</ele>
        <time>2015-02-25T14:34:41Z</time>
      </trkpt>
      <trkpt lat="46.891" lon="12.19156">
        <ele>1874.23</ele>
        <time>2015-02-25T14:34:55Z</time>
      </trkpt>
      <trkpt lat="46.89095" lon="12.19167">
        <ele>1873.27</ele>
        <time>2015-02-25T14:34:57Z</time>
      </trkpt>
      <trkpt lat="46.89092" lon="12.19172">
        <ele>1872.3</ele>
        <time>2015-02-25T14:34:58Z</time>
      </trkpt>
      <trkpt lat="46.89085" lon="12.19183">
        <ele>1871.34</ele>
        <time>2015-02-25T14:35:00Z</time>
      </trkpt>
      <trkpt lat="46.89082" lon="12.1919">
        <ele>1871.82</ele>
        <time>2015-02-25T14:35:01Z</time>
      </trkpt>
      <trkpt lat="46.89079" lon="12.19195">
        <ele>1869.9</ele>
        <time>2015-02-25T14:35:02Z</time>
      </trkpt>
      <trkpt lat="46.89075" lon="12.19201">
        <ele>1869.42</ele>
        <time>2015-02-25T14:35:03Z</time>
      </trkpt>
      <trkpt lat="46.89072" lon="12.19206">
        <ele>1869.9</ele>
        <time>2015-02-25T14:35:04Z</time>
      </trkpt>
      <trkpt lat="46.89068" lon="12.19212">
        <ele>1868.94</ele>
        <time>2015-02-25T14:35:05Z</time>
      </trkpt>
      <trkpt lat="46.89064" lon="12.19217">
        <ele>1867.5</ele>
        <time>2015-02-25T14:35:06Z</time>
      </trkpt>
      <trkpt lat="46.89061" lon="12.19222">
        <ele>1867.98</ele>
        <time>2015-02-25T14:35:07Z</time>
      </trkpt>
      <trkpt lat="46.89057" lon="12.19227">
        <ele>1867.02</ele>
        <time>2015-02-25T14:35:08Z</time>
      </trkpt>
      <trkpt lat="46.89053" lon="12.19233">
        <ele>1865.58</ele>
        <time>2015-02-25T14:35:09Z</time>
      </trkpt>
      <trkpt lat="46.8905" lon="12.19238">
        <ele>1865.58</ele>
        <time>2015-02-25T14:35:10Z</time>
      </trkpt>
      <trkpt lat="46.89046" lon="12.19244">
        <ele>1864.13</ele>
        <time>2015-02-25T14:35:11Z</time>
      </trkpt>
      <trkpt lat="46.89042" lon="12.1925">
        <ele>1864.61</ele>
        <time>2015-02-25T14:35:12Z</time>
      </trkpt>
      <trkpt lat="46.89038" lon="12.19256">
        <ele>1863.17</ele>
        <time>2015-02-25T14:35:13Z</time>
      </trkpt>
      <trkpt lat="46.89033" lon="12.19261">
        <ele>1862.21</ele>
        <time>2015-02-25T14:35:14Z</time>
      </trkpt>
      <trkpt lat="46.89028" lon="12.19266">
        <ele>1862.21</ele>
        <time>2015-02-25T14:35:15Z</time>
      </trkpt>
      <trkpt lat="46.89025" lon="12.19269">
        <ele>1861.25</ele>
        <time>2015-02-25T14:35:16Z</time>
      </trkpt>
      <trkpt lat="46.89019" lon="12.19274">
        <ele>1860.29</ele>
        <time>2015-02-25T14:35:17Z</time>
      </trkpt>
      <trkpt lat="46.89009" lon="12.19282">
        <ele>1859.33</ele>
        <time>2015-02-25T14:35:19Z</time>
      </trkpt>
      <trkpt lat="46.88992" lon="12.19291">
        <ele>1857.4</ele>
        <time>2015-02-25T14:35:22Z</time>
      </trkpt>
      <trkpt lat="46.8899" lon="12.19292">
        <ele>1856.92</ele>
        <time>2015-02-25T14:35:23Z</time>
      </trkpt>
      <trkpt lat="46.88986" lon="12.19292">
        <ele>1856.44</ele>
        <time>2015-02-25T14:35:24Z</time>
      </trkpt>
      <trkpt lat="46.88983" lon="12.1929">
        <ele>1856.92</ele>
        <time>2015-02-25T14:35:25Z</time>
      </trkpt>
      <trkpt lat="46.88977" lon="12.19282">
        <ele>1854.52</ele>
        <time>2015-02-25T14:35:27Z</time>
      </trkpt>
      <trkpt lat="46.88971" lon="12.19278">
        <ele>1854.04</ele>
        <time>2015-02-25T14:35:28Z</time>
      </trkpt>
      <trkpt lat="46.88951" lon="12.19266">
        <ele>1851.16</ele>
        <time>2015-02-25T14:35:31Z</time>
      </trkpt>
      <trkpt lat="46.88944" lon="12.19263">
        <ele>1850.19</ele>
        <time>2015-02-25T14:35:32Z</time>
      </trkpt>
      <trkpt lat="46.88931" lon="12.19256">
        <ele>1849.23</ele>
        <time>2015-02-25T14:35:34Z</time>
      </trkpt>
      <trkpt lat="46.88921" lon="12.19246">
        <ele>1848.27</ele>
        <time>2015-02-25T14:35:36Z</time>
      </trkpt>
      <trkpt lat="46.88917" lon="12.19229">
        <ele>1846.35</ele>
        <time>2015-02-25T14:35:40Z</time>
      </trkpt>
      <trkpt lat="46.88914" lon="12.19229">
        <ele>1845.87</ele>
        <time>2015-02-25T14:35:42Z</time>
      </trkpt>
      <trkpt lat="46.88911" lon="12.1923">
        <ele>1844.43</ele>
        <time>2015-02-25T14:35:46Z</time>
      </trkpt>
      <trkpt lat="46.88937" lon="12.19232">
        <ele>1842.98</ele>
        <time>2015-02-25T14:35:51Z</time>
      </trkpt>
      <trkpt lat="46.88968" lon="12.19225">
        <ele>1840.1</ele>
        <time>2015-02-25T14:35:56Z</time>
      </trkpt>
      <trkpt lat="46.88986" lon="12.19216">
        <ele>1838.66</ele>
        <time>2015-02-25T14:35:59Z</time>
      </trkpt>
      <trkpt lat="46.89009" lon="12.1919">
        <ele>1836.74</ele>
        <time>2015-02-25T14:36:04Z</time>
      </trkpt>
      <trkpt lat="46.8902" lon="12.19171">
        <ele>1834.81</ele>
        <time>2015-02-25T14:36:07Z</time>
      </trkpt>
      <trkpt lat="46.89025" lon="12.19165">
        <ele>1833.85</ele>
        <time>2015-02-25T14:36:08Z</time>
      </trkpt>
      <trkpt lat="46.89052" lon="12.19111">
        <ele>1830.49</ele>
        <time>2015-02-25T14:36:16Z</time>
      </trkpt>
      <trkpt lat="46.89064" lon="12.19061">
        <ele>1828.08</ele>
        <time>2015-02-25T14:36:22Z</time>
      </trkpt>
      <trkpt lat="46.8908" lon="12.19">
        <ele>1824.24</ele>
        <time>2015-02-25T14:36:30Z</time>
      </trkpt>
      <trkpt lat="46.89092" lon="12.18969">
        <ele>1821.35</ele>
        <time>2015-02-25T14:36:34Z</time>
      </trkpt>
      <trkpt lat="46.89112" lon="12.18937">
        <ele>1819.43</ele>
        <time>2015-02-25T14:36:39Z</time>
      </trkpt>
      <trkpt lat="46.89152" lon="12.18953">
        <ele>1817.99</ele>
        <time>2015-02-25T14:36:46Z</time>
      </trkpt>
      <trkpt lat="46.8915" lon="12.18882">
        <ele>1817.51</ele>
        <time>2015-02-25T14:36:51Z</time>
      </trkpt>
      <trkpt lat="46.89146" lon="12.18879">
        <ele>1817.51</ele>
        <time>2015-02-25T14:36:52Z</time>
      </trkpt>
      <trkpt lat="46.89131" lon="12.18859">
        <ele>1816.07</ele>
        <time>2015-02-25T14:36:57Z</time>
      </trkpt>
      <trkpt lat="46.89129" lon="12.18854">
        <ele>1815.11</ele>
        <time>2015-02-25T14:36:58Z</time>
      </trkpt>
      <trkpt lat="46.89126" lon="12.18849">
        <ele>1815.11</ele>
        <time>2015-02-25T14:36:59Z</time>
      </trkpt>
      <trkpt lat="46.89124" lon="12.18843">
        <ele>1814.63</ele>
        <time>2015-02-25T14:37:00Z</time>
      </trkpt>
      <trkpt lat="46.89122" lon="12.18837">
        <ele>1814.15</ele>
        <time>2015-02-25T14:37:01Z</time>
      </trkpt>
      <trkpt lat="46.8912" lon="12.18831">
        <ele>1813.66</ele>
        <time>2015-02-25T14:37:02Z</time>
      </trkpt>
      <trkpt lat="46.89118" lon="12.18824">
        <ele>1813.18</ele>
        <time>2015-02-25T14:37:03Z</time>
      </trkpt>
      <trkpt lat="46.89117" lon="12.18817">
        <ele>1812.22</ele>
        <time>2015-02-25T14:37:04Z</time>
      </trkpt>
      <trkpt lat="46.89116" lon="12.1881">
        <ele>1811.74</ele>
        <time>2015-02-25T14:37:05Z</time>
      </trkpt>
      <trkpt lat="46.89115" lon="12.18804">
        <ele>1811.26</ele>
        <time>2015-02-25T14:37:06Z</time>
      </trkpt>
      <trkpt lat="46.89116" lon="12.18799">
        <ele>1811.74</ele>
        <time>2015-02-25T14:37:07Z</time>
      </trkpt>
      <trkpt lat="46.89116" lon="12.18794">
        <ele>1810.3</ele>
        <time>2015-02-25T14:37:08Z</time>
      </trkpt>
      <trkpt lat="46.89117" lon="12.1879">
        <ele>1810.3</ele>
        <time>2015-02-25T14:37:09Z</time>
      </trkpt>
      <trkpt lat="46.8912" lon="12.18796">
        <ele>1810.78</ele>
        <time>2015-02-25T14:37:22Z</time>
      </trkpt>
      <trkpt lat="46.89117" lon="12.18794">
        <ele>1810.3</ele>
        <time>2015-02-25T14:37:25Z</time>
      </trkpt>
      <trkpt lat="46.89116" lon="12.18792">
        <ele>1810.3</ele>
        <time>2015-02-25T14:37:26Z</time>
      </trkpt>
      <trkpt lat="46.89115" lon="12.18789">
        <ele>1809.82</ele>
        <time>2015-02-25T14:37:27Z</time>
      </trkpt>
      <trkpt lat="46.89115" lon="12.18785">
        <ele>1808.86</ele>
        <time>2015-02-25T14:37:28Z</time>
      </trkpt>
      <trkpt lat="46.89115" lon="12.1878">
        <ele>1808.86</ele>
        <time>2015-02-25T14:37:29Z</time>
      </trkpt>
      <trkpt lat="46.89116" lon="12.18775">
        <ele>1808.38</ele>
        <time>2015-02-25T14:37:30Z</time>
      </trkpt>
      <trkpt lat="46.89116" lon="12.18769">
        <ele>1807.42</ele>
        <time>2015-02-25T14:37:31Z</time>
      </trkpt>
      <trkpt lat="46.89115" lon="12.18763">
        <ele>1807.42</ele>
        <time>2015-02-25T14:37:32Z</time>
      </trkpt>
      <trkpt lat="46.89115" lon="12.18757">
        <ele>1807.42</ele>
        <time>2015-02-25T14:37:33Z</time>
      </trkpt>
      <trkpt lat="46.89116" lon="12.1875">
        <ele>1805.01</ele>
        <time>2015-02-25T14:37:34Z</time>
      </trkpt>
      <trkpt lat="46.89116" lon="12.18743">
        <ele>1805.49</ele>
        <time>2015-02-25T14:37:35Z</time>
      </trkpt>
      <trkpt lat="46.89116" lon="12.18736">
        <ele>1804.53</ele>
        <time>2015-02-25T14:37:36Z</time>
      </trkpt>
      <trkpt lat="46.89117" lon="12.18728">
        <ele>1803.57</ele>
        <time>2015-02-25T14:37:37Z</time>
      </trkpt>
      <trkpt lat="46.89119" lon="12.18722">
        <ele>1803.09</ele>
        <time>2015-02-25T14:37:38Z</time>
      </trkpt>
      <trkpt lat="46.8912" lon="12.18715">
        <ele>1802.61</ele>
        <time>2015-02-25T14:37:39Z</time>
      </trkpt>
      <trkpt lat="46.89121" lon="12.18707">
        <ele>1801.17</ele>
        <time>2015-02-25T14:37:40Z</time>
      </trkpt>
      <trkpt lat="46.89121" lon="12.187">
        <ele>1801.65</ele>
        <time>2015-02-25T14:37:41Z</time>
      </trkpt>
      <trkpt lat="46.89119" lon="12.18692">
        <ele>1801.17</ele>
        <time>2015-02-25T14:37:42Z</time>
      </trkpt>
      <trkpt lat="46.89118" lon="12.18685">
        <ele>1799.73</ele>
        <time>2015-02-25T14:37:43Z</time>
      </trkpt>
      <trkpt lat="46.89117" lon="12.18677">
        <ele>1799.73</ele>
        <time>2015-02-25T14:37:44Z</time>
      </trkpt>
      <trkpt lat="46.89112" lon="12.18655">
        <ele>1797.8</ele>
        <time>2015-02-25T14:37:47Z</time>
      </trkpt>
      <trkpt lat="46.89112" lon="12.18647">
        <ele>1796.36</ele>
        <time>2015-02-25T14:37:48Z</time>
      </trkpt>
      <trkpt lat="46.89112" lon="12.18639">
        <ele>1795.4</ele>
        <time>2015-02-25T14:37:49Z</time>
      </trkpt>
      <trkpt lat="46.89111" lon="12.1863">
        <ele>1795.4</ele>
        <time>2015-02-25T14:37:50Z</time>
      </trkpt>
      <trkpt lat="46.89111" lon="12.18621">
        <ele>1793.96</ele>
        <time>2015-02-25T14:37:51Z</time>
      </trkpt>
      <trkpt lat="46.8911" lon="12.18612">
        <ele>1793</ele>
        <time>2015-02-25T14:37:52Z</time>
      </trkpt>
      <trkpt lat="46.89109" lon="12.18603">
        <ele>1793.48</ele>
        <time>2015-02-25T14:37:53Z</time>
      </trkpt>
      <trkpt lat="46.89108" lon="12.18594">
        <ele>1792.03</ele>
        <time>2015-02-25T14:37:54Z</time>
      </trkpt>
      <trkpt lat="46.89107" lon="12.18585">
        <ele>1790.59</ele>
        <time>2015-02-25T14:37:55Z</time>
      </trkpt>
      <trkpt lat="46.89107" lon="12.18576">
        <ele>1791.07</ele>
        <time>2015-02-25T14:37:56Z</time>
      </trkpt>
      <trkpt lat="46.89108" lon="12.18568">
        <ele>1790.11</ele>
        <time>2015-02-25T14:37:57Z</time>
      </trkpt>
      <trkpt lat="46.89114" lon="12.18534">
        <ele>1787.71</ele>
        <time>2015-02-25T14:38:01Z</time>
      </trkpt>
      <trkpt lat="46.89114" lon="12.18528">
        <ele>1787.71</ele>
        <time>2015-02-25T14:38:02Z</time>
      </trkpt>
      <trkpt lat="46.89113" lon="12.18523">
        <ele>1787.23</ele>
        <time>2015-02-25T14:38:03Z</time>
      </trkpt>
      <trkpt lat="46.89111" lon="12.18518">
        <ele>1786.27</ele>
        <time>2015-02-25T14:38:04Z</time>
      </trkpt>
      <trkpt lat="46.89108" lon="12.18515">
        <ele>1786.75</ele>
        <time>2015-02-25T14:38:05Z</time>
      </trkpt>
      <trkpt lat="46.89106" lon="12.18514">
        <ele>1788.67</ele>
        <time>2015-02-25T14:38:06Z</time>
      </trkpt>
      <trkpt lat="46.89103" lon="12.18515">
        <ele>1786.75</ele>
        <time>2015-02-25T14:38:07Z</time>
      </trkpt>
      <trkpt lat="46.891" lon="12.1852">
        <ele>1785.79</ele>
        <time>2015-02-25T14:38:09Z</time>
      </trkpt>
      <trkpt lat="46.89088" lon="12.18576">
        <ele>1782.42</ele>
        <time>2015-02-25T14:38:18Z</time>
      </trkpt>
      <trkpt lat="46.89081" lon="12.18588">
        <ele>1781.94</ele>
        <time>2015-02-25T14:38:20Z</time>
      </trkpt>
      <trkpt lat="46.89058" lon="12.18622">
        <ele>1778.58</ele>
        <time>2015-02-25T14:38:27Z</time>
      </trkpt>
      <trkpt lat="46.8904" lon="12.18659">
        <ele>1775.69</ele>
        <time>2015-02-25T14:38:34Z</time>
      </trkpt>
      <trkpt lat="46.89033" lon="12.18673">
        <ele>1774.73</ele>
        <time>2015-02-25T14:38:36Z</time>
      </trkpt>
      <trkpt lat="46.89029" lon="12.18679">
        <ele>1773.77</ele>
        <time>2015-02-25T14:38:37Z</time>
      </trkpt>
      <trkpt lat="46.89024" lon="12.18684">
        <ele>1773.77</ele>
        <time>2015-02-25T14:38:38Z</time>
      </trkpt>
      <trkpt lat="46.89018" lon="12.18688">
        <ele>1772.81</ele>
        <time>2015-02-25T14:38:39Z</time>
      </trkpt>
      <trkpt lat="46.89007" lon="12.18695">
        <ele>1770.89</ele>
        <time>2015-02-25T14:38:41Z</time>
      </trkpt>
      <trkpt lat="46.89002" lon="12.18699">
        <ele>1770.89</ele>
        <time>2015-02-25T14:38:42Z</time>
      </trkpt>
      <trkpt lat="46.88987" lon="12.18712">
        <ele>1768.96</ele>
        <time>2015-02-25T14:38:45Z</time>
      </trkpt>
      <trkpt lat="46.88977" lon="12.18721">
        <ele>1767.52</ele>
        <time>2015-02-25T14:38:47Z</time>
      </trkpt>
      <trkpt lat="46.88972" lon="12.18726">
        <ele>1767.04</ele>
        <time>2015-02-25T14:38:48Z</time>
      </trkpt>
      <trkpt lat="46.88969" lon="12.18733">
        <ele>1766.56</ele>
        <time>2015-02-25T14:38:49Z</time>
      </trkpt>
      <trkpt lat="46.88965" lon="12.18739">
        <ele>1766.08</ele>
        <time>2015-02-25T14:38:50Z</time>
      </trkpt>
      <trkpt lat="46.88961" lon="12.18744">
        <ele>1765.12</ele>
        <time>2015-02-25T14:38:51Z</time>
      </trkpt>
      <trkpt lat="46.88957" lon="12.1875">
        <ele>1764.16</ele>
        <time>2015-02-25T14:38:52Z</time>
      </trkpt>
      <trkpt lat="46.88955" lon="12.18757">
        <ele>1764.64</ele>
        <time>2015-02-25T14:38:53Z</time>
      </trkpt>
      <trkpt lat="46.8895" lon="12.18768">
        <ele>1763.68</ele>
        <time>2015-02-25T14:38:55Z</time>
      </trkpt>
      <trkpt lat="46.8894" lon="12.18782">
        <ele>1763.2</ele>
        <time>2015-02-25T14:38:58Z</time>
      </trkpt>
      <trkpt lat="46.88936" lon="12.18784">
        <ele>1763.2</ele>
        <time>2015-02-25T14:38:59Z</time>
      </trkpt>
      <trkpt lat="46.88932" lon="12.18784">
        <ele>1763.2</ele>
        <time>2015-02-25T14:39:00Z</time>
      </trkpt>
      <trkpt lat="46.88928" lon="12.18782">
        <ele>1762.71</ele>
        <time>2015-02-25T14:39:01Z</time>
      </trkpt>
      <trkpt lat="46.88925" lon="12.18778">
        <ele>1762.23</ele>
        <time>2015-02-25T14:39:02Z</time>
      </trkpt>
      <trkpt lat="46.88922" lon="12.18772">
        <ele>1761.75</ele>
        <time>2015-02-25T14:39:03Z</time>
      </trkpt>
      <trkpt lat="46.88921" lon="12.18766">
        <ele>1761.27</ele>
        <time>2015-02-25T14:39:04Z</time>
      </trkpt>
      <trkpt lat="46.88921" lon="12.18758">
        <ele>1761.27</ele>
        <time>2015-02-25T14:39:05Z</time>
      </trkpt>
      <trkpt lat="46.88921" lon="12.18751">
        <ele>1759.83</ele>
        <time>2015-02-25T14:39:06Z</time>
      </trkpt>
      <trkpt lat="46.88921" lon="12.18743">
        <ele>1759.35</ele>
        <time>2015-02-25T14:39:07Z</time>
      </trkpt>
      <trkpt lat="46.88919" lon="12.18711">
        <ele>1756.47</ele>
        <time>2015-02-25T14:39:11Z</time>
      </trkpt>
      <trkpt lat="46.88919" lon="12.18695">
        <ele>1755.02</ele>
        <time>2015-02-25T14:39:13Z</time>
      </trkpt>
      <trkpt lat="46.88918" lon="12.18687">
        <ele>1754.54</ele>
        <time>2015-02-25T14:39:14Z</time>
      </trkpt>
      <trkpt lat="46.88919" lon="12.18673">
        <ele>1754.06</ele>
        <time>2015-02-25T14:39:16Z</time>
      </trkpt>
      <trkpt lat="46.88918" lon="12.18667">
        <ele>1753.58</ele>
        <time>2015-02-25T14:39:17Z</time>
      </trkpt>
      <trkpt lat="46.88918" lon="12.18644">
        <ele>1750.7</ele>
        <time>2015-02-25T14:39:21Z</time>
      </trkpt>
      <trkpt lat="46.88918" lon="12.18639">
        <ele>1750.22</ele>
        <time>2015-02-25T14:39:22Z</time>
      </trkpt>
      <trkpt lat="46.88918" lon="12.18621">
        <ele>1748.29</ele>
        <time>2015-02-25T14:39:25Z</time>
      </trkpt>
      <trkpt lat="46.88916" lon="12.18591">
        <ele>1746.37</ele>
        <time>2015-02-25T14:39:30Z</time>
      </trkpt>
      <trkpt lat="46.88921" lon="12.18593">
        <ele>1745.89</ele>
        <time>2015-02-25T14:39:42Z</time>
      </trkpt>
      <trkpt lat="46.88921" lon="12.18589">
        <ele>1745.41</ele>
        <time>2015-02-25T14:39:45Z</time>
      </trkpt>
      <trkpt lat="46.8892" lon="12.18586">
        <ele>1745.41</ele>
        <time>2015-02-25T14:39:46Z</time>
      </trkpt>
      <trkpt lat="46.88921" lon="12.18542">
        <ele>1742.05</ele>
        <time>2015-02-25T14:39:56Z</time>
      </trkpt>
      <trkpt lat="46.88921" lon="12.18521">
        <ele>1740.6</ele>
        <time>2015-02-25T14:39:59Z</time>
      </trkpt>
      <trkpt lat="46.88921" lon="12.18513">
        <ele>1739.16</ele>
        <time>2015-02-25T14:40:00Z</time>
      </trkpt>
      <trkpt lat="46.88921" lon="12.18504">
        <ele>1738.68</ele>
        <time>2015-02-25T14:40:01Z</time>
      </trkpt>
      <trkpt lat="46.8892" lon="12.18496">
        <ele>1738.2</ele>
        <time>2015-02-25T14:40:02Z</time>
      </trkpt>
      <trkpt lat="46.88918" lon="12.18488">
        <ele>1737.24</ele>
        <time>2015-02-25T14:40:03Z</time>
      </trkpt>
      <trkpt lat="46.88917" lon="12.1848">
        <ele>1736.28</ele>
        <time>2015-02-25T14:40:04Z</time>
      </trkpt>
      <trkpt lat="46.88912" lon="12.18465">
        <ele>1736.28</ele>
        <time>2015-02-25T14:40:06Z</time>
      </trkpt>
      <trkpt lat="46.88911" lon="12.18454">
        <ele>1735.8</ele>
        <time>2015-02-25T14:40:07Z</time>
      </trkpt>
      <trkpt lat="46.88908" lon="12.18446">
        <ele>1734.36</ele>
        <time>2015-02-25T14:40:08Z</time>
      </trkpt>
      <trkpt lat="46.88906" lon="12.18437">
        <ele>1732.91</ele>
        <time>2015-02-25T14:40:09Z</time>
      </trkpt>
      <trkpt lat="46.889" lon="12.1841">
        <ele>1729.55</ele>
        <time>2015-02-25T14:40:12Z</time>
      </trkpt>
      <trkpt lat="46.88898" lon="12.18402">
        <ele>1729.55</ele>
        <time>2015-02-25T14:40:13Z</time>
      </trkpt>
      <trkpt lat="46.88896" lon="12.18393">
        <ele>1728.59</ele>
        <time>2015-02-25T14:40:14Z</time>
      </trkpt>
      <trkpt lat="46.88889" lon="12.18364">
        <ele>1725.7</ele>
        <time>2015-02-25T14:40:17Z</time>
      </trkpt>
      <trkpt lat="46.88888" lon="12.18356">
        <ele>1724.74</ele>
        <time>2015-02-25T14:40:18Z</time>
      </trkpt>
      <trkpt lat="46.88884" lon="12.1834">
        <ele>1723.78</ele>
        <time>2015-02-25T14:40:20Z</time>
      </trkpt>
      <trkpt lat="46.88882" lon="12.18331">
        <ele>1722.34</ele>
        <time>2015-02-25T14:40:21Z</time>
      </trkpt>
      <trkpt lat="46.88879" lon="12.18323">
        <ele>1721.38</ele>
        <time>2015-02-25T14:40:22Z</time>
      </trkpt>
      <trkpt lat="46.88878" lon="12.18316">
        <ele>1720.9</ele>
        <time>2015-02-25T14:40:23Z</time>
      </trkpt>
      <trkpt lat="46.88876" lon="12.18309">
        <ele>1719.94</ele>
        <time>2015-02-25T14:40:24Z</time>
      </trkpt>
      <trkpt lat="46.88875" lon="12.18302">
        <ele>1719.94</ele>
        <time>2015-02-25T14:40:25Z</time>
      </trkpt>
      <trkpt lat="46.88874" lon="12.18295">
        <ele>1719.46</ele>
        <time>2015-02-25T14:40:26Z</time>
      </trkpt>
      <trkpt lat="46.88874" lon="12.1829">
        <ele>1718.97</ele>
        <time>2015-02-25T14:40:27Z</time>
      </trkpt>
      <trkpt lat="46.88875" lon="12.18285">
        <ele>1718.49</ele>
        <time>2015-02-25T14:40:28Z</time>
      </trkpt>
      <trkpt lat="46.88876" lon="12.1828">
        <ele>1718.49</ele>
        <time>2015-02-25T14:40:29Z</time>
      </trkpt>
      <trkpt lat="46.88877" lon="12.18275">
        <ele>1718.01</ele>
        <time>2015-02-25T14:40:30Z</time>
      </trkpt>
      <trkpt lat="46.8889" lon="12.18236">
        <ele>1714.65</ele>
        <time>2015-02-25T14:40:38Z</time>
      </trkpt>
      <trkpt lat="46.88892" lon="12.18225">
        <ele>1711.28</ele>
        <time>2015-02-25T14:40:40Z</time>
      </trkpt>
      <trkpt lat="46.88892" lon="12.18221">
        <ele>1716.09</ele>
        <time>2015-02-25T14:40:41Z</time>
      </trkpt>
      <trkpt lat="46.88892" lon="12.18212">
        <ele>1713.21</ele>
        <time>2015-02-25T14:40:43Z</time>
      </trkpt>
      <trkpt lat="46.88892" lon="12.18207">
        <ele>1713.21</ele>
        <time>2015-02-25T14:40:44Z</time>
      </trkpt>
      <trkpt lat="46.88892" lon="12.18193">
        <ele>1711.76</ele>
        <time>2015-02-25T14:40:47Z</time>
      </trkpt>
      <trkpt lat="46.88892" lon="12.18183">
        <ele>1710.32</ele>
        <time>2015-02-25T14:40:49Z</time>
      </trkpt>
      <trkpt lat="46.88889" lon="12.18151">
        <ele>1706.48</ele>
        <time>2015-02-25T14:40:55Z</time>
      </trkpt>
      <trkpt lat="46.88886" lon="12.18119">
        <ele>1703.11</ele>
        <time>2015-02-25T14:41:00Z</time>
      </trkpt>
      <trkpt lat="46.8888" lon="12.18107">
        <ele>1701.19</ele>
        <time>2015-02-25T14:41:01Z</time>
      </trkpt>
      <trkpt lat="46.88875" lon="12.18098">
        <ele>1701.19</ele>
        <time>2015-02-25T14:41:02Z</time>
      </trkpt>
      <trkpt lat="46.88871" lon="12.18088">
        <ele>1700.71</ele>
        <time>2015-02-25T14:41:03Z</time>
      </trkpt>
      <trkpt lat="46.88866" lon="12.18078">
        <ele>1699.27</ele>
        <time>2015-02-25T14:41:04Z</time>
      </trkpt>
      <trkpt lat="46.88858" lon="12.18059">
        <ele>1697.34</ele>
        <time>2015-02-25T14:41:06Z</time>
      </trkpt>
      <trkpt lat="46.88855" lon="12.1805">
        <ele>1696.38</ele>
        <time>2015-02-25T14:41:07Z</time>
      </trkpt>
      <trkpt lat="46.88852" lon="12.18041">
        <ele>1695.9</ele>
        <time>2015-02-25T14:41:08Z</time>
      </trkpt>
      <trkpt lat="46.88849" lon="12.18033">
        <ele>1695.42</ele>
        <time>2015-02-25T14:41:09Z</time>
      </trkpt>
      <trkpt lat="46.88846" lon="12.18026">
        <ele>1694.46</ele>
        <time>2015-02-25T14:41:10Z</time>
      </trkpt>
      <trkpt lat="46.88843" lon="12.1802">
        <ele>1693.5</ele>
        <time>2015-02-25T14:41:11Z</time>
      </trkpt>
      <trkpt lat="46.8884" lon="12.18013">
        <ele>1693.5</ele>
        <time>2015-02-25T14:41:12Z</time>
      </trkpt>
      <trkpt lat="46.88837" lon="12.18007">
        <ele>1692.54</ele>
        <time>2015-02-25T14:41:13Z</time>
      </trkpt>
      <trkpt lat="46.88821" lon="12.17974">
        <ele>1689.65</ele>
        <time>2015-02-25T14:41:19Z</time>
      </trkpt>
      <trkpt lat="46.88818" lon="12.17968">
        <ele>1688.69</ele>
        <time>2015-02-25T14:41:20Z</time>
      </trkpt>
      <trkpt lat="46.88814" lon="12.17962">
        <ele>1688.21</ele>
        <time>2015-02-25T14:41:21Z</time>
      </trkpt>
      <trkpt lat="46.88812" lon="12.17957">
        <ele>1687.73</ele>
        <time>2015-02-25T14:41:22Z</time>
      </trkpt>
      <trkpt lat="46.8881" lon="12.1795">
        <ele>1686.77</ele>
        <time>2015-02-25T14:41:23Z</time>
      </trkpt>
      <trkpt lat="46.88807" lon="12.17945">
        <ele>1686.77</ele>
        <time>2015-02-25T14:41:24Z</time>
      </trkpt>
      <trkpt lat="46.88806" lon="12.1794">
        <ele>1686.29</ele>
        <time>2015-02-25T14:41:25Z</time>
      </trkpt>
      <trkpt lat="46.88804" lon="12.17934">
        <ele>1685.81</ele>
        <time>2015-02-25T14:41:26Z</time>
      </trkpt>
      <trkpt lat="46.88803" lon="12.17928">
        <ele>1684.85</ele>
        <time>2015-02-25T14:41:27Z</time>
      </trkpt>
      <trkpt lat="46.88802" lon="12.17923">
        <ele>1684.37</ele>
        <time>2015-02-25T14:41:28Z</time>
      </trkpt>
      <trkpt lat="46.88801" lon="12.17918">
        <ele>1684.37</ele>
        <time>2015-02-25T14:41:29Z</time>
      </trkpt>
      <trkpt lat="46.888" lon="12.17912">
        <ele>1683.41</ele>
        <time>2015-02-25T14:41:30Z</time>
      </trkpt>
      <trkpt lat="46.88798" lon="12.17907">
        <ele>1682.93</ele>
        <time>2015-02-25T14:41:31Z</time>
      </trkpt>
      <trkpt lat="46.88797" lon="12.17902">
        <ele>1682.93</ele>
        <time>2015-02-25T14:41:32Z</time>
      </trkpt>
      <trkpt lat="46.88796" lon="12.17897">
        <ele>1682.44</ele>
        <time>2015-02-25T14:41:33Z</time>
      </trkpt>
      <trkpt lat="46.88794" lon="12.17892">
        <ele>1681.48</ele>
        <time>2015-02-25T14:41:34Z</time>
      </trkpt>
      <trkpt lat="46.88792" lon="12.17888">
        <ele>1681.48</ele>
        <time>2015-02-25T14:41:35Z</time>
      </trkpt>
      <trkpt lat="46.88792" lon="12.17883">
        <ele>1681</ele>
        <time>2015-02-25T14:41:36Z</time>
      </trkpt>
      <trkpt lat="46.8879" lon="12.17872">
        <ele>1680.04</ele>
        <time>2015-02-25T14:41:38Z</time>
      </trkpt>
      <trkpt lat="46.88789" lon="12.17865">
        <ele>1679.56</ele>
        <time>2015-02-25T14:41:39Z</time>
      </trkpt>
      <trkpt lat="46.88789" lon="12.17859">
        <ele>1678.6</ele>
        <time>2015-02-25T14:41:40Z</time>
      </trkpt>
      <trkpt lat="46.88788" lon="12.17852">
        <ele>1678.6</ele>
        <time>2015-02-25T14:41:41Z</time>
      </trkpt>
      <trkpt lat="46.88788" lon="12.1784">
        <ele>1677.64</ele>
        <time>2015-02-25T14:41:43Z</time>
      </trkpt>
      <trkpt lat="46.88788" lon="12.17833">
        <ele>1677.16</ele>
        <time>2015-02-25T14:41:44Z</time>
      </trkpt>
      <trkpt lat="46.88788" lon="12.17827">
        <ele>1677.16</ele>
        <time>2015-02-25T14:41:45Z</time>
      </trkpt>
      <trkpt lat="46.88787" lon="12.17821">
        <ele>1676.68</ele>
        <time>2015-02-25T14:41:46Z</time>
      </trkpt>
      <trkpt lat="46.88787" lon="12.17814">
        <ele>1676.68</ele>
        <time>2015-02-25T14:41:47Z</time>
      </trkpt>
      <trkpt lat="46.88787" lon="12.17809">
        <ele>1676.2</ele>
        <time>2015-02-25T14:41:48Z</time>
      </trkpt>
      <trkpt lat="46.88787" lon="12.17804">
        <ele>1676.2</ele>
        <time>2015-02-25T14:41:49Z</time>
      </trkpt>
      <trkpt lat="46.88786" lon="12.17799">
        <ele>1676.2</ele>
        <time>2015-02-25T14:41:50Z</time>
      </trkpt>
      <trkpt lat="46.88784" lon="12.1776">
        <ele>1674.27</ele>
        <time>2015-02-25T14:41:57Z</time>
      </trkpt>
      <trkpt lat="46.88785" lon="12.17753">
        <ele>1673.79</ele>
        <time>2015-02-25T14:41:58Z</time>
      </trkpt>
      <trkpt lat="46.88786" lon="12.17746">
        <ele>1672.83</ele>
        <time>2015-02-25T14:41:59Z</time>
      </trkpt>
      <trkpt lat="46.88786" lon="12.17738">
        <ele>1672.35</ele>
        <time>2015-02-25T14:42:00Z</time>
      </trkpt>
      <trkpt lat="46.88787" lon="12.1773">
        <ele>1672.35</ele>
        <time>2015-02-25T14:42:01Z</time>
      </trkpt>
      <trkpt lat="46.88788" lon="12.1772">
        <ele>1671.39</ele>
        <time>2015-02-25T14:42:02Z</time>
      </trkpt>
      <trkpt lat="46.88789" lon="12.17711">
        <ele>1668.99</ele>
        <time>2015-02-25T14:42:03Z</time>
      </trkpt>
      <trkpt lat="46.88789" lon="12.17702">
        <ele>1671.39</ele>
        <time>2015-02-25T14:42:04Z</time>
      </trkpt>
      <trkpt lat="46.88788" lon="12.17693">
        <ele>1669.95</ele>
        <time>2015-02-25T14:42:05Z</time>
      </trkpt>
      <trkpt lat="46.88787" lon="12.17681">
        <ele>1669.47</ele>
        <time>2015-02-25T14:42:06Z</time>
      </trkpt>
      <trkpt lat="46.88782" lon="12.1764">
        <ele>1666.1</ele>
        <time>2015-02-25T14:42:12Z</time>
      </trkpt>
      <trkpt lat="46.88778" lon="12.17606">
        <ele>1664.66</ele>
        <time>2015-02-25T14:42:17Z</time>
      </trkpt>
      <trkpt lat="46.88777" lon="12.17598">
        <ele>1664.18</ele>
        <time>2015-02-25T14:42:18Z</time>
      </trkpt>
      <trkpt lat="46.88774" lon="12.17575">
        <ele>1662.74</ele>
        <time>2015-02-25T14:42:21Z</time>
      </trkpt>
      <trkpt lat="46.8877" lon="12.17559">
        <ele>1661.78</ele>
        <time>2015-02-25T14:42:23Z</time>
      </trkpt>
      <trkpt lat="46.88769" lon="12.17552">
        <ele>1660.81</ele>
        <time>2015-02-25T14:42:24Z</time>
      </trkpt>
      <trkpt lat="46.88767" lon="12.17546">
        <ele>1660.33</ele>
        <time>2015-02-25T14:42:25Z</time>
      </trkpt>
      <trkpt lat="46.88764" lon="12.17541">
        <ele>1660.33</ele>
        <time>2015-02-25T14:42:26Z</time>
      </trkpt>
      <trkpt lat="46.88763" lon="12.17535">
        <ele>1659.85</ele>
        <time>2015-02-25T14:42:27Z</time>
      </trkpt>
      <trkpt lat="46.88762" lon="12.1753">
        <ele>1658.89</ele>
        <time>2015-02-25T14:42:28Z</time>
      </trkpt>
      <trkpt lat="46.8876" lon="12.17526">
        <ele>1658.41</ele>
        <time>2015-02-25T14:42:29Z</time>
      </trkpt>
      <trkpt lat="46.88758" lon="12.17522">
        <ele>1658.41</ele>
        <time>2015-02-25T14:42:30Z</time>
      </trkpt>
      <trkpt lat="46.88757" lon="12.17518">
        <ele>1658.41</ele>
        <time>2015-02-25T14:42:31Z</time>
      </trkpt>
      <trkpt lat="46.88765" lon="12.17543">
        <ele>1658.89</ele>
        <time>2015-02-25T14:42:44Z</time>
      </trkpt>
      <trkpt lat="46.88771" lon="12.17551">
        <ele>1659.37</ele>
        <time>2015-02-25T14:43:13Z</time>
      </trkpt>
      <trkpt lat="46.88763" lon="12.17549">
        <ele>1658.89</ele>
        <time>2015-02-25T14:43:31Z</time>
      </trkpt>
      <trkpt lat="46.88736" lon="12.17499">
        <ele>1656.97</ele>
        <time>2015-02-25T14:43:50Z</time>
      </trkpt>
      <trkpt lat="46.88709" lon="12.17438">
        <ele>1654.09</ele>
        <time>2015-02-25T14:44:04Z</time>
      </trkpt>
      <trkpt lat="46.88691" lon="12.17366">
        <ele>1650.72</ele>
        <time>2015-02-25T14:44:16Z</time>
      </trkpt>
      <trkpt lat="46.88687" lon="12.17327">
        <ele>1649.76</ele>
        <time>2015-02-25T14:44:29Z</time>
      </trkpt>
      <trkpt lat="46.88686" lon="12.1732">
        <ele>1649.76</ele>
        <time>2015-02-25T14:44:38Z</time>
      </trkpt>
      <trkpt lat="46.88687" lon="12.17307">
        <ele>1649.28</ele>
        <time>2015-02-25T14:44:43Z</time>
      </trkpt>
      <trkpt lat="46.88688" lon="12.17305">
        <ele>1649.28</ele>
        <time>2015-02-25T14:44:44Z</time>
      </trkpt>
      <trkpt lat="46.88688" lon="12.17302">
        <ele>1649.28</ele>
        <time>2015-02-25T14:44:45Z</time>
      </trkpt>
      <trkpt lat="46.88689" lon="12.17299">
        <ele>1648.8</ele>
        <time>2015-02-25T14:44:46Z</time>
      </trkpt>
      <trkpt lat="46.88688" lon="12.17295">
        <ele>1648.8</ele>
        <time>2015-02-25T14:44:47Z</time>
      </trkpt>
      <trkpt lat="46.88677" lon="12.17238">
        <ele>1646.88</ele>
        <time>2015-02-25T14:45:02Z</time>
      </trkpt>
      <trkpt lat="46.88657" lon="12.17175">
        <ele>1645.43</ele>
        <time>2015-02-25T14:45:19Z</time>
      </trkpt>
      <trkpt lat="46.88634" lon="12.17132">
        <ele>1644.47</ele>
        <time>2015-02-25T14:45:34Z</time>
      </trkpt>
      <trkpt lat="46.88612" lon="12.17092">
        <ele>1644.47</ele>
        <time>2015-02-25T14:45:52Z</time>
      </trkpt>
      <trkpt lat="46.88586" lon="12.17046">
        <ele>1644.47</ele>
        <time>2015-02-25T14:46:15Z</time>
      </trkpt>
      <trkpt lat="46.88573" lon="12.17024">
        <ele>1644.47</ele>
        <time>2015-02-25T14:46:32Z</time>
      </trkpt>
      <trkpt lat="46.88562" lon="12.17008">
        <ele>1644.47</ele>
        <time>2015-02-25T14:46:49Z</time>
      </trkpt>
      <trkpt lat="46.88554" lon="12.16994">
        <ele>1644.47</ele>
        <time>2015-02-25T14:47:03Z</time>
      </trkpt>
      <trkpt lat="46.88545" lon="12.16977">
        <ele>1643.99</ele>
        <time>2015-02-25T14:47:17Z</time>
      </trkpt>
      <trkpt lat="46.88535" lon="12.16959">
        <ele>1643.99</ele>
        <time>2015-02-25T14:47:31Z</time>
      </trkpt>
      <trkpt lat="46.88526" lon="12.16939">
        <ele>1643.99</ele>
        <time>2015-02-25T14:47:46Z</time>
      </trkpt>
      <trkpt lat="46.88514" lon="12.16919">
        <ele>1644.47</ele>
        <time>2015-02-25T14:48:03Z</time>
      </trkpt>
      <trkpt lat="46.88503" lon="12.169">
        <ele>1643.99</ele>
        <time>2015-02-25T14:48:20Z</time>
      </trkpt>
      <trkpt lat="46.88494" lon="12.16882">
        <ele>1643.99</ele>
        <time>2015-02-25T14:48:37Z</time>
      </trkpt>
      <trkpt lat="46.88483" lon="12.16864">
        <ele>1643.99</ele>
        <time>2015-02-25T14:48:54Z</time>
      </trkpt>
      <trkpt lat="46.88475" lon="12.16849">
        <ele>1643.99</ele>
        <time>2015-02-25T14:49:07Z</time>
      </trkpt>
      <trkpt lat="46.88464" lon="12.1683">
        <ele>1643.99</ele>
        <time>2015-02-25T14:49:23Z</time>
      </trkpt>
      <trkpt lat="46.88455" lon="12.16814">
        <ele>1643.99</ele>
        <time>2015-02-25T14:49:37Z</time>
      </trkpt>
      <trkpt lat="46.88447" lon="12.16802">
        <ele>1643.51</ele>
        <time>2015-02-25T14:49:51Z</time>
      </trkpt>
      <trkpt lat="46.88438" lon="12.16782">
        <ele>1643.99</ele>
        <time>2015-02-25T14:50:07Z</time>
      </trkpt>
      <trkpt lat="46.88428" lon="12.16768">
        <ele>1643.99</ele>
        <time>2015-02-25T14:50:22Z</time>
      </trkpt>
      <trkpt lat="46.8842" lon="12.16753">
        <ele>1643.99</ele>
        <time>2015-02-25T14:50:35Z</time>
      </trkpt>
      <trkpt lat="46.88416" lon="12.16746">
        <ele>1643.99</ele>
        <time>2015-02-25T14:50:39Z</time>
      </trkpt>
      <trkpt lat="46.88402" lon="12.16724">
        <ele>1643.99</ele>
        <time>2015-02-25T14:50:50Z</time>
      </trkpt>
      <trkpt lat="46.88401" lon="12.16723">
        <ele>1643.99</ele>
        <time>2015-02-25T14:50:51Z</time>
      </trkpt>
      <trkpt lat="46.88398" lon="12.16714">
        <ele>1643.51</ele>
        <time>2015-02-25T14:50:55Z</time>
      </trkpt>
      <trkpt lat="46.88393" lon="12.16706">
        <ele>1643.51</ele>
        <time>2015-02-25T14:50:59Z</time>
      </trkpt>
      <trkpt lat="46.88385" lon="12.16688">
        <ele>1643.99</ele>
        <time>2015-02-25T14:51:14Z</time>
      </trkpt>
      <trkpt lat="46.88378" lon="12.16675">
        <ele>1643.99</ele>
        <time>2015-02-25T14:51:27Z</time>
      </trkpt>
      <trkpt lat="46.88369" lon="12.16662">
        <ele>1643.99</ele>
        <time>2015-02-25T14:51:40Z</time>
      </trkpt>
      <trkpt lat="46.88362" lon="12.16647">
        <ele>1643.99</ele>
        <time>2015-02-25T14:51:53Z</time>
      </trkpt>
      <trkpt lat="46.88353" lon="12.16631">
        <ele>1643.99</ele>
        <time>2015-02-25T14:52:07Z</time>
      </trkpt>
      <trkpt lat="46.88342" lon="12.16612">
        <ele>1644.47</ele>
        <time>2015-02-25T14:52:25Z</time>
      </trkpt>
      <trkpt lat="46.88332" lon="12.16597">
        <ele>1644.47</ele>
        <time>2015-02-25T14:52:40Z</time>
      </trkpt>
      <trkpt lat="46.88322" lon="12.16581">
        <ele>1644.47</ele>
        <time>2015-02-25T14:52:53Z</time>
      </trkpt>
      <trkpt lat="46.88314" lon="12.16566">
        <ele>1643.99</ele>
        <time>2015-02-25T14:53:06Z</time>
      </trkpt>
      <trkpt lat="46.88305" lon="12.16551">
        <ele>1644.47</ele>
        <time>2015-02-25T14:53:21Z</time>
      </trkpt>
      <trkpt lat="46.88296" lon="12.16535">
        <ele>1644.47</ele>
        <time>2015-02-25T14:53:35Z</time>
      </trkpt>
      <trkpt lat="46.88285" lon="12.16515">
        <ele>1644.95</ele>
        <time>2015-02-25T14:53:53Z</time>
      </trkpt>
      <trkpt lat="46.88277" lon="12.16497">
        <ele>1644.95</ele>
        <time>2015-02-25T14:54:09Z</time>
      </trkpt>
      <trkpt lat="46.88278" lon="12.16495">
        <ele>1644.47</ele>
        <time>2015-02-25T14:54:11Z</time>
      </trkpt>
      <trkpt lat="46.88284" lon="12.1647">
        <ele>1644.47</ele>
        <time>2015-02-25T14:54:23Z</time>
      </trkpt>
      <trkpt lat="46.883" lon="12.16448">
        <ele>1644.47</ele>
        <time>2015-02-25T14:54:35Z</time>
      </trkpt>
      <trkpt lat="46.88311" lon="12.16432">
        <ele>1644.47</ele>
        <time>2015-02-25T14:54:52Z</time>
      </trkpt>
      <trkpt lat="46.8832" lon="12.16417">
        <ele>1644.47</ele>
        <time>2015-02-25T14:55:06Z</time>
      </trkpt>
      <trkpt lat="46.88328" lon="12.16395">
        <ele>1644.95</ele>
        <time>2015-02-25T14:55:23Z</time>
      </trkpt>
      <trkpt lat="46.88335" lon="12.1637">
        <ele>1644.47</ele>
        <time>2015-02-25T14:55:42Z</time>
      </trkpt>
      <trkpt lat="46.88345" lon="12.16349">
        <ele>1644.95</ele>
        <time>2015-02-25T14:56:00Z</time>
      </trkpt>
      <trkpt lat="46.8835" lon="12.16328">
        <ele>1644.47</ele>
        <time>2015-02-25T14:56:17Z</time>
      </trkpt>
      <trkpt lat="46.88351" lon="12.1631">
        <ele>1644.95</ele>
        <time>2015-02-25T14:56:35Z</time>
      </trkpt>
      <trkpt lat="46.88351" lon="12.16301">
        <ele>1645.91</ele>
        <time>2015-02-25T14:56:52Z</time>
      </trkpt>
      <trkpt lat="46.88354" lon="12.16292">
        <ele>1646.4</ele>
        <time>2015-02-25T14:57:06Z</time>
      </trkpt>
      <trkpt lat="46.88356" lon="12.16283">
        <ele>1646.88</ele>
        <time>2015-02-25T14:57:18Z</time>
      </trkpt>
      <trkpt lat="46.88361" lon="12.16275">
        <ele>1647.36</ele>
        <time>2015-02-25T14:57:35Z</time>
      </trkpt>
      <trkpt lat="46.88365" lon="12.16269">
        <ele>1647.84</ele>
        <time>2015-02-25T14:57:50Z</time>
      </trkpt>
      <trkpt lat="46.88372" lon="12.1625">
        <ele>1647.84</ele>
        <time>2015-02-25T14:58:08Z</time>
      </trkpt>
      <trkpt lat="46.88368" lon="12.16226">
        <ele>1648.32</ele>
        <time>2015-02-25T14:58:25Z</time>
      </trkpt>
      <trkpt lat="46.88361" lon="12.16212">
        <ele>1648.32</ele>
        <time>2015-02-25T14:58:40Z</time>
      </trkpt>
      <trkpt lat="46.88355" lon="12.16203">
        <ele>1648.32</ele>
        <time>2015-02-25T14:58:56Z</time>
      </trkpt>
      <trkpt lat="46.88358" lon="12.16187">
        <ele>1647.84</ele>
        <time>2015-02-25T14:59:11Z</time>
      </trkpt>
      <trkpt lat="46.88358" lon="12.1617">
        <ele>1647.84</ele>
        <time>2015-02-25T14:59:27Z</time>
      </trkpt>
      <trkpt lat="46.88358" lon="12.16136">
        <ele>1647.84</ele>
        <time>2015-02-25T14:59:47Z</time>
      </trkpt>
      <trkpt lat="46.88359" lon="12.16105">
        <ele>1648.32</ele>
        <time>2015-02-25T15:00:05Z</time>
      </trkpt>
      <trkpt lat="46.88358" lon="12.16077">
        <ele>1648.32</ele>
        <time>2015-02-25T15:00:23Z</time>
      </trkpt>
      <trkpt lat="46.88359" lon="12.16049">
        <ele>1647.84</ele>
        <time>2015-02-25T15:00:41Z</time>
      </trkpt>
      <trkpt lat="46.88361" lon="12.16027">
        <ele>1647.36</ele>
        <time>2015-02-25T15:00:58Z</time>
      </trkpt>
      <trkpt lat="46.88362" lon="12.16001">
        <ele>1647.84</ele>
        <time>2015-02-25T15:01:15Z</time>
      </trkpt>
      <trkpt lat="46.88373" lon="12.15976">
        <ele>1647.36</ele>
        <time>2015-02-25T15:01:37Z</time>
      </trkpt>
      <trkpt lat="46.88379" lon="12.15942">
        <ele>1647.84</ele>
        <time>2015-02-25T15:02:00Z</time>
      </trkpt>
      <trkpt lat="46.88382" lon="12.15912">
        <ele>1648.32</ele>
        <time>2015-02-25T15:02:21Z</time>
      </trkpt>
      <trkpt lat="46.88386" lon="12.15886">
        <ele>1648.32</ele>
        <time>2015-02-25T15:02:40Z</time>
      </trkpt>
      <trkpt lat="46.8839" lon="12.15865">
        <ele>1648.32</ele>
        <time>2015-02-25T15:02:55Z</time>
      </trkpt>
      <trkpt lat="46.88392" lon="12.15842">
        <ele>1648.32</ele>
        <time>2015-02-25T15:03:13Z</time>
      </trkpt>
      <trkpt lat="46.88392" lon="12.15835">
        <ele>1648.32</ele>
        <time>2015-02-25T15:03:17Z</time>
      </trkpt>
      <trkpt lat="46.8839" lon="12.15817">
        <ele>1648.32</ele>
        <time>2015-02-25T15:03:34Z</time>
      </trkpt>
      <trkpt lat="46.88394" lon="12.15815">
        <ele>1647.84</ele>
        <time>2015-02-25T15:03:52Z</time>
      </trkpt>
      <trkpt lat="46.88394" lon="12.15815">
        <ele>1647.84</ele>
        <time>2015-02-25T15:04:11Z</time>
      </trkpt>
      <trkpt lat="46.88392" lon="12.15813">
        <ele>1644.47</ele>
        <time>2015-02-25T15:04:24Z</time>
      </trkpt>
      <trkpt lat="46.88389" lon="12.15808">
        <ele>1646.88</ele>
        <time>2015-02-25T15:04:54Z</time>
      </trkpt>
      <trkpt lat="46.88395" lon="12.15817">
        <ele>1647.36</ele>
        <time>2015-02-25T15:05:20Z</time>
      </trkpt>
      <trkpt lat="46.88394" lon="12.15821">
        <ele>1647.36</ele>
        <time>2015-02-25T15:05:41Z</time>
      </trkpt>
      <trkpt lat="46.88393" lon="12.15814">
        <ele>1647.84</ele>
        <time>2015-02-25T15:06:04Z</time>
      </trkpt>
      <trkpt lat="46.88392" lon="12.15818">
        <ele>1648.8</ele>
        <time>2015-02-25T15:06:23Z</time>
      </trkpt>
    </trkseg>
  </trk>
</gpx>